<?xml version="1.0" encoding="UTF-8" standalone="no" ?>
<gpx xmlns="http://www.topografix.com/GPX/1/1" xmlns:xsi="http://www.w3.org/2001/XMLSchema-instance" xsi:schemaLocation="http://www.topografix.com/GPX/1/1 http://www.topografix.com/GPX/1/1/gpx.xsd" version="1.1" creator="VisuGPX - https://www.visugpx.com">
  <metadata>
    <name> 2025 Virignin -St Pierre Jour 3</name>
    <desc><![CDATA[Étape sans difficulté 
]]></desc>
  </metadata>
  <trk>
    <name><![CDATA[SityTrail - 2025 Verignin J3]]></name>
    <trkseg>
      <trkpt lat="45.73627" lon="5.71772">
        <ele>247</ele>
        <time>2025-05-03T08:29:20.260Z</time>
      </trkpt>
      <trkpt lat="45.73627" lon="5.71772">
        <ele>247</ele>
        <time>2025-05-03T08:29:21.268Z</time>
      </trkpt>
      <trkpt lat="45.73626" lon="5.71774">
        <ele>247</ele>
        <time>2025-05-03T08:29:26.254Z</time>
      </trkpt>
      <trkpt lat="45.73623" lon="5.71783">
        <ele>250</ele>
        <time>2025-05-03T08:29:31.102Z</time>
      </trkpt>
      <trkpt lat="45.73621" lon="5.71792">
        <ele>250</ele>
        <time>2025-05-03T08:29:35.247Z</time>
      </trkpt>
      <trkpt lat="45.73611" lon="5.71802">
        <ele>250</ele>
        <time>2025-05-03T08:30:28.214Z</time>
      </trkpt>
      <trkpt lat="45.7361" lon="5.71802">
        <ele>250</ele>
        <time>2025-05-03T08:30:34.222Z</time>
      </trkpt>
      <trkpt lat="45.7361" lon="5.71802">
        <ele>250</ele>
        <time>2025-05-03T08:30:39.207Z</time>
      </trkpt>
      <trkpt lat="45.7361" lon="5.71801">
        <ele>250</ele>
        <time>2025-05-03T08:30:44.212Z</time>
      </trkpt>
      <trkpt lat="45.73609" lon="5.71801">
        <ele>250</ele>
        <time>2025-05-03T08:30:48.215Z</time>
      </trkpt>
      <trkpt lat="45.73605" lon="5.71795">
        <ele>250</ele>
        <time>2025-05-03T08:31:05.783Z</time>
      </trkpt>
      <trkpt lat="45.73604" lon="5.71794">
        <ele>250</ele>
        <time>2025-05-03T08:31:09.943Z</time>
      </trkpt>
      <trkpt lat="45.73604" lon="5.71793">
        <ele>250</ele>
        <time>2025-05-03T08:31:14.663Z</time>
      </trkpt>
      <trkpt lat="45.73604" lon="5.71792">
        <ele>250</ele>
        <time>2025-05-03T08:31:18.802Z</time>
      </trkpt>
      <trkpt lat="45.73603" lon="5.71787">
        <ele>250</ele>
        <time>2025-05-03T08:31:23.181Z</time>
      </trkpt>
      <trkpt lat="45.73598" lon="5.71793">
        <ele>250</ele>
        <time>2025-05-03T08:31:50.079Z</time>
      </trkpt>
      <trkpt lat="45.73597" lon="5.71793">
        <ele>248</ele>
        <time>2025-05-03T08:31:54.260Z</time>
      </trkpt>
      <trkpt lat="45.73596" lon="5.71793">
        <ele>248</ele>
        <time>2025-05-03T08:31:58.989Z</time>
      </trkpt>
      <trkpt lat="45.73594" lon="5.71793">
        <ele>248</ele>
        <time>2025-05-03T08:32:03.130Z</time>
      </trkpt>
      <trkpt lat="45.7359" lon="5.71792">
        <ele>248</ele>
        <time>2025-05-03T08:32:07.251Z</time>
      </trkpt>
      <trkpt lat="45.73589" lon="5.71791">
        <ele>248</ele>
        <time>2025-05-03T08:32:11.261Z</time>
      </trkpt>
      <trkpt lat="45.73588" lon="5.71791">
        <ele>248</ele>
        <time>2025-05-03T08:32:15.868Z</time>
      </trkpt>
      <trkpt lat="45.73587" lon="5.71791">
        <ele>248</ele>
        <time>2025-05-03T08:32:19.931Z</time>
      </trkpt>
      <trkpt lat="45.73582" lon="5.71792">
        <ele>248</ele>
        <time>2025-05-03T08:32:24.007Z</time>
      </trkpt>
      <trkpt lat="45.73576" lon="5.71793">
        <ele>248</ele>
        <time>2025-05-03T08:32:28.262Z</time>
      </trkpt>
      <trkpt lat="45.73571" lon="5.71796">
        <ele>248</ele>
        <time>2025-05-03T08:32:33.258Z</time>
      </trkpt>
      <trkpt lat="45.73566" lon="5.71799">
        <ele>244</ele>
        <time>2025-05-03T08:32:37.706Z</time>
      </trkpt>
      <trkpt lat="45.73562" lon="5.71804">
        <ele>244</ele>
        <time>2025-05-03T08:32:41.766Z</time>
      </trkpt>
      <trkpt lat="45.73557" lon="5.7181">
        <ele>244</ele>
        <time>2025-05-03T08:32:45.946Z</time>
      </trkpt>
      <trkpt lat="45.73554" lon="5.71814">
        <ele>244</ele>
        <time>2025-05-03T08:32:50.065Z</time>
      </trkpt>
      <trkpt lat="45.7355" lon="5.71819">
        <ele>244</ele>
        <time>2025-05-03T08:32:54.265Z</time>
      </trkpt>
      <trkpt lat="45.73545" lon="5.71824">
        <ele>244</ele>
        <time>2025-05-03T08:32:58.401Z</time>
      </trkpt>
      <trkpt lat="45.73537" lon="5.71829">
        <ele>242</ele>
        <time>2025-05-03T08:33:03.041Z</time>
      </trkpt>
      <trkpt lat="45.73528" lon="5.71833">
        <ele>242</ele>
        <time>2025-05-03T08:33:07.563Z</time>
      </trkpt>
      <trkpt lat="45.73521" lon="5.71833">
        <ele>242</ele>
        <time>2025-05-03T08:33:11.601Z</time>
      </trkpt>
      <trkpt lat="45.73515" lon="5.71829">
        <ele>242</ele>
        <time>2025-05-03T08:33:15.942Z</time>
      </trkpt>
      <trkpt lat="45.73511" lon="5.71827">
        <ele>239</ele>
        <time>2025-05-03T08:33:20.252Z</time>
      </trkpt>
      <trkpt lat="45.73503" lon="5.71825">
        <ele>239</ele>
        <time>2025-05-03T08:33:24.822Z</time>
      </trkpt>
      <trkpt lat="45.73496" lon="5.71822">
        <ele>239</ele>
        <time>2025-05-03T08:33:29.263Z</time>
      </trkpt>
      <trkpt lat="45.73488" lon="5.7182">
        <ele>239</ele>
        <time>2025-05-03T08:33:34.247Z</time>
      </trkpt>
      <trkpt lat="45.73481" lon="5.71818">
        <ele>234</ele>
        <time>2025-05-03T08:33:38.265Z</time>
      </trkpt>
      <trkpt lat="45.73473" lon="5.71815">
        <ele>234</ele>
        <time>2025-05-03T08:33:43.256Z</time>
      </trkpt>
      <trkpt lat="45.73467" lon="5.71812">
        <ele>234</ele>
        <time>2025-05-03T08:33:47.608Z</time>
      </trkpt>
      <trkpt lat="45.7346" lon="5.71809">
        <ele>234</ele>
        <time>2025-05-03T08:33:52.251Z</time>
      </trkpt>
      <trkpt lat="45.73452" lon="5.71807">
        <ele>235</ele>
        <time>2025-05-03T08:33:57.245Z</time>
      </trkpt>
      <trkpt lat="45.73444" lon="5.71805">
        <ele>235</ele>
        <time>2025-05-03T08:34:01.766Z</time>
      </trkpt>
      <trkpt lat="45.73438" lon="5.71804">
        <ele>235</ele>
        <time>2025-05-03T08:34:05.806Z</time>
      </trkpt>
      <trkpt lat="45.73432" lon="5.71802">
        <ele>235</ele>
        <time>2025-05-03T08:34:10.260Z</time>
      </trkpt>
      <trkpt lat="45.73426" lon="5.71802">
        <ele>233</ele>
        <time>2025-05-03T08:34:14.253Z</time>
      </trkpt>
      <trkpt lat="45.73418" lon="5.71799">
        <ele>233</ele>
        <time>2025-05-03T08:34:18.904Z</time>
      </trkpt>
      <trkpt lat="45.73411" lon="5.71797">
        <ele>233</ele>
        <time>2025-05-03T08:34:23.258Z</time>
      </trkpt>
      <trkpt lat="45.73404" lon="5.71795">
        <ele>233</ele>
        <time>2025-05-03T08:34:27.842Z</time>
      </trkpt>
      <trkpt lat="45.73398" lon="5.71795">
        <ele>231</ele>
        <time>2025-05-03T08:34:32.162Z</time>
      </trkpt>
      <trkpt lat="45.73392" lon="5.71793">
        <ele>231</ele>
        <time>2025-05-03T08:34:36.221Z</time>
      </trkpt>
      <trkpt lat="45.73386" lon="5.71791">
        <ele>230</ele>
        <time>2025-05-03T08:34:40.341Z</time>
      </trkpt>
      <trkpt lat="45.73383" lon="5.71791">
        <ele>230</ele>
        <time>2025-05-03T08:34:44.843Z</time>
      </trkpt>
      <trkpt lat="45.73378" lon="5.7179">
        <ele>230</ele>
        <time>2025-05-03T08:34:49.002Z</time>
      </trkpt>
      <trkpt lat="45.73372" lon="5.71787">
        <ele>229</ele>
        <time>2025-05-03T08:34:53.221Z</time>
      </trkpt>
      <trkpt lat="45.73367" lon="5.71786">
        <ele>229</ele>
        <time>2025-05-03T08:34:57.722Z</time>
      </trkpt>
      <trkpt lat="45.73361" lon="5.71785">
        <ele>229</ele>
        <time>2025-05-03T08:35:01.860Z</time>
      </trkpt>
      <trkpt lat="45.73355" lon="5.71783">
        <ele>229</ele>
        <time>2025-05-03T08:35:06.080Z</time>
      </trkpt>
      <trkpt lat="45.73348" lon="5.71783">
        <ele>229</ele>
        <time>2025-05-03T08:35:10.260Z</time>
      </trkpt>
      <trkpt lat="45.73342" lon="5.71782">
        <ele>228</ele>
        <time>2025-05-03T08:35:14.741Z</time>
      </trkpt>
      <trkpt lat="45.73334" lon="5.71779">
        <ele>228</ele>
        <time>2025-05-03T08:35:19.249Z</time>
      </trkpt>
      <trkpt lat="45.7333" lon="5.71778">
        <ele>228</ele>
        <time>2025-05-03T08:35:23.439Z</time>
      </trkpt>
      <trkpt lat="45.73324" lon="5.71776">
        <ele>228</ele>
        <time>2025-05-03T08:35:28.254Z</time>
      </trkpt>
      <trkpt lat="45.73318" lon="5.71775">
        <ele>229</ele>
        <time>2025-05-03T08:35:32.959Z</time>
      </trkpt>
      <trkpt lat="45.73311" lon="5.71772">
        <ele>229</ele>
        <time>2025-05-03T08:35:36.979Z</time>
      </trkpt>
      <trkpt lat="45.73303" lon="5.71769">
        <ele>229</ele>
        <time>2025-05-03T08:35:41.078Z</time>
      </trkpt>
      <trkpt lat="45.73296" lon="5.7177">
        <ele>229</ele>
        <time>2025-05-03T08:35:45.245Z</time>
      </trkpt>
      <trkpt lat="45.73292" lon="5.71773">
        <ele>229</ele>
        <time>2025-05-03T08:35:49.729Z</time>
      </trkpt>
      <trkpt lat="45.73284" lon="5.71769">
        <ele>229</ele>
        <time>2025-05-03T08:35:53.785Z</time>
      </trkpt>
      <trkpt lat="45.73278" lon="5.71768">
        <ele>229</ele>
        <time>2025-05-03T08:35:58.256Z</time>
      </trkpt>
      <trkpt lat="45.73273" lon="5.71765">
        <ele>229</ele>
        <time>2025-05-03T08:36:02.486Z</time>
      </trkpt>
      <trkpt lat="45.73267" lon="5.71763">
        <ele>229</ele>
        <time>2025-05-03T08:36:06.784Z</time>
      </trkpt>
      <trkpt lat="45.7326" lon="5.71763">
        <ele>227</ele>
        <time>2025-05-03T08:36:10.884Z</time>
      </trkpt>
      <trkpt lat="45.73253" lon="5.71761">
        <ele>227</ele>
        <time>2025-05-03T08:36:15.256Z</time>
      </trkpt>
      <trkpt lat="45.73246" lon="5.71761">
        <ele>227</ele>
        <time>2025-05-03T08:36:19.584Z</time>
      </trkpt>
      <trkpt lat="45.73238" lon="5.71761">
        <ele>227</ele>
        <time>2025-05-03T08:36:24.266Z</time>
      </trkpt>
      <trkpt lat="45.73232" lon="5.71762">
        <ele>228</ele>
        <time>2025-05-03T08:36:29.254Z</time>
      </trkpt>
      <trkpt lat="45.73228" lon="5.71763">
        <ele>228</ele>
        <time>2025-05-03T08:36:33.821Z</time>
      </trkpt>
      <trkpt lat="45.73223" lon="5.71763">
        <ele>228</ele>
        <time>2025-05-03T08:36:38.241Z</time>
      </trkpt>
      <trkpt lat="45.73216" lon="5.71764">
        <ele>228</ele>
        <time>2025-05-03T08:36:43.120Z</time>
      </trkpt>
      <trkpt lat="45.73208" lon="5.71765">
        <ele>231</ele>
        <time>2025-05-03T08:36:47.661Z</time>
      </trkpt>
      <trkpt lat="45.732" lon="5.71766">
        <ele>231</ele>
        <time>2025-05-03T08:36:52.100Z</time>
      </trkpt>
      <trkpt lat="45.73193" lon="5.71766">
        <ele>231</ele>
        <time>2025-05-03T08:36:56.259Z</time>
      </trkpt>
      <trkpt lat="45.73188" lon="5.71766">
        <ele>231</ele>
        <time>2025-05-03T08:37:00.700Z</time>
      </trkpt>
      <trkpt lat="45.73183" lon="5.71765">
        <ele>231</ele>
        <time>2025-05-03T08:37:05.099Z</time>
      </trkpt>
      <trkpt lat="45.73176" lon="5.71764">
        <ele>232</ele>
        <time>2025-05-03T08:37:09.630Z</time>
      </trkpt>
      <trkpt lat="45.73168" lon="5.71765">
        <ele>232</ele>
        <time>2025-05-03T08:37:14.251Z</time>
      </trkpt>
      <trkpt lat="45.73157" lon="5.71766">
        <ele>232</ele>
        <time>2025-05-03T08:37:19.147Z</time>
      </trkpt>
      <trkpt lat="45.7315" lon="5.71767">
        <ele>232</ele>
        <time>2025-05-03T08:37:23.387Z</time>
      </trkpt>
      <trkpt lat="45.73144" lon="5.71768">
        <ele>232</ele>
        <time>2025-05-03T08:37:27.528Z</time>
      </trkpt>
      <trkpt lat="45.73139" lon="5.71768">
        <ele>232</ele>
        <time>2025-05-03T08:37:31.647Z</time>
      </trkpt>
      <trkpt lat="45.73134" lon="5.71768">
        <ele>232</ele>
        <time>2025-05-03T08:37:35.765Z</time>
      </trkpt>
      <trkpt lat="45.73128" lon="5.71768">
        <ele>232</ele>
        <time>2025-05-03T08:37:39.827Z</time>
      </trkpt>
      <trkpt lat="45.73121" lon="5.71771">
        <ele>231</ele>
        <time>2025-05-03T08:37:43.924Z</time>
      </trkpt>
      <trkpt lat="45.73115" lon="5.71779">
        <ele>231</ele>
        <time>2025-05-03T08:37:48.044Z</time>
      </trkpt>
      <trkpt lat="45.7311" lon="5.7179">
        <ele>231</ele>
        <time>2025-05-03T08:37:52.122Z</time>
      </trkpt>
      <trkpt lat="45.73107" lon="5.71803">
        <ele>229</ele>
        <time>2025-05-03T08:37:57.183Z</time>
      </trkpt>
      <trkpt lat="45.73104" lon="5.7181">
        <ele>229</ele>
        <time>2025-05-03T08:38:01.743Z</time>
      </trkpt>
      <trkpt lat="45.73102" lon="5.71818">
        <ele>229</ele>
        <time>2025-05-03T08:38:05.822Z</time>
      </trkpt>
      <trkpt lat="45.73101" lon="5.71827">
        <ele>228</ele>
        <time>2025-05-03T08:38:10.248Z</time>
      </trkpt>
      <trkpt lat="45.73101" lon="5.71835">
        <ele>228</ele>
        <time>2025-05-03T08:38:14.522Z</time>
      </trkpt>
      <trkpt lat="45.731" lon="5.71845">
        <ele>228</ele>
        <time>2025-05-03T08:38:19.161Z</time>
      </trkpt>
      <trkpt lat="45.73099" lon="5.7185">
        <ele>228</ele>
        <time>2025-05-03T08:38:23.264Z</time>
      </trkpt>
      <trkpt lat="45.73099" lon="5.71854">
        <ele>228</ele>
        <time>2025-05-03T08:38:29.268Z</time>
      </trkpt>
      <trkpt lat="45.73097" lon="5.71862">
        <ele>228</ele>
        <time>2025-05-03T08:38:34.120Z</time>
      </trkpt>
      <trkpt lat="45.73096" lon="5.71871">
        <ele>228</ele>
        <time>2025-05-03T08:38:38.247Z</time>
      </trkpt>
      <trkpt lat="45.73088" lon="5.7187">
        <ele>228</ele>
        <time>2025-05-03T08:38:42.840Z</time>
      </trkpt>
      <trkpt lat="45.73086" lon="5.7187">
        <ele>228</ele>
        <time>2025-05-03T08:38:47.257Z</time>
      </trkpt>
      <trkpt lat="45.73087" lon="5.71874">
        <ele>228</ele>
        <time>2025-05-03T08:38:51.460Z</time>
      </trkpt>
      <trkpt lat="45.73085" lon="5.71883">
        <ele>229</ele>
        <time>2025-05-03T08:38:56.079Z</time>
      </trkpt>
      <trkpt lat="45.73084" lon="5.71894">
        <ele>229</ele>
        <time>2025-05-03T08:39:00.121Z</time>
      </trkpt>
      <trkpt lat="45.73082" lon="5.71909">
        <ele>232</ele>
        <time>2025-05-03T08:39:04.340Z</time>
      </trkpt>
      <trkpt lat="45.73083" lon="5.71919">
        <ele>232</ele>
        <time>2025-05-03T08:39:08.331Z</time>
      </trkpt>
      <trkpt lat="45.73085" lon="5.71929">
        <ele>232</ele>
        <time>2025-05-03T08:39:12.499Z</time>
      </trkpt>
      <trkpt lat="45.73085" lon="5.7194">
        <ele>237</ele>
        <time>2025-05-03T08:39:16.819Z</time>
      </trkpt>
      <trkpt lat="45.73082" lon="5.7195">
        <ele>237</ele>
        <time>2025-05-03T08:39:21.139Z</time>
      </trkpt>
      <trkpt lat="45.73077" lon="5.71957">
        <ele>237</ele>
        <time>2025-05-03T08:39:25.619Z</time>
      </trkpt>
      <trkpt lat="45.73074" lon="5.7196">
        <ele>244</ele>
        <time>2025-05-03T08:39:29.638Z</time>
      </trkpt>
      <trkpt lat="45.73068" lon="5.71962">
        <ele>244</ele>
        <time>2025-05-03T08:39:33.948Z</time>
      </trkpt>
      <trkpt lat="45.73063" lon="5.71963">
        <ele>244</ele>
        <time>2025-05-03T08:39:37.987Z</time>
      </trkpt>
      <trkpt lat="45.73057" lon="5.71963">
        <ele>244</ele>
        <time>2025-05-03T08:39:42.067Z</time>
      </trkpt>
      <trkpt lat="45.73051" lon="5.71962">
        <ele>244</ele>
        <time>2025-05-03T08:39:46.279Z</time>
      </trkpt>
      <trkpt lat="45.73043" lon="5.7196">
        <ele>244</ele>
        <time>2025-05-03T08:39:50.748Z</time>
      </trkpt>
      <trkpt lat="45.73038" lon="5.71959">
        <ele>244</ele>
        <time>2025-05-03T08:39:54.909Z</time>
      </trkpt>
      <trkpt lat="45.73031" lon="5.7196">
        <ele>244</ele>
        <time>2025-05-03T08:39:59.487Z</time>
      </trkpt>
      <trkpt lat="45.73026" lon="5.71959">
        <ele>244</ele>
        <time>2025-05-03T08:40:03.568Z</time>
      </trkpt>
      <trkpt lat="45.73021" lon="5.71958">
        <ele>238</ele>
        <time>2025-05-03T08:40:07.627Z</time>
      </trkpt>
      <trkpt lat="45.73015" lon="5.71955">
        <ele>238</ele>
        <time>2025-05-03T08:40:11.667Z</time>
      </trkpt>
      <trkpt lat="45.73009" lon="5.71954">
        <ele>237</ele>
        <time>2025-05-03T08:40:15.749Z</time>
      </trkpt>
      <trkpt lat="45.73001" lon="5.71951">
        <ele>237</ele>
        <time>2025-05-03T08:40:20.260Z</time>
      </trkpt>
      <trkpt lat="45.72994" lon="5.71949">
        <ele>237</ele>
        <time>2025-05-03T08:40:24.546Z</time>
      </trkpt>
      <trkpt lat="45.72987" lon="5.71946">
        <ele>237</ele>
        <time>2025-05-03T08:40:29.208Z</time>
      </trkpt>
      <trkpt lat="45.7298" lon="5.71944">
        <ele>237</ele>
        <time>2025-05-03T08:40:33.253Z</time>
      </trkpt>
      <trkpt lat="45.72974" lon="5.71945">
        <ele>237</ele>
        <time>2025-05-03T08:40:37.268Z</time>
      </trkpt>
      <trkpt lat="45.72966" lon="5.71946">
        <ele>237</ele>
        <time>2025-05-03T08:40:41.947Z</time>
      </trkpt>
      <trkpt lat="45.7296" lon="5.71947">
        <ele>237</ele>
        <time>2025-05-03T08:40:46.027Z</time>
      </trkpt>
      <trkpt lat="45.72953" lon="5.71946">
        <ele>239</ele>
        <time>2025-05-03T08:40:50.106Z</time>
      </trkpt>
      <trkpt lat="45.72946" lon="5.71949">
        <ele>239</ele>
        <time>2025-05-03T08:40:54.666Z</time>
      </trkpt>
      <trkpt lat="45.72947" lon="5.71948">
        <ele>239</ele>
        <time>2025-05-03T08:40:59.261Z</time>
      </trkpt>
      <trkpt lat="45.72947" lon="5.71953">
        <ele>239</ele>
        <time>2025-05-03T08:41:04.258Z</time>
      </trkpt>
      <trkpt lat="45.72946" lon="5.71954">
        <ele>239</ele>
        <time>2025-05-03T08:41:09.279Z</time>
      </trkpt>
      <trkpt lat="45.72945" lon="5.71958">
        <ele>239</ele>
        <time>2025-05-03T08:41:14.280Z</time>
      </trkpt>
      <trkpt lat="45.72943" lon="5.71962">
        <ele>244</ele>
        <time>2025-05-03T08:41:19.265Z</time>
      </trkpt>
      <trkpt lat="45.72942" lon="5.71962">
        <ele>244</ele>
        <time>2025-05-03T08:41:29.255Z</time>
      </trkpt>
      <trkpt lat="45.72942" lon="5.71961">
        <ele>244</ele>
        <time>2025-05-03T08:41:33.721Z</time>
      </trkpt>
      <trkpt lat="45.72942" lon="5.71956">
        <ele>239</ele>
        <time>2025-05-03T08:41:38.200Z</time>
      </trkpt>
      <trkpt lat="45.7294" lon="5.71952">
        <ele>239</ele>
        <time>2025-05-03T08:41:42.257Z</time>
      </trkpt>
      <trkpt lat="45.72938" lon="5.71951">
        <ele>239</ele>
        <time>2025-05-03T08:41:47.001Z</time>
      </trkpt>
      <trkpt lat="45.72933" lon="5.7195">
        <ele>239</ele>
        <time>2025-05-03T08:42:15.259Z</time>
      </trkpt>
      <trkpt lat="45.72932" lon="5.7195">
        <ele>239</ele>
        <time>2025-05-03T08:42:19.273Z</time>
      </trkpt>
      <trkpt lat="45.72932" lon="5.7195">
        <ele>239</ele>
        <time>2025-05-03T08:42:24.233Z</time>
      </trkpt>
      <trkpt lat="45.72928" lon="5.71948">
        <ele>243</ele>
        <time>2025-05-03T08:42:28.261Z</time>
      </trkpt>
      <trkpt lat="45.72923" lon="5.71945">
        <ele>243</ele>
        <time>2025-05-03T08:42:32.766Z</time>
      </trkpt>
      <trkpt lat="45.72917" lon="5.7194">
        <ele>243</ele>
        <time>2025-05-03T08:42:37.245Z</time>
      </trkpt>
      <trkpt lat="45.7291" lon="5.71937">
        <ele>243</ele>
        <time>2025-05-03T08:42:41.666Z</time>
      </trkpt>
      <trkpt lat="45.72905" lon="5.71938">
        <ele>243</ele>
        <time>2025-05-03T08:42:46.205Z</time>
      </trkpt>
      <trkpt lat="45.72899" lon="5.71934">
        <ele>244</ele>
        <time>2025-05-03T08:42:50.726Z</time>
      </trkpt>
      <trkpt lat="45.72896" lon="5.71933">
        <ele>244</ele>
        <time>2025-05-03T08:42:54.825Z</time>
      </trkpt>
      <trkpt lat="45.72891" lon="5.71931">
        <ele>244</ele>
        <time>2025-05-03T08:43:00.044Z</time>
      </trkpt>
      <trkpt lat="45.72886" lon="5.71927">
        <ele>239</ele>
        <time>2025-05-03T08:43:04.257Z</time>
      </trkpt>
      <trkpt lat="45.7288" lon="5.71924">
        <ele>239</ele>
        <time>2025-05-03T08:43:08.705Z</time>
      </trkpt>
      <trkpt lat="45.72875" lon="5.71922">
        <ele>241</ele>
        <time>2025-05-03T08:43:13.026Z</time>
      </trkpt>
      <trkpt lat="45.7287" lon="5.7192">
        <ele>241</ele>
        <time>2025-05-03T08:43:17.273Z</time>
      </trkpt>
      <trkpt lat="45.72864" lon="5.71919">
        <ele>241</ele>
        <time>2025-05-03T08:43:21.806Z</time>
      </trkpt>
      <trkpt lat="45.72857" lon="5.7192">
        <ele>241</ele>
        <time>2025-05-03T08:43:26.243Z</time>
      </trkpt>
      <trkpt lat="45.72849" lon="5.71919">
        <ele>241</ele>
        <time>2025-05-03T08:43:30.923Z</time>
      </trkpt>
      <trkpt lat="45.72844" lon="5.71916">
        <ele>246</ele>
        <time>2025-05-03T08:43:35.024Z</time>
      </trkpt>
      <trkpt lat="45.72839" lon="5.71915">
        <ele>246</ele>
        <time>2025-05-03T08:43:39.255Z</time>
      </trkpt>
      <trkpt lat="45.72834" lon="5.71914">
        <ele>246</ele>
        <time>2025-05-03T08:43:43.624Z</time>
      </trkpt>
      <trkpt lat="45.7283" lon="5.71912">
        <ele>246</ele>
        <time>2025-05-03T08:43:48.103Z</time>
      </trkpt>
      <trkpt lat="45.72823" lon="5.7191">
        <ele>246</ele>
        <time>2025-05-03T08:43:52.564Z</time>
      </trkpt>
      <trkpt lat="45.72816" lon="5.71911">
        <ele>248</ele>
        <time>2025-05-03T08:43:56.904Z</time>
      </trkpt>
      <trkpt lat="45.7281" lon="5.7191">
        <ele>248</ele>
        <time>2025-05-03T08:44:01.243Z</time>
      </trkpt>
      <trkpt lat="45.72804" lon="5.71911">
        <ele>248</ele>
        <time>2025-05-03T08:44:05.623Z</time>
      </trkpt>
      <trkpt lat="45.72798" lon="5.7191">
        <ele>248</ele>
        <time>2025-05-03T08:44:10.262Z</time>
      </trkpt>
      <trkpt lat="45.72794" lon="5.71911">
        <ele>248</ele>
        <time>2025-05-03T08:44:15.251Z</time>
      </trkpt>
      <trkpt lat="45.72791" lon="5.71911">
        <ele>247</ele>
        <time>2025-05-03T08:44:19.523Z</time>
      </trkpt>
      <trkpt lat="45.72787" lon="5.71908">
        <ele>247</ele>
        <time>2025-05-03T08:44:24.156Z</time>
      </trkpt>
      <trkpt lat="45.7278" lon="5.7191">
        <ele>247</ele>
        <time>2025-05-03T08:44:28.503Z</time>
      </trkpt>
      <trkpt lat="45.72773" lon="5.71911">
        <ele>247</ele>
        <time>2025-05-03T08:44:33.081Z</time>
      </trkpt>
      <trkpt lat="45.72765" lon="5.7191">
        <ele>247</ele>
        <time>2025-05-03T08:44:37.253Z</time>
      </trkpt>
      <trkpt lat="45.72757" lon="5.71909">
        <ele>248</ele>
        <time>2025-05-03T08:44:41.741Z</time>
      </trkpt>
      <trkpt lat="45.72751" lon="5.71908">
        <ele>248</ele>
        <time>2025-05-03T08:44:46.256Z</time>
      </trkpt>
      <trkpt lat="45.72749" lon="5.71908">
        <ele>248</ele>
        <time>2025-05-03T08:44:50.962Z</time>
      </trkpt>
      <trkpt lat="45.72742" lon="5.71908">
        <ele>248</ele>
        <time>2025-05-03T08:44:55.272Z</time>
      </trkpt>
      <trkpt lat="45.72735" lon="5.71905">
        <ele>248</ele>
        <time>2025-05-03T08:45:00.260Z</time>
      </trkpt>
      <trkpt lat="45.7273" lon="5.71904">
        <ele>248</ele>
        <time>2025-05-03T08:45:04.721Z</time>
      </trkpt>
      <trkpt lat="45.72726" lon="5.71904">
        <ele>248</ele>
        <time>2025-05-03T08:45:08.982Z</time>
      </trkpt>
      <trkpt lat="45.7272" lon="5.71903">
        <ele>248</ele>
        <time>2025-05-03T08:45:13.255Z</time>
      </trkpt>
      <trkpt lat="45.72714" lon="5.71901">
        <ele>243</ele>
        <time>2025-05-03T08:45:17.582Z</time>
      </trkpt>
      <trkpt lat="45.72708" lon="5.71899">
        <ele>246</ele>
        <time>2025-05-03T08:45:21.920Z</time>
      </trkpt>
      <trkpt lat="45.72703" lon="5.71897">
        <ele>246</ele>
        <time>2025-05-03T08:45:26.215Z</time>
      </trkpt>
      <trkpt lat="45.72699" lon="5.71895">
        <ele>246</ele>
        <time>2025-05-03T08:45:30.270Z</time>
      </trkpt>
      <trkpt lat="45.72694" lon="5.71892">
        <ele>246</ele>
        <time>2025-05-03T08:45:34.678Z</time>
      </trkpt>
      <trkpt lat="45.72689" lon="5.7189">
        <ele>246</ele>
        <time>2025-05-03T08:45:38.849Z</time>
      </trkpt>
      <trkpt lat="45.72682" lon="5.71889">
        <ele>246</ele>
        <time>2025-05-03T08:45:43.048Z</time>
      </trkpt>
      <trkpt lat="45.72675" lon="5.71885">
        <ele>247</ele>
        <time>2025-05-03T08:45:47.255Z</time>
      </trkpt>
      <trkpt lat="45.72668" lon="5.71883">
        <ele>247</ele>
        <time>2025-05-03T08:45:51.708Z</time>
      </trkpt>
      <trkpt lat="45.72662" lon="5.71879">
        <ele>247</ele>
        <time>2025-05-03T08:45:56.030Z</time>
      </trkpt>
      <trkpt lat="45.72658" lon="5.71876">
        <ele>247</ele>
        <time>2025-05-03T08:46:00.156Z</time>
      </trkpt>
      <trkpt lat="45.72653" lon="5.71874">
        <ele>240</ele>
        <time>2025-05-03T08:46:04.669Z</time>
      </trkpt>
      <trkpt lat="45.72647" lon="5.71872">
        <ele>239</ele>
        <time>2025-05-03T08:46:08.987Z</time>
      </trkpt>
      <trkpt lat="45.72642" lon="5.71871">
        <ele>239</ele>
        <time>2025-05-03T08:46:13.253Z</time>
      </trkpt>
      <trkpt lat="45.72636" lon="5.71869">
        <ele>239</ele>
        <time>2025-05-03T08:46:17.667Z</time>
      </trkpt>
      <trkpt lat="45.72629" lon="5.71869">
        <ele>239</ele>
        <time>2025-05-03T08:46:22.131Z</time>
      </trkpt>
      <trkpt lat="45.72621" lon="5.71866">
        <ele>241</ele>
        <time>2025-05-03T08:46:27.147Z</time>
      </trkpt>
      <trkpt lat="45.72615" lon="5.71862">
        <ele>241</ele>
        <time>2025-05-03T08:46:31.260Z</time>
      </trkpt>
      <trkpt lat="45.7261" lon="5.71857">
        <ele>241</ele>
        <time>2025-05-03T08:46:36.028Z</time>
      </trkpt>
      <trkpt lat="45.72604" lon="5.71852">
        <ele>241</ele>
        <time>2025-05-03T08:46:41.145Z</time>
      </trkpt>
      <trkpt lat="45.72602" lon="5.71853">
        <ele>241</ele>
        <time>2025-05-03T08:46:45.565Z</time>
      </trkpt>
      <trkpt lat="45.726" lon="5.71851">
        <ele>241</ele>
        <time>2025-05-03T08:46:50.124Z</time>
      </trkpt>
      <trkpt lat="45.72598" lon="5.71845">
        <ele>235</ele>
        <time>2025-05-03T08:46:55.156Z</time>
      </trkpt>
      <trkpt lat="45.72596" lon="5.71842">
        <ele>238</ele>
        <time>2025-05-03T08:46:59.722Z</time>
      </trkpt>
      <trkpt lat="45.72591" lon="5.71837">
        <ele>238</ele>
        <time>2025-05-03T08:47:03.903Z</time>
      </trkpt>
      <trkpt lat="45.72586" lon="5.71834">
        <ele>238</ele>
        <time>2025-05-03T08:47:08.248Z</time>
      </trkpt>
      <trkpt lat="45.7258" lon="5.71831">
        <ele>238</ele>
        <time>2025-05-03T08:47:12.383Z</time>
      </trkpt>
      <trkpt lat="45.72575" lon="5.71828">
        <ele>238</ele>
        <time>2025-05-03T08:47:16.704Z</time>
      </trkpt>
      <trkpt lat="45.7257" lon="5.71824">
        <ele>238</ele>
        <time>2025-05-03T08:47:20.864Z</time>
      </trkpt>
      <trkpt lat="45.72565" lon="5.71821">
        <ele>241</ele>
        <time>2025-05-03T08:47:25.183Z</time>
      </trkpt>
      <trkpt lat="45.72561" lon="5.71816">
        <ele>236</ele>
        <time>2025-05-03T08:47:29.222Z</time>
      </trkpt>
      <trkpt lat="45.72555" lon="5.71812">
        <ele>236</ele>
        <time>2025-05-03T08:47:33.443Z</time>
      </trkpt>
      <trkpt lat="45.72549" lon="5.71809">
        <ele>236</ele>
        <time>2025-05-03T08:47:37.462Z</time>
      </trkpt>
      <trkpt lat="45.72543" lon="5.71807">
        <ele>236</ele>
        <time>2025-05-03T08:47:41.722Z</time>
      </trkpt>
      <trkpt lat="45.72536" lon="5.71804">
        <ele>237</ele>
        <time>2025-05-03T08:47:46.043Z</time>
      </trkpt>
      <trkpt lat="45.72529" lon="5.71802">
        <ele>237</ele>
        <time>2025-05-03T08:47:50.561Z</time>
      </trkpt>
      <trkpt lat="45.72523" lon="5.718">
        <ele>237</ele>
        <time>2025-05-03T08:47:55.258Z</time>
      </trkpt>
      <trkpt lat="45.72517" lon="5.71795">
        <ele>237</ele>
        <time>2025-05-03T08:47:59.482Z</time>
      </trkpt>
      <trkpt lat="45.72511" lon="5.71791">
        <ele>236</ele>
        <time>2025-05-03T08:48:04.250Z</time>
      </trkpt>
      <trkpt lat="45.72507" lon="5.71787">
        <ele>236</ele>
        <time>2025-05-03T08:48:08.422Z</time>
      </trkpt>
      <trkpt lat="45.72503" lon="5.71783">
        <ele>236</ele>
        <time>2025-05-03T08:48:13.142Z</time>
      </trkpt>
      <trkpt lat="45.72501" lon="5.71779">
        <ele>236</ele>
        <time>2025-05-03T08:48:17.601Z</time>
      </trkpt>
      <trkpt lat="45.72497" lon="5.71774">
        <ele>236</ele>
        <time>2025-05-03T08:48:21.902Z</time>
      </trkpt>
      <trkpt lat="45.72493" lon="5.71768">
        <ele>236</ele>
        <time>2025-05-03T08:48:26.265Z</time>
      </trkpt>
      <trkpt lat="45.7249" lon="5.71763">
        <ele>231</ele>
        <time>2025-05-03T08:48:31.179Z</time>
      </trkpt>
      <trkpt lat="45.72485" lon="5.71757">
        <ele>232</ele>
        <time>2025-05-03T08:48:36.225Z</time>
      </trkpt>
      <trkpt lat="45.7248" lon="5.71751">
        <ele>232</ele>
        <time>2025-05-03T08:48:40.243Z</time>
      </trkpt>
      <trkpt lat="45.72476" lon="5.71746">
        <ele>232</ele>
        <time>2025-05-03T08:48:44.480Z</time>
      </trkpt>
      <trkpt lat="45.7247" lon="5.71739">
        <ele>232</ele>
        <time>2025-05-03T08:48:48.860Z</time>
      </trkpt>
      <trkpt lat="45.72463" lon="5.71733">
        <ele>229</ele>
        <time>2025-05-03T08:48:52.887Z</time>
      </trkpt>
      <trkpt lat="45.72456" lon="5.71729">
        <ele>231</ele>
        <time>2025-05-03T08:48:56.928Z</time>
      </trkpt>
      <trkpt lat="45.72449" lon="5.71726">
        <ele>231</ele>
        <time>2025-05-03T08:49:01.261Z</time>
      </trkpt>
      <trkpt lat="45.72445" lon="5.71722">
        <ele>231</ele>
        <time>2025-05-03T08:49:05.887Z</time>
      </trkpt>
      <trkpt lat="45.7244" lon="5.71719">
        <ele>231</ele>
        <time>2025-05-03T08:49:09.906Z</time>
      </trkpt>
      <trkpt lat="45.72435" lon="5.71717">
        <ele>231</ele>
        <time>2025-05-03T08:49:14.145Z</time>
      </trkpt>
      <trkpt lat="45.72429" lon="5.71715">
        <ele>231</ele>
        <time>2025-05-03T08:49:18.766Z</time>
      </trkpt>
      <trkpt lat="45.72423" lon="5.71716">
        <ele>231</ele>
        <time>2025-05-03T08:49:23.224Z</time>
      </trkpt>
      <trkpt lat="45.72418" lon="5.71714">
        <ele>231</ele>
        <time>2025-05-03T08:49:27.247Z</time>
      </trkpt>
      <trkpt lat="45.72413" lon="5.71714">
        <ele>231</ele>
        <time>2025-05-03T08:49:31.985Z</time>
      </trkpt>
      <trkpt lat="45.72407" lon="5.71709">
        <ele>231</ele>
        <time>2025-05-03T08:49:36.004Z</time>
      </trkpt>
      <trkpt lat="45.72399" lon="5.71704">
        <ele>232</ele>
        <time>2025-05-03T08:49:40.644Z</time>
      </trkpt>
      <trkpt lat="45.72392" lon="5.717">
        <ele>232</ele>
        <time>2025-05-03T08:49:44.764Z</time>
      </trkpt>
      <trkpt lat="45.72386" lon="5.71697">
        <ele>232</ele>
        <time>2025-05-03T08:49:48.823Z</time>
      </trkpt>
      <trkpt lat="45.72381" lon="5.71692">
        <ele>232</ele>
        <time>2025-05-03T08:49:52.964Z</time>
      </trkpt>
      <trkpt lat="45.72375" lon="5.71688">
        <ele>232</ele>
        <time>2025-05-03T08:49:57.122Z</time>
      </trkpt>
      <trkpt lat="45.72371" lon="5.71685">
        <ele>236</ele>
        <time>2025-05-03T08:50:01.181Z</time>
      </trkpt>
      <trkpt lat="45.72365" lon="5.71686">
        <ele>236</ele>
        <time>2025-05-03T08:50:05.220Z</time>
      </trkpt>
      <trkpt lat="45.72359" lon="5.71683">
        <ele>236</ele>
        <time>2025-05-03T08:50:09.259Z</time>
      </trkpt>
      <trkpt lat="45.72352" lon="5.71681">
        <ele>236</ele>
        <time>2025-05-03T08:50:14.040Z</time>
      </trkpt>
      <trkpt lat="45.72345" lon="5.71679">
        <ele>233</ele>
        <time>2025-05-03T08:50:18.660Z</time>
      </trkpt>
      <trkpt lat="45.72339" lon="5.71675">
        <ele>233</ele>
        <time>2025-05-03T08:50:23.041Z</time>
      </trkpt>
      <trkpt lat="45.72334" lon="5.71671">
        <ele>233</ele>
        <time>2025-05-03T08:50:27.250Z</time>
      </trkpt>
      <trkpt lat="45.7233" lon="5.71671">
        <ele>233</ele>
        <time>2025-05-03T08:50:31.255Z</time>
      </trkpt>
      <trkpt lat="45.72329" lon="5.71672">
        <ele>233</ele>
        <time>2025-05-03T08:50:35.360Z</time>
      </trkpt>
      <trkpt lat="45.72326" lon="5.71677">
        <ele>233</ele>
        <time>2025-05-03T08:50:40.246Z</time>
      </trkpt>
      <trkpt lat="45.72325" lon="5.71685">
        <ele>237</ele>
        <time>2025-05-03T08:50:44.620Z</time>
      </trkpt>
      <trkpt lat="45.72323" lon="5.71693">
        <ele>237</ele>
        <time>2025-05-03T08:50:49.100Z</time>
      </trkpt>
      <trkpt lat="45.72317" lon="5.71699">
        <ele>239</ele>
        <time>2025-05-03T08:50:53.256Z</time>
      </trkpt>
      <trkpt lat="45.72318" lon="5.71701">
        <ele>239</ele>
        <time>2025-05-03T08:50:58.159Z</time>
      </trkpt>
      <trkpt lat="45.72313" lon="5.71702">
        <ele>239</ele>
        <time>2025-05-03T08:51:02.639Z</time>
      </trkpt>
      <trkpt lat="45.72304" lon="5.71703">
        <ele>239</ele>
        <time>2025-05-03T08:51:07.159Z</time>
      </trkpt>
      <trkpt lat="45.72296" lon="5.71702">
        <ele>239</ele>
        <time>2025-05-03T08:51:12.269Z</time>
      </trkpt>
      <trkpt lat="45.72289" lon="5.71703">
        <ele>243</ele>
        <time>2025-05-03T08:51:16.960Z</time>
      </trkpt>
      <trkpt lat="45.72283" lon="5.71701">
        <ele>243</ele>
        <time>2025-05-03T08:51:21.264Z</time>
      </trkpt>
      <trkpt lat="45.72276" lon="5.71699">
        <ele>243</ele>
        <time>2025-05-03T08:51:25.989Z</time>
      </trkpt>
      <trkpt lat="45.72268" lon="5.71697">
        <ele>243</ele>
        <time>2025-05-03T08:51:30.245Z</time>
      </trkpt>
      <trkpt lat="45.72264" lon="5.71695">
        <ele>243</ele>
        <time>2025-05-03T08:51:35.029Z</time>
      </trkpt>
      <trkpt lat="45.72259" lon="5.71694">
        <ele>248</ele>
        <time>2025-05-03T08:51:39.267Z</time>
      </trkpt>
      <trkpt lat="45.72256" lon="5.71694">
        <ele>248</ele>
        <time>2025-05-03T08:51:43.908Z</time>
      </trkpt>
      <trkpt lat="45.72252" lon="5.71693">
        <ele>248</ele>
        <time>2025-05-03T08:51:48.253Z</time>
      </trkpt>
      <trkpt lat="45.72249" lon="5.71694">
        <ele>248</ele>
        <time>2025-05-03T08:51:53.247Z</time>
      </trkpt>
      <trkpt lat="45.7224" lon="5.71698">
        <ele>248</ele>
        <time>2025-05-03T08:51:58.169Z</time>
      </trkpt>
      <trkpt lat="45.72235" lon="5.71701">
        <ele>251</ele>
        <time>2025-05-03T08:52:02.257Z</time>
      </trkpt>
      <trkpt lat="45.72228" lon="5.71701">
        <ele>251</ele>
        <time>2025-05-03T08:52:07.090Z</time>
      </trkpt>
      <trkpt lat="45.72222" lon="5.71699">
        <ele>251</ele>
        <time>2025-05-03T08:52:11.274Z</time>
      </trkpt>
      <trkpt lat="45.72216" lon="5.71702">
        <ele>251</ele>
        <time>2025-05-03T08:52:16.213Z</time>
      </trkpt>
      <trkpt lat="45.7221" lon="5.71704">
        <ele>251</ele>
        <time>2025-05-03T08:52:21.187Z</time>
      </trkpt>
      <trkpt lat="45.72204" lon="5.71701">
        <ele>255</ele>
        <time>2025-05-03T08:52:25.567Z</time>
      </trkpt>
      <trkpt lat="45.72198" lon="5.717">
        <ele>255</ele>
        <time>2025-05-03T08:52:29.587Z</time>
      </trkpt>
      <trkpt lat="45.72193" lon="5.717">
        <ele>255</ele>
        <time>2025-05-03T08:52:33.628Z</time>
      </trkpt>
      <trkpt lat="45.72189" lon="5.71699">
        <ele>255</ele>
        <time>2025-05-03T08:52:37.883Z</time>
      </trkpt>
      <trkpt lat="45.72186" lon="5.71698">
        <ele>255</ele>
        <time>2025-05-03T08:52:42.249Z</time>
      </trkpt>
      <trkpt lat="45.72181" lon="5.71697">
        <ele>255</ele>
        <time>2025-05-03T08:52:47.258Z</time>
      </trkpt>
      <trkpt lat="45.72177" lon="5.71697">
        <ele>259</ele>
        <time>2025-05-03T08:52:51.967Z</time>
      </trkpt>
      <trkpt lat="45.72173" lon="5.71698">
        <ele>259</ele>
        <time>2025-05-03T08:52:56.249Z</time>
      </trkpt>
      <trkpt lat="45.72169" lon="5.717">
        <ele>259</ele>
        <time>2025-05-03T08:53:01.254Z</time>
      </trkpt>
      <trkpt lat="45.72163" lon="5.71701">
        <ele>259</ele>
        <time>2025-05-03T08:53:05.627Z</time>
      </trkpt>
      <trkpt lat="45.72159" lon="5.71706">
        <ele>259</ele>
        <time>2025-05-03T08:53:10.257Z</time>
      </trkpt>
      <trkpt lat="45.72154" lon="5.71707">
        <ele>259</ele>
        <time>2025-05-03T08:53:15.253Z</time>
      </trkpt>
      <trkpt lat="45.7215" lon="5.71709">
        <ele>269</ele>
        <time>2025-05-03T08:53:19.685Z</time>
      </trkpt>
      <trkpt lat="45.72144" lon="5.71713">
        <ele>269</ele>
        <time>2025-05-03T08:53:24.005Z</time>
      </trkpt>
      <trkpt lat="45.72137" lon="5.71718">
        <ele>269</ele>
        <time>2025-05-03T08:53:28.845Z</time>
      </trkpt>
      <trkpt lat="45.7213" lon="5.71716">
        <ele>269</ele>
        <time>2025-05-03T08:53:33.125Z</time>
      </trkpt>
      <trkpt lat="45.72122" lon="5.71716">
        <ele>271</ele>
        <time>2025-05-03T08:53:37.257Z</time>
      </trkpt>
      <trkpt lat="45.72118" lon="5.71715">
        <ele>271</ele>
        <time>2025-05-03T08:53:42.004Z</time>
      </trkpt>
      <trkpt lat="45.72116" lon="5.71715">
        <ele>271</ele>
        <time>2025-05-03T08:53:46.184Z</time>
      </trkpt>
      <trkpt lat="45.72108" lon="5.71713">
        <ele>271</ele>
        <time>2025-05-03T08:53:50.725Z</time>
      </trkpt>
      <trkpt lat="45.72102" lon="5.7171">
        <ele>271</ele>
        <time>2025-05-03T08:53:55.164Z</time>
      </trkpt>
      <trkpt lat="45.72096" lon="5.71706">
        <ele>271</ele>
        <time>2025-05-03T08:53:59.625Z</time>
      </trkpt>
      <trkpt lat="45.7209" lon="5.71702">
        <ele>271</ele>
        <time>2025-05-03T08:54:03.984Z</time>
      </trkpt>
      <trkpt lat="45.72086" lon="5.71698">
        <ele>271</ele>
        <time>2025-05-03T08:54:08.505Z</time>
      </trkpt>
      <trkpt lat="45.7208" lon="5.71695">
        <ele>271</ele>
        <time>2025-05-03T08:54:13.125Z</time>
      </trkpt>
      <trkpt lat="45.72074" lon="5.71691">
        <ele>271</ele>
        <time>2025-05-03T08:54:17.785Z</time>
      </trkpt>
      <trkpt lat="45.72068" lon="5.71688">
        <ele>277</ele>
        <time>2025-05-03T08:54:22.203Z</time>
      </trkpt>
      <trkpt lat="45.72062" lon="5.71685">
        <ele>277</ele>
        <time>2025-05-03T08:54:27.084Z</time>
      </trkpt>
      <trkpt lat="45.72057" lon="5.71682">
        <ele>277</ele>
        <time>2025-05-03T08:54:31.243Z</time>
      </trkpt>
      <trkpt lat="45.72054" lon="5.71681">
        <ele>271</ele>
        <time>2025-05-03T08:54:35.255Z</time>
      </trkpt>
      <trkpt lat="45.72051" lon="5.71679">
        <ele>271</ele>
        <time>2025-05-03T08:54:39.705Z</time>
      </trkpt>
      <trkpt lat="45.72048" lon="5.71676">
        <ele>271</ele>
        <time>2025-05-03T08:54:44.235Z</time>
      </trkpt>
      <trkpt lat="45.72043" lon="5.71674">
        <ele>271</ele>
        <time>2025-05-03T08:54:48.866Z</time>
      </trkpt>
      <trkpt lat="45.72039" lon="5.71671">
        <ele>273</ele>
        <time>2025-05-03T08:54:53.269Z</time>
      </trkpt>
      <trkpt lat="45.72037" lon="5.71669">
        <ele>273</ele>
        <time>2025-05-03T08:54:58.266Z</time>
      </trkpt>
      <trkpt lat="45.72035" lon="5.71666">
        <ele>273</ele>
        <time>2025-05-03T08:55:03.103Z</time>
      </trkpt>
      <trkpt lat="45.72031" lon="5.71664">
        <ele>273</ele>
        <time>2025-05-03T08:55:07.250Z</time>
      </trkpt>
      <trkpt lat="45.72023" lon="5.7166">
        <ele>273</ele>
        <time>2025-05-03T08:55:11.743Z</time>
      </trkpt>
      <trkpt lat="45.72016" lon="5.71658">
        <ele>273</ele>
        <time>2025-05-03T08:55:16.258Z</time>
      </trkpt>
      <trkpt lat="45.72008" lon="5.71654">
        <ele>275</ele>
        <time>2025-05-03T08:55:21.042Z</time>
      </trkpt>
      <trkpt lat="45.72" lon="5.71647">
        <ele>270</ele>
        <time>2025-05-03T08:55:26.255Z</time>
      </trkpt>
      <trkpt lat="45.71994" lon="5.71643">
        <ele>270</ele>
        <time>2025-05-03T08:55:31.003Z</time>
      </trkpt>
      <trkpt lat="45.71989" lon="5.7164">
        <ele>270</ele>
        <time>2025-05-03T08:55:35.200Z</time>
      </trkpt>
      <trkpt lat="45.71984" lon="5.71636">
        <ele>275</ele>
        <time>2025-05-03T08:55:39.582Z</time>
      </trkpt>
      <trkpt lat="45.7198" lon="5.71635">
        <ele>275</ele>
        <time>2025-05-03T08:55:43.661Z</time>
      </trkpt>
      <trkpt lat="45.71974" lon="5.71631">
        <ele>275</ele>
        <time>2025-05-03T08:55:48.081Z</time>
      </trkpt>
      <trkpt lat="45.7197" lon="5.71629">
        <ele>275</ele>
        <time>2025-05-03T08:55:52.722Z</time>
      </trkpt>
      <trkpt lat="45.71966" lon="5.71627">
        <ele>275</ele>
        <time>2025-05-03T08:55:56.840Z</time>
      </trkpt>
      <trkpt lat="45.71961" lon="5.71623">
        <ele>270</ele>
        <time>2025-05-03T08:56:01.267Z</time>
      </trkpt>
      <trkpt lat="45.71956" lon="5.71619">
        <ele>269</ele>
        <time>2025-05-03T08:56:05.801Z</time>
      </trkpt>
      <trkpt lat="45.71951" lon="5.71616">
        <ele>269</ele>
        <time>2025-05-03T08:56:10.257Z</time>
      </trkpt>
      <trkpt lat="45.71949" lon="5.71615">
        <ele>269</ele>
        <time>2025-05-03T08:56:14.257Z</time>
      </trkpt>
      <trkpt lat="45.71947" lon="5.71611">
        <ele>269</ele>
        <time>2025-05-03T08:56:19.061Z</time>
      </trkpt>
      <trkpt lat="45.71944" lon="5.71608">
        <ele>269</ele>
        <time>2025-05-03T08:56:23.171Z</time>
      </trkpt>
      <trkpt lat="45.71937" lon="5.71606">
        <ele>269</ele>
        <time>2025-05-03T08:56:27.308Z</time>
      </trkpt>
      <trkpt lat="45.71928" lon="5.71611">
        <ele>270</ele>
        <time>2025-05-03T08:56:32.256Z</time>
      </trkpt>
      <trkpt lat="45.71921" lon="5.71614">
        <ele>270</ele>
        <time>2025-05-03T08:56:36.586Z</time>
      </trkpt>
      <trkpt lat="45.71913" lon="5.71612">
        <ele>270</ele>
        <time>2025-05-03T08:56:41.243Z</time>
      </trkpt>
      <trkpt lat="45.71909" lon="5.71612">
        <ele>270</ele>
        <time>2025-05-03T08:56:45.253Z</time>
      </trkpt>
      <trkpt lat="45.71905" lon="5.7161">
        <ele>270</ele>
        <time>2025-05-03T08:56:49.806Z</time>
      </trkpt>
      <trkpt lat="45.71898" lon="5.7161">
        <ele>269</ele>
        <time>2025-05-03T08:56:54.256Z</time>
      </trkpt>
      <trkpt lat="45.71892" lon="5.71612">
        <ele>269</ele>
        <time>2025-05-03T08:56:58.625Z</time>
      </trkpt>
      <trkpt lat="45.71886" lon="5.7161">
        <ele>269</ele>
        <time>2025-05-03T08:57:02.885Z</time>
      </trkpt>
      <trkpt lat="45.71881" lon="5.71609">
        <ele>269</ele>
        <time>2025-05-03T08:57:07.257Z</time>
      </trkpt>
      <trkpt lat="45.71875" lon="5.71609">
        <ele>269</ele>
        <time>2025-05-03T08:57:11.965Z</time>
      </trkpt>
      <trkpt lat="45.71871" lon="5.71608">
        <ele>267</ele>
        <time>2025-05-03T08:57:16.425Z</time>
      </trkpt>
      <trkpt lat="45.71865" lon="5.71607">
        <ele>267</ele>
        <time>2025-05-03T08:57:20.725Z</time>
      </trkpt>
      <trkpt lat="45.71861" lon="5.71607">
        <ele>267</ele>
        <time>2025-05-03T08:57:25.267Z</time>
      </trkpt>
      <trkpt lat="45.71853" lon="5.71608">
        <ele>267</ele>
        <time>2025-05-03T08:57:30.249Z</time>
      </trkpt>
      <trkpt lat="45.71849" lon="5.71607">
        <ele>267</ele>
        <time>2025-05-03T08:57:34.383Z</time>
      </trkpt>
      <trkpt lat="45.71844" lon="5.71605">
        <ele>269</ele>
        <time>2025-05-03T08:57:38.923Z</time>
      </trkpt>
      <trkpt lat="45.71839" lon="5.71604">
        <ele>269</ele>
        <time>2025-05-03T08:57:43.254Z</time>
      </trkpt>
      <trkpt lat="45.71832" lon="5.71603">
        <ele>269</ele>
        <time>2025-05-03T08:57:48.255Z</time>
      </trkpt>
      <trkpt lat="45.71828" lon="5.71603">
        <ele>269</ele>
        <time>2025-05-03T08:57:52.782Z</time>
      </trkpt>
      <trkpt lat="45.71824" lon="5.71601">
        <ele>269</ele>
        <time>2025-05-03T08:57:57.257Z</time>
      </trkpt>
      <trkpt lat="45.71821" lon="5.71601">
        <ele>269</ele>
        <time>2025-05-03T08:58:02.203Z</time>
      </trkpt>
      <trkpt lat="45.71816" lon="5.71598">
        <ele>268</ele>
        <time>2025-05-03T08:58:06.823Z</time>
      </trkpt>
      <trkpt lat="45.71808" lon="5.71595">
        <ele>262</ele>
        <time>2025-05-03T08:58:11.221Z</time>
      </trkpt>
      <trkpt lat="45.718" lon="5.71591">
        <ele>262</ele>
        <time>2025-05-03T08:58:15.563Z</time>
      </trkpt>
      <trkpt lat="45.71792" lon="5.71586">
        <ele>262</ele>
        <time>2025-05-03T08:58:19.881Z</time>
      </trkpt>
      <trkpt lat="45.71786" lon="5.71583">
        <ele>265</ele>
        <time>2025-05-03T08:58:24.214Z</time>
      </trkpt>
      <trkpt lat="45.7178" lon="5.71581">
        <ele>265</ele>
        <time>2025-05-03T08:58:28.253Z</time>
      </trkpt>
      <trkpt lat="45.71777" lon="5.71579">
        <ele>265</ele>
        <time>2025-05-03T08:58:32.822Z</time>
      </trkpt>
      <trkpt lat="45.71772" lon="5.71576">
        <ele>265</ele>
        <time>2025-05-03T08:58:36.962Z</time>
      </trkpt>
      <trkpt lat="45.71765" lon="5.71576">
        <ele>265</ele>
        <time>2025-05-03T08:58:41.060Z</time>
      </trkpt>
      <trkpt lat="45.7176" lon="5.71576">
        <ele>270</ele>
        <time>2025-05-03T08:58:45.106Z</time>
      </trkpt>
      <trkpt lat="45.71754" lon="5.71575">
        <ele>270</ele>
        <time>2025-05-03T08:58:49.579Z</time>
      </trkpt>
      <trkpt lat="45.71747" lon="5.71574">
        <ele>270</ele>
        <time>2025-05-03T08:58:54.028Z</time>
      </trkpt>
      <trkpt lat="45.71742" lon="5.71571">
        <ele>270</ele>
        <time>2025-05-03T08:58:58.088Z</time>
      </trkpt>
      <trkpt lat="45.71737" lon="5.71568">
        <ele>266</ele>
        <time>2025-05-03T08:59:02.149Z</time>
      </trkpt>
      <trkpt lat="45.71731" lon="5.71566">
        <ele>269</ele>
        <time>2025-05-03T08:59:06.272Z</time>
      </trkpt>
      <trkpt lat="45.71726" lon="5.71564">
        <ele>269</ele>
        <time>2025-05-03T08:59:10.327Z</time>
      </trkpt>
      <trkpt lat="45.71721" lon="5.71561">
        <ele>269</ele>
        <time>2025-05-03T08:59:14.688Z</time>
      </trkpt>
      <trkpt lat="45.71717" lon="5.71558">
        <ele>269</ele>
        <time>2025-05-03T08:59:19.257Z</time>
      </trkpt>
      <trkpt lat="45.71712" lon="5.71558">
        <ele>269</ele>
        <time>2025-05-03T08:59:24.026Z</time>
      </trkpt>
      <trkpt lat="45.71705" lon="5.71554">
        <ele>271</ele>
        <time>2025-05-03T08:59:28.227Z</time>
      </trkpt>
      <trkpt lat="45.71698" lon="5.7155">
        <ele>271</ele>
        <time>2025-05-03T08:59:32.265Z</time>
      </trkpt>
      <trkpt lat="45.71692" lon="5.71548">
        <ele>271</ele>
        <time>2025-05-03T08:59:36.567Z</time>
      </trkpt>
      <trkpt lat="45.71686" lon="5.71547">
        <ele>271</ele>
        <time>2025-05-03T08:59:40.827Z</time>
      </trkpt>
      <trkpt lat="45.71681" lon="5.71544">
        <ele>271</ele>
        <time>2025-05-03T08:59:45.122Z</time>
      </trkpt>
      <trkpt lat="45.71675" lon="5.71544">
        <ele>271</ele>
        <time>2025-05-03T08:59:50.145Z</time>
      </trkpt>
      <trkpt lat="45.71671" lon="5.71546">
        <ele>271</ele>
        <time>2025-05-03T08:59:54.262Z</time>
      </trkpt>
      <trkpt lat="45.71664" lon="5.71546">
        <ele>271</ele>
        <time>2025-05-03T08:59:58.257Z</time>
      </trkpt>
      <trkpt lat="45.71658" lon="5.71545">
        <ele>271</ele>
        <time>2025-05-03T09:00:02.627Z</time>
      </trkpt>
      <trkpt lat="45.71652" lon="5.71545">
        <ele>269</ele>
        <time>2025-05-03T09:00:06.987Z</time>
      </trkpt>
      <trkpt lat="45.71645" lon="5.71546">
        <ele>269</ele>
        <time>2025-05-03T09:00:11.253Z</time>
      </trkpt>
      <trkpt lat="45.71638" lon="5.71547">
        <ele>269</ele>
        <time>2025-05-03T09:00:15.646Z</time>
      </trkpt>
      <trkpt lat="45.71632" lon="5.71546">
        <ele>269</ele>
        <time>2025-05-03T09:00:20.086Z</time>
      </trkpt>
      <trkpt lat="45.71627" lon="5.71544">
        <ele>269</ele>
        <time>2025-05-03T09:00:24.255Z</time>
      </trkpt>
      <trkpt lat="45.7162" lon="5.71544">
        <ele>268</ele>
        <time>2025-05-03T09:00:28.605Z</time>
      </trkpt>
      <trkpt lat="45.71615" lon="5.71544">
        <ele>268</ele>
        <time>2025-05-03T09:00:33.067Z</time>
      </trkpt>
      <trkpt lat="45.71613" lon="5.71544">
        <ele>268</ele>
        <time>2025-05-03T09:00:37.262Z</time>
      </trkpt>
      <trkpt lat="45.71611" lon="5.71543">
        <ele>268</ele>
        <time>2025-05-03T09:00:41.864Z</time>
      </trkpt>
      <trkpt lat="45.71603" lon="5.71542">
        <ele>268</ele>
        <time>2025-05-03T09:00:46.278Z</time>
      </trkpt>
      <trkpt lat="45.71596" lon="5.71541">
        <ele>265</ele>
        <time>2025-05-03T09:00:50.443Z</time>
      </trkpt>
      <trkpt lat="45.71591" lon="5.71541">
        <ele>265</ele>
        <time>2025-05-03T09:00:54.765Z</time>
      </trkpt>
      <trkpt lat="45.71588" lon="5.7154">
        <ele>265</ele>
        <time>2025-05-03T09:00:58.984Z</time>
      </trkpt>
      <trkpt lat="45.71581" lon="5.71539">
        <ele>265</ele>
        <time>2025-05-03T09:01:03.255Z</time>
      </trkpt>
      <trkpt lat="45.71575" lon="5.71538">
        <ele>265</ele>
        <time>2025-05-03T09:01:07.766Z</time>
      </trkpt>
      <trkpt lat="45.71569" lon="5.71539">
        <ele>263</ele>
        <time>2025-05-03T09:01:12.004Z</time>
      </trkpt>
      <trkpt lat="45.71563" lon="5.71539">
        <ele>263</ele>
        <time>2025-05-03T09:01:16.256Z</time>
      </trkpt>
      <trkpt lat="45.71563" lon="5.71541">
        <ele>263</ele>
        <time>2025-05-03T09:01:20.964Z</time>
      </trkpt>
      <trkpt lat="45.71558" lon="5.71541">
        <ele>263</ele>
        <time>2025-05-03T09:01:25.252Z</time>
      </trkpt>
      <trkpt lat="45.71551" lon="5.7154">
        <ele>263</ele>
        <time>2025-05-03T09:01:29.272Z</time>
      </trkpt>
      <trkpt lat="45.71545" lon="5.71541">
        <ele>263</ele>
        <time>2025-05-03T09:01:33.664Z</time>
      </trkpt>
      <trkpt lat="45.71541" lon="5.71541">
        <ele>262</ele>
        <time>2025-05-03T09:01:38.021Z</time>
      </trkpt>
      <trkpt lat="45.71536" lon="5.71543">
        <ele>266</ele>
        <time>2025-05-03T09:01:42.256Z</time>
      </trkpt>
      <trkpt lat="45.71531" lon="5.71546">
        <ele>266</ele>
        <time>2025-05-03T09:01:46.254Z</time>
      </trkpt>
      <trkpt lat="45.71526" lon="5.71551">
        <ele>266</ele>
        <time>2025-05-03T09:01:50.361Z</time>
      </trkpt>
      <trkpt lat="45.7152" lon="5.71554">
        <ele>266</ele>
        <time>2025-05-03T09:01:55.254Z</time>
      </trkpt>
      <trkpt lat="45.71513" lon="5.71555">
        <ele>265</ele>
        <time>2025-05-03T09:01:59.601Z</time>
      </trkpt>
      <trkpt lat="45.71507" lon="5.71558">
        <ele>265</ele>
        <time>2025-05-03T09:02:03.680Z</time>
      </trkpt>
      <trkpt lat="45.71502" lon="5.71562">
        <ele>265</ele>
        <time>2025-05-03T09:02:07.962Z</time>
      </trkpt>
      <trkpt lat="45.71497" lon="5.71565">
        <ele>265</ele>
        <time>2025-05-03T09:02:11.981Z</time>
      </trkpt>
      <trkpt lat="45.71491" lon="5.71568">
        <ele>265</ele>
        <time>2025-05-03T09:02:16.099Z</time>
      </trkpt>
      <trkpt lat="45.71484" lon="5.71572">
        <ele>266</ele>
        <time>2025-05-03T09:02:21.136Z</time>
      </trkpt>
      <trkpt lat="45.71477" lon="5.71574">
        <ele>266</ele>
        <time>2025-05-03T09:02:25.254Z</time>
      </trkpt>
      <trkpt lat="45.7147" lon="5.71578">
        <ele>266</ele>
        <time>2025-05-03T09:02:29.689Z</time>
      </trkpt>
      <trkpt lat="45.71465" lon="5.71583">
        <ele>266</ele>
        <time>2025-05-03T09:02:33.748Z</time>
      </trkpt>
      <trkpt lat="45.71461" lon="5.71587">
        <ele>266</ele>
        <time>2025-05-03T09:02:37.910Z</time>
      </trkpt>
      <trkpt lat="45.71456" lon="5.71589">
        <ele>265</ele>
        <time>2025-05-03T09:02:41.969Z</time>
      </trkpt>
      <trkpt lat="45.71451" lon="5.71592">
        <ele>265</ele>
        <time>2025-05-03T09:02:46.069Z</time>
      </trkpt>
      <trkpt lat="45.71444" lon="5.71595">
        <ele>265</ele>
        <time>2025-05-03T09:02:50.648Z</time>
      </trkpt>
      <trkpt lat="45.71439" lon="5.71597">
        <ele>267</ele>
        <time>2025-05-03T09:02:55.068Z</time>
      </trkpt>
      <trkpt lat="45.71434" lon="5.71599">
        <ele>267</ele>
        <time>2025-05-03T09:02:59.259Z</time>
      </trkpt>
      <trkpt lat="45.71426" lon="5.71604">
        <ele>266</ele>
        <time>2025-05-03T09:03:04.066Z</time>
      </trkpt>
      <trkpt lat="45.71417" lon="5.71609">
        <ele>266</ele>
        <time>2025-05-03T09:03:08.258Z</time>
      </trkpt>
      <trkpt lat="45.7141" lon="5.7161">
        <ele>266</ele>
        <time>2025-05-03T09:03:12.865Z</time>
      </trkpt>
      <trkpt lat="45.71406" lon="5.71611">
        <ele>266</ele>
        <time>2025-05-03T09:03:17.254Z</time>
      </trkpt>
      <trkpt lat="45.71402" lon="5.71608">
        <ele>266</ele>
        <time>2025-05-03T09:03:21.256Z</time>
      </trkpt>
      <trkpt lat="45.71398" lon="5.71605">
        <ele>266</ele>
        <time>2025-05-03T09:03:25.252Z</time>
      </trkpt>
      <trkpt lat="45.71393" lon="5.716">
        <ele>266</ele>
        <time>2025-05-03T09:03:29.865Z</time>
      </trkpt>
      <trkpt lat="45.71388" lon="5.71593">
        <ele>260</ele>
        <time>2025-05-03T09:03:34.272Z</time>
      </trkpt>
      <trkpt lat="45.71382" lon="5.71586">
        <ele>260</ele>
        <time>2025-05-03T09:03:38.964Z</time>
      </trkpt>
      <trkpt lat="45.71378" lon="5.71578">
        <ele>260</ele>
        <time>2025-05-03T09:03:42.983Z</time>
      </trkpt>
      <trkpt lat="45.71374" lon="5.71572">
        <ele>259</ele>
        <time>2025-05-03T09:03:47.253Z</time>
      </trkpt>
      <trkpt lat="45.71369" lon="5.71572">
        <ele>259</ele>
        <time>2025-05-03T09:03:51.644Z</time>
      </trkpt>
      <trkpt lat="45.71363" lon="5.71574">
        <ele>259</ele>
        <time>2025-05-03T09:03:56.124Z</time>
      </trkpt>
      <trkpt lat="45.71357" lon="5.71577">
        <ele>259</ele>
        <time>2025-05-03T09:04:00.263Z</time>
      </trkpt>
      <trkpt lat="45.7135" lon="5.7158">
        <ele>259</ele>
        <time>2025-05-03T09:04:04.983Z</time>
      </trkpt>
      <trkpt lat="45.71343" lon="5.71584">
        <ele>260</ele>
        <time>2025-05-03T09:04:09.260Z</time>
      </trkpt>
      <trkpt lat="45.71336" lon="5.71587">
        <ele>260</ele>
        <time>2025-05-03T09:04:14.144Z</time>
      </trkpt>
      <trkpt lat="45.71331" lon="5.71594">
        <ele>260</ele>
        <time>2025-05-03T09:04:18.264Z</time>
      </trkpt>
      <trkpt lat="45.71326" lon="5.71599">
        <ele>263</ele>
        <time>2025-05-03T09:04:22.624Z</time>
      </trkpt>
      <trkpt lat="45.71321" lon="5.71605">
        <ele>263</ele>
        <time>2025-05-03T09:04:26.705Z</time>
      </trkpt>
      <trkpt lat="45.71317" lon="5.71612">
        <ele>262</ele>
        <time>2025-05-03T09:04:31.144Z</time>
      </trkpt>
      <trkpt lat="45.71313" lon="5.71616">
        <ele>262</ele>
        <time>2025-05-03T09:04:35.262Z</time>
      </trkpt>
      <trkpt lat="45.71308" lon="5.71623">
        <ele>262</ele>
        <time>2025-05-03T09:04:39.962Z</time>
      </trkpt>
      <trkpt lat="45.71307" lon="5.71629">
        <ele>266</ele>
        <time>2025-05-03T09:04:44.022Z</time>
      </trkpt>
      <trkpt lat="45.71303" lon="5.71636">
        <ele>266</ele>
        <time>2025-05-03T09:04:48.481Z</time>
      </trkpt>
      <trkpt lat="45.71299" lon="5.71643">
        <ele>266</ele>
        <time>2025-05-03T09:04:52.883Z</time>
      </trkpt>
      <trkpt lat="45.71295" lon="5.71649">
        <ele>266</ele>
        <time>2025-05-03T09:04:57.263Z</time>
      </trkpt>
      <trkpt lat="45.7129" lon="5.71656">
        <ele>271</ele>
        <time>2025-05-03T09:05:02.182Z</time>
      </trkpt>
      <trkpt lat="45.71285" lon="5.71661">
        <ele>271</ele>
        <time>2025-05-03T09:05:06.263Z</time>
      </trkpt>
      <trkpt lat="45.71284" lon="5.71662">
        <ele>271</ele>
        <time>2025-05-03T09:05:10.540Z</time>
      </trkpt>
      <trkpt lat="45.71283" lon="5.71664">
        <ele>271</ele>
        <time>2025-05-03T09:05:14.861Z</time>
      </trkpt>
      <trkpt lat="45.71278" lon="5.7167">
        <ele>271</ele>
        <time>2025-05-03T09:05:19.144Z</time>
      </trkpt>
      <trkpt lat="45.71274" lon="5.71674">
        <ele>271</ele>
        <time>2025-05-03T09:05:23.253Z</time>
      </trkpt>
      <trkpt lat="45.71273" lon="5.71676">
        <ele>271</ele>
        <time>2025-05-03T09:05:27.962Z</time>
      </trkpt>
      <trkpt lat="45.7127" lon="5.71678">
        <ele>271</ele>
        <time>2025-05-03T09:05:32.359Z</time>
      </trkpt>
      <trkpt lat="45.71266" lon="5.71684">
        <ele>276</ele>
        <time>2025-05-03T09:05:37.260Z</time>
      </trkpt>
      <trkpt lat="45.71265" lon="5.7169">
        <ele>276</ele>
        <time>2025-05-03T09:05:41.921Z</time>
      </trkpt>
      <trkpt lat="45.71265" lon="5.71698">
        <ele>276</ele>
        <time>2025-05-03T09:05:45.920Z</time>
      </trkpt>
      <trkpt lat="45.71265" lon="5.71707">
        <ele>276</ele>
        <time>2025-05-03T09:05:50.266Z</time>
      </trkpt>
      <trkpt lat="45.71265" lon="5.71717">
        <ele>281</ele>
        <time>2025-05-03T09:05:54.960Z</time>
      </trkpt>
      <trkpt lat="45.71263" lon="5.71725">
        <ele>279</ele>
        <time>2025-05-03T09:05:59.061Z</time>
      </trkpt>
      <trkpt lat="45.71263" lon="5.71734">
        <ele>279</ele>
        <time>2025-05-03T09:06:03.580Z</time>
      </trkpt>
      <trkpt lat="45.71264" lon="5.71744">
        <ele>281</ele>
        <time>2025-05-03T09:06:07.879Z</time>
      </trkpt>
      <trkpt lat="45.71265" lon="5.71749">
        <ele>285</ele>
        <time>2025-05-03T09:06:12.042Z</time>
      </trkpt>
      <trkpt lat="45.71265" lon="5.71753">
        <ele>285</ele>
        <time>2025-05-03T09:06:16.060Z</time>
      </trkpt>
      <trkpt lat="45.71264" lon="5.7176">
        <ele>285</ele>
        <time>2025-05-03T09:06:20.699Z</time>
      </trkpt>
      <trkpt lat="45.71264" lon="5.71767">
        <ele>289</ele>
        <time>2025-05-03T09:06:25.259Z</time>
      </trkpt>
      <trkpt lat="45.71264" lon="5.71775">
        <ele>289</ele>
        <time>2025-05-03T09:06:29.648Z</time>
      </trkpt>
      <trkpt lat="45.71265" lon="5.71783">
        <ele>289</ele>
        <time>2025-05-03T09:06:34.087Z</time>
      </trkpt>
      <trkpt lat="45.71266" lon="5.71791">
        <ele>289</ele>
        <time>2025-05-03T09:06:38.126Z</time>
      </trkpt>
      <trkpt lat="45.71262" lon="5.718">
        <ele>291</ele>
        <time>2025-05-03T09:06:43.226Z</time>
      </trkpt>
      <trkpt lat="45.71258" lon="5.7181">
        <ele>291</ele>
        <time>2025-05-03T09:06:47.686Z</time>
      </trkpt>
      <trkpt lat="45.71256" lon="5.7182">
        <ele>293</ele>
        <time>2025-05-03T09:06:52.109Z</time>
      </trkpt>
      <trkpt lat="45.71254" lon="5.71832">
        <ele>293</ele>
        <time>2025-05-03T09:06:56.606Z</time>
      </trkpt>
      <trkpt lat="45.71251" lon="5.71841">
        <ele>293</ele>
        <time>2025-05-03T09:07:01.148Z</time>
      </trkpt>
      <trkpt lat="45.71249" lon="5.7185">
        <ele>297</ele>
        <time>2025-05-03T09:07:05.259Z</time>
      </trkpt>
      <trkpt lat="45.71248" lon="5.71858">
        <ele>297</ele>
        <time>2025-05-03T09:07:09.607Z</time>
      </trkpt>
      <trkpt lat="45.71245" lon="5.71863">
        <ele>297</ele>
        <time>2025-05-03T09:07:14.024Z</time>
      </trkpt>
      <trkpt lat="45.71244" lon="5.7187">
        <ele>297</ele>
        <time>2025-05-03T09:07:18.258Z</time>
      </trkpt>
      <trkpt lat="45.71242" lon="5.71877">
        <ele>304</ele>
        <time>2025-05-03T09:07:22.383Z</time>
      </trkpt>
      <trkpt lat="45.71238" lon="5.71882">
        <ele>304</ele>
        <time>2025-05-03T09:07:26.945Z</time>
      </trkpt>
      <trkpt lat="45.71233" lon="5.71887">
        <ele>296</ele>
        <time>2025-05-03T09:07:31.044Z</time>
      </trkpt>
      <trkpt lat="45.71231" lon="5.71892">
        <ele>296</ele>
        <time>2025-05-03T09:07:35.105Z</time>
      </trkpt>
      <trkpt lat="45.71231" lon="5.71893">
        <ele>296</ele>
        <time>2025-05-03T09:07:39.163Z</time>
      </trkpt>
      <trkpt lat="45.71227" lon="5.71899">
        <ele>296</ele>
        <time>2025-05-03T09:07:43.882Z</time>
      </trkpt>
      <trkpt lat="45.71222" lon="5.71904">
        <ele>303</ele>
        <time>2025-05-03T09:07:48.253Z</time>
      </trkpt>
      <trkpt lat="45.71218" lon="5.71913">
        <ele>303</ele>
        <time>2025-05-03T09:07:52.922Z</time>
      </trkpt>
      <trkpt lat="45.71214" lon="5.71922">
        <ele>303</ele>
        <time>2025-05-03T09:07:57.520Z</time>
      </trkpt>
      <trkpt lat="45.71211" lon="5.7193">
        <ele>303</ele>
        <time>2025-05-03T09:08:01.880Z</time>
      </trkpt>
      <trkpt lat="45.71207" lon="5.71937">
        <ele>299</ele>
        <time>2025-05-03T09:08:06.241Z</time>
      </trkpt>
      <trkpt lat="45.71202" lon="5.71946">
        <ele>299</ele>
        <time>2025-05-03T09:08:10.541Z</time>
      </trkpt>
      <trkpt lat="45.71198" lon="5.71955">
        <ele>299</ele>
        <time>2025-05-03T09:08:15.121Z</time>
      </trkpt>
      <trkpt lat="45.71196" lon="5.71963">
        <ele>303</ele>
        <time>2025-05-03T09:08:19.251Z</time>
      </trkpt>
      <trkpt lat="45.71191" lon="5.71969">
        <ele>303</ele>
        <time>2025-05-03T09:08:23.728Z</time>
      </trkpt>
      <trkpt lat="45.71188" lon="5.71975">
        <ele>303</ele>
        <time>2025-05-03T09:08:28.109Z</time>
      </trkpt>
      <trkpt lat="45.71185" lon="5.7198">
        <ele>303</ele>
        <time>2025-05-03T09:08:32.074Z</time>
      </trkpt>
      <trkpt lat="45.71181" lon="5.71986">
        <ele>312</ele>
        <time>2025-05-03T09:08:36.245Z</time>
      </trkpt>
      <trkpt lat="45.71176" lon="5.71995">
        <ele>301</ele>
        <time>2025-05-03T09:08:40.645Z</time>
      </trkpt>
      <trkpt lat="45.71172" lon="5.72006">
        <ele>301</ele>
        <time>2025-05-03T09:08:45.167Z</time>
      </trkpt>
      <trkpt lat="45.71168" lon="5.72015">
        <ele>314</ele>
        <time>2025-05-03T09:08:49.564Z</time>
      </trkpt>
      <trkpt lat="45.71165" lon="5.72021">
        <ele>314</ele>
        <time>2025-05-03T09:08:53.863Z</time>
      </trkpt>
      <trkpt lat="45.71162" lon="5.72028">
        <ele>314</ele>
        <time>2025-05-03T09:08:58.222Z</time>
      </trkpt>
      <trkpt lat="45.71158" lon="5.72037">
        <ele>314</ele>
        <time>2025-05-03T09:09:02.663Z</time>
      </trkpt>
      <trkpt lat="45.71153" lon="5.72044">
        <ele>327</ele>
        <time>2025-05-03T09:09:07.021Z</time>
      </trkpt>
      <trkpt lat="45.71149" lon="5.72052">
        <ele>319</ele>
        <time>2025-05-03T09:09:11.340Z</time>
      </trkpt>
      <trkpt lat="45.71148" lon="5.72062">
        <ele>319</ele>
        <time>2025-05-03T09:09:15.600Z</time>
      </trkpt>
      <trkpt lat="45.71148" lon="5.72072">
        <ele>328</ele>
        <time>2025-05-03T09:09:19.800Z</time>
      </trkpt>
      <trkpt lat="45.71146" lon="5.7208">
        <ele>328</ele>
        <time>2025-05-03T09:09:24.147Z</time>
      </trkpt>
      <trkpt lat="45.71146" lon="5.7209">
        <ele>328</ele>
        <time>2025-05-03T09:09:28.499Z</time>
      </trkpt>
      <trkpt lat="45.71143" lon="5.72098">
        <ele>340</ele>
        <time>2025-05-03T09:09:32.981Z</time>
      </trkpt>
      <trkpt lat="45.7114" lon="5.72105">
        <ele>340</ele>
        <time>2025-05-03T09:09:37.199Z</time>
      </trkpt>
      <trkpt lat="45.71137" lon="5.72113">
        <ele>340</ele>
        <time>2025-05-03T09:09:41.253Z</time>
      </trkpt>
      <trkpt lat="45.71133" lon="5.72118">
        <ele>340</ele>
        <time>2025-05-03T09:09:45.256Z</time>
      </trkpt>
      <trkpt lat="45.71128" lon="5.72123">
        <ele>340</ele>
        <time>2025-05-03T09:09:50.247Z</time>
      </trkpt>
      <trkpt lat="45.71128" lon="5.72122">
        <ele>340</ele>
        <time>2025-05-03T09:09:54.263Z</time>
      </trkpt>
      <trkpt lat="45.71126" lon="5.72122">
        <ele>340</ele>
        <time>2025-05-03T09:09:58.847Z</time>
      </trkpt>
      <trkpt lat="45.71119" lon="5.72125">
        <ele>328</ele>
        <time>2025-05-03T09:10:03.029Z</time>
      </trkpt>
      <trkpt lat="45.71113" lon="5.72128">
        <ele>351</ele>
        <time>2025-05-03T09:10:07.548Z</time>
      </trkpt>
      <trkpt lat="45.71109" lon="5.72136">
        <ele>351</ele>
        <time>2025-05-03T09:10:12.008Z</time>
      </trkpt>
      <trkpt lat="45.71107" lon="5.72143">
        <ele>351</ele>
        <time>2025-05-03T09:10:16.527Z</time>
      </trkpt>
      <trkpt lat="45.71109" lon="5.72147">
        <ele>351</ele>
        <time>2025-05-03T09:10:20.547Z</time>
      </trkpt>
      <trkpt lat="45.71111" lon="5.72148">
        <ele>351</ele>
        <time>2025-05-03T09:10:24.748Z</time>
      </trkpt>
      <trkpt lat="45.71116" lon="5.72147">
        <ele>351</ele>
        <time>2025-05-03T09:10:29.186Z</time>
      </trkpt>
      <trkpt lat="45.71122" lon="5.72146">
        <ele>351</ele>
        <time>2025-05-03T09:11:06.725Z</time>
      </trkpt>
      <trkpt lat="45.71118" lon="5.72153">
        <ele>351</ele>
        <time>2025-05-03T09:11:11.246Z</time>
      </trkpt>
      <trkpt lat="45.71112" lon="5.72159">
        <ele>370</ele>
        <time>2025-05-03T09:11:15.744Z</time>
      </trkpt>
      <trkpt lat="45.71111" lon="5.72165">
        <ele>370</ele>
        <time>2025-05-03T09:11:20.258Z</time>
      </trkpt>
      <trkpt lat="45.71114" lon="5.72171">
        <ele>370</ele>
        <time>2025-05-03T09:11:24.344Z</time>
      </trkpt>
      <trkpt lat="45.71119" lon="5.72171">
        <ele>370</ele>
        <time>2025-05-03T09:11:28.885Z</time>
      </trkpt>
      <trkpt lat="45.71121" lon="5.72174">
        <ele>370</ele>
        <time>2025-05-03T09:11:33.225Z</time>
      </trkpt>
      <trkpt lat="45.71119" lon="5.72179">
        <ele>370</ele>
        <time>2025-05-03T09:11:37.242Z</time>
      </trkpt>
      <trkpt lat="45.71116" lon="5.72185">
        <ele>375</ele>
        <time>2025-05-03T09:11:41.782Z</time>
      </trkpt>
      <trkpt lat="45.71115" lon="5.7219">
        <ele>375</ele>
        <time>2025-05-03T09:11:51.259Z</time>
      </trkpt>
      <trkpt lat="45.71115" lon="5.7219">
        <ele>375</ele>
        <time>2025-05-03T09:11:56.022Z</time>
      </trkpt>
      <trkpt lat="45.71115" lon="5.72193">
        <ele>375</ele>
        <time>2025-05-03T09:12:00.257Z</time>
      </trkpt>
      <trkpt lat="45.71114" lon="5.72202">
        <ele>375</ele>
        <time>2025-05-03T09:12:04.442Z</time>
      </trkpt>
      <trkpt lat="45.71115" lon="5.72212">
        <ele>379</ele>
        <time>2025-05-03T09:12:09.040Z</time>
      </trkpt>
      <trkpt lat="45.71117" lon="5.72213">
        <ele>379</ele>
        <time>2025-05-03T09:12:18.245Z</time>
      </trkpt>
      <trkpt lat="45.71119" lon="5.72213">
        <ele>379</ele>
        <time>2025-05-03T09:12:23.263Z</time>
      </trkpt>
      <trkpt lat="45.7112" lon="5.72214">
        <ele>379</ele>
        <time>2025-05-03T09:12:27.606Z</time>
      </trkpt>
      <trkpt lat="45.71123" lon="5.72215">
        <ele>379</ele>
        <time>2025-05-03T09:12:31.786Z</time>
      </trkpt>
      <trkpt lat="45.7113" lon="5.72213">
        <ele>378</ele>
        <time>2025-05-03T09:12:36.147Z</time>
      </trkpt>
      <trkpt lat="45.71133" lon="5.72209">
        <ele>378</ele>
        <time>2025-05-03T09:12:53.163Z</time>
      </trkpt>
      <trkpt lat="45.71131" lon="5.72215">
        <ele>378</ele>
        <time>2025-05-03T09:12:57.241Z</time>
      </trkpt>
      <trkpt lat="45.71128" lon="5.72221">
        <ele>378</ele>
        <time>2025-05-03T09:13:01.624Z</time>
      </trkpt>
      <trkpt lat="45.71126" lon="5.72228">
        <ele>378</ele>
        <time>2025-05-03T09:13:06.202Z</time>
      </trkpt>
      <trkpt lat="45.71124" lon="5.72235">
        <ele>379</ele>
        <time>2025-05-03T09:13:10.664Z</time>
      </trkpt>
      <trkpt lat="45.71135" lon="5.72238">
        <ele>382</ele>
        <time>2025-05-03T09:13:49.862Z</time>
      </trkpt>
      <trkpt lat="45.71136" lon="5.72247">
        <ele>382</ele>
        <time>2025-05-03T09:13:54.902Z</time>
      </trkpt>
      <trkpt lat="45.71135" lon="5.72255">
        <ele>382</ele>
        <time>2025-05-03T09:13:59.341Z</time>
      </trkpt>
      <trkpt lat="45.71133" lon="5.72263">
        <ele>382</ele>
        <time>2025-05-03T09:14:03.640Z</time>
      </trkpt>
      <trkpt lat="45.71131" lon="5.72271">
        <ele>386</ele>
        <time>2025-05-03T09:14:08.080Z</time>
      </trkpt>
      <trkpt lat="45.7112" lon="5.72293">
        <ele>385</ele>
        <time>2025-05-03T09:14:26.109Z</time>
      </trkpt>
      <trkpt lat="45.71119" lon="5.72295">
        <ele>385</ele>
        <time>2025-05-03T09:14:30.548Z</time>
      </trkpt>
      <trkpt lat="45.71117" lon="5.72306">
        <ele>385</ele>
        <time>2025-05-03T09:14:35.068Z</time>
      </trkpt>
      <trkpt lat="45.71115" lon="5.72315">
        <ele>385</ele>
        <time>2025-05-03T09:14:39.447Z</time>
      </trkpt>
      <trkpt lat="45.71118" lon="5.72324">
        <ele>388</ele>
        <time>2025-05-03T09:14:43.607Z</time>
      </trkpt>
      <trkpt lat="45.71118" lon="5.72334">
        <ele>388</ele>
        <time>2025-05-03T09:14:48.108Z</time>
      </trkpt>
      <trkpt lat="45.71116" lon="5.72343">
        <ele>388</ele>
        <time>2025-05-03T09:14:52.227Z</time>
      </trkpt>
      <trkpt lat="45.71114" lon="5.7235">
        <ele>388</ele>
        <time>2025-05-03T09:14:57.103Z</time>
      </trkpt>
      <trkpt lat="45.71114" lon="5.72352">
        <ele>388</ele>
        <time>2025-05-03T09:15:01.255Z</time>
      </trkpt>
      <trkpt lat="45.71112" lon="5.72362">
        <ele>388</ele>
        <time>2025-05-03T09:15:23.264Z</time>
      </trkpt>
      <trkpt lat="45.71112" lon="5.72362">
        <ele>388</ele>
        <time>2025-05-03T09:15:28.218Z</time>
      </trkpt>
      <trkpt lat="45.71111" lon="5.72364">
        <ele>388</ele>
        <time>2025-05-03T09:15:33.254Z</time>
      </trkpt>
      <trkpt lat="45.71111" lon="5.72365">
        <ele>388</ele>
        <time>2025-05-03T09:15:37.801Z</time>
      </trkpt>
      <trkpt lat="45.7111" lon="5.72371">
        <ele>388</ele>
        <time>2025-05-03T09:15:41.981Z</time>
      </trkpt>
      <trkpt lat="45.71112" lon="5.72381">
        <ele>389</ele>
        <time>2025-05-03T09:15:46.041Z</time>
      </trkpt>
      <trkpt lat="45.71114" lon="5.72391">
        <ele>389</ele>
        <time>2025-05-03T09:15:50.403Z</time>
      </trkpt>
      <trkpt lat="45.71113" lon="5.72401">
        <ele>389</ele>
        <time>2025-05-03T09:15:54.781Z</time>
      </trkpt>
      <trkpt lat="45.71111" lon="5.72411">
        <ele>388</ele>
        <time>2025-05-03T09:15:59.200Z</time>
      </trkpt>
      <trkpt lat="45.71112" lon="5.72418">
        <ele>388</ele>
        <time>2025-05-03T09:16:03.219Z</time>
      </trkpt>
      <trkpt lat="45.71114" lon="5.72425">
        <ele>388</ele>
        <time>2025-05-03T09:16:07.741Z</time>
      </trkpt>
      <trkpt lat="45.71115" lon="5.72431">
        <ele>392</ele>
        <time>2025-05-03T09:16:12.249Z</time>
      </trkpt>
      <trkpt lat="45.71115" lon="5.72439">
        <ele>392</ele>
        <time>2025-05-03T09:16:16.708Z</time>
      </trkpt>
      <trkpt lat="45.71116" lon="5.72448">
        <ele>392</ele>
        <time>2025-05-03T09:16:21.187Z</time>
      </trkpt>
      <trkpt lat="45.71117" lon="5.72456">
        <ele>392</ele>
        <time>2025-05-03T09:16:25.256Z</time>
      </trkpt>
      <trkpt lat="45.71116" lon="5.72457">
        <ele>392</ele>
        <time>2025-05-03T09:16:30.253Z</time>
      </trkpt>
      <trkpt lat="45.71117" lon="5.7246">
        <ele>393</ele>
        <time>2025-05-03T09:16:35.252Z</time>
      </trkpt>
      <trkpt lat="45.71117" lon="5.72462">
        <ele>393</ele>
        <time>2025-05-03T09:16:40.090Z</time>
      </trkpt>
      <trkpt lat="45.71119" lon="5.7247">
        <ele>393</ele>
        <time>2025-05-03T09:16:44.389Z</time>
      </trkpt>
      <trkpt lat="45.71121" lon="5.72478">
        <ele>393</ele>
        <time>2025-05-03T09:16:48.668Z</time>
      </trkpt>
      <trkpt lat="45.71123" lon="5.72485">
        <ele>393</ele>
        <time>2025-05-03T09:16:53.259Z</time>
      </trkpt>
      <trkpt lat="45.71126" lon="5.72491">
        <ele>397</ele>
        <time>2025-05-03T09:16:57.727Z</time>
      </trkpt>
      <trkpt lat="45.71134" lon="5.725">
        <ele>397</ele>
        <time>2025-05-03T09:17:15.527Z</time>
      </trkpt>
      <trkpt lat="45.71136" lon="5.725">
        <ele>397</ele>
        <time>2025-05-03T09:17:20.243Z</time>
      </trkpt>
      <trkpt lat="45.71143" lon="5.72505">
        <ele>397</ele>
        <time>2025-05-03T09:17:24.868Z</time>
      </trkpt>
      <trkpt lat="45.71146" lon="5.72508">
        <ele>397</ele>
        <time>2025-05-03T09:17:29.007Z</time>
      </trkpt>
      <trkpt lat="45.71148" lon="5.72513">
        <ele>397</ele>
        <time>2025-05-03T09:17:33.257Z</time>
      </trkpt>
      <trkpt lat="45.71147" lon="5.72521">
        <ele>397</ele>
        <time>2025-05-03T09:17:37.925Z</time>
      </trkpt>
      <trkpt lat="45.71147" lon="5.72527">
        <ele>397</ele>
        <time>2025-05-03T09:17:41.983Z</time>
      </trkpt>
      <trkpt lat="45.71147" lon="5.72534">
        <ele>397</ele>
        <time>2025-05-03T09:17:46.106Z</time>
      </trkpt>
      <trkpt lat="45.71147" lon="5.72541">
        <ele>397</ele>
        <time>2025-05-03T09:17:50.465Z</time>
      </trkpt>
      <trkpt lat="45.71148" lon="5.72548">
        <ele>394</ele>
        <time>2025-05-03T09:17:55.184Z</time>
      </trkpt>
      <trkpt lat="45.71149" lon="5.72553">
        <ele>394</ele>
        <time>2025-05-03T09:17:59.245Z</time>
      </trkpt>
      <trkpt lat="45.71151" lon="5.72561">
        <ele>394</ele>
        <time>2025-05-03T09:18:03.643Z</time>
      </trkpt>
      <trkpt lat="45.71155" lon="5.72573">
        <ele>411</ele>
        <time>2025-05-03T09:18:08.245Z</time>
      </trkpt>
      <trkpt lat="45.71156" lon="5.72581">
        <ele>411</ele>
        <time>2025-05-03T09:18:12.252Z</time>
      </trkpt>
      <trkpt lat="45.71157" lon="5.72589">
        <ele>411</ele>
        <time>2025-05-03T09:18:16.581Z</time>
      </trkpt>
      <trkpt lat="45.71156" lon="5.72596">
        <ele>411</ele>
        <time>2025-05-03T09:18:21.256Z</time>
      </trkpt>
      <trkpt lat="45.71155" lon="5.72602">
        <ele>403</ele>
        <time>2025-05-03T09:18:25.621Z</time>
      </trkpt>
      <trkpt lat="45.71152" lon="5.72609">
        <ele>394</ele>
        <time>2025-05-03T09:18:30.021Z</time>
      </trkpt>
      <trkpt lat="45.71148" lon="5.72616">
        <ele>394</ele>
        <time>2025-05-03T09:18:34.939Z</time>
      </trkpt>
      <trkpt lat="45.71144" lon="5.7262">
        <ele>394</ele>
        <time>2025-05-03T09:18:39.239Z</time>
      </trkpt>
      <trkpt lat="45.71141" lon="5.72625">
        <ele>394</ele>
        <time>2025-05-03T09:18:43.600Z</time>
      </trkpt>
      <trkpt lat="45.71136" lon="5.7263">
        <ele>389</ele>
        <time>2025-05-03T09:18:47.960Z</time>
      </trkpt>
      <trkpt lat="45.71132" lon="5.72634">
        <ele>389</ele>
        <time>2025-05-03T09:18:52.061Z</time>
      </trkpt>
      <trkpt lat="45.71128" lon="5.72642">
        <ele>389</ele>
        <time>2025-05-03T09:18:57.253Z</time>
      </trkpt>
      <trkpt lat="45.71127" lon="5.72647">
        <ele>389</ele>
        <time>2025-05-03T09:19:01.619Z</time>
      </trkpt>
      <trkpt lat="45.71125" lon="5.72654">
        <ele>385</ele>
        <time>2025-05-03T09:19:05.860Z</time>
      </trkpt>
      <trkpt lat="45.71123" lon="5.72661">
        <ele>374</ele>
        <time>2025-05-03T09:19:10.068Z</time>
      </trkpt>
      <trkpt lat="45.7112" lon="5.72668">
        <ele>374</ele>
        <time>2025-05-03T09:19:14.228Z</time>
      </trkpt>
      <trkpt lat="45.71116" lon="5.72676">
        <ele>374</ele>
        <time>2025-05-03T09:19:19.049Z</time>
      </trkpt>
      <trkpt lat="45.71114" lon="5.72684">
        <ele>373</ele>
        <time>2025-05-03T09:19:23.249Z</time>
      </trkpt>
      <trkpt lat="45.71113" lon="5.72691">
        <ele>373</ele>
        <time>2025-05-03T09:19:27.627Z</time>
      </trkpt>
      <trkpt lat="45.71113" lon="5.72699">
        <ele>373</ele>
        <time>2025-05-03T09:19:32.007Z</time>
      </trkpt>
      <trkpt lat="45.71117" lon="5.72706">
        <ele>373</ele>
        <time>2025-05-03T09:19:36.465Z</time>
      </trkpt>
      <trkpt lat="45.71119" lon="5.72714">
        <ele>371</ele>
        <time>2025-05-03T09:19:41.025Z</time>
      </trkpt>
      <trkpt lat="45.71122" lon="5.72721">
        <ele>371</ele>
        <time>2025-05-03T09:19:45.526Z</time>
      </trkpt>
      <trkpt lat="45.71123" lon="5.7273">
        <ele>371</ele>
        <time>2025-05-03T09:19:49.923Z</time>
      </trkpt>
      <trkpt lat="45.71124" lon="5.72737">
        <ele>364</ele>
        <time>2025-05-03T09:19:54.605Z</time>
      </trkpt>
      <trkpt lat="45.71126" lon="5.72744">
        <ele>383</ele>
        <time>2025-05-03T09:19:58.984Z</time>
      </trkpt>
      <trkpt lat="45.71128" lon="5.7275">
        <ele>383</ele>
        <time>2025-05-03T09:20:03.043Z</time>
      </trkpt>
      <trkpt lat="45.71129" lon="5.72759">
        <ele>383</ele>
        <time>2025-05-03T09:20:07.444Z</time>
      </trkpt>
      <trkpt lat="45.71131" lon="5.72768">
        <ele>379</ele>
        <time>2025-05-03T09:20:12.163Z</time>
      </trkpt>
      <trkpt lat="45.71133" lon="5.72775">
        <ele>379</ele>
        <time>2025-05-03T09:20:16.522Z</time>
      </trkpt>
      <trkpt lat="45.71136" lon="5.72781">
        <ele>379</ele>
        <time>2025-05-03T09:20:21.142Z</time>
      </trkpt>
      <trkpt lat="45.71139" lon="5.72786">
        <ele>379</ele>
        <time>2025-05-03T09:20:25.663Z</time>
      </trkpt>
      <trkpt lat="45.71142" lon="5.72793">
        <ele>367</ele>
        <time>2025-05-03T09:20:30.064Z</time>
      </trkpt>
      <trkpt lat="45.71145" lon="5.728">
        <ele>367</ele>
        <time>2025-05-03T09:20:34.642Z</time>
      </trkpt>
      <trkpt lat="45.71148" lon="5.72808">
        <ele>367</ele>
        <time>2025-05-03T09:20:38.983Z</time>
      </trkpt>
      <trkpt lat="45.71152" lon="5.72816">
        <ele>367</ele>
        <time>2025-05-03T09:20:43.250Z</time>
      </trkpt>
      <trkpt lat="45.71155" lon="5.72824">
        <ele>380</ele>
        <time>2025-05-03T09:20:47.680Z</time>
      </trkpt>
      <trkpt lat="45.71157" lon="5.72831">
        <ele>380</ele>
        <time>2025-05-03T09:20:51.862Z</time>
      </trkpt>
      <trkpt lat="45.71158" lon="5.72838">
        <ele>380</ele>
        <time>2025-05-03T09:20:56.101Z</time>
      </trkpt>
      <trkpt lat="45.7116" lon="5.72845">
        <ele>380</ele>
        <time>2025-05-03T09:21:00.257Z</time>
      </trkpt>
      <trkpt lat="45.71162" lon="5.72854">
        <ele>371</ele>
        <time>2025-05-03T09:21:05.256Z</time>
      </trkpt>
      <trkpt lat="45.71165" lon="5.72862">
        <ele>371</ele>
        <time>2025-05-03T09:21:09.760Z</time>
      </trkpt>
      <trkpt lat="45.71166" lon="5.72871">
        <ele>371</ele>
        <time>2025-05-03T09:21:14.059Z</time>
      </trkpt>
      <trkpt lat="45.71169" lon="5.72879">
        <ele>365</ele>
        <time>2025-05-03T09:21:18.409Z</time>
      </trkpt>
      <trkpt lat="45.71171" lon="5.72885">
        <ele>365</ele>
        <time>2025-05-03T09:21:22.688Z</time>
      </trkpt>
      <trkpt lat="45.71173" lon="5.72893">
        <ele>365</ele>
        <time>2025-05-03T09:21:27.260Z</time>
      </trkpt>
      <trkpt lat="45.71176" lon="5.72903">
        <ele>352</ele>
        <time>2025-05-03T09:21:32.129Z</time>
      </trkpt>
      <trkpt lat="45.7118" lon="5.7291">
        <ele>352</ele>
        <time>2025-05-03T09:21:36.256Z</time>
      </trkpt>
      <trkpt lat="45.71183" lon="5.72915">
        <ele>382</ele>
        <time>2025-05-03T09:21:40.257Z</time>
      </trkpt>
      <trkpt lat="45.71186" lon="5.72922">
        <ele>382</ele>
        <time>2025-05-03T09:21:44.667Z</time>
      </trkpt>
      <trkpt lat="45.7119" lon="5.72929">
        <ele>382</ele>
        <time>2025-05-03T09:21:49.027Z</time>
      </trkpt>
      <trkpt lat="45.71192" lon="5.72938">
        <ele>373</ele>
        <time>2025-05-03T09:21:53.427Z</time>
      </trkpt>
      <trkpt lat="45.71193" lon="5.72947">
        <ele>373</ele>
        <time>2025-05-03T09:21:58.257Z</time>
      </trkpt>
      <trkpt lat="45.71195" lon="5.72956">
        <ele>373</ele>
        <time>2025-05-03T09:22:02.925Z</time>
      </trkpt>
      <trkpt lat="45.71197" lon="5.72964">
        <ele>370</ele>
        <time>2025-05-03T09:22:07.250Z</time>
      </trkpt>
      <trkpt lat="45.712" lon="5.72972">
        <ele>370</ele>
        <time>2025-05-03T09:22:11.766Z</time>
      </trkpt>
      <trkpt lat="45.71202" lon="5.72979">
        <ele>370</ele>
        <time>2025-05-03T09:22:16.146Z</time>
      </trkpt>
      <trkpt lat="45.71205" lon="5.72985">
        <ele>370</ele>
        <time>2025-05-03T09:22:20.259Z</time>
      </trkpt>
      <trkpt lat="45.71207" lon="5.72993">
        <ele>356</ele>
        <time>2025-05-03T09:22:24.264Z</time>
      </trkpt>
      <trkpt lat="45.7121" lon="5.73003">
        <ele>375</ele>
        <time>2025-05-03T09:22:29.266Z</time>
      </trkpt>
      <trkpt lat="45.71212" lon="5.7301">
        <ele>375</ele>
        <time>2025-05-03T09:22:33.605Z</time>
      </trkpt>
      <trkpt lat="45.71214" lon="5.73018">
        <ele>366</ele>
        <time>2025-05-03T09:22:38.260Z</time>
      </trkpt>
      <trkpt lat="45.71218" lon="5.73026">
        <ele>366</ele>
        <time>2025-05-03T09:22:42.604Z</time>
      </trkpt>
      <trkpt lat="45.71223" lon="5.73036">
        <ele>366</ele>
        <time>2025-05-03T09:22:46.965Z</time>
      </trkpt>
      <trkpt lat="45.71226" lon="5.73042">
        <ele>363</ele>
        <time>2025-05-03T09:22:51.236Z</time>
      </trkpt>
      <trkpt lat="45.71236" lon="5.73055">
        <ele>363</ele>
        <time>2025-05-03T09:23:28.246Z</time>
      </trkpt>
      <trkpt lat="45.71236" lon="5.73058">
        <ele>363</ele>
        <time>2025-05-03T09:23:33.248Z</time>
      </trkpt>
      <trkpt lat="45.71236" lon="5.73062">
        <ele>378</ele>
        <time>2025-05-03T09:23:38.264Z</time>
      </trkpt>
      <trkpt lat="45.71237" lon="5.73063">
        <ele>378</ele>
        <time>2025-05-03T09:23:44.265Z</time>
      </trkpt>
      <trkpt lat="45.71238" lon="5.73063">
        <ele>378</ele>
        <time>2025-05-03T09:23:49.262Z</time>
      </trkpt>
      <trkpt lat="45.7124" lon="5.73066">
        <ele>378</ele>
        <time>2025-05-03T09:24:34.202Z</time>
      </trkpt>
      <trkpt lat="45.71241" lon="5.73069">
        <ele>378</ele>
        <time>2025-05-03T09:24:38.245Z</time>
      </trkpt>
      <trkpt lat="45.71243" lon="5.73076">
        <ele>378</ele>
        <time>2025-05-03T09:24:42.246Z</time>
      </trkpt>
      <trkpt lat="45.71244" lon="5.73083">
        <ele>378</ele>
        <time>2025-05-03T09:24:47.252Z</time>
      </trkpt>
      <trkpt lat="45.71245" lon="5.73089">
        <ele>378</ele>
        <time>2025-05-03T09:24:52.235Z</time>
      </trkpt>
      <trkpt lat="45.71247" lon="5.73103">
        <ele>383</ele>
        <time>2025-05-03T09:25:38.260Z</time>
      </trkpt>
      <trkpt lat="45.71247" lon="5.73104">
        <ele>383</ele>
        <time>2025-05-03T09:25:44.247Z</time>
      </trkpt>
      <trkpt lat="45.71247" lon="5.73104">
        <ele>383</ele>
        <time>2025-05-03T09:25:48.389Z</time>
      </trkpt>
      <trkpt lat="45.71247" lon="5.73106">
        <ele>383</ele>
        <time>2025-05-03T09:25:53.208Z</time>
      </trkpt>
      <trkpt lat="45.71247" lon="5.73107">
        <ele>383</ele>
        <time>2025-05-03T09:25:58.215Z</time>
      </trkpt>
      <trkpt lat="45.71248" lon="5.73113">
        <ele>383</ele>
        <time>2025-05-03T09:26:20.843Z</time>
      </trkpt>
      <trkpt lat="45.71248" lon="5.73115">
        <ele>383</ele>
        <time>2025-05-03T09:26:25.254Z</time>
      </trkpt>
      <trkpt lat="45.71248" lon="5.73115">
        <ele>383</ele>
        <time>2025-05-03T09:26:30.249Z</time>
      </trkpt>
      <trkpt lat="45.71249" lon="5.73117">
        <ele>383</ele>
        <time>2025-05-03T09:26:34.582Z</time>
      </trkpt>
      <trkpt lat="45.71251" lon="5.73123">
        <ele>383</ele>
        <time>2025-05-03T09:26:39.235Z</time>
      </trkpt>
      <trkpt lat="45.71251" lon="5.73131">
        <ele>380</ele>
        <time>2025-05-03T09:26:43.262Z</time>
      </trkpt>
      <trkpt lat="45.71249" lon="5.73141">
        <ele>380</ele>
        <time>2025-05-03T09:26:47.881Z</time>
      </trkpt>
      <trkpt lat="45.71248" lon="5.73149">
        <ele>380</ele>
        <time>2025-05-03T09:26:51.961Z</time>
      </trkpt>
      <trkpt lat="45.71247" lon="5.73156">
        <ele>380</ele>
        <time>2025-05-03T09:26:56.041Z</time>
      </trkpt>
      <trkpt lat="45.71246" lon="5.73163">
        <ele>380</ele>
        <time>2025-05-03T09:27:00.104Z</time>
      </trkpt>
      <trkpt lat="45.71244" lon="5.7317">
        <ele>380</ele>
        <time>2025-05-03T09:27:04.162Z</time>
      </trkpt>
      <trkpt lat="45.71243" lon="5.7318">
        <ele>380</ele>
        <time>2025-05-03T09:27:08.722Z</time>
      </trkpt>
      <trkpt lat="45.71242" lon="5.73191">
        <ele>378</ele>
        <time>2025-05-03T09:27:13.258Z</time>
      </trkpt>
      <trkpt lat="45.71243" lon="5.73202">
        <ele>378</ele>
        <time>2025-05-03T09:27:18.255Z</time>
      </trkpt>
      <trkpt lat="45.71242" lon="5.73211">
        <ele>374</ele>
        <time>2025-05-03T09:27:22.460Z</time>
      </trkpt>
      <trkpt lat="45.71242" lon="5.73218">
        <ele>374</ele>
        <time>2025-05-03T09:27:26.800Z</time>
      </trkpt>
      <trkpt lat="45.71242" lon="5.73223">
        <ele>374</ele>
        <time>2025-05-03T09:27:31.246Z</time>
      </trkpt>
      <trkpt lat="45.71243" lon="5.73223">
        <ele>374</ele>
        <time>2025-05-03T09:27:37.249Z</time>
      </trkpt>
      <trkpt lat="45.71243" lon="5.73223">
        <ele>374</ele>
        <time>2025-05-03T09:27:41.947Z</time>
      </trkpt>
      <trkpt lat="45.71243" lon="5.73225">
        <ele>374</ele>
        <time>2025-05-03T09:27:46.046Z</time>
      </trkpt>
      <trkpt lat="45.71245" lon="5.73233">
        <ele>374</ele>
        <time>2025-05-03T09:27:50.167Z</time>
      </trkpt>
      <trkpt lat="45.71247" lon="5.73241">
        <ele>370</ele>
        <time>2025-05-03T09:27:54.665Z</time>
      </trkpt>
      <trkpt lat="45.71249" lon="5.73248">
        <ele>370</ele>
        <time>2025-05-03T09:27:59.245Z</time>
      </trkpt>
      <trkpt lat="45.7125" lon="5.73257">
        <ele>370</ele>
        <time>2025-05-03T09:28:03.865Z</time>
      </trkpt>
      <trkpt lat="45.7125" lon="5.73267">
        <ele>368</ele>
        <time>2025-05-03T09:28:08.245Z</time>
      </trkpt>
      <trkpt lat="45.7125" lon="5.73275">
        <ele>368</ele>
        <time>2025-05-03T09:28:12.250Z</time>
      </trkpt>
      <trkpt lat="45.71251" lon="5.73284">
        <ele>368</ele>
        <time>2025-05-03T09:28:16.905Z</time>
      </trkpt>
      <trkpt lat="45.7125" lon="5.73292">
        <ele>363</ele>
        <time>2025-05-03T09:28:20.985Z</time>
      </trkpt>
      <trkpt lat="45.7125" lon="5.73298">
        <ele>363</ele>
        <time>2025-05-03T09:28:25.244Z</time>
      </trkpt>
      <trkpt lat="45.71251" lon="5.73305">
        <ele>363</ele>
        <time>2025-05-03T09:28:29.247Z</time>
      </trkpt>
      <trkpt lat="45.71253" lon="5.73315">
        <ele>363</ele>
        <time>2025-05-03T09:28:33.643Z</time>
      </trkpt>
      <trkpt lat="45.71254" lon="5.73326">
        <ele>359</ele>
        <time>2025-05-03T09:28:38.184Z</time>
      </trkpt>
      <trkpt lat="45.71255" lon="5.73337">
        <ele>359</ele>
        <time>2025-05-03T09:28:42.664Z</time>
      </trkpt>
      <trkpt lat="45.71255" lon="5.73345">
        <ele>359</ele>
        <time>2025-05-03T09:28:46.743Z</time>
      </trkpt>
      <trkpt lat="45.71257" lon="5.73351">
        <ele>356</ele>
        <time>2025-05-03T09:28:50.842Z</time>
      </trkpt>
      <trkpt lat="45.71258" lon="5.73358">
        <ele>356</ele>
        <time>2025-05-03T09:28:55.202Z</time>
      </trkpt>
      <trkpt lat="45.7126" lon="5.73367">
        <ele>356</ele>
        <time>2025-05-03T09:28:59.784Z</time>
      </trkpt>
      <trkpt lat="45.71263" lon="5.73375">
        <ele>356</ele>
        <time>2025-05-03T09:29:04.022Z</time>
      </trkpt>
      <trkpt lat="45.71265" lon="5.73381">
        <ele>362</ele>
        <time>2025-05-03T09:29:08.061Z</time>
      </trkpt>
      <trkpt lat="45.71267" lon="5.73389">
        <ele>362</ele>
        <time>2025-05-03T09:29:12.401Z</time>
      </trkpt>
      <trkpt lat="45.71271" lon="5.73394">
        <ele>362</ele>
        <time>2025-05-03T09:29:16.742Z</time>
      </trkpt>
      <trkpt lat="45.71274" lon="5.73402">
        <ele>362</ele>
        <time>2025-05-03T09:29:20.882Z</time>
      </trkpt>
      <trkpt lat="45.71277" lon="5.7341">
        <ele>360</ele>
        <time>2025-05-03T09:29:25.199Z</time>
      </trkpt>
      <trkpt lat="45.7128" lon="5.73416">
        <ele>360</ele>
        <time>2025-05-03T09:29:29.199Z</time>
      </trkpt>
      <trkpt lat="45.71282" lon="5.73424">
        <ele>360</ele>
        <time>2025-05-03T09:29:33.839Z</time>
      </trkpt>
      <trkpt lat="45.71283" lon="5.73432">
        <ele>358</ele>
        <time>2025-05-03T09:29:37.860Z</time>
      </trkpt>
      <trkpt lat="45.71286" lon="5.73439">
        <ele>358</ele>
        <time>2025-05-03T09:29:41.920Z</time>
      </trkpt>
      <trkpt lat="45.71288" lon="5.73447">
        <ele>358</ele>
        <time>2025-05-03T09:29:45.999Z</time>
      </trkpt>
      <trkpt lat="45.7129" lon="5.73457">
        <ele>358</ele>
        <time>2025-05-03T09:29:50.469Z</time>
      </trkpt>
      <trkpt lat="45.71296" lon="5.73465">
        <ele>367</ele>
        <time>2025-05-03T09:29:55.247Z</time>
      </trkpt>
      <trkpt lat="45.71301" lon="5.73472">
        <ele>367</ele>
        <time>2025-05-03T09:29:59.388Z</time>
      </trkpt>
      <trkpt lat="45.71306" lon="5.73478">
        <ele>367</ele>
        <time>2025-05-03T09:30:03.808Z</time>
      </trkpt>
      <trkpt lat="45.71311" lon="5.73483">
        <ele>367</ele>
        <time>2025-05-03T09:30:08.348Z</time>
      </trkpt>
      <trkpt lat="45.71318" lon="5.73488">
        <ele>363</ele>
        <time>2025-05-03T09:30:12.989Z</time>
      </trkpt>
      <trkpt lat="45.71325" lon="5.73489">
        <ele>370</ele>
        <time>2025-05-03T09:30:25.627Z</time>
      </trkpt>
      <trkpt lat="45.71328" lon="5.7349">
        <ele>370</ele>
        <time>2025-05-03T09:30:29.825Z</time>
      </trkpt>
      <trkpt lat="45.71333" lon="5.73492">
        <ele>370</ele>
        <time>2025-05-03T09:30:33.885Z</time>
      </trkpt>
      <trkpt lat="45.71338" lon="5.73498">
        <ele>370</ele>
        <time>2025-05-03T09:30:37.965Z</time>
      </trkpt>
      <trkpt lat="45.71343" lon="5.73505">
        <ele>370</ele>
        <time>2025-05-03T09:30:42.525Z</time>
      </trkpt>
      <trkpt lat="45.71346" lon="5.73511">
        <ele>370</ele>
        <time>2025-05-03T09:30:46.665Z</time>
      </trkpt>
      <trkpt lat="45.7135" lon="5.73518">
        <ele>379</ele>
        <time>2025-05-03T09:30:50.745Z</time>
      </trkpt>
      <trkpt lat="45.71353" lon="5.73523">
        <ele>379</ele>
        <time>2025-05-03T09:30:55.224Z</time>
      </trkpt>
      <trkpt lat="45.71353" lon="5.73528">
        <ele>379</ele>
        <time>2025-05-03T09:30:59.250Z</time>
      </trkpt>
      <trkpt lat="45.71356" lon="5.73534">
        <ele>379</ele>
        <time>2025-05-03T09:31:04.248Z</time>
      </trkpt>
      <trkpt lat="45.71355" lon="5.73546">
        <ele>375</ele>
        <time>2025-05-03T09:31:08.747Z</time>
      </trkpt>
      <trkpt lat="45.71356" lon="5.73559">
        <ele>375</ele>
        <time>2025-05-03T09:31:13.249Z</time>
      </trkpt>
      <trkpt lat="45.71356" lon="5.7357">
        <ele>370</ele>
        <time>2025-05-03T09:31:17.564Z</time>
      </trkpt>
      <trkpt lat="45.71359" lon="5.73594">
        <ele>370</ele>
        <time>2025-05-03T09:31:32.252Z</time>
      </trkpt>
      <trkpt lat="45.71359" lon="5.73596">
        <ele>370</ele>
        <time>2025-05-03T09:31:36.823Z</time>
      </trkpt>
      <trkpt lat="45.7136" lon="5.73607">
        <ele>365</ele>
        <time>2025-05-03T09:31:41.233Z</time>
      </trkpt>
      <trkpt lat="45.71361" lon="5.73616">
        <ele>365</ele>
        <time>2025-05-03T09:31:45.256Z</time>
      </trkpt>
      <trkpt lat="45.71363" lon="5.73624">
        <ele>365</ele>
        <time>2025-05-03T09:31:49.802Z</time>
      </trkpt>
      <trkpt lat="45.71366" lon="5.73633">
        <ele>363</ele>
        <time>2025-05-03T09:31:54.244Z</time>
      </trkpt>
      <trkpt lat="45.7137" lon="5.73641">
        <ele>363</ele>
        <time>2025-05-03T09:31:58.741Z</time>
      </trkpt>
      <trkpt lat="45.71374" lon="5.73647">
        <ele>363</ele>
        <time>2025-05-03T09:32:03.258Z</time>
      </trkpt>
      <trkpt lat="45.71379" lon="5.73651">
        <ele>376</ele>
        <time>2025-05-03T09:32:07.720Z</time>
      </trkpt>
      <trkpt lat="45.71382" lon="5.73653">
        <ele>374</ele>
        <time>2025-05-03T09:32:11.780Z</time>
      </trkpt>
      <trkpt lat="45.71386" lon="5.73661">
        <ele>374</ele>
        <time>2025-05-03T09:32:16.060Z</time>
      </trkpt>
      <trkpt lat="45.71388" lon="5.73661">
        <ele>374</ele>
        <time>2025-05-03T09:32:21.253Z</time>
      </trkpt>
      <trkpt lat="45.71388" lon="5.73662">
        <ele>374</ele>
        <time>2025-05-03T09:32:26.247Z</time>
      </trkpt>
      <trkpt lat="45.71389" lon="5.73663">
        <ele>374</ele>
        <time>2025-05-03T09:32:31.241Z</time>
      </trkpt>
      <trkpt lat="45.71392" lon="5.73668">
        <ele>374</ele>
        <time>2025-05-03T09:32:35.482Z</time>
      </trkpt>
      <trkpt lat="45.71396" lon="5.73674">
        <ele>374</ele>
        <time>2025-05-03T09:32:40Z</time>
      </trkpt>
      <trkpt lat="45.71401" lon="5.73684">
        <ele>372</ele>
        <time>2025-05-03T09:32:44.542Z</time>
      </trkpt>
      <trkpt lat="45.71403" lon="5.73694">
        <ele>380</ele>
        <time>2025-05-03T09:32:49.108Z</time>
      </trkpt>
      <trkpt lat="45.71406" lon="5.73702">
        <ele>380</ele>
        <time>2025-05-03T09:32:53.207Z</time>
      </trkpt>
      <trkpt lat="45.71409" lon="5.7371">
        <ele>378</ele>
        <time>2025-05-03T09:32:57.259Z</time>
      </trkpt>
      <trkpt lat="45.71414" lon="5.73715">
        <ele>378</ele>
        <time>2025-05-03T09:33:01.404Z</time>
      </trkpt>
      <trkpt lat="45.7142" lon="5.73719">
        <ele>378</ele>
        <time>2025-05-03T09:33:05.925Z</time>
      </trkpt>
      <trkpt lat="45.71425" lon="5.73718">
        <ele>378</ele>
        <time>2025-05-03T09:33:10.463Z</time>
      </trkpt>
      <trkpt lat="45.71431" lon="5.73717">
        <ele>385</ele>
        <time>2025-05-03T09:33:15.203Z</time>
      </trkpt>
      <trkpt lat="45.71433" lon="5.73715">
        <ele>385</ele>
        <time>2025-05-03T09:33:19.422Z</time>
      </trkpt>
      <trkpt lat="45.71437" lon="5.73715">
        <ele>385</ele>
        <time>2025-05-03T09:33:23.981Z</time>
      </trkpt>
      <trkpt lat="45.71443" lon="5.7372">
        <ele>385</ele>
        <time>2025-05-03T09:33:28.903Z</time>
      </trkpt>
      <trkpt lat="45.7145" lon="5.73725">
        <ele>385</ele>
        <time>2025-05-03T09:33:33.254Z</time>
      </trkpt>
      <trkpt lat="45.71455" lon="5.73731">
        <ele>385</ele>
        <time>2025-05-03T09:33:37.855Z</time>
      </trkpt>
      <trkpt lat="45.71457" lon="5.73741">
        <ele>383</ele>
        <time>2025-05-03T09:33:42.258Z</time>
      </trkpt>
      <trkpt lat="45.71459" lon="5.73745">
        <ele>386</ele>
        <time>2025-05-03T09:33:47.253Z</time>
      </trkpt>
      <trkpt lat="45.71459" lon="5.73744">
        <ele>386</ele>
        <time>2025-05-03T09:33:52.251Z</time>
      </trkpt>
      <trkpt lat="45.71461" lon="5.73742">
        <ele>386</ele>
        <time>2025-05-03T09:33:56.254Z</time>
      </trkpt>
      <trkpt lat="45.71463" lon="5.73743">
        <ele>386</ele>
        <time>2025-05-03T09:34:01.259Z</time>
      </trkpt>
      <trkpt lat="45.71468" lon="5.73749">
        <ele>386</ele>
        <time>2025-05-03T09:34:06.253Z</time>
      </trkpt>
      <trkpt lat="45.71474" lon="5.73755">
        <ele>386</ele>
        <time>2025-05-03T09:34:10.581Z</time>
      </trkpt>
      <trkpt lat="45.71479" lon="5.7376">
        <ele>386</ele>
        <time>2025-05-03T09:34:14.920Z</time>
      </trkpt>
      <trkpt lat="45.71483" lon="5.73766">
        <ele>384</ele>
        <time>2025-05-03T09:34:19.260Z</time>
      </trkpt>
      <trkpt lat="45.71487" lon="5.73771">
        <ele>386</ele>
        <time>2025-05-03T09:34:23.620Z</time>
      </trkpt>
      <trkpt lat="45.71492" lon="5.73776">
        <ele>386</ele>
        <time>2025-05-03T09:34:28.182Z</time>
      </trkpt>
      <trkpt lat="45.71498" lon="5.73782">
        <ele>386</ele>
        <time>2025-05-03T09:34:32.256Z</time>
      </trkpt>
      <trkpt lat="45.71507" lon="5.73784">
        <ele>386</ele>
        <time>2025-05-03T09:34:36.459Z</time>
      </trkpt>
      <trkpt lat="45.71514" lon="5.73785">
        <ele>391</ele>
        <time>2025-05-03T09:34:41.001Z</time>
      </trkpt>
      <trkpt lat="45.71519" lon="5.73791">
        <ele>391</ele>
        <time>2025-05-03T09:34:45.539Z</time>
      </trkpt>
      <trkpt lat="45.71525" lon="5.73792">
        <ele>387</ele>
        <time>2025-05-03T09:34:50.139Z</time>
      </trkpt>
      <trkpt lat="45.71529" lon="5.73795">
        <ele>387</ele>
        <time>2025-05-03T09:34:54.581Z</time>
      </trkpt>
      <trkpt lat="45.71532" lon="5.73801">
        <ele>387</ele>
        <time>2025-05-03T09:34:59.255Z</time>
      </trkpt>
      <trkpt lat="45.71535" lon="5.73809">
        <ele>387</ele>
        <time>2025-05-03T09:35:04.018Z</time>
      </trkpt>
      <trkpt lat="45.71539" lon="5.73815">
        <ele>387</ele>
        <time>2025-05-03T09:35:08.261Z</time>
      </trkpt>
      <trkpt lat="45.71541" lon="5.73823">
        <ele>384</ele>
        <time>2025-05-03T09:35:12.710Z</time>
      </trkpt>
      <trkpt lat="45.71543" lon="5.73832">
        <ele>388</ele>
        <time>2025-05-03T09:35:16.908Z</time>
      </trkpt>
      <trkpt lat="45.71546" lon="5.7384">
        <ele>388</ele>
        <time>2025-05-03T09:35:21.090Z</time>
      </trkpt>
      <trkpt lat="45.71549" lon="5.73847">
        <ele>388</ele>
        <time>2025-05-03T09:35:25.257Z</time>
      </trkpt>
      <trkpt lat="45.71552" lon="5.73855">
        <ele>386</ele>
        <time>2025-05-03T09:35:29.448Z</time>
      </trkpt>
      <trkpt lat="45.71554" lon="5.73862">
        <ele>386</ele>
        <time>2025-05-03T09:35:33.589Z</time>
      </trkpt>
      <trkpt lat="45.71557" lon="5.73872">
        <ele>386</ele>
        <time>2025-05-03T09:35:38.256Z</time>
      </trkpt>
      <trkpt lat="45.7156" lon="5.7388">
        <ele>384</ele>
        <time>2025-05-03T09:35:42.408Z</time>
      </trkpt>
      <trkpt lat="45.71563" lon="5.73886">
        <ele>384</ele>
        <time>2025-05-03T09:35:46.468Z</time>
      </trkpt>
      <trkpt lat="45.71565" lon="5.73893">
        <ele>384</ele>
        <time>2025-05-03T09:35:50.828Z</time>
      </trkpt>
      <trkpt lat="45.71568" lon="5.739">
        <ele>384</ele>
        <time>2025-05-03T09:35:55.206Z</time>
      </trkpt>
      <trkpt lat="45.71571" lon="5.73906">
        <ele>386</ele>
        <time>2025-05-03T09:35:59.254Z</time>
      </trkpt>
      <trkpt lat="45.71574" lon="5.73914">
        <ele>386</ele>
        <time>2025-05-03T09:36:03.785Z</time>
      </trkpt>
      <trkpt lat="45.71575" lon="5.73917">
        <ele>386</ele>
        <time>2025-05-03T09:36:08.249Z</time>
      </trkpt>
      <trkpt lat="45.71577" lon="5.73918">
        <ele>386</ele>
        <time>2025-05-03T09:36:18.243Z</time>
      </trkpt>
      <trkpt lat="45.71578" lon="5.73919">
        <ele>386</ele>
        <time>2025-05-03T09:36:23.253Z</time>
      </trkpt>
      <trkpt lat="45.71579" lon="5.7392">
        <ele>386</ele>
        <time>2025-05-03T09:36:28.003Z</time>
      </trkpt>
      <trkpt lat="45.7158" lon="5.73922">
        <ele>386</ele>
        <time>2025-05-03T09:36:32.222Z</time>
      </trkpt>
      <trkpt lat="45.71584" lon="5.73928">
        <ele>386</ele>
        <time>2025-05-03T09:36:36.584Z</time>
      </trkpt>
      <trkpt lat="45.71585" lon="5.73938">
        <ele>385</ele>
        <time>2025-05-03T09:36:40.921Z</time>
      </trkpt>
      <trkpt lat="45.71588" lon="5.73948">
        <ele>385</ele>
        <time>2025-05-03T09:36:45.521Z</time>
      </trkpt>
      <trkpt lat="45.71591" lon="5.73956">
        <ele>385</ele>
        <time>2025-05-03T09:36:49.580Z</time>
      </trkpt>
      <trkpt lat="45.71594" lon="5.73962">
        <ele>386</ele>
        <time>2025-05-03T09:36:53.639Z</time>
      </trkpt>
      <trkpt lat="45.71597" lon="5.73971">
        <ele>390</ele>
        <time>2025-05-03T09:36:58.188Z</time>
      </trkpt>
      <trkpt lat="45.71601" lon="5.73982">
        <ele>390</ele>
        <time>2025-05-03T09:37:02.768Z</time>
      </trkpt>
      <trkpt lat="45.71605" lon="5.7399">
        <ele>392</ele>
        <time>2025-05-03T09:37:07.251Z</time>
      </trkpt>
      <trkpt lat="45.71608" lon="5.74">
        <ele>392</ele>
        <time>2025-05-03T09:37:11.907Z</time>
      </trkpt>
      <trkpt lat="45.71614" lon="5.74008">
        <ele>392</ele>
        <time>2025-05-03T09:37:16.242Z</time>
      </trkpt>
      <trkpt lat="45.71617" lon="5.74016">
        <ele>394</ele>
        <time>2025-05-03T09:37:20.250Z</time>
      </trkpt>
      <trkpt lat="45.71619" lon="5.74027">
        <ele>394</ele>
        <time>2025-05-03T09:37:24.668Z</time>
      </trkpt>
      <trkpt lat="45.7162" lon="5.74035">
        <ele>394</ele>
        <time>2025-05-03T09:37:28.989Z</time>
      </trkpt>
      <trkpt lat="45.71621" lon="5.7404">
        <ele>394</ele>
        <time>2025-05-03T09:37:33.244Z</time>
      </trkpt>
      <trkpt lat="45.71622" lon="5.7404">
        <ele>394</ele>
        <time>2025-05-03T09:37:38.088Z</time>
      </trkpt>
      <trkpt lat="45.71622" lon="5.74041">
        <ele>394</ele>
        <time>2025-05-03T09:37:42.167Z</time>
      </trkpt>
      <trkpt lat="45.71622" lon="5.74048">
        <ele>397</ele>
        <time>2025-05-03T09:37:46.488Z</time>
      </trkpt>
      <trkpt lat="45.71623" lon="5.74056">
        <ele>397</ele>
        <time>2025-05-03T09:37:50.686Z</time>
      </trkpt>
      <trkpt lat="45.71618" lon="5.74068">
        <ele>397</ele>
        <time>2025-05-03T09:37:54.905Z</time>
      </trkpt>
      <trkpt lat="45.71615" lon="5.74073">
        <ele>403</ele>
        <time>2025-05-03T09:37:59.086Z</time>
      </trkpt>
      <trkpt lat="45.71613" lon="5.74076">
        <ele>403</ele>
        <time>2025-05-03T09:38:03.241Z</time>
      </trkpt>
      <trkpt lat="45.71609" lon="5.74085">
        <ele>403</ele>
        <time>2025-05-03T09:38:08.145Z</time>
      </trkpt>
      <trkpt lat="45.71605" lon="5.74094">
        <ele>403</ele>
        <time>2025-05-03T09:38:12.626Z</time>
      </trkpt>
      <trkpt lat="45.716" lon="5.74103">
        <ele>409</ele>
        <time>2025-05-03T09:38:16.845Z</time>
      </trkpt>
      <trkpt lat="45.71596" lon="5.74113">
        <ele>403</ele>
        <time>2025-05-03T09:38:20.903Z</time>
      </trkpt>
      <trkpt lat="45.71592" lon="5.74121">
        <ele>403</ele>
        <time>2025-05-03T09:38:25.124Z</time>
      </trkpt>
      <trkpt lat="45.71585" lon="5.74132">
        <ele>407</ele>
        <time>2025-05-03T09:38:33.233Z</time>
      </trkpt>
      <trkpt lat="45.71586" lon="5.74133">
        <ele>407</ele>
        <time>2025-05-03T09:38:38.382Z</time>
      </trkpt>
      <trkpt lat="45.71585" lon="5.74133">
        <ele>407</ele>
        <time>2025-05-03T09:38:43.185Z</time>
      </trkpt>
      <trkpt lat="45.71584" lon="5.74138">
        <ele>407</ele>
        <time>2025-05-03T09:38:47.222Z</time>
      </trkpt>
      <trkpt lat="45.71581" lon="5.74149">
        <ele>407</ele>
        <time>2025-05-03T09:38:51.227Z</time>
      </trkpt>
      <trkpt lat="45.71577" lon="5.74157">
        <ele>411</ele>
        <time>2025-05-03T09:38:55.682Z</time>
      </trkpt>
      <trkpt lat="45.71573" lon="5.74166">
        <ele>411</ele>
        <time>2025-05-03T09:38:59.982Z</time>
      </trkpt>
      <trkpt lat="45.71566" lon="5.74175">
        <ele>406</ele>
        <time>2025-05-03T09:39:04.704Z</time>
      </trkpt>
      <trkpt lat="45.7156" lon="5.74184">
        <ele>411</ele>
        <time>2025-05-03T09:39:09.022Z</time>
      </trkpt>
      <trkpt lat="45.71557" lon="5.74184">
        <ele>411</ele>
        <time>2025-05-03T09:39:13.762Z</time>
      </trkpt>
      <trkpt lat="45.71557" lon="5.74184">
        <ele>411</ele>
        <time>2025-05-03T09:39:18.802Z</time>
      </trkpt>
      <trkpt lat="45.71556" lon="5.74185">
        <ele>411</ele>
        <time>2025-05-03T09:39:23.233Z</time>
      </trkpt>
      <trkpt lat="45.71554" lon="5.74193">
        <ele>411</ele>
        <time>2025-05-03T09:39:27.381Z</time>
      </trkpt>
      <trkpt lat="45.71554" lon="5.74198">
        <ele>411</ele>
        <time>2025-05-03T09:39:31.981Z</time>
      </trkpt>
      <trkpt lat="45.71558" lon="5.74207">
        <ele>411</ele>
        <time>2025-05-03T09:39:49.041Z</time>
      </trkpt>
      <trkpt lat="45.71559" lon="5.74207">
        <ele>411</ele>
        <time>2025-05-03T09:39:53.245Z</time>
      </trkpt>
      <trkpt lat="45.71559" lon="5.74209">
        <ele>416</ele>
        <time>2025-05-03T09:39:58.245Z</time>
      </trkpt>
      <trkpt lat="45.71559" lon="5.74211">
        <ele>416</ele>
        <time>2025-05-03T09:40:03.144Z</time>
      </trkpt>
      <trkpt lat="45.7156" lon="5.74212">
        <ele>416</ele>
        <time>2025-05-03T09:40:08.243Z</time>
      </trkpt>
      <trkpt lat="45.7156" lon="5.74213">
        <ele>416</ele>
        <time>2025-05-03T09:40:12.242Z</time>
      </trkpt>
      <trkpt lat="45.71561" lon="5.74215">
        <ele>416</ele>
        <time>2025-05-03T09:40:16.949Z</time>
      </trkpt>
      <trkpt lat="45.71561" lon="5.74216">
        <ele>416</ele>
        <time>2025-05-03T09:40:21.109Z</time>
      </trkpt>
      <trkpt lat="45.71563" lon="5.74223">
        <ele>416</ele>
        <time>2025-05-03T09:40:25.243Z</time>
      </trkpt>
      <trkpt lat="45.71566" lon="5.74229">
        <ele>416</ele>
        <time>2025-05-03T09:40:29.243Z</time>
      </trkpt>
      <trkpt lat="45.71573" lon="5.74233">
        <ele>419</ele>
        <time>2025-05-03T09:40:34.126Z</time>
      </trkpt>
      <trkpt lat="45.71579" lon="5.74237">
        <ele>421</ele>
        <time>2025-05-03T09:40:39.247Z</time>
      </trkpt>
      <trkpt lat="45.71581" lon="5.74238">
        <ele>421</ele>
        <time>2025-05-03T09:40:43.831Z</time>
      </trkpt>
      <trkpt lat="45.71585" lon="5.74241">
        <ele>421</ele>
        <time>2025-05-03T09:40:48.244Z</time>
      </trkpt>
      <trkpt lat="45.71591" lon="5.74244">
        <ele>421</ele>
        <time>2025-05-03T09:40:53.087Z</time>
      </trkpt>
      <trkpt lat="45.71595" lon="5.74246">
        <ele>421</ele>
        <time>2025-05-03T09:40:57.250Z</time>
      </trkpt>
      <trkpt lat="45.71602" lon="5.74247">
        <ele>422</ele>
        <time>2025-05-03T09:41:01.256Z</time>
      </trkpt>
      <trkpt lat="45.7161" lon="5.74251">
        <ele>422</ele>
        <time>2025-05-03T09:41:06.242Z</time>
      </trkpt>
      <trkpt lat="45.7161" lon="5.7425">
        <ele>422</ele>
        <time>2025-05-03T09:41:11.764Z</time>
      </trkpt>
      <trkpt lat="45.71613" lon="5.7425">
        <ele>422</ele>
        <time>2025-05-03T09:41:16.164Z</time>
      </trkpt>
      <trkpt lat="45.71615" lon="5.7425">
        <ele>422</ele>
        <time>2025-05-03T09:41:20.248Z</time>
      </trkpt>
      <trkpt lat="45.71617" lon="5.74251">
        <ele>422</ele>
        <time>2025-05-03T09:41:25.250Z</time>
      </trkpt>
      <trkpt lat="45.71619" lon="5.74251">
        <ele>422</ele>
        <time>2025-05-03T09:41:29.258Z</time>
      </trkpt>
      <trkpt lat="45.71621" lon="5.74251">
        <ele>422</ele>
        <time>2025-05-03T09:41:33.543Z</time>
      </trkpt>
      <trkpt lat="45.71629" lon="5.74248">
        <ele>424</ele>
        <time>2025-05-03T09:41:38.181Z</time>
      </trkpt>
      <trkpt lat="45.71635" lon="5.74248">
        <ele>424</ele>
        <time>2025-05-03T09:41:43.142Z</time>
      </trkpt>
      <trkpt lat="45.71641" lon="5.7425">
        <ele>424</ele>
        <time>2025-05-03T09:41:47.561Z</time>
      </trkpt>
      <trkpt lat="45.71646" lon="5.7425">
        <ele>424</ele>
        <time>2025-05-03T09:41:52.122Z</time>
      </trkpt>
      <trkpt lat="45.7165" lon="5.7425">
        <ele>424</ele>
        <time>2025-05-03T09:41:56.481Z</time>
      </trkpt>
      <trkpt lat="45.71655" lon="5.74249">
        <ele>427</ele>
        <time>2025-05-03T09:42:00.643Z</time>
      </trkpt>
      <trkpt lat="45.71661" lon="5.74249">
        <ele>427</ele>
        <time>2025-05-03T09:42:05.247Z</time>
      </trkpt>
      <trkpt lat="45.71667" lon="5.74248">
        <ele>427</ele>
        <time>2025-05-03T09:42:09.704Z</time>
      </trkpt>
      <trkpt lat="45.71675" lon="5.74246">
        <ele>427</ele>
        <time>2025-05-03T09:42:14.221Z</time>
      </trkpt>
      <trkpt lat="45.71678" lon="5.74244">
        <ele>427</ele>
        <time>2025-05-03T09:42:18.245Z</time>
      </trkpt>
      <trkpt lat="45.71679" lon="5.74244">
        <ele>427</ele>
        <time>2025-05-03T09:42:22.261Z</time>
      </trkpt>
      <trkpt lat="45.71681" lon="5.74243">
        <ele>428</ele>
        <time>2025-05-03T09:42:48.253Z</time>
      </trkpt>
      <trkpt lat="45.71681" lon="5.74243">
        <ele>428</ele>
        <time>2025-05-03T09:42:53.205Z</time>
      </trkpt>
      <trkpt lat="45.71681" lon="5.74242">
        <ele>428</ele>
        <time>2025-05-03T09:42:57.848Z</time>
      </trkpt>
      <trkpt lat="45.71683" lon="5.74243">
        <ele>428</ele>
        <time>2025-05-03T09:43:01.887Z</time>
      </trkpt>
      <trkpt lat="45.71689" lon="5.74246">
        <ele>428</ele>
        <time>2025-05-03T09:43:06.024Z</time>
      </trkpt>
      <trkpt lat="45.71694" lon="5.74253">
        <ele>428</ele>
        <time>2025-05-03T09:43:10.185Z</time>
      </trkpt>
      <trkpt lat="45.71699" lon="5.74258">
        <ele>428</ele>
        <time>2025-05-03T09:43:14.446Z</time>
      </trkpt>
      <trkpt lat="45.71706" lon="5.74261">
        <ele>428</ele>
        <time>2025-05-03T09:43:19.241Z</time>
      </trkpt>
      <trkpt lat="45.71708" lon="5.7426">
        <ele>428</ele>
        <time>2025-05-03T09:43:23.256Z</time>
      </trkpt>
      <trkpt lat="45.71713" lon="5.74262">
        <ele>431</ele>
        <time>2025-05-03T09:43:27.646Z</time>
      </trkpt>
      <trkpt lat="45.71719" lon="5.74264">
        <ele>429</ele>
        <time>2025-05-03T09:43:32.251Z</time>
      </trkpt>
      <trkpt lat="45.71726" lon="5.74265">
        <ele>429</ele>
        <time>2025-05-03T09:43:37.144Z</time>
      </trkpt>
      <trkpt lat="45.71733" lon="5.74263">
        <ele>431</ele>
        <time>2025-05-03T09:43:41.186Z</time>
      </trkpt>
      <trkpt lat="45.71739" lon="5.74263">
        <ele>433</ele>
        <time>2025-05-03T09:43:45.505Z</time>
      </trkpt>
      <trkpt lat="45.71745" lon="5.74264">
        <ele>431</ele>
        <time>2025-05-03T09:43:50.105Z</time>
      </trkpt>
      <trkpt lat="45.71749" lon="5.74266">
        <ele>431</ele>
        <time>2025-05-03T09:43:54.241Z</time>
      </trkpt>
      <trkpt lat="45.7175" lon="5.74266">
        <ele>431</ele>
        <time>2025-05-03T09:43:58.257Z</time>
      </trkpt>
      <trkpt lat="45.71756" lon="5.74268">
        <ele>431</ele>
        <time>2025-05-03T09:44:02.784Z</time>
      </trkpt>
      <trkpt lat="45.71762" lon="5.74273">
        <ele>431</ele>
        <time>2025-05-03T09:44:07.252Z</time>
      </trkpt>
      <trkpt lat="45.71769" lon="5.74275">
        <ele>434</ele>
        <time>2025-05-03T09:44:11.663Z</time>
      </trkpt>
      <trkpt lat="45.71776" lon="5.74278">
        <ele>434</ele>
        <time>2025-05-03T09:44:16.003Z</time>
      </trkpt>
      <trkpt lat="45.71782" lon="5.74281">
        <ele>434</ele>
        <time>2025-05-03T09:44:20.444Z</time>
      </trkpt>
      <trkpt lat="45.71788" lon="5.74283">
        <ele>434</ele>
        <time>2025-05-03T09:44:24.905Z</time>
      </trkpt>
      <trkpt lat="45.71794" lon="5.74285">
        <ele>435</ele>
        <time>2025-05-03T09:44:29.002Z</time>
      </trkpt>
      <trkpt lat="45.71799" lon="5.74286">
        <ele>435</ele>
        <time>2025-05-03T09:44:33.242Z</time>
      </trkpt>
      <trkpt lat="45.71801" lon="5.74286">
        <ele>435</ele>
        <time>2025-05-03T09:44:37.249Z</time>
      </trkpt>
      <trkpt lat="45.71806" lon="5.74287">
        <ele>435</ele>
        <time>2025-05-03T09:44:41.900Z</time>
      </trkpt>
      <trkpt lat="45.7181" lon="5.74287">
        <ele>435</ele>
        <time>2025-05-03T09:44:46.040Z</time>
      </trkpt>
      <trkpt lat="45.71816" lon="5.74288">
        <ele>435</ele>
        <time>2025-05-03T09:44:50.099Z</time>
      </trkpt>
      <trkpt lat="45.71819" lon="5.74288">
        <ele>435</ele>
        <time>2025-05-03T09:44:54.245Z</time>
      </trkpt>
      <trkpt lat="45.71824" lon="5.7429">
        <ele>437</ele>
        <time>2025-05-03T09:44:58.788Z</time>
      </trkpt>
      <trkpt lat="45.71829" lon="5.74292">
        <ele>436</ele>
        <time>2025-05-03T09:45:03.246Z</time>
      </trkpt>
      <trkpt lat="45.71831" lon="5.74292">
        <ele>436</ele>
        <time>2025-05-03T09:45:07.706Z</time>
      </trkpt>
      <trkpt lat="45.71836" lon="5.74294">
        <ele>436</ele>
        <time>2025-05-03T09:45:11.766Z</time>
      </trkpt>
      <trkpt lat="45.71841" lon="5.74297">
        <ele>436</ele>
        <time>2025-05-03T09:45:16.045Z</time>
      </trkpt>
      <trkpt lat="45.71846" lon="5.743">
        <ele>436</ele>
        <time>2025-05-03T09:45:20.248Z</time>
      </trkpt>
      <trkpt lat="45.71852" lon="5.74305">
        <ele>436</ele>
        <time>2025-05-03T09:45:25.106Z</time>
      </trkpt>
      <trkpt lat="45.71857" lon="5.74309">
        <ele>436</ele>
        <time>2025-05-03T09:45:29.251Z</time>
      </trkpt>
      <trkpt lat="45.71864" lon="5.74313">
        <ele>436</ele>
        <time>2025-05-03T09:45:33.766Z</time>
      </trkpt>
      <trkpt lat="45.71869" lon="5.74315">
        <ele>436</ele>
        <time>2025-05-03T09:45:38.183Z</time>
      </trkpt>
      <trkpt lat="45.71873" lon="5.74318">
        <ele>436</ele>
        <time>2025-05-03T09:45:42.253Z</time>
      </trkpt>
      <trkpt lat="45.71877" lon="5.7432">
        <ele>437</ele>
        <time>2025-05-03T09:45:46.253Z</time>
      </trkpt>
      <trkpt lat="45.71883" lon="5.74324">
        <ele>437</ele>
        <time>2025-05-03T09:45:50.701Z</time>
      </trkpt>
      <trkpt lat="45.71888" lon="5.74327">
        <ele>437</ele>
        <time>2025-05-03T09:45:55.161Z</time>
      </trkpt>
      <trkpt lat="45.71894" lon="5.74331">
        <ele>437</ele>
        <time>2025-05-03T09:46:00.079Z</time>
      </trkpt>
      <trkpt lat="45.71898" lon="5.74336">
        <ele>437</ele>
        <time>2025-05-03T09:46:04.229Z</time>
      </trkpt>
      <trkpt lat="45.71899" lon="5.74339">
        <ele>437</ele>
        <time>2025-05-03T09:46:08.939Z</time>
      </trkpt>
      <trkpt lat="45.719" lon="5.74348">
        <ele>436</ele>
        <time>2025-05-03T09:46:13.681Z</time>
      </trkpt>
      <trkpt lat="45.719" lon="5.74353">
        <ele>436</ele>
        <time>2025-05-03T09:46:17.709Z</time>
      </trkpt>
      <trkpt lat="45.71901" lon="5.7436">
        <ele>436</ele>
        <time>2025-05-03T09:46:21.768Z</time>
      </trkpt>
      <trkpt lat="45.71902" lon="5.74368">
        <ele>436</ele>
        <time>2025-05-03T09:46:26.127Z</time>
      </trkpt>
      <trkpt lat="45.71903" lon="5.74376">
        <ele>437</ele>
        <time>2025-05-03T09:46:30.186Z</time>
      </trkpt>
      <trkpt lat="45.71905" lon="5.74384">
        <ele>437</ele>
        <time>2025-05-03T09:46:34.628Z</time>
      </trkpt>
      <trkpt lat="45.71907" lon="5.74392">
        <ele>437</ele>
        <time>2025-05-03T09:46:38.986Z</time>
      </trkpt>
      <trkpt lat="45.71909" lon="5.744">
        <ele>437</ele>
        <time>2025-05-03T09:46:43.166Z</time>
      </trkpt>
      <trkpt lat="45.71908" lon="5.74408">
        <ele>436</ele>
        <time>2025-05-03T09:46:48.240Z</time>
      </trkpt>
      <trkpt lat="45.71909" lon="5.74408">
        <ele>436</ele>
        <time>2025-05-03T09:46:53.242Z</time>
      </trkpt>
      <trkpt lat="45.7191" lon="5.74413">
        <ele>436</ele>
        <time>2025-05-03T09:46:57.257Z</time>
      </trkpt>
      <trkpt lat="45.71913" lon="5.74421">
        <ele>436</ele>
        <time>2025-05-03T09:47:01.965Z</time>
      </trkpt>
      <trkpt lat="45.71916" lon="5.7443">
        <ele>436</ele>
        <time>2025-05-03T09:47:06.126Z</time>
      </trkpt>
      <trkpt lat="45.71918" lon="5.74437">
        <ele>436</ele>
        <time>2025-05-03T09:47:10.246Z</time>
      </trkpt>
      <trkpt lat="45.71921" lon="5.74445">
        <ele>436</ele>
        <time>2025-05-03T09:47:14.325Z</time>
      </trkpt>
      <trkpt lat="45.71925" lon="5.74455">
        <ele>436</ele>
        <time>2025-05-03T09:47:19.167Z</time>
      </trkpt>
      <trkpt lat="45.71928" lon="5.74463">
        <ele>435</ele>
        <time>2025-05-03T09:47:23.246Z</time>
      </trkpt>
      <trkpt lat="45.71932" lon="5.74471">
        <ele>437</ele>
        <time>2025-05-03T09:47:27.545Z</time>
      </trkpt>
      <trkpt lat="45.71935" lon="5.74478">
        <ele>437</ele>
        <time>2025-05-03T09:47:31.768Z</time>
      </trkpt>
      <trkpt lat="45.71938" lon="5.74486">
        <ele>435</ele>
        <time>2025-05-03T09:47:35.986Z</time>
      </trkpt>
      <trkpt lat="45.71939" lon="5.74494">
        <ele>435</ele>
        <time>2025-05-03T09:47:40.225Z</time>
      </trkpt>
      <trkpt lat="45.71941" lon="5.74503">
        <ele>435</ele>
        <time>2025-05-03T09:47:44.544Z</time>
      </trkpt>
      <trkpt lat="45.71945" lon="5.74513">
        <ele>435</ele>
        <time>2025-05-03T09:47:49.249Z</time>
      </trkpt>
      <trkpt lat="45.71945" lon="5.74523">
        <ele>433</ele>
        <time>2025-05-03T09:47:53.724Z</time>
      </trkpt>
      <trkpt lat="45.71944" lon="5.74532">
        <ele>433</ele>
        <time>2025-05-03T09:47:57.864Z</time>
      </trkpt>
      <trkpt lat="45.71943" lon="5.74541">
        <ele>433</ele>
        <time>2025-05-03T09:48:01.904Z</time>
      </trkpt>
      <trkpt lat="45.71942" lon="5.74551">
        <ele>433</ele>
        <time>2025-05-03T09:48:06.246Z</time>
      </trkpt>
      <trkpt lat="45.71941" lon="5.74559">
        <ele>433</ele>
        <time>2025-05-03T09:48:10.843Z</time>
      </trkpt>
      <trkpt lat="45.7194" lon="5.74568">
        <ele>433</ele>
        <time>2025-05-03T09:48:15.250Z</time>
      </trkpt>
      <trkpt lat="45.7194" lon="5.74576">
        <ele>432</ele>
        <time>2025-05-03T09:48:19.903Z</time>
      </trkpt>
      <trkpt lat="45.71941" lon="5.74584">
        <ele>432</ele>
        <time>2025-05-03T09:48:24.241Z</time>
      </trkpt>
      <trkpt lat="45.71941" lon="5.74592">
        <ele>432</ele>
        <time>2025-05-03T09:48:28.843Z</time>
      </trkpt>
      <trkpt lat="45.71941" lon="5.746">
        <ele>431</ele>
        <time>2025-05-03T09:48:33.245Z</time>
      </trkpt>
      <trkpt lat="45.71939" lon="5.74608">
        <ele>431</ele>
        <time>2025-05-03T09:48:37.782Z</time>
      </trkpt>
      <trkpt lat="45.71935" lon="5.74625">
        <ele>431</ele>
        <time>2025-05-03T09:49:07.252Z</time>
      </trkpt>
      <trkpt lat="45.71935" lon="5.7463">
        <ele>430</ele>
        <time>2025-05-03T09:49:12.248Z</time>
      </trkpt>
      <trkpt lat="45.71932" lon="5.74641">
        <ele>430</ele>
        <time>2025-05-03T09:49:16.251Z</time>
      </trkpt>
      <trkpt lat="45.71933" lon="5.74648">
        <ele>430</ele>
        <time>2025-05-03T09:49:20.448Z</time>
      </trkpt>
      <trkpt lat="45.71934" lon="5.74649">
        <ele>430</ele>
        <time>2025-05-03T09:49:24.631Z</time>
      </trkpt>
      <trkpt lat="45.71933" lon="5.74652">
        <ele>430</ele>
        <time>2025-05-03T09:51:37.345Z</time>
      </trkpt>
      <trkpt lat="45.71931" lon="5.74653">
        <ele>430</ele>
        <time>2025-05-03T09:51:42.240Z</time>
      </trkpt>
      <trkpt lat="45.71926" lon="5.74663">
        <ele>427</ele>
        <time>2025-05-03T09:51:47.240Z</time>
      </trkpt>
      <trkpt lat="45.71919" lon="5.74666">
        <ele>427</ele>
        <time>2025-05-03T09:51:51.259Z</time>
      </trkpt>
      <trkpt lat="45.71915" lon="5.74662">
        <ele>427</ele>
        <time>2025-05-03T09:51:55.724Z</time>
      </trkpt>
      <trkpt lat="45.71912" lon="5.74666">
        <ele>427</ele>
        <time>2025-05-03T09:52:00.250Z</time>
      </trkpt>
      <trkpt lat="45.71908" lon="5.74673">
        <ele>427</ele>
        <time>2025-05-03T09:52:05.123Z</time>
      </trkpt>
      <trkpt lat="45.71902" lon="5.74679">
        <ele>425</ele>
        <time>2025-05-03T09:52:09.201Z</time>
      </trkpt>
      <trkpt lat="45.71896" lon="5.74682">
        <ele>424</ele>
        <time>2025-05-03T09:52:13.242Z</time>
      </trkpt>
      <trkpt lat="45.7189" lon="5.74685">
        <ele>424</ele>
        <time>2025-05-03T09:52:17.703Z</time>
      </trkpt>
      <trkpt lat="45.71886" lon="5.74692">
        <ele>424</ele>
        <time>2025-05-03T09:52:21.783Z</time>
      </trkpt>
      <trkpt lat="45.71882" lon="5.74699">
        <ele>424</ele>
        <time>2025-05-03T09:52:26.249Z</time>
      </trkpt>
      <trkpt lat="45.71879" lon="5.74707">
        <ele>424</ele>
        <time>2025-05-03T09:52:30.441Z</time>
      </trkpt>
      <trkpt lat="45.71876" lon="5.74715">
        <ele>424</ele>
        <time>2025-05-03T09:52:34.844Z</time>
      </trkpt>
      <trkpt lat="45.71873" lon="5.74721">
        <ele>423</ele>
        <time>2025-05-03T09:52:39.103Z</time>
      </trkpt>
      <trkpt lat="45.71871" lon="5.74729">
        <ele>423</ele>
        <time>2025-05-03T09:52:43.257Z</time>
      </trkpt>
      <trkpt lat="45.71869" lon="5.74736">
        <ele>423</ele>
        <time>2025-05-03T09:52:47.482Z</time>
      </trkpt>
      <trkpt lat="45.71867" lon="5.74743">
        <ele>423</ele>
        <time>2025-05-03T09:52:52.221Z</time>
      </trkpt>
      <trkpt lat="45.71866" lon="5.7475">
        <ele>423</ele>
        <time>2025-05-03T09:52:56.462Z</time>
      </trkpt>
      <trkpt lat="45.71861" lon="5.74758">
        <ele>423</ele>
        <time>2025-05-03T09:53:01.258Z</time>
      </trkpt>
      <trkpt lat="45.71856" lon="5.74764">
        <ele>422</ele>
        <time>2025-05-03T09:53:05.265Z</time>
      </trkpt>
      <trkpt lat="45.71849" lon="5.74771">
        <ele>422</ele>
        <time>2025-05-03T09:53:10.261Z</time>
      </trkpt>
      <trkpt lat="45.71843" lon="5.74777">
        <ele>420</ele>
        <time>2025-05-03T09:53:15.259Z</time>
      </trkpt>
      <trkpt lat="45.7184" lon="5.74776">
        <ele>420</ele>
        <time>2025-05-03T09:53:19.871Z</time>
      </trkpt>
      <trkpt lat="45.71837" lon="5.74777">
        <ele>420</ele>
        <time>2025-05-03T09:53:23.909Z</time>
      </trkpt>
      <trkpt lat="45.71834" lon="5.74785">
        <ele>420</ele>
        <time>2025-05-03T09:53:28.128Z</time>
      </trkpt>
      <trkpt lat="45.71828" lon="5.74793">
        <ele>419</ele>
        <time>2025-05-03T09:53:33.088Z</time>
      </trkpt>
      <trkpt lat="45.71824" lon="5.74801">
        <ele>419</ele>
        <time>2025-05-03T09:53:37.247Z</time>
      </trkpt>
      <trkpt lat="45.71821" lon="5.74806">
        <ele>419</ele>
        <time>2025-05-03T09:53:41.250Z</time>
      </trkpt>
      <trkpt lat="45.71817" lon="5.74811">
        <ele>417</ele>
        <time>2025-05-03T09:53:45.867Z</time>
      </trkpt>
      <trkpt lat="45.71812" lon="5.74815">
        <ele>417</ele>
        <time>2025-05-03T09:53:49.906Z</time>
      </trkpt>
      <trkpt lat="45.71807" lon="5.74819">
        <ele>417</ele>
        <time>2025-05-03T09:53:54.087Z</time>
      </trkpt>
      <trkpt lat="45.71803" lon="5.74825">
        <ele>416</ele>
        <time>2025-05-03T09:53:58.243Z</time>
      </trkpt>
      <trkpt lat="45.71801" lon="5.7483">
        <ele>416</ele>
        <time>2025-05-03T09:54:02.868Z</time>
      </trkpt>
      <trkpt lat="45.71803" lon="5.74835">
        <ele>416</ele>
        <time>2025-05-03T09:54:06.888Z</time>
      </trkpt>
      <trkpt lat="45.71801" lon="5.74844">
        <ele>416</ele>
        <time>2025-05-03T09:54:11.145Z</time>
      </trkpt>
      <trkpt lat="45.71798" lon="5.74851">
        <ele>415</ele>
        <time>2025-05-03T09:54:15.267Z</time>
      </trkpt>
      <trkpt lat="45.71794" lon="5.7486">
        <ele>415</ele>
        <time>2025-05-03T09:54:20.242Z</time>
      </trkpt>
      <trkpt lat="45.71792" lon="5.74866">
        <ele>415</ele>
        <time>2025-05-03T09:54:24.234Z</time>
      </trkpt>
      <trkpt lat="45.71789" lon="5.74874">
        <ele>412</ele>
        <time>2025-05-03T09:54:28.685Z</time>
      </trkpt>
      <trkpt lat="45.71785" lon="5.74879">
        <ele>410</ele>
        <time>2025-05-03T09:54:32.881Z</time>
      </trkpt>
      <trkpt lat="45.7178" lon="5.74881">
        <ele>410</ele>
        <time>2025-05-03T09:54:37.252Z</time>
      </trkpt>
      <trkpt lat="45.71779" lon="5.74885">
        <ele>410</ele>
        <time>2025-05-03T09:54:41.949Z</time>
      </trkpt>
      <trkpt lat="45.71778" lon="5.74893">
        <ele>410</ele>
        <time>2025-05-03T09:54:46.027Z</time>
      </trkpt>
      <trkpt lat="45.71775" lon="5.74901">
        <ele>410</ele>
        <time>2025-05-03T09:54:50.249Z</time>
      </trkpt>
      <trkpt lat="45.71773" lon="5.7491">
        <ele>407</ele>
        <time>2025-05-03T09:54:55.067Z</time>
      </trkpt>
      <trkpt lat="45.7177" lon="5.74917">
        <ele>407</ele>
        <time>2025-05-03T09:54:59.225Z</time>
      </trkpt>
      <trkpt lat="45.71768" lon="5.74923">
        <ele>407</ele>
        <time>2025-05-03T09:55:03.246Z</time>
      </trkpt>
      <trkpt lat="45.71769" lon="5.74931">
        <ele>405</ele>
        <time>2025-05-03T09:55:08.187Z</time>
      </trkpt>
      <trkpt lat="45.71767" lon="5.74939">
        <ele>405</ele>
        <time>2025-05-03T09:55:12.248Z</time>
      </trkpt>
      <trkpt lat="45.71765" lon="5.74949">
        <ele>405</ele>
        <time>2025-05-03T09:55:16.746Z</time>
      </trkpt>
      <trkpt lat="45.71765" lon="5.74957">
        <ele>405</ele>
        <time>2025-05-03T09:55:20.828Z</time>
      </trkpt>
      <trkpt lat="45.71764" lon="5.74965">
        <ele>401</ele>
        <time>2025-05-03T09:55:24.946Z</time>
      </trkpt>
      <trkpt lat="45.71762" lon="5.74973">
        <ele>401</ele>
        <time>2025-05-03T09:55:29.046Z</time>
      </trkpt>
      <trkpt lat="45.7176" lon="5.74984">
        <ele>401</ele>
        <time>2025-05-03T09:55:34.064Z</time>
      </trkpt>
      <trkpt lat="45.71756" lon="5.74992">
        <ele>400</ele>
        <time>2025-05-03T09:55:38.186Z</time>
      </trkpt>
      <trkpt lat="45.71753" lon="5.74999">
        <ele>400</ele>
        <time>2025-05-03T09:55:42.238Z</time>
      </trkpt>
      <trkpt lat="45.71749" lon="5.75006">
        <ele>400</ele>
        <time>2025-05-03T09:55:46.250Z</time>
      </trkpt>
      <trkpt lat="45.71743" lon="5.75014">
        <ele>397</ele>
        <time>2025-05-03T09:55:51.247Z</time>
      </trkpt>
      <trkpt lat="45.7174" lon="5.75021">
        <ele>397</ele>
        <time>2025-05-03T09:55:55.985Z</time>
      </trkpt>
      <trkpt lat="45.71736" lon="5.75027">
        <ele>397</ele>
        <time>2025-05-03T09:56:00.143Z</time>
      </trkpt>
      <trkpt lat="45.71732" lon="5.75033">
        <ele>397</ele>
        <time>2025-05-03T09:56:04.237Z</time>
      </trkpt>
      <trkpt lat="45.71728" lon="5.75037">
        <ele>397</ele>
        <time>2025-05-03T09:56:08.242Z</time>
      </trkpt>
      <trkpt lat="45.71727" lon="5.75043">
        <ele>393</ele>
        <time>2025-05-03T09:56:12.254Z</time>
      </trkpt>
      <trkpt lat="45.71724" lon="5.75052">
        <ele>393</ele>
        <time>2025-05-03T09:56:17.246Z</time>
      </trkpt>
      <trkpt lat="45.7172" lon="5.75059">
        <ele>393</ele>
        <time>2025-05-03T09:56:21.764Z</time>
      </trkpt>
      <trkpt lat="45.71717" lon="5.75065">
        <ele>393</ele>
        <time>2025-05-03T09:56:25.923Z</time>
      </trkpt>
      <trkpt lat="45.71713" lon="5.75071">
        <ele>390</ele>
        <time>2025-05-03T09:56:30.142Z</time>
      </trkpt>
      <trkpt lat="45.7171" lon="5.75078">
        <ele>390</ele>
        <time>2025-05-03T09:56:34.982Z</time>
      </trkpt>
      <trkpt lat="45.71707" lon="5.75085">
        <ele>387</ele>
        <time>2025-05-03T09:56:39.250Z</time>
      </trkpt>
      <trkpt lat="45.71704" lon="5.75091">
        <ele>387</ele>
        <time>2025-05-03T09:56:43.258Z</time>
      </trkpt>
      <trkpt lat="45.71702" lon="5.7509">
        <ele>387</ele>
        <time>2025-05-03T09:56:48.062Z</time>
      </trkpt>
      <trkpt lat="45.71703" lon="5.75094">
        <ele>387</ele>
        <time>2025-05-03T09:56:52.255Z</time>
      </trkpt>
      <trkpt lat="45.71704" lon="5.75104">
        <ele>382</ele>
        <time>2025-05-03T09:56:57.119Z</time>
      </trkpt>
      <trkpt lat="45.71704" lon="5.75113">
        <ele>382</ele>
        <time>2025-05-03T09:57:02.255Z</time>
      </trkpt>
      <trkpt lat="45.71702" lon="5.75123">
        <ele>382</ele>
        <time>2025-05-03T09:57:07.258Z</time>
      </trkpt>
      <trkpt lat="45.717" lon="5.75132">
        <ele>378</ele>
        <time>2025-05-03T09:57:12.256Z</time>
      </trkpt>
      <trkpt lat="45.71699" lon="5.75133">
        <ele>378</ele>
        <time>2025-05-03T09:57:16.790Z</time>
      </trkpt>
      <trkpt lat="45.71699" lon="5.75134">
        <ele>378</ele>
        <time>2025-05-03T09:57:21.248Z</time>
      </trkpt>
      <trkpt lat="45.71697" lon="5.75143">
        <ele>378</ele>
        <time>2025-05-03T09:57:26.128Z</time>
      </trkpt>
      <trkpt lat="45.71694" lon="5.7515">
        <ele>378</ele>
        <time>2025-05-03T09:57:30.254Z</time>
      </trkpt>
      <trkpt lat="45.71688" lon="5.75158">
        <ele>376</ele>
        <time>2025-05-03T09:57:35.256Z</time>
      </trkpt>
      <trkpt lat="45.71683" lon="5.75162">
        <ele>376</ele>
        <time>2025-05-03T09:57:39.728Z</time>
      </trkpt>
      <trkpt lat="45.7168" lon="5.75168">
        <ele>375</ele>
        <time>2025-05-03T09:57:44.255Z</time>
      </trkpt>
      <trkpt lat="45.71675" lon="5.75176">
        <ele>375</ele>
        <time>2025-05-03T09:57:49.250Z</time>
      </trkpt>
      <trkpt lat="45.71672" lon="5.75182">
        <ele>371</ele>
        <time>2025-05-03T09:57:53.251Z</time>
      </trkpt>
      <trkpt lat="45.71667" lon="5.75184">
        <ele>371</ele>
        <time>2025-05-03T09:57:57.607Z</time>
      </trkpt>
      <trkpt lat="45.71666" lon="5.75184">
        <ele>371</ele>
        <time>2025-05-03T09:58:01.886Z</time>
      </trkpt>
      <trkpt lat="45.71664" lon="5.75189">
        <ele>371</ele>
        <time>2025-05-03T09:58:06.165Z</time>
      </trkpt>
      <trkpt lat="45.71662" lon="5.75198">
        <ele>371</ele>
        <time>2025-05-03T09:58:10.245Z</time>
      </trkpt>
      <trkpt lat="45.71657" lon="5.75203">
        <ele>371</ele>
        <time>2025-05-03T09:58:14.845Z</time>
      </trkpt>
      <trkpt lat="45.71653" lon="5.75207">
        <ele>371</ele>
        <time>2025-05-03T09:58:18.883Z</time>
      </trkpt>
      <trkpt lat="45.7165" lon="5.75212">
        <ele>364</ele>
        <time>2025-05-03T09:58:23.082Z</time>
      </trkpt>
      <trkpt lat="45.71649" lon="5.75217">
        <ele>364</ele>
        <time>2025-05-03T09:58:27.084Z</time>
      </trkpt>
      <trkpt lat="45.71645" lon="5.75223">
        <ele>364</ele>
        <time>2025-05-03T09:58:31.103Z</time>
      </trkpt>
      <trkpt lat="45.71642" lon="5.75225">
        <ele>364</ele>
        <time>2025-05-03T09:58:36.255Z</time>
      </trkpt>
      <trkpt lat="45.71638" lon="5.7523">
        <ele>364</ele>
        <time>2025-05-03T09:58:41.259Z</time>
      </trkpt>
      <trkpt lat="45.71633" lon="5.75234">
        <ele>364</ele>
        <time>2025-05-03T09:58:45.823Z</time>
      </trkpt>
      <trkpt lat="45.71628" lon="5.75237">
        <ele>359</ele>
        <time>2025-05-03T09:58:49.981Z</time>
      </trkpt>
      <trkpt lat="45.71624" lon="5.75239">
        <ele>359</ele>
        <time>2025-05-03T09:58:54.120Z</time>
      </trkpt>
      <trkpt lat="45.71619" lon="5.75242">
        <ele>359</ele>
        <time>2025-05-03T09:58:59.123Z</time>
      </trkpt>
      <trkpt lat="45.71617" lon="5.7524">
        <ele>359</ele>
        <time>2025-05-03T09:59:04.200Z</time>
      </trkpt>
      <trkpt lat="45.71619" lon="5.75243">
        <ele>359</ele>
        <time>2025-05-03T09:59:18.252Z</time>
      </trkpt>
      <trkpt lat="45.71618" lon="5.75243">
        <ele>359</ele>
        <time>2025-05-03T09:59:23.253Z</time>
      </trkpt>
      <trkpt lat="45.71617" lon="5.75244">
        <ele>359</ele>
        <time>2025-05-03T09:59:29.256Z</time>
      </trkpt>
      <trkpt lat="45.71615" lon="5.75246">
        <ele>359</ele>
        <time>2025-05-03T09:59:34.050Z</time>
      </trkpt>
      <trkpt lat="45.71608" lon="5.7525">
        <ele>359</ele>
        <time>2025-05-03T09:59:38.929Z</time>
      </trkpt>
      <trkpt lat="45.71603" lon="5.75251">
        <ele>359</ele>
        <time>2025-05-03T09:59:43.050Z</time>
      </trkpt>
      <trkpt lat="45.71599" lon="5.75251">
        <ele>359</ele>
        <time>2025-05-03T09:59:47.147Z</time>
      </trkpt>
      <trkpt lat="45.71594" lon="5.75255">
        <ele>359</ele>
        <time>2025-05-03T09:59:51.187Z</time>
      </trkpt>
      <trkpt lat="45.71589" lon="5.75257">
        <ele>359</ele>
        <time>2025-05-03T09:59:55.252Z</time>
      </trkpt>
      <trkpt lat="45.71584" lon="5.7526">
        <ele>359</ele>
        <time>2025-05-03T09:59:59.257Z</time>
      </trkpt>
      <trkpt lat="45.71579" lon="5.75263">
        <ele>359</ele>
        <time>2025-05-03T10:00:03.253Z</time>
      </trkpt>
      <trkpt lat="45.71573" lon="5.75266">
        <ele>355</ele>
        <time>2025-05-03T10:00:08.271Z</time>
      </trkpt>
      <trkpt lat="45.71567" lon="5.75271">
        <ele>353</ele>
        <time>2025-05-03T10:00:13.247Z</time>
      </trkpt>
      <trkpt lat="45.71563" lon="5.75275">
        <ele>353</ele>
        <time>2025-05-03T10:00:17.257Z</time>
      </trkpt>
      <trkpt lat="45.71559" lon="5.75275">
        <ele>353</ele>
        <time>2025-05-03T10:00:21.645Z</time>
      </trkpt>
      <trkpt lat="45.71557" lon="5.7528">
        <ele>353</ele>
        <time>2025-05-03T10:00:25.728Z</time>
      </trkpt>
      <trkpt lat="45.71554" lon="5.75283">
        <ele>353</ele>
        <time>2025-05-03T10:00:29.965Z</time>
      </trkpt>
      <trkpt lat="45.71547" lon="5.75287">
        <ele>353</ele>
        <time>2025-05-03T10:00:50.257Z</time>
      </trkpt>
      <trkpt lat="45.71544" lon="5.75297">
        <ele>348</ele>
        <time>2025-05-03T10:00:55.268Z</time>
      </trkpt>
      <trkpt lat="45.71541" lon="5.75306">
        <ele>347</ele>
        <time>2025-05-03T10:00:59.862Z</time>
      </trkpt>
      <trkpt lat="45.71538" lon="5.75312">
        <ele>347</ele>
        <time>2025-05-03T10:01:04.140Z</time>
      </trkpt>
      <trkpt lat="45.71536" lon="5.75314">
        <ele>347</ele>
        <time>2025-05-03T10:01:08.251Z</time>
      </trkpt>
      <trkpt lat="45.71537" lon="5.75319">
        <ele>347</ele>
        <time>2025-05-03T10:02:42.529Z</time>
      </trkpt>
      <trkpt lat="45.71536" lon="5.75319">
        <ele>347</ele>
        <time>2025-05-03T10:02:47.214Z</time>
      </trkpt>
      <trkpt lat="45.71536" lon="5.7532">
        <ele>341</ele>
        <time>2025-05-03T10:02:51.845Z</time>
      </trkpt>
      <trkpt lat="45.71535" lon="5.75326">
        <ele>341</ele>
        <time>2025-05-03T10:02:56.247Z</time>
      </trkpt>
      <trkpt lat="45.71535" lon="5.75335">
        <ele>341</ele>
        <time>2025-05-03T10:03:00.961Z</time>
      </trkpt>
      <trkpt lat="45.71532" lon="5.75342">
        <ele>341</ele>
        <time>2025-05-03T10:03:05.256Z</time>
      </trkpt>
      <trkpt lat="45.71528" lon="5.75345">
        <ele>341</ele>
        <time>2025-05-03T10:03:10.251Z</time>
      </trkpt>
      <trkpt lat="45.71526" lon="5.75346">
        <ele>341</ele>
        <time>2025-05-03T10:03:15.251Z</time>
      </trkpt>
      <trkpt lat="45.71527" lon="5.75352">
        <ele>335</ele>
        <time>2025-05-03T10:03:19.239Z</time>
      </trkpt>
      <trkpt lat="45.71525" lon="5.75358">
        <ele>335</ele>
        <time>2025-05-03T10:03:23.264Z</time>
      </trkpt>
      <trkpt lat="45.71519" lon="5.75363">
        <ele>335</ele>
        <time>2025-05-03T10:03:28.260Z</time>
      </trkpt>
      <trkpt lat="45.71513" lon="5.75367">
        <ele>334</ele>
        <time>2025-05-03T10:03:33.243Z</time>
      </trkpt>
      <trkpt lat="45.71508" lon="5.75369">
        <ele>334</ele>
        <time>2025-05-03T10:03:37.255Z</time>
      </trkpt>
      <trkpt lat="45.71502" lon="5.75371">
        <ele>334</ele>
        <time>2025-05-03T10:03:41.259Z</time>
      </trkpt>
      <trkpt lat="45.71495" lon="5.75374">
        <ele>334</ele>
        <time>2025-05-03T10:03:46.245Z</time>
      </trkpt>
      <trkpt lat="45.7149" lon="5.75375">
        <ele>334</ele>
        <time>2025-05-03T10:03:50.260Z</time>
      </trkpt>
      <trkpt lat="45.71483" lon="5.75377">
        <ele>327</ele>
        <time>2025-05-03T10:03:55.250Z</time>
      </trkpt>
      <trkpt lat="45.71477" lon="5.75379">
        <ele>327</ele>
        <time>2025-05-03T10:03:59.253Z</time>
      </trkpt>
      <trkpt lat="45.7147" lon="5.75377">
        <ele>327</ele>
        <time>2025-05-03T10:04:04.262Z</time>
      </trkpt>
      <trkpt lat="45.71463" lon="5.75377">
        <ele>327</ele>
        <time>2025-05-03T10:04:09.248Z</time>
      </trkpt>
      <trkpt lat="45.71455" lon="5.75379">
        <ele>324</ele>
        <time>2025-05-03T10:04:14.243Z</time>
      </trkpt>
      <trkpt lat="45.71449" lon="5.75381">
        <ele>324</ele>
        <time>2025-05-03T10:04:18.258Z</time>
      </trkpt>
      <trkpt lat="45.71443" lon="5.75381">
        <ele>324</ele>
        <time>2025-05-03T10:04:22.923Z</time>
      </trkpt>
      <trkpt lat="45.71437" lon="5.75379">
        <ele>324</ele>
        <time>2025-05-03T10:04:27.983Z</time>
      </trkpt>
      <trkpt lat="45.71431" lon="5.75379">
        <ele>324</ele>
        <time>2025-05-03T10:04:32.103Z</time>
      </trkpt>
      <trkpt lat="45.71425" lon="5.75379">
        <ele>318</ele>
        <time>2025-05-03T10:04:36.235Z</time>
      </trkpt>
      <trkpt lat="45.7142" lon="5.75377">
        <ele>318</ele>
        <time>2025-05-03T10:04:41.234Z</time>
      </trkpt>
      <trkpt lat="45.7142" lon="5.75379">
        <ele>318</ele>
        <time>2025-05-03T10:04:45.621Z</time>
      </trkpt>
      <trkpt lat="45.71413" lon="5.7538">
        <ele>318</ele>
        <time>2025-05-03T10:04:50.255Z</time>
      </trkpt>
      <trkpt lat="45.71407" lon="5.7538">
        <ele>318</ele>
        <time>2025-05-03T10:04:54.780Z</time>
      </trkpt>
      <trkpt lat="45.71402" lon="5.75379">
        <ele>315</ele>
        <time>2025-05-03T10:04:58.800Z</time>
      </trkpt>
      <trkpt lat="45.71397" lon="5.75378">
        <ele>315</ele>
        <time>2025-05-03T10:05:03.254Z</time>
      </trkpt>
      <trkpt lat="45.71391" lon="5.75376">
        <ele>315</ele>
        <time>2025-05-03T10:05:08.160Z</time>
      </trkpt>
      <trkpt lat="45.71386" lon="5.75375">
        <ele>315</ele>
        <time>2025-05-03T10:05:12.248Z</time>
      </trkpt>
      <trkpt lat="45.71379" lon="5.75376">
        <ele>315</ele>
        <time>2025-05-03T10:05:16.253Z</time>
      </trkpt>
      <trkpt lat="45.71373" lon="5.75376">
        <ele>311</ele>
        <time>2025-05-03T10:05:20.259Z</time>
      </trkpt>
      <trkpt lat="45.71367" lon="5.75375">
        <ele>311</ele>
        <time>2025-05-03T10:05:24.689Z</time>
      </trkpt>
      <trkpt lat="45.71361" lon="5.75376">
        <ele>311</ele>
        <time>2025-05-03T10:05:28.749Z</time>
      </trkpt>
      <trkpt lat="45.71355" lon="5.75375">
        <ele>311</ele>
        <time>2025-05-03T10:05:32.950Z</time>
      </trkpt>
      <trkpt lat="45.71349" lon="5.75375">
        <ele>311</ele>
        <time>2025-05-03T10:05:37.049Z</time>
      </trkpt>
      <trkpt lat="45.71343" lon="5.75376">
        <ele>311</ele>
        <time>2025-05-03T10:05:41.260Z</time>
      </trkpt>
      <trkpt lat="45.71335" lon="5.75374">
        <ele>316</ele>
        <time>2025-05-03T10:05:46.243Z</time>
      </trkpt>
      <trkpt lat="45.71327" lon="5.75373">
        <ele>316</ele>
        <time>2025-05-03T10:05:51.253Z</time>
      </trkpt>
      <trkpt lat="45.71325" lon="5.75369">
        <ele>316</ele>
        <time>2025-05-03T10:05:55.252Z</time>
      </trkpt>
      <trkpt lat="45.71322" lon="5.7537">
        <ele>316</ele>
        <time>2025-05-03T10:05:59.947Z</time>
      </trkpt>
      <trkpt lat="45.71317" lon="5.7537">
        <ele>315</ele>
        <time>2025-05-03T10:06:04.254Z</time>
      </trkpt>
      <trkpt lat="45.7131" lon="5.7537">
        <ele>315</ele>
        <time>2025-05-03T10:06:09.246Z</time>
      </trkpt>
      <trkpt lat="45.71305" lon="5.75368">
        <ele>315</ele>
        <time>2025-05-03T10:06:13.241Z</time>
      </trkpt>
      <trkpt lat="45.71298" lon="5.75368">
        <ele>315</ele>
        <time>2025-05-03T10:06:17.926Z</time>
      </trkpt>
      <trkpt lat="45.71295" lon="5.75364">
        <ele>315</ele>
        <time>2025-05-03T10:06:22.252Z</time>
      </trkpt>
      <trkpt lat="45.71288" lon="5.75359">
        <ele>310</ele>
        <time>2025-05-03T10:07:08.258Z</time>
      </trkpt>
      <trkpt lat="45.71287" lon="5.7536">
        <ele>310</ele>
        <time>2025-05-03T10:07:12.984Z</time>
      </trkpt>
      <trkpt lat="45.71286" lon="5.75362">
        <ele>310</ele>
        <time>2025-05-03T10:07:17.259Z</time>
      </trkpt>
      <trkpt lat="45.7128" lon="5.75363">
        <ele>310</ele>
        <time>2025-05-03T10:07:22.261Z</time>
      </trkpt>
      <trkpt lat="45.71274" lon="5.7536">
        <ele>310</ele>
        <time>2025-05-03T10:07:26.266Z</time>
      </trkpt>
      <trkpt lat="45.71266" lon="5.75359">
        <ele>310</ele>
        <time>2025-05-03T10:07:31.253Z</time>
      </trkpt>
      <trkpt lat="45.71261" lon="5.75356">
        <ele>305</ele>
        <time>2025-05-03T10:07:35.258Z</time>
      </trkpt>
      <trkpt lat="45.71254" lon="5.75353">
        <ele>305</ele>
        <time>2025-05-03T10:07:39.982Z</time>
      </trkpt>
      <trkpt lat="45.71249" lon="5.75354">
        <ele>305</ele>
        <time>2025-05-03T10:07:44.238Z</time>
      </trkpt>
      <trkpt lat="45.71243" lon="5.75353">
        <ele>305</ele>
        <time>2025-05-03T10:07:48.258Z</time>
      </trkpt>
      <trkpt lat="45.71237" lon="5.75353">
        <ele>305</ele>
        <time>2025-05-03T10:07:53.020Z</time>
      </trkpt>
      <trkpt lat="45.7123" lon="5.7535">
        <ele>300</ele>
        <time>2025-05-03T10:07:57.238Z</time>
      </trkpt>
      <trkpt lat="45.71228" lon="5.75346">
        <ele>306</ele>
        <time>2025-05-03T10:08:01.249Z</time>
      </trkpt>
      <trkpt lat="45.71221" lon="5.75344">
        <ele>306</ele>
        <time>2025-05-03T10:08:06.246Z</time>
      </trkpt>
      <trkpt lat="45.71214" lon="5.75343">
        <ele>306</ele>
        <time>2025-05-03T10:08:10.699Z</time>
      </trkpt>
      <trkpt lat="45.71209" lon="5.75341">
        <ele>306</ele>
        <time>2025-05-03T10:08:14.769Z</time>
      </trkpt>
      <trkpt lat="45.71204" lon="5.7534">
        <ele>302</ele>
        <time>2025-05-03T10:08:18.850Z</time>
      </trkpt>
      <trkpt lat="45.71198" lon="5.75338">
        <ele>302</ele>
        <time>2025-05-03T10:08:23.810Z</time>
      </trkpt>
      <trkpt lat="45.71193" lon="5.75337">
        <ele>302</ele>
        <time>2025-05-03T10:08:27.847Z</time>
      </trkpt>
      <trkpt lat="45.71189" lon="5.75337">
        <ele>302</ele>
        <time>2025-05-03T10:08:31.866Z</time>
      </trkpt>
      <trkpt lat="45.71186" lon="5.75335">
        <ele>302</ele>
        <time>2025-05-03T10:08:36.126Z</time>
      </trkpt>
      <trkpt lat="45.71185" lon="5.75338">
        <ele>302</ele>
        <time>2025-05-03T10:09:10.245Z</time>
      </trkpt>
      <trkpt lat="45.71185" lon="5.75339">
        <ele>302</ele>
        <time>2025-05-03T10:09:14.723Z</time>
      </trkpt>
      <trkpt lat="45.71182" lon="5.75346">
        <ele>302</ele>
        <time>2025-05-03T10:09:19.004Z</time>
      </trkpt>
      <trkpt lat="45.71176" lon="5.75352">
        <ele>292</ele>
        <time>2025-05-03T10:09:23.250Z</time>
      </trkpt>
      <trkpt lat="45.71169" lon="5.75354">
        <ele>292</ele>
        <time>2025-05-03T10:09:27.246Z</time>
      </trkpt>
      <trkpt lat="45.71164" lon="5.75357">
        <ele>292</ele>
        <time>2025-05-03T10:09:31.250Z</time>
      </trkpt>
      <trkpt lat="45.71158" lon="5.7536">
        <ele>292</ele>
        <time>2025-05-03T10:09:36.246Z</time>
      </trkpt>
      <trkpt lat="45.71152" lon="5.75361">
        <ele>283</ele>
        <time>2025-05-03T10:09:40.245Z</time>
      </trkpt>
      <trkpt lat="45.71147" lon="5.75363">
        <ele>283</ele>
        <time>2025-05-03T10:09:44.247Z</time>
      </trkpt>
      <trkpt lat="45.71141" lon="5.75366">
        <ele>283</ele>
        <time>2025-05-03T10:09:49.246Z</time>
      </trkpt>
      <trkpt lat="45.71136" lon="5.75367">
        <ele>283</ele>
        <time>2025-05-03T10:09:54.101Z</time>
      </trkpt>
      <trkpt lat="45.7113" lon="5.75365">
        <ele>283</ele>
        <time>2025-05-03T10:09:58.961Z</time>
      </trkpt>
      <trkpt lat="45.71129" lon="5.75361">
        <ele>283</ele>
        <time>2025-05-03T10:10:03.245Z</time>
      </trkpt>
      <trkpt lat="45.7113" lon="5.75362">
        <ele>283</ele>
        <time>2025-05-03T10:10:07.257Z</time>
      </trkpt>
      <trkpt lat="45.71124" lon="5.75363">
        <ele>278</ele>
        <time>2025-05-03T10:10:12.244Z</time>
      </trkpt>
      <trkpt lat="45.71119" lon="5.75363">
        <ele>278</ele>
        <time>2025-05-03T10:10:16.246Z</time>
      </trkpt>
      <trkpt lat="45.71117" lon="5.75362">
        <ele>278</ele>
        <time>2025-05-03T10:10:20.255Z</time>
      </trkpt>
      <trkpt lat="45.71116" lon="5.75363">
        <ele>278</ele>
        <time>2025-05-03T10:10:27.248Z</time>
      </trkpt>
      <trkpt lat="45.71116" lon="5.75364">
        <ele>278</ele>
        <time>2025-05-03T10:10:31.621Z</time>
      </trkpt>
      <trkpt lat="45.71116" lon="5.75364">
        <ele>278</ele>
        <time>2025-05-03T10:10:35.922Z</time>
      </trkpt>
      <trkpt lat="45.7111" lon="5.75366">
        <ele>278</ele>
        <time>2025-05-03T10:10:40.236Z</time>
      </trkpt>
      <trkpt lat="45.71104" lon="5.7537">
        <ele>278</ele>
        <time>2025-05-03T10:10:44.247Z</time>
      </trkpt>
      <trkpt lat="45.71099" lon="5.75372">
        <ele>278</ele>
        <time>2025-05-03T10:10:49.255Z</time>
      </trkpt>
      <trkpt lat="45.71094" lon="5.75373">
        <ele>272</ele>
        <time>2025-05-03T10:10:54.236Z</time>
      </trkpt>
      <trkpt lat="45.71089" lon="5.75374">
        <ele>272</ele>
        <time>2025-05-03T10:10:58.254Z</time>
      </trkpt>
      <trkpt lat="45.71083" lon="5.75379">
        <ele>268</ele>
        <time>2025-05-03T10:11:03.251Z</time>
      </trkpt>
      <trkpt lat="45.71078" lon="5.75381">
        <ele>268</ele>
        <time>2025-05-03T10:11:07.247Z</time>
      </trkpt>
      <trkpt lat="45.71073" lon="5.75382">
        <ele>268</ele>
        <time>2025-05-03T10:11:12.070Z</time>
      </trkpt>
      <trkpt lat="45.71066" lon="5.75382">
        <ele>262</ele>
        <time>2025-05-03T10:11:16.263Z</time>
      </trkpt>
      <trkpt lat="45.7106" lon="5.75382">
        <ele>262</ele>
        <time>2025-05-03T10:11:21.239Z</time>
      </trkpt>
      <trkpt lat="45.71054" lon="5.75384">
        <ele>262</ele>
        <time>2025-05-03T10:11:25.249Z</time>
      </trkpt>
      <trkpt lat="45.71048" lon="5.75385">
        <ele>262</ele>
        <time>2025-05-03T10:11:29.256Z</time>
      </trkpt>
      <trkpt lat="45.71042" lon="5.75385">
        <ele>262</ele>
        <time>2025-05-03T10:11:33.250Z</time>
      </trkpt>
      <trkpt lat="45.71037" lon="5.75384">
        <ele>256</ele>
        <time>2025-05-03T10:11:37.925Z</time>
      </trkpt>
      <trkpt lat="45.71038" lon="5.75379">
        <ele>256</ele>
        <time>2025-05-03T10:12:19.021Z</time>
      </trkpt>
      <trkpt lat="45.71033" lon="5.75382">
        <ele>256</ele>
        <time>2025-05-03T10:12:23.254Z</time>
      </trkpt>
      <trkpt lat="45.71026" lon="5.75383">
        <ele>256</ele>
        <time>2025-05-03T10:12:27.401Z</time>
      </trkpt>
      <trkpt lat="45.71019" lon="5.7538">
        <ele>256</ele>
        <time>2025-05-03T10:12:31.542Z</time>
      </trkpt>
      <trkpt lat="45.71014" lon="5.75378">
        <ele>253</ele>
        <time>2025-05-03T10:12:36.234Z</time>
      </trkpt>
      <trkpt lat="45.71008" lon="5.75379">
        <ele>253</ele>
        <time>2025-05-03T10:12:41.062Z</time>
      </trkpt>
      <trkpt lat="45.71003" lon="5.75377">
        <ele>253</ele>
        <time>2025-05-03T10:12:45.246Z</time>
      </trkpt>
      <trkpt lat="45.70997" lon="5.75374">
        <ele>256</ele>
        <time>2025-05-03T10:12:50.255Z</time>
      </trkpt>
      <trkpt lat="45.70995" lon="5.75375">
        <ele>253</ele>
        <time>2025-05-03T10:12:54.869Z</time>
      </trkpt>
      <trkpt lat="45.7099" lon="5.75377">
        <ele>253</ele>
        <time>2025-05-03T10:12:59.247Z</time>
      </trkpt>
      <trkpt lat="45.70984" lon="5.75378">
        <ele>253</ele>
        <time>2025-05-03T10:13:03.968Z</time>
      </trkpt>
      <trkpt lat="45.70979" lon="5.75378">
        <ele>253</ele>
        <time>2025-05-03T10:13:08.246Z</time>
      </trkpt>
      <trkpt lat="45.70972" lon="5.7538">
        <ele>253</ele>
        <time>2025-05-03T10:13:12.346Z</time>
      </trkpt>
      <trkpt lat="45.70959" lon="5.75378">
        <ele>253</ele>
        <time>2025-05-03T10:13:30.704Z</time>
      </trkpt>
      <trkpt lat="45.70959" lon="5.75378">
        <ele>253</ele>
        <time>2025-05-03T10:13:34.906Z</time>
      </trkpt>
      <trkpt lat="45.70952" lon="5.75373">
        <ele>250</ele>
        <time>2025-05-03T10:13:39.025Z</time>
      </trkpt>
      <trkpt lat="45.70947" lon="5.75366">
        <ele>250</ele>
        <time>2025-05-03T10:13:43.125Z</time>
      </trkpt>
      <trkpt lat="45.70943" lon="5.75358">
        <ele>250</ele>
        <time>2025-05-03T10:13:47.223Z</time>
      </trkpt>
      <trkpt lat="45.70939" lon="5.75353">
        <ele>250</ele>
        <time>2025-05-03T10:13:51.248Z</time>
      </trkpt>
      <trkpt lat="45.70935" lon="5.75344">
        <ele>252</ele>
        <time>2025-05-03T10:13:56.248Z</time>
      </trkpt>
      <trkpt lat="45.70932" lon="5.75337">
        <ele>252</ele>
        <time>2025-05-03T10:14:00.256Z</time>
      </trkpt>
      <trkpt lat="45.70928" lon="5.75328">
        <ele>248</ele>
        <time>2025-05-03T10:14:05.257Z</time>
      </trkpt>
      <trkpt lat="45.70923" lon="5.75319">
        <ele>251</ele>
        <time>2025-05-03T10:14:10.244Z</time>
      </trkpt>
      <trkpt lat="45.70916" lon="5.75311">
        <ele>251</ele>
        <time>2025-05-03T10:14:15.261Z</time>
      </trkpt>
      <trkpt lat="45.70911" lon="5.75305">
        <ele>251</ele>
        <time>2025-05-03T10:14:19.823Z</time>
      </trkpt>
      <trkpt lat="45.70906" lon="5.75302">
        <ele>251</ele>
        <time>2025-05-03T10:14:23.882Z</time>
      </trkpt>
      <trkpt lat="45.70901" lon="5.75297">
        <ele>243</ele>
        <time>2025-05-03T10:14:28.002Z</time>
      </trkpt>
      <trkpt lat="45.70896" lon="5.75293">
        <ele>243</ele>
        <time>2025-05-03T10:14:32.249Z</time>
      </trkpt>
      <trkpt lat="45.70891" lon="5.75288">
        <ele>249</ele>
        <time>2025-05-03T10:14:37.220Z</time>
      </trkpt>
      <trkpt lat="45.70887" lon="5.75285">
        <ele>249</ele>
        <time>2025-05-03T10:14:41.255Z</time>
      </trkpt>
      <trkpt lat="45.70881" lon="5.7528">
        <ele>249</ele>
        <time>2025-05-03T10:14:45.900Z</time>
      </trkpt>
      <trkpt lat="45.70875" lon="5.75278">
        <ele>243</ele>
        <time>2025-05-03T10:14:49.941Z</time>
      </trkpt>
      <trkpt lat="45.70868" lon="5.75275">
        <ele>243</ele>
        <time>2025-05-03T10:14:54.244Z</time>
      </trkpt>
      <trkpt lat="45.70862" lon="5.75271">
        <ele>243</ele>
        <time>2025-05-03T10:14:58.254Z</time>
      </trkpt>
      <trkpt lat="45.70856" lon="5.75268">
        <ele>243</ele>
        <time>2025-05-03T10:15:02.439Z</time>
      </trkpt>
      <trkpt lat="45.7085" lon="5.75265">
        <ele>243</ele>
        <time>2025-05-03T10:15:06.470Z</time>
      </trkpt>
      <trkpt lat="45.70844" lon="5.75261">
        <ele>245</ele>
        <time>2025-05-03T10:15:11.069Z</time>
      </trkpt>
      <trkpt lat="45.70839" lon="5.75258">
        <ele>245</ele>
        <time>2025-05-03T10:15:15.128Z</time>
      </trkpt>
      <trkpt lat="45.70835" lon="5.75252">
        <ele>245</ele>
        <time>2025-05-03T10:15:19.187Z</time>
      </trkpt>
      <trkpt lat="45.70828" lon="5.75252">
        <ele>245</ele>
        <time>2025-05-03T10:15:23.252Z</time>
      </trkpt>
      <trkpt lat="45.70821" lon="5.75251">
        <ele>245</ele>
        <time>2025-05-03T10:15:27.647Z</time>
      </trkpt>
      <trkpt lat="45.70816" lon="5.75248">
        <ele>240</ele>
        <time>2025-05-03T10:15:32.206Z</time>
      </trkpt>
      <trkpt lat="45.70811" lon="5.75245">
        <ele>240</ele>
        <time>2025-05-03T10:15:36.256Z</time>
      </trkpt>
      <trkpt lat="45.70803" lon="5.7524">
        <ele>240</ele>
        <time>2025-05-03T10:15:41.249Z</time>
      </trkpt>
      <trkpt lat="45.70796" lon="5.75237">
        <ele>240</ele>
        <time>2025-05-03T10:15:45.646Z</time>
      </trkpt>
      <trkpt lat="45.7079" lon="5.75233">
        <ele>242</ele>
        <time>2025-05-03T10:15:50.257Z</time>
      </trkpt>
      <trkpt lat="45.70781" lon="5.7523">
        <ele>242</ele>
        <time>2025-05-03T10:16:08.245Z</time>
      </trkpt>
      <trkpt lat="45.70781" lon="5.7523">
        <ele>242</ele>
        <time>2025-05-03T10:16:13.254Z</time>
      </trkpt>
      <trkpt lat="45.70774" lon="5.75225">
        <ele>242</ele>
        <time>2025-05-03T10:16:17.861Z</time>
      </trkpt>
      <trkpt lat="45.70767" lon="5.75224">
        <ele>242</ele>
        <time>2025-05-03T10:16:21.942Z</time>
      </trkpt>
      <trkpt lat="45.70759" lon="5.75224">
        <ele>233</ele>
        <time>2025-05-03T10:16:26.931Z</time>
      </trkpt>
      <trkpt lat="45.70752" lon="5.7522">
        <ele>233</ele>
        <time>2025-05-03T10:16:30.949Z</time>
      </trkpt>
      <trkpt lat="45.70746" lon="5.75217">
        <ele>233</ele>
        <time>2025-05-03T10:16:35.049Z</time>
      </trkpt>
      <trkpt lat="45.70738" lon="5.75215">
        <ele>233</ele>
        <time>2025-05-03T10:16:40.047Z</time>
      </trkpt>
      <trkpt lat="45.70733" lon="5.75211">
        <ele>230</ele>
        <time>2025-05-03T10:16:44.107Z</time>
      </trkpt>
      <trkpt lat="45.70727" lon="5.75207">
        <ele>236</ele>
        <time>2025-05-03T10:16:48.245Z</time>
      </trkpt>
      <trkpt lat="45.70721" lon="5.75203">
        <ele>236</ele>
        <time>2025-05-03T10:16:53.224Z</time>
      </trkpt>
      <trkpt lat="45.70714" lon="5.75201">
        <ele>236</ele>
        <time>2025-05-03T10:16:57.241Z</time>
      </trkpt>
      <trkpt lat="45.70706" lon="5.75197">
        <ele>231</ele>
        <time>2025-05-03T10:17:02.065Z</time>
      </trkpt>
      <trkpt lat="45.707" lon="5.75193">
        <ele>231</ele>
        <time>2025-05-03T10:17:06.254Z</time>
      </trkpt>
      <trkpt lat="45.70694" lon="5.75188">
        <ele>231</ele>
        <time>2025-05-03T10:17:10.646Z</time>
      </trkpt>
      <trkpt lat="45.70687" lon="5.75184">
        <ele>231</ele>
        <time>2025-05-03T10:17:15.262Z</time>
      </trkpt>
      <trkpt lat="45.70684" lon="5.75185">
        <ele>231</ele>
        <time>2025-05-03T10:17:19.254Z</time>
      </trkpt>
      <trkpt lat="45.70685" lon="5.75185">
        <ele>231</ele>
        <time>2025-05-03T10:17:24.241Z</time>
      </trkpt>
      <trkpt lat="45.70685" lon="5.75185">
        <ele>231</ele>
        <time>2025-05-03T10:17:28.251Z</time>
      </trkpt>
      <trkpt lat="45.70686" lon="5.75178">
        <ele>238</ele>
        <time>2025-05-03T10:17:32.444Z</time>
      </trkpt>
      <trkpt lat="45.70677" lon="5.75172">
        <ele>231</ele>
        <time>2025-05-03T10:17:37.248Z</time>
      </trkpt>
      <trkpt lat="45.70671" lon="5.75165">
        <ele>231</ele>
        <time>2025-05-03T10:17:41.463Z</time>
      </trkpt>
      <trkpt lat="45.70667" lon="5.75156">
        <ele>231</ele>
        <time>2025-05-03T10:17:46.004Z</time>
      </trkpt>
      <trkpt lat="45.70664" lon="5.75149">
        <ele>233</ele>
        <time>2025-05-03T10:17:50.144Z</time>
      </trkpt>
      <trkpt lat="45.70663" lon="5.75141">
        <ele>233</ele>
        <time>2025-05-03T10:17:54.255Z</time>
      </trkpt>
      <trkpt lat="45.7066" lon="5.75138">
        <ele>233</ele>
        <time>2025-05-03T10:17:58.253Z</time>
      </trkpt>
      <trkpt lat="45.70659" lon="5.75135">
        <ele>233</ele>
        <time>2025-05-03T10:18:03.253Z</time>
      </trkpt>
      <trkpt lat="45.70656" lon="5.75129">
        <ele>233</ele>
        <time>2025-05-03T10:18:07.256Z</time>
      </trkpt>
      <trkpt lat="45.70654" lon="5.75122">
        <ele>233</ele>
        <time>2025-05-03T10:18:11.462Z</time>
      </trkpt>
      <trkpt lat="45.70654" lon="5.7512">
        <ele>233</ele>
        <time>2025-05-03T10:18:16.024Z</time>
      </trkpt>
      <trkpt lat="45.70653" lon="5.75119">
        <ele>233</ele>
        <time>2025-05-03T10:18:20.221Z</time>
      </trkpt>
      <trkpt lat="45.70646" lon="5.75117">
        <ele>224</ele>
        <time>2025-05-03T10:18:24.242Z</time>
      </trkpt>
      <trkpt lat="45.70638" lon="5.75117">
        <ele>224</ele>
        <time>2025-05-03T10:18:29.254Z</time>
      </trkpt>
      <trkpt lat="45.70632" lon="5.75115">
        <ele>224</ele>
        <time>2025-05-03T10:18:34.101Z</time>
      </trkpt>
      <trkpt lat="45.70623" lon="5.75114">
        <ele>222</ele>
        <time>2025-05-03T10:18:39.042Z</time>
      </trkpt>
      <trkpt lat="45.70614" lon="5.75112">
        <ele>222</ele>
        <time>2025-05-03T10:18:44.002Z</time>
      </trkpt>
      <trkpt lat="45.70606" lon="5.7511">
        <ele>222</ele>
        <time>2025-05-03T10:18:48.881Z</time>
      </trkpt>
      <trkpt lat="45.70599" lon="5.75109">
        <ele>222</ele>
        <time>2025-05-03T10:18:53.778Z</time>
      </trkpt>
      <trkpt lat="45.70592" lon="5.75106">
        <ele>223</ele>
        <time>2025-05-03T10:18:58.249Z</time>
      </trkpt>
      <trkpt lat="45.70585" lon="5.75102">
        <ele>223</ele>
        <time>2025-05-03T10:19:03.256Z</time>
      </trkpt>
      <trkpt lat="45.70577" lon="5.75103">
        <ele>223</ele>
        <time>2025-05-03T10:19:07.255Z</time>
      </trkpt>
      <trkpt lat="45.70569" lon="5.75102">
        <ele>228</ele>
        <time>2025-05-03T10:19:12.248Z</time>
      </trkpt>
      <trkpt lat="45.70561" lon="5.75102">
        <ele>228</ele>
        <time>2025-05-03T10:19:17.229Z</time>
      </trkpt>
      <trkpt lat="45.70554" lon="5.751">
        <ele>228</ele>
        <time>2025-05-03T10:19:22.228Z</time>
      </trkpt>
      <trkpt lat="45.70549" lon="5.75097">
        <ele>228</ele>
        <time>2025-05-03T10:19:27.030Z</time>
      </trkpt>
      <trkpt lat="45.70546" lon="5.75101">
        <ele>228</ele>
        <time>2025-05-03T10:19:31.550Z</time>
      </trkpt>
      <trkpt lat="45.70546" lon="5.75111">
        <ele>228</ele>
        <time>2025-05-03T10:19:35.928Z</time>
      </trkpt>
      <trkpt lat="45.70545" lon="5.7512">
        <ele>228</ele>
        <time>2025-05-03T10:19:40.030Z</time>
      </trkpt>
      <trkpt lat="45.70544" lon="5.75129">
        <ele>229</ele>
        <time>2025-05-03T10:19:44.168Z</time>
      </trkpt>
      <trkpt lat="45.70545" lon="5.75136">
        <ele>229</ele>
        <time>2025-05-03T10:19:48.246Z</time>
      </trkpt>
      <trkpt lat="45.70543" lon="5.75138">
        <ele>229</ele>
        <time>2025-05-03T10:19:53.129Z</time>
      </trkpt>
      <trkpt lat="45.70545" lon="5.75144">
        <ele>229</ele>
        <time>2025-05-03T10:19:57.168Z</time>
      </trkpt>
      <trkpt lat="45.70546" lon="5.75152">
        <ele>229</ele>
        <time>2025-05-03T10:20:01.248Z</time>
      </trkpt>
      <trkpt lat="45.70548" lon="5.7516">
        <ele>233</ele>
        <time>2025-05-03T10:20:05.366Z</time>
      </trkpt>
      <trkpt lat="45.70549" lon="5.75167">
        <ele>233</ele>
        <time>2025-05-03T10:20:09.487Z</time>
      </trkpt>
      <trkpt lat="45.70553" lon="5.75174">
        <ele>233</ele>
        <time>2025-05-03T10:20:13.728Z</time>
      </trkpt>
      <trkpt lat="45.70556" lon="5.75181">
        <ele>234</ele>
        <time>2025-05-03T10:20:18.246Z</time>
      </trkpt>
      <trkpt lat="45.70559" lon="5.75189">
        <ele>234</ele>
        <time>2025-05-03T10:20:22.925Z</time>
      </trkpt>
      <trkpt lat="45.70564" lon="5.75198">
        <ele>234</ele>
        <time>2025-05-03T10:20:27.086Z</time>
      </trkpt>
      <trkpt lat="45.70568" lon="5.75206">
        <ele>234</ele>
        <time>2025-05-03T10:20:31.241Z</time>
      </trkpt>
      <trkpt lat="45.70572" lon="5.75214">
        <ele>229</ele>
        <time>2025-05-03T10:20:35.705Z</time>
      </trkpt>
      <trkpt lat="45.70575" lon="5.75223">
        <ele>229</ele>
        <time>2025-05-03T10:20:39.985Z</time>
      </trkpt>
      <trkpt lat="45.70576" lon="5.75231">
        <ele>229</ele>
        <time>2025-05-03T10:20:44.239Z</time>
      </trkpt>
      <trkpt lat="45.70578" lon="5.75238">
        <ele>230</ele>
        <time>2025-05-03T10:20:48.254Z</time>
      </trkpt>
      <trkpt lat="45.70581" lon="5.75245">
        <ele>230</ele>
        <time>2025-05-03T10:20:52.743Z</time>
      </trkpt>
      <trkpt lat="45.70586" lon="5.75249">
        <ele>230</ele>
        <time>2025-05-03T10:20:57.241Z</time>
      </trkpt>
      <trkpt lat="45.70591" lon="5.7525">
        <ele>230</ele>
        <time>2025-05-03T10:21:01.925Z</time>
      </trkpt>
      <trkpt lat="45.70594" lon="5.75255">
        <ele>230</ele>
        <time>2025-05-03T10:21:06.044Z</time>
      </trkpt>
      <trkpt lat="45.70597" lon="5.7526">
        <ele>226</ele>
        <time>2025-05-03T10:21:10.923Z</time>
      </trkpt>
      <trkpt lat="45.70612" lon="5.75274">
        <ele>227</ele>
        <time>2025-05-03T10:21:28.251Z</time>
      </trkpt>
      <trkpt lat="45.70615" lon="5.75273">
        <ele>227</ele>
        <time>2025-05-03T10:21:32.257Z</time>
      </trkpt>
      <trkpt lat="45.70618" lon="5.75282">
        <ele>227</ele>
        <time>2025-05-03T10:21:37.246Z</time>
      </trkpt>
      <trkpt lat="45.70617" lon="5.75289">
        <ele>227</ele>
        <time>2025-05-03T10:21:41.748Z</time>
      </trkpt>
      <trkpt lat="45.70614" lon="5.75294">
        <ele>226</ele>
        <time>2025-05-03T10:21:45.888Z</time>
      </trkpt>
      <trkpt lat="45.70605" lon="5.75293">
        <ele>226</ele>
        <time>2025-05-03T10:22:44.238Z</time>
      </trkpt>
      <trkpt lat="45.70606" lon="5.75291">
        <ele>227</ele>
        <time>2025-05-03T10:22:48.249Z</time>
      </trkpt>
      <trkpt lat="45.70607" lon="5.7529">
        <ele>227</ele>
        <time>2025-05-03T10:22:53.023Z</time>
      </trkpt>
      <trkpt lat="45.70609" lon="5.75279">
        <ele>227</ele>
        <time>2025-05-03T10:22:57.245Z</time>
      </trkpt>
      <trkpt lat="45.70617" lon="5.75278">
        <ele>227</ele>
        <time>2025-05-03T10:23:02.043Z</time>
      </trkpt>
      <trkpt lat="45.70619" lon="5.75273">
        <ele>227</ele>
        <time>2025-05-03T10:23:06.241Z</time>
      </trkpt>
      <trkpt lat="45.70617" lon="5.75271">
        <ele>227</ele>
        <time>2025-05-03T10:23:10.641Z</time>
      </trkpt>
      <trkpt lat="45.70612" lon="5.75274">
        <ele>227</ele>
        <time>2025-05-03T10:23:14.701Z</time>
      </trkpt>
      <trkpt lat="45.70607" lon="5.75279">
        <ele>227</ele>
        <time>2025-05-03T10:23:19.161Z</time>
      </trkpt>
      <trkpt lat="45.70602" lon="5.7528">
        <ele>227</ele>
        <time>2025-05-03T10:23:23.542Z</time>
      </trkpt>
      <trkpt lat="45.70594" lon="5.75279">
        <ele>229</ele>
        <time>2025-05-03T10:23:28.257Z</time>
      </trkpt>
      <trkpt lat="45.70589" lon="5.75277">
        <ele>229</ele>
        <time>2025-05-03T10:23:32.582Z</time>
      </trkpt>
      <trkpt lat="45.70585" lon="5.75276">
        <ele>229</ele>
        <time>2025-05-03T10:23:36.721Z</time>
      </trkpt>
      <trkpt lat="45.70583" lon="5.75273">
        <ele>229</ele>
        <time>2025-05-03T10:23:40.780Z</time>
      </trkpt>
      <trkpt lat="45.70578" lon="5.75276">
        <ele>229</ele>
        <time>2025-05-03T10:23:45.103Z</time>
      </trkpt>
      <trkpt lat="45.70571" lon="5.75276">
        <ele>229</ele>
        <time>2025-05-03T10:23:49.252Z</time>
      </trkpt>
      <trkpt lat="45.70565" lon="5.75275">
        <ele>231</ele>
        <time>2025-05-03T10:23:53.840Z</time>
      </trkpt>
      <trkpt lat="45.7056" lon="5.7527">
        <ele>231</ele>
        <time>2025-05-03T10:27:36.227Z</time>
      </trkpt>
      <trkpt lat="45.70561" lon="5.75268">
        <ele>231</ele>
        <time>2025-05-03T10:27:40.248Z</time>
      </trkpt>
      <trkpt lat="45.70561" lon="5.75264">
        <ele>233</ele>
        <time>2025-05-03T10:27:44.846Z</time>
      </trkpt>
      <trkpt lat="45.70561" lon="5.75263">
        <ele>233</ele>
        <time>2025-05-03T10:27:49.245Z</time>
      </trkpt>
      <trkpt lat="45.70562" lon="5.75261">
        <ele>233</ele>
        <time>2025-05-03T10:27:53.489Z</time>
      </trkpt>
      <trkpt lat="45.70566" lon="5.75272">
        <ele>231</ele>
        <time>2025-05-03T10:32:29.198Z</time>
      </trkpt>
      <trkpt lat="45.70566" lon="5.75272">
        <ele>231</ele>
        <time>2025-05-03T10:32:35.203Z</time>
      </trkpt>
      <trkpt lat="45.70566" lon="5.75272">
        <ele>231</ele>
        <time>2025-05-03T10:32:40.203Z</time>
      </trkpt>
      <trkpt lat="45.70565" lon="5.75273">
        <ele>231</ele>
        <time>2025-05-03T10:32:46.193Z</time>
      </trkpt>
      <trkpt lat="45.70565" lon="5.75274">
        <ele>231</ele>
        <time>2025-05-03T10:32:54.195Z</time>
      </trkpt>
      <trkpt lat="45.70565" lon="5.75272">
        <ele>231</ele>
        <time>2025-05-03T10:35:03.209Z</time>
      </trkpt>
      <trkpt lat="45.70565" lon="5.75272">
        <ele>231</ele>
        <time>2025-05-03T10:35:09.200Z</time>
      </trkpt>
      <trkpt lat="45.70562" lon="5.75267">
        <ele>231</ele>
        <time>2025-05-03T10:35:13.484Z</time>
      </trkpt>
      <trkpt lat="45.7056" lon="5.75259">
        <ele>233</ele>
        <time>2025-05-03T10:35:18.064Z</time>
      </trkpt>
      <trkpt lat="45.70562" lon="5.75255">
        <ele>233</ele>
        <time>2025-05-03T10:35:22.245Z</time>
      </trkpt>
      <trkpt lat="45.70562" lon="5.75256">
        <ele>233</ele>
        <time>2025-05-03T10:35:31.249Z</time>
      </trkpt>
      <trkpt lat="45.70561" lon="5.75257">
        <ele>233</ele>
        <time>2025-05-03T10:35:35.253Z</time>
      </trkpt>
      <trkpt lat="45.70561" lon="5.75258">
        <ele>233</ele>
        <time>2025-05-03T10:35:39.944Z</time>
      </trkpt>
      <trkpt lat="45.70564" lon="5.75267">
        <ele>231</ele>
        <time>2025-05-03T10:35:44.237Z</time>
      </trkpt>
      <trkpt lat="45.70566" lon="5.75275">
        <ele>231</ele>
        <time>2025-05-03T10:35:48.784Z</time>
      </trkpt>
      <trkpt lat="45.70561" lon="5.75272">
        <ele>231</ele>
        <time>2025-05-03T10:42:49.216Z</time>
      </trkpt>
      <trkpt lat="45.70561" lon="5.75272">
        <ele>231</ele>
        <time>2025-05-03T10:42:54.722Z</time>
      </trkpt>
      <trkpt lat="45.70561" lon="5.75271">
        <ele>231</ele>
        <time>2025-05-03T10:42:59.701Z</time>
      </trkpt>
      <trkpt lat="45.70561" lon="5.75266">
        <ele>231</ele>
        <time>2025-05-03T10:43:04.179Z</time>
      </trkpt>
      <trkpt lat="45.7056" lon="5.75259">
        <ele>233</ele>
        <time>2025-05-03T10:43:08.238Z</time>
      </trkpt>
      <trkpt lat="45.70562" lon="5.75265">
        <ele>231</ele>
        <time>2025-05-03T10:44:39.251Z</time>
      </trkpt>
      <trkpt lat="45.70562" lon="5.75265">
        <ele>231</ele>
        <time>2025-05-03T10:44:44.229Z</time>
      </trkpt>
      <trkpt lat="45.70562" lon="5.75266">
        <ele>231</ele>
        <time>2025-05-03T10:44:48.244Z</time>
      </trkpt>
      <trkpt lat="45.70561" lon="5.75266">
        <ele>231</ele>
        <time>2025-05-03T10:44:53.248Z</time>
      </trkpt>
      <trkpt lat="45.70562" lon="5.75268">
        <ele>231</ele>
        <time>2025-05-03T10:44:58.251Z</time>
      </trkpt>
      <trkpt lat="45.70563" lon="5.75271">
        <ele>231</ele>
        <time>2025-05-03T10:45:20.264Z</time>
      </trkpt>
      <trkpt lat="45.70566" lon="5.75271">
        <ele>231</ele>
        <time>2025-05-03T10:45:25.229Z</time>
      </trkpt>
      <trkpt lat="45.7062" lon="5.75264">
        <ele>226</ele>
        <time>2025-05-03T10:45:30.235Z</time>
      </trkpt>
      <trkpt lat="45.70673" lon="5.75231">
        <ele>225</ele>
        <time>2025-05-03T10:45:35.241Z</time>
      </trkpt>
      <trkpt lat="45.7068" lon="5.75234">
        <ele>225</ele>
        <time>2025-05-03T10:45:40.237Z</time>
      </trkpt>
      <trkpt lat="45.7068" lon="5.75247">
        <ele>225</ele>
        <time>2025-05-03T10:45:45.249Z</time>
      </trkpt>
      <trkpt lat="45.70669" lon="5.75255">
        <ele>225</ele>
        <time>2025-05-03T10:45:50.245Z</time>
      </trkpt>
      <trkpt lat="45.70659" lon="5.75261">
        <ele>225</ele>
        <time>2025-05-03T10:45:55.239Z</time>
      </trkpt>
      <trkpt lat="45.70651" lon="5.75261">
        <ele>225</ele>
        <time>2025-05-03T10:46:00.227Z</time>
      </trkpt>
      <trkpt lat="45.70626" lon="5.75255">
        <ele>225</ele>
        <time>2025-05-03T10:46:19.242Z</time>
      </trkpt>
      <trkpt lat="45.70623" lon="5.75264">
        <ele>227</ele>
        <time>2025-05-03T10:46:24.238Z</time>
      </trkpt>
      <trkpt lat="45.70622" lon="5.75271">
        <ele>227</ele>
        <time>2025-05-03T10:46:28.243Z</time>
      </trkpt>
      <trkpt lat="45.70622" lon="5.75271">
        <ele>227</ele>
        <time>2025-05-03T10:46:33.141Z</time>
      </trkpt>
      <trkpt lat="45.70621" lon="5.75269">
        <ele>227</ele>
        <time>2025-05-03T10:46:38.237Z</time>
      </trkpt>
      <trkpt lat="45.70621" lon="5.75269">
        <ele>227</ele>
        <time>2025-05-03T10:46:43.240Z</time>
      </trkpt>
      <trkpt lat="45.70621" lon="5.75269">
        <ele>227</ele>
        <time>2025-05-03T10:46:48.242Z</time>
      </trkpt>
      <trkpt lat="45.70606" lon="5.75269">
        <ele>227</ele>
        <time>2025-05-03T10:46:53.256Z</time>
      </trkpt>
      <trkpt lat="45.70593" lon="5.75268">
        <ele>229</ele>
        <time>2025-05-03T10:46:57.257Z</time>
      </trkpt>
      <trkpt lat="45.70592" lon="5.75268">
        <ele>229</ele>
        <time>2025-05-03T10:47:20.241Z</time>
      </trkpt>
      <trkpt lat="45.7059" lon="5.7527">
        <ele>229</ele>
        <time>2025-05-03T10:47:24.256Z</time>
      </trkpt>
      <trkpt lat="45.70586" lon="5.75271">
        <ele>229</ele>
        <time>2025-05-03T10:47:28.261Z</time>
      </trkpt>
      <trkpt lat="45.70583" lon="5.75273">
        <ele>229</ele>
        <time>2025-05-03T10:47:32.264Z</time>
      </trkpt>
      <trkpt lat="45.70582" lon="5.75273">
        <ele>229</ele>
        <time>2025-05-03T10:47:37.253Z</time>
      </trkpt>
      <trkpt lat="45.70581" lon="5.75273">
        <ele>229</ele>
        <time>2025-05-03T10:47:42.265Z</time>
      </trkpt>
      <trkpt lat="45.70579" lon="5.75272">
        <ele>229</ele>
        <time>2025-05-03T10:47:47.262Z</time>
      </trkpt>
      <trkpt lat="45.70576" lon="5.75269">
        <ele>229</ele>
        <time>2025-05-03T10:47:52.258Z</time>
      </trkpt>
      <trkpt lat="45.70573" lon="5.7527">
        <ele>229</ele>
        <time>2025-05-03T10:47:56.257Z</time>
      </trkpt>
      <trkpt lat="45.70572" lon="5.7527">
        <ele>229</ele>
        <time>2025-05-03T10:48:02.260Z</time>
      </trkpt>
      <trkpt lat="45.70564" lon="5.75274">
        <ele>231</ele>
        <time>2025-05-03T10:50:05.174Z</time>
      </trkpt>
      <trkpt lat="45.70563" lon="5.75276">
        <ele>231</ele>
        <time>2025-05-03T10:50:09.695Z</time>
      </trkpt>
      <trkpt lat="45.70562" lon="5.75276">
        <ele>231</ele>
        <time>2025-05-03T10:50:17.230Z</time>
      </trkpt>
      <trkpt lat="45.70562" lon="5.75276">
        <ele>231</ele>
        <time>2025-05-03T10:50:22.212Z</time>
      </trkpt>
      <trkpt lat="45.70561" lon="5.75278">
        <ele>231</ele>
        <time>2025-05-03T10:50:26.251Z</time>
      </trkpt>
      <trkpt lat="45.70558" lon="5.75269">
        <ele>231</ele>
        <time>2025-05-03T10:52:48.213Z</time>
      </trkpt>
      <trkpt lat="45.70558" lon="5.75268">
        <ele>231</ele>
        <time>2025-05-03T10:52:52.233Z</time>
      </trkpt>
      <trkpt lat="45.70558" lon="5.75268">
        <ele>231</ele>
        <time>2025-05-03T10:52:57.238Z</time>
      </trkpt>
      <trkpt lat="45.70557" lon="5.75268">
        <ele>231</ele>
        <time>2025-05-03T10:53:02.219Z</time>
      </trkpt>
      <trkpt lat="45.70557" lon="5.75265">
        <ele>231</ele>
        <time>2025-05-03T10:53:06.241Z</time>
      </trkpt>
      <trkpt lat="45.70562" lon="5.75257">
        <ele>233</ele>
        <time>2025-05-03T10:59:57.263Z</time>
      </trkpt>
      <trkpt lat="45.70563" lon="5.75257">
        <ele>233</ele>
        <time>2025-05-03T11:00:02.251Z</time>
      </trkpt>
      <trkpt lat="45.70563" lon="5.75256">
        <ele>233</ele>
        <time>2025-05-03T11:00:07.249Z</time>
      </trkpt>
      <trkpt lat="45.70563" lon="5.75256">
        <ele>233</ele>
        <time>2025-05-03T11:00:11.277Z</time>
      </trkpt>
      <trkpt lat="45.70563" lon="5.75256">
        <ele>233</ele>
        <time>2025-05-03T11:00:17.268Z</time>
      </trkpt>
      <trkpt lat="45.70566" lon="5.75246">
        <ele>233</ele>
        <time>2025-05-03T11:05:20.264Z</time>
      </trkpt>
      <trkpt lat="45.70566" lon="5.75246">
        <ele>233</ele>
        <time>2025-05-03T11:05:25.234Z</time>
      </trkpt>
      <trkpt lat="45.70565" lon="5.75244">
        <ele>233</ele>
        <time>2025-05-03T11:05:29.242Z</time>
      </trkpt>
      <trkpt lat="45.70565" lon="5.75241">
        <ele>233</ele>
        <time>2025-05-03T11:05:33.255Z</time>
      </trkpt>
      <trkpt lat="45.70565" lon="5.75241">
        <ele>233</ele>
        <time>2025-05-03T11:05:37.904Z</time>
      </trkpt>
      <trkpt lat="45.70567" lon="5.7522">
        <ele>234</ele>
        <time>2025-05-03T11:06:01.236Z</time>
      </trkpt>
      <trkpt lat="45.70566" lon="5.75219">
        <ele>234</ele>
        <time>2025-05-03T11:06:05.250Z</time>
      </trkpt>
      <trkpt lat="45.70565" lon="5.75216">
        <ele>234</ele>
        <time>2025-05-03T11:06:09.807Z</time>
      </trkpt>
      <trkpt lat="45.70564" lon="5.7521">
        <ele>234</ele>
        <time>2025-05-03T11:06:14.234Z</time>
      </trkpt>
      <trkpt lat="45.7056" lon="5.75204">
        <ele>234</ele>
        <time>2025-05-03T11:06:18.821Z</time>
      </trkpt>
      <trkpt lat="45.70559" lon="5.75199">
        <ele>234</ele>
        <time>2025-05-03T11:06:58.826Z</time>
      </trkpt>
      <trkpt lat="45.70559" lon="5.75199">
        <ele>234</ele>
        <time>2025-05-03T11:07:02.987Z</time>
      </trkpt>
      <trkpt lat="45.70558" lon="5.75191">
        <ele>234</ele>
        <time>2025-05-03T11:07:07.027Z</time>
      </trkpt>
      <trkpt lat="45.70555" lon="5.75184">
        <ele>234</ele>
        <time>2025-05-03T11:07:11.046Z</time>
      </trkpt>
      <trkpt lat="45.70552" lon="5.75177">
        <ele>233</ele>
        <time>2025-05-03T11:07:15.240Z</time>
      </trkpt>
      <trkpt lat="45.7055" lon="5.75164">
        <ele>233</ele>
        <time>2025-05-03T11:07:20.243Z</time>
      </trkpt>
      <trkpt lat="45.70545" lon="5.75153">
        <ele>233</ele>
        <time>2025-05-03T11:07:25.205Z</time>
      </trkpt>
      <trkpt lat="45.70545" lon="5.75137">
        <ele>229</ele>
        <time>2025-05-03T11:07:29.240Z</time>
      </trkpt>
      <trkpt lat="45.70545" lon="5.75126">
        <ele>229</ele>
        <time>2025-05-03T11:07:34.245Z</time>
      </trkpt>
      <trkpt lat="45.70545" lon="5.75108">
        <ele>228</ele>
        <time>2025-05-03T11:07:53.238Z</time>
      </trkpt>
      <trkpt lat="45.70545" lon="5.75108">
        <ele>228</ele>
        <time>2025-05-03T11:07:57.808Z</time>
      </trkpt>
      <trkpt lat="45.70539" lon="5.75106">
        <ele>232</ele>
        <time>2025-05-03T11:08:02.109Z</time>
      </trkpt>
      <trkpt lat="45.70534" lon="5.7512">
        <ele>232</ele>
        <time>2025-05-03T11:08:06.488Z</time>
      </trkpt>
      <trkpt lat="45.70533" lon="5.75128">
        <ele>232</ele>
        <time>2025-05-03T11:08:10.728Z</time>
      </trkpt>
      <trkpt lat="45.70531" lon="5.75136">
        <ele>232</ele>
        <time>2025-05-03T11:08:14.906Z</time>
      </trkpt>
      <trkpt lat="45.7053" lon="5.75143">
        <ele>232</ele>
        <time>2025-05-03T11:08:19.146Z</time>
      </trkpt>
      <trkpt lat="45.70531" lon="5.75153">
        <ele>233</ele>
        <time>2025-05-03T11:08:23.185Z</time>
      </trkpt>
      <trkpt lat="45.70529" lon="5.75164">
        <ele>233</ele>
        <time>2025-05-03T11:08:27.687Z</time>
      </trkpt>
      <trkpt lat="45.70526" lon="5.75169">
        <ele>233</ele>
        <time>2025-05-03T11:08:31.785Z</time>
      </trkpt>
      <trkpt lat="45.70524" lon="5.75179">
        <ele>233</ele>
        <time>2025-05-03T11:08:36.265Z</time>
      </trkpt>
      <trkpt lat="45.7052" lon="5.7519">
        <ele>235</ele>
        <time>2025-05-03T11:08:40.785Z</time>
      </trkpt>
      <trkpt lat="45.70517" lon="5.75199">
        <ele>235</ele>
        <time>2025-05-03T11:08:45.242Z</time>
      </trkpt>
      <trkpt lat="45.70513" lon="5.75206">
        <ele>231</ele>
        <time>2025-05-03T11:08:49.406Z</time>
      </trkpt>
      <trkpt lat="45.7051" lon="5.75213">
        <ele>231</ele>
        <time>2025-05-03T11:08:53.547Z</time>
      </trkpt>
      <trkpt lat="45.70508" lon="5.7522">
        <ele>231</ele>
        <time>2025-05-03T11:08:58.255Z</time>
      </trkpt>
      <trkpt lat="45.70508" lon="5.75228">
        <ele>231</ele>
        <time>2025-05-03T11:09:02.786Z</time>
      </trkpt>
      <trkpt lat="45.70508" lon="5.75235">
        <ele>231</ele>
        <time>2025-05-03T11:09:06.884Z</time>
      </trkpt>
      <trkpt lat="45.70508" lon="5.75243">
        <ele>231</ele>
        <time>2025-05-03T11:09:11.255Z</time>
      </trkpt>
      <trkpt lat="45.70505" lon="5.75253">
        <ele>231</ele>
        <time>2025-05-03T11:09:16.064Z</time>
      </trkpt>
      <trkpt lat="45.70503" lon="5.75265">
        <ele>229</ele>
        <time>2025-05-03T11:09:20.242Z</time>
      </trkpt>
      <trkpt lat="45.70501" lon="5.75275">
        <ele>229</ele>
        <time>2025-05-03T11:09:24.881Z</time>
      </trkpt>
      <trkpt lat="45.70497" lon="5.75284">
        <ele>229</ele>
        <time>2025-05-03T11:09:29.381Z</time>
      </trkpt>
      <trkpt lat="45.70495" lon="5.75294">
        <ele>228</ele>
        <time>2025-05-03T11:09:33.861Z</time>
      </trkpt>
      <trkpt lat="45.70493" lon="5.75302">
        <ele>228</ele>
        <time>2025-05-03T11:09:37.881Z</time>
      </trkpt>
      <trkpt lat="45.70492" lon="5.7531">
        <ele>228</ele>
        <time>2025-05-03T11:09:42.381Z</time>
      </trkpt>
      <trkpt lat="45.7049" lon="5.75316">
        <ele>228</ele>
        <time>2025-05-03T11:09:46.461Z</time>
      </trkpt>
      <trkpt lat="45.70489" lon="5.75324">
        <ele>227</ele>
        <time>2025-05-03T11:09:50.982Z</time>
      </trkpt>
      <trkpt lat="45.70487" lon="5.75334">
        <ele>227</ele>
        <time>2025-05-03T11:09:55.461Z</time>
      </trkpt>
      <trkpt lat="45.70486" lon="5.75342">
        <ele>226</ele>
        <time>2025-05-03T11:09:59.522Z</time>
      </trkpt>
      <trkpt lat="45.70485" lon="5.75351">
        <ele>226</ele>
        <time>2025-05-03T11:10:04.100Z</time>
      </trkpt>
      <trkpt lat="45.70483" lon="5.75365">
        <ele>226</ele>
        <time>2025-05-03T11:10:08.621Z</time>
      </trkpt>
      <trkpt lat="45.70482" lon="5.75374">
        <ele>226</ele>
        <time>2025-05-03T11:10:12.760Z</time>
      </trkpt>
      <trkpt lat="45.70481" lon="5.75384">
        <ele>227</ele>
        <time>2025-05-03T11:10:16.860Z</time>
      </trkpt>
      <trkpt lat="45.7048" lon="5.75393">
        <ele>227</ele>
        <time>2025-05-03T11:10:20.980Z</time>
      </trkpt>
      <trkpt lat="45.70478" lon="5.75402">
        <ele>227</ele>
        <time>2025-05-03T11:10:25.240Z</time>
      </trkpt>
      <trkpt lat="45.70477" lon="5.75411">
        <ele>227</ele>
        <time>2025-05-03T11:10:30.243Z</time>
      </trkpt>
      <trkpt lat="45.70474" lon="5.75422">
        <ele>227</ele>
        <time>2025-05-03T11:10:34.828Z</time>
      </trkpt>
      <trkpt lat="45.70472" lon="5.7543">
        <ele>227</ele>
        <time>2025-05-03T11:10:38.888Z</time>
      </trkpt>
      <trkpt lat="45.70468" lon="5.75439">
        <ele>228</ele>
        <time>2025-05-03T11:10:43.241Z</time>
      </trkpt>
      <trkpt lat="45.70466" lon="5.75446">
        <ele>228</ele>
        <time>2025-05-03T11:10:48.235Z</time>
      </trkpt>
      <trkpt lat="45.7046" lon="5.75448">
        <ele>228</ele>
        <time>2025-05-03T11:10:52.252Z</time>
      </trkpt>
      <trkpt lat="45.70453" lon="5.75448">
        <ele>231</ele>
        <time>2025-05-03T11:10:57.086Z</time>
      </trkpt>
      <trkpt lat="45.70445" lon="5.75448">
        <ele>231</ele>
        <time>2025-05-03T11:11:01.406Z</time>
      </trkpt>
      <trkpt lat="45.70439" lon="5.75448">
        <ele>231</ele>
        <time>2025-05-03T11:11:05.966Z</time>
      </trkpt>
      <trkpt lat="45.70424" lon="5.75444">
        <ele>232</ele>
        <time>2025-05-03T11:11:36.243Z</time>
      </trkpt>
      <trkpt lat="45.70425" lon="5.75435">
        <ele>232</ele>
        <time>2025-05-03T11:11:40.444Z</time>
      </trkpt>
      <trkpt lat="45.70426" lon="5.75432">
        <ele>232</ele>
        <time>2025-05-03T11:11:45.246Z</time>
      </trkpt>
      <trkpt lat="45.70425" lon="5.7543">
        <ele>231</ele>
        <time>2025-05-03T11:11:49.248Z</time>
      </trkpt>
      <trkpt lat="45.70425" lon="5.7543">
        <ele>231</ele>
        <time>2025-05-03T11:11:53.883Z</time>
      </trkpt>
      <trkpt lat="45.70423" lon="5.75422">
        <ele>231</ele>
        <time>2025-05-03T11:11:58.252Z</time>
      </trkpt>
      <trkpt lat="45.70421" lon="5.75407">
        <ele>231</ele>
        <time>2025-05-03T11:12:02.257Z</time>
      </trkpt>
      <trkpt lat="45.70422" lon="5.75396">
        <ele>231</ele>
        <time>2025-05-03T11:12:07.238Z</time>
      </trkpt>
      <trkpt lat="45.70422" lon="5.7539">
        <ele>231</ele>
        <time>2025-05-03T11:12:11.233Z</time>
      </trkpt>
      <trkpt lat="45.70421" lon="5.75382">
        <ele>231</ele>
        <time>2025-05-03T11:12:16.251Z</time>
      </trkpt>
      <trkpt lat="45.70421" lon="5.75374">
        <ele>230</ele>
        <time>2025-05-03T11:12:21.248Z</time>
      </trkpt>
      <trkpt lat="45.7042" lon="5.75366">
        <ele>230</ele>
        <time>2025-05-03T11:12:26.241Z</time>
      </trkpt>
      <trkpt lat="45.70417" lon="5.75357">
        <ele>230</ele>
        <time>2025-05-03T11:12:30.264Z</time>
      </trkpt>
      <trkpt lat="45.70412" lon="5.75351">
        <ele>230</ele>
        <time>2025-05-03T11:12:35.263Z</time>
      </trkpt>
      <trkpt lat="45.70406" lon="5.75347">
        <ele>229</ele>
        <time>2025-05-03T11:12:40.238Z</time>
      </trkpt>
      <trkpt lat="45.70405" lon="5.75343">
        <ele>229</ele>
        <time>2025-05-03T11:12:44.245Z</time>
      </trkpt>
      <trkpt lat="45.70398" lon="5.7534">
        <ele>229</ele>
        <time>2025-05-03T11:12:48.549Z</time>
      </trkpt>
      <trkpt lat="45.70392" lon="5.75336">
        <ele>229</ele>
        <time>2025-05-03T11:12:52.848Z</time>
      </trkpt>
      <trkpt lat="45.70386" lon="5.7533">
        <ele>229</ele>
        <time>2025-05-03T11:12:57.249Z</time>
      </trkpt>
      <trkpt lat="45.7038" lon="5.75326">
        <ele>229</ele>
        <time>2025-05-03T11:13:01.746Z</time>
      </trkpt>
      <trkpt lat="45.70375" lon="5.75322">
        <ele>229</ele>
        <time>2025-05-03T11:13:05.765Z</time>
      </trkpt>
      <trkpt lat="45.70371" lon="5.75319">
        <ele>229</ele>
        <time>2025-05-03T11:13:09.827Z</time>
      </trkpt>
      <trkpt lat="45.70365" lon="5.75316">
        <ele>229</ele>
        <time>2025-05-03T11:13:14.005Z</time>
      </trkpt>
      <trkpt lat="45.7036" lon="5.75312">
        <ele>229</ele>
        <time>2025-05-03T11:13:18.186Z</time>
      </trkpt>
      <trkpt lat="45.70354" lon="5.75311">
        <ele>229</ele>
        <time>2025-05-03T11:13:22.864Z</time>
      </trkpt>
      <trkpt lat="45.70353" lon="5.75318">
        <ele>229</ele>
        <time>2025-05-03T11:13:26.964Z</time>
      </trkpt>
      <trkpt lat="45.70354" lon="5.75325">
        <ele>228</ele>
        <time>2025-05-03T11:13:31.244Z</time>
      </trkpt>
      <trkpt lat="45.70354" lon="5.75332">
        <ele>228</ele>
        <time>2025-05-03T11:13:35.248Z</time>
      </trkpt>
      <trkpt lat="45.70353" lon="5.75341">
        <ele>228</ele>
        <time>2025-05-03T11:13:40.144Z</time>
      </trkpt>
      <trkpt lat="45.7035" lon="5.75353">
        <ele>227</ele>
        <time>2025-05-03T11:13:44.201Z</time>
      </trkpt>
      <trkpt lat="45.70348" lon="5.75366">
        <ele>227</ele>
        <time>2025-05-03T11:13:48.822Z</time>
      </trkpt>
      <trkpt lat="45.70346" lon="5.75379">
        <ele>227</ele>
        <time>2025-05-03T11:13:53.245Z</time>
      </trkpt>
      <trkpt lat="45.70344" lon="5.75388">
        <ele>227</ele>
        <time>2025-05-03T11:13:57.481Z</time>
      </trkpt>
      <trkpt lat="45.70343" lon="5.75398">
        <ele>227</ele>
        <time>2025-05-03T11:14:01.782Z</time>
      </trkpt>
      <trkpt lat="45.70342" lon="5.75407">
        <ele>227</ele>
        <time>2025-05-03T11:14:05.901Z</time>
      </trkpt>
      <trkpt lat="45.70341" lon="5.75414">
        <ele>227</ele>
        <time>2025-05-03T11:14:10.200Z</time>
      </trkpt>
      <trkpt lat="45.70338" lon="5.75422">
        <ele>227</ele>
        <time>2025-05-03T11:14:14.561Z</time>
      </trkpt>
      <trkpt lat="45.70337" lon="5.75431">
        <ele>228</ele>
        <time>2025-05-03T11:14:19.142Z</time>
      </trkpt>
      <trkpt lat="45.70335" lon="5.75442">
        <ele>228</ele>
        <time>2025-05-03T11:14:23.660Z</time>
      </trkpt>
      <trkpt lat="45.70335" lon="5.75453">
        <ele>228</ele>
        <time>2025-05-03T11:14:28.218Z</time>
      </trkpt>
      <trkpt lat="45.70335" lon="5.75461">
        <ele>228</ele>
        <time>2025-05-03T11:14:32.245Z</time>
      </trkpt>
      <trkpt lat="45.70334" lon="5.75468">
        <ele>228</ele>
        <time>2025-05-03T11:14:37.060Z</time>
      </trkpt>
      <trkpt lat="45.70331" lon="5.75474">
        <ele>228</ele>
        <time>2025-05-03T11:14:42.100Z</time>
      </trkpt>
      <trkpt lat="45.7033" lon="5.75482">
        <ele>228</ele>
        <time>2025-05-03T11:14:46.478Z</time>
      </trkpt>
      <trkpt lat="45.70332" lon="5.7549">
        <ele>228</ele>
        <time>2025-05-03T11:14:50.500Z</time>
      </trkpt>
      <trkpt lat="45.70333" lon="5.75499">
        <ele>228</ele>
        <time>2025-05-03T11:14:54.769Z</time>
      </trkpt>
      <trkpt lat="45.70334" lon="5.75507">
        <ele>228</ele>
        <time>2025-05-03T11:14:59.250Z</time>
      </trkpt>
      <trkpt lat="45.70335" lon="5.75517">
        <ele>228</ele>
        <time>2025-05-03T11:15:04.244Z</time>
      </trkpt>
      <trkpt lat="45.70334" lon="5.75528">
        <ele>228</ele>
        <time>2025-05-03T11:15:08.870Z</time>
      </trkpt>
      <trkpt lat="45.70334" lon="5.75537">
        <ele>228</ele>
        <time>2025-05-03T11:15:13.244Z</time>
      </trkpt>
      <trkpt lat="45.70332" lon="5.75546">
        <ele>228</ele>
        <time>2025-05-03T11:15:17.587Z</time>
      </trkpt>
      <trkpt lat="45.70331" lon="5.75556">
        <ele>228</ele>
        <time>2025-05-03T11:15:22.150Z</time>
      </trkpt>
      <trkpt lat="45.70328" lon="5.75565">
        <ele>228</ele>
        <time>2025-05-03T11:15:26.667Z</time>
      </trkpt>
      <trkpt lat="45.70324" lon="5.75574">
        <ele>230</ele>
        <time>2025-05-03T11:15:31.252Z</time>
      </trkpt>
      <trkpt lat="45.7032" lon="5.7558">
        <ele>230</ele>
        <time>2025-05-03T11:15:35.254Z</time>
      </trkpt>
      <trkpt lat="45.70313" lon="5.75586">
        <ele>230</ele>
        <time>2025-05-03T11:15:39.826Z</time>
      </trkpt>
      <trkpt lat="45.70306" lon="5.75591">
        <ele>230</ele>
        <time>2025-05-03T11:15:44.248Z</time>
      </trkpt>
      <trkpt lat="45.70302" lon="5.75599">
        <ele>232</ele>
        <time>2025-05-03T11:15:48.746Z</time>
      </trkpt>
      <trkpt lat="45.70299" lon="5.75607">
        <ele>232</ele>
        <time>2025-05-03T11:15:53.147Z</time>
      </trkpt>
      <trkpt lat="45.70298" lon="5.75615">
        <ele>232</ele>
        <time>2025-05-03T11:15:57.203Z</time>
      </trkpt>
      <trkpt lat="45.70295" lon="5.75618">
        <ele>232</ele>
        <time>2025-05-03T11:16:01.239Z</time>
      </trkpt>
      <trkpt lat="45.70289" lon="5.75616">
        <ele>232</ele>
        <time>2025-05-03T11:16:06.065Z</time>
      </trkpt>
      <trkpt lat="45.70285" lon="5.75614">
        <ele>232</ele>
        <time>2025-05-03T11:16:10.199Z</time>
      </trkpt>
      <trkpt lat="45.70281" lon="5.7561">
        <ele>232</ele>
        <time>2025-05-03T11:16:14.271Z</time>
      </trkpt>
      <trkpt lat="45.70275" lon="5.75613">
        <ele>232</ele>
        <time>2025-05-03T11:16:18.907Z</time>
      </trkpt>
      <trkpt lat="45.70266" lon="5.75609">
        <ele>232</ele>
        <time>2025-05-03T11:16:23.291Z</time>
      </trkpt>
      <trkpt lat="45.70258" lon="5.75606">
        <ele>233</ele>
        <time>2025-05-03T11:16:27.444Z</time>
      </trkpt>
      <trkpt lat="45.7025" lon="5.75604">
        <ele>233</ele>
        <time>2025-05-03T11:16:32.047Z</time>
      </trkpt>
      <trkpt lat="45.70244" lon="5.75605">
        <ele>233</ele>
        <time>2025-05-03T11:16:36.264Z</time>
      </trkpt>
      <trkpt lat="45.7024" lon="5.75607">
        <ele>233</ele>
        <time>2025-05-03T11:16:40.745Z</time>
      </trkpt>
      <trkpt lat="45.70238" lon="5.75608">
        <ele>233</ele>
        <time>2025-05-03T11:16:45.254Z</time>
      </trkpt>
      <trkpt lat="45.70234" lon="5.75606">
        <ele>234</ele>
        <time>2025-05-03T11:16:49.422Z</time>
      </trkpt>
      <trkpt lat="45.70228" lon="5.75606">
        <ele>234</ele>
        <time>2025-05-03T11:16:53.867Z</time>
      </trkpt>
      <trkpt lat="45.70223" lon="5.75609">
        <ele>234</ele>
        <time>2025-05-03T11:16:58.044Z</time>
      </trkpt>
      <trkpt lat="45.70217" lon="5.75609">
        <ele>234</ele>
        <time>2025-05-03T11:17:02.357Z</time>
      </trkpt>
      <trkpt lat="45.70213" lon="5.75614">
        <ele>234</ele>
        <time>2025-05-03T11:17:06.463Z</time>
      </trkpt>
      <trkpt lat="45.70211" lon="5.75621">
        <ele>234</ele>
        <time>2025-05-03T11:17:10.904Z</time>
      </trkpt>
      <trkpt lat="45.70208" lon="5.75627">
        <ele>235</ele>
        <time>2025-05-03T11:17:14.942Z</time>
      </trkpt>
      <trkpt lat="45.70205" lon="5.75635">
        <ele>235</ele>
        <time>2025-05-03T11:17:19.522Z</time>
      </trkpt>
      <trkpt lat="45.70199" lon="5.75643">
        <ele>235</ele>
        <time>2025-05-03T11:17:24.268Z</time>
      </trkpt>
      <trkpt lat="45.70195" lon="5.75651">
        <ele>235</ele>
        <time>2025-05-03T11:17:28.603Z</time>
      </trkpt>
      <trkpt lat="45.7019" lon="5.75658">
        <ele>235</ele>
        <time>2025-05-03T11:17:32.621Z</time>
      </trkpt>
      <trkpt lat="45.70185" lon="5.75663">
        <ele>235</ele>
        <time>2025-05-03T11:17:37.282Z</time>
      </trkpt>
      <trkpt lat="45.7018" lon="5.75664">
        <ele>237</ele>
        <time>2025-05-03T11:17:41.967Z</time>
      </trkpt>
      <trkpt lat="45.70176" lon="5.75666">
        <ele>237</ele>
        <time>2025-05-03T11:17:46.265Z</time>
      </trkpt>
      <trkpt lat="45.70171" lon="5.75671">
        <ele>237</ele>
        <time>2025-05-03T11:18:10.277Z</time>
      </trkpt>
      <trkpt lat="45.7017" lon="5.75671">
        <ele>237</ele>
        <time>2025-05-03T11:18:15.253Z</time>
      </trkpt>
      <trkpt lat="45.7017" lon="5.75671">
        <ele>237</ele>
        <time>2025-05-03T11:18:19.967Z</time>
      </trkpt>
      <trkpt lat="45.70167" lon="5.75676">
        <ele>237</ele>
        <time>2025-05-03T11:18:24.206Z</time>
      </trkpt>
      <trkpt lat="45.70159" lon="5.75676">
        <ele>237</ele>
        <time>2025-05-03T11:18:28.868Z</time>
      </trkpt>
      <trkpt lat="45.70152" lon="5.75677">
        <ele>236</ele>
        <time>2025-05-03T11:18:33.259Z</time>
      </trkpt>
      <trkpt lat="45.70145" lon="5.75677">
        <ele>236</ele>
        <time>2025-05-03T11:18:37.345Z</time>
      </trkpt>
      <trkpt lat="45.70139" lon="5.75677">
        <ele>236</ele>
        <time>2025-05-03T11:18:41.567Z</time>
      </trkpt>
      <trkpt lat="45.70132" lon="5.75675">
        <ele>236</ele>
        <time>2025-05-03T11:18:45.625Z</time>
      </trkpt>
      <trkpt lat="45.70125" lon="5.75675">
        <ele>236</ele>
        <time>2025-05-03T11:18:49.885Z</time>
      </trkpt>
      <trkpt lat="45.70118" lon="5.75677">
        <ele>236</ele>
        <time>2025-05-03T11:18:54.126Z</time>
      </trkpt>
      <trkpt lat="45.70112" lon="5.75678">
        <ele>236</ele>
        <time>2025-05-03T11:18:58.666Z</time>
      </trkpt>
      <trkpt lat="45.70106" lon="5.75679">
        <ele>236</ele>
        <time>2025-05-03T11:19:02.905Z</time>
      </trkpt>
      <trkpt lat="45.70101" lon="5.75677">
        <ele>236</ele>
        <time>2025-05-03T11:19:07.124Z</time>
      </trkpt>
      <trkpt lat="45.70097" lon="5.7567">
        <ele>236</ele>
        <time>2025-05-03T11:19:11.271Z</time>
      </trkpt>
      <trkpt lat="45.70092" lon="5.75669">
        <ele>237</ele>
        <time>2025-05-03T11:19:15.465Z</time>
      </trkpt>
      <trkpt lat="45.70085" lon="5.7567">
        <ele>237</ele>
        <time>2025-05-03T11:19:19.863Z</time>
      </trkpt>
      <trkpt lat="45.70081" lon="5.7567">
        <ele>237</ele>
        <time>2025-05-03T11:19:24.281Z</time>
      </trkpt>
      <trkpt lat="45.70073" lon="5.75672">
        <ele>237</ele>
        <time>2025-05-03T11:19:28.965Z</time>
      </trkpt>
      <trkpt lat="45.70068" lon="5.75674">
        <ele>239</ele>
        <time>2025-05-03T11:19:33.026Z</time>
      </trkpt>
      <trkpt lat="45.70062" lon="5.75675">
        <ele>239</ele>
        <time>2025-05-03T11:19:37.113Z</time>
      </trkpt>
      <trkpt lat="45.70057" lon="5.75675">
        <ele>239</ele>
        <time>2025-05-03T11:19:41.203Z</time>
      </trkpt>
      <trkpt lat="45.7005" lon="5.75674">
        <ele>239</ele>
        <time>2025-05-03T11:19:45.250Z</time>
      </trkpt>
      <trkpt lat="45.70043" lon="5.75675">
        <ele>239</ele>
        <time>2025-05-03T11:19:49.280Z</time>
      </trkpt>
      <trkpt lat="45.70037" lon="5.75676">
        <ele>239</ele>
        <time>2025-05-03T11:19:53.502Z</time>
      </trkpt>
      <trkpt lat="45.7003" lon="5.75677">
        <ele>239</ele>
        <time>2025-05-03T11:19:58.099Z</time>
      </trkpt>
      <trkpt lat="45.70024" lon="5.75677">
        <ele>239</ele>
        <time>2025-05-03T11:20:02.142Z</time>
      </trkpt>
      <trkpt lat="45.70018" lon="5.75678">
        <ele>239</ele>
        <time>2025-05-03T11:20:06.159Z</time>
      </trkpt>
      <trkpt lat="45.70012" lon="5.75677">
        <ele>240</ele>
        <time>2025-05-03T11:20:10.601Z</time>
      </trkpt>
      <trkpt lat="45.70005" lon="5.75676">
        <ele>240</ele>
        <time>2025-05-03T11:20:15.100Z</time>
      </trkpt>
      <trkpt lat="45.69997" lon="5.75677">
        <ele>240</ele>
        <time>2025-05-03T11:20:19.622Z</time>
      </trkpt>
      <trkpt lat="45.69989" lon="5.75678">
        <ele>240</ele>
        <time>2025-05-03T11:20:24.059Z</time>
      </trkpt>
      <trkpt lat="45.69982" lon="5.75677">
        <ele>240</ele>
        <time>2025-05-03T11:20:28.580Z</time>
      </trkpt>
      <trkpt lat="45.69975" lon="5.75676">
        <ele>240</ele>
        <time>2025-05-03T11:20:33.099Z</time>
      </trkpt>
      <trkpt lat="45.69968" lon="5.75674">
        <ele>240</ele>
        <time>2025-05-03T11:20:37.261Z</time>
      </trkpt>
      <trkpt lat="45.69962" lon="5.75673">
        <ele>240</ele>
        <time>2025-05-03T11:20:41.280Z</time>
      </trkpt>
      <trkpt lat="45.69955" lon="5.75671">
        <ele>240</ele>
        <time>2025-05-03T11:20:45.818Z</time>
      </trkpt>
      <trkpt lat="45.69948" lon="5.75669">
        <ele>240</ele>
        <time>2025-05-03T11:20:50.266Z</time>
      </trkpt>
      <trkpt lat="45.69942" lon="5.75663">
        <ele>240</ele>
        <time>2025-05-03T11:20:55.265Z</time>
      </trkpt>
      <trkpt lat="45.69938" lon="5.75653">
        <ele>240</ele>
        <time>2025-05-03T11:21:00.233Z</time>
      </trkpt>
      <trkpt lat="45.69933" lon="5.75641">
        <ele>239</ele>
        <time>2025-05-03T11:21:04.948Z</time>
      </trkpt>
      <trkpt lat="45.69927" lon="5.75634">
        <ele>239</ele>
        <time>2025-05-03T11:21:08.970Z</time>
      </trkpt>
      <trkpt lat="45.69923" lon="5.75629">
        <ele>239</ele>
        <time>2025-05-03T11:21:13.147Z</time>
      </trkpt>
      <trkpt lat="45.69919" lon="5.75624">
        <ele>239</ele>
        <time>2025-05-03T11:21:17.186Z</time>
      </trkpt>
      <trkpt lat="45.69915" lon="5.75618">
        <ele>239</ele>
        <time>2025-05-03T11:21:21.227Z</time>
      </trkpt>
      <trkpt lat="45.69915" lon="5.75611">
        <ele>239</ele>
        <time>2025-05-03T11:21:25.762Z</time>
      </trkpt>
      <trkpt lat="45.69912" lon="5.75608">
        <ele>239</ele>
        <time>2025-05-03T11:21:30.174Z</time>
      </trkpt>
      <trkpt lat="45.69906" lon="5.75604">
        <ele>239</ele>
        <time>2025-05-03T11:21:34.729Z</time>
      </trkpt>
      <trkpt lat="45.699" lon="5.75599">
        <ele>238</ele>
        <time>2025-05-03T11:21:38.808Z</time>
      </trkpt>
      <trkpt lat="45.69895" lon="5.75593">
        <ele>239</ele>
        <time>2025-05-03T11:21:42.929Z</time>
      </trkpt>
      <trkpt lat="45.6989" lon="5.75586">
        <ele>239</ele>
        <time>2025-05-03T11:21:47.447Z</time>
      </trkpt>
      <trkpt lat="45.69887" lon="5.75579">
        <ele>239</ele>
        <time>2025-05-03T11:21:51.588Z</time>
      </trkpt>
      <trkpt lat="45.69885" lon="5.75573">
        <ele>239</ele>
        <time>2025-05-03T11:21:56.126Z</time>
      </trkpt>
      <trkpt lat="45.69881" lon="5.75566">
        <ele>239</ele>
        <time>2025-05-03T11:22:00.145Z</time>
      </trkpt>
      <trkpt lat="45.69878" lon="5.75557">
        <ele>239</ele>
        <time>2025-05-03T11:22:04.256Z</time>
      </trkpt>
      <trkpt lat="45.69872" lon="5.75548">
        <ele>240</ele>
        <time>2025-05-03T11:22:08.870Z</time>
      </trkpt>
      <trkpt lat="45.69868" lon="5.75541">
        <ele>240</ele>
        <time>2025-05-03T11:22:12.968Z</time>
      </trkpt>
      <trkpt lat="45.69863" lon="5.75535">
        <ele>240</ele>
        <time>2025-05-03T11:22:17.167Z</time>
      </trkpt>
      <trkpt lat="45.69859" lon="5.75529">
        <ele>240</ele>
        <time>2025-05-03T11:22:21.262Z</time>
      </trkpt>
      <trkpt lat="45.69854" lon="5.75524">
        <ele>240</ele>
        <time>2025-05-03T11:22:25.269Z</time>
      </trkpt>
      <trkpt lat="45.6985" lon="5.75517">
        <ele>240</ele>
        <time>2025-05-03T11:22:30.165Z</time>
      </trkpt>
      <trkpt lat="45.69844" lon="5.75513">
        <ele>240</ele>
        <time>2025-05-03T11:22:34.274Z</time>
      </trkpt>
      <trkpt lat="45.69839" lon="5.75508">
        <ele>240</ele>
        <time>2025-05-03T11:22:38.506Z</time>
      </trkpt>
      <trkpt lat="45.69834" lon="5.75504">
        <ele>240</ele>
        <time>2025-05-03T11:22:42.722Z</time>
      </trkpt>
      <trkpt lat="45.6983" lon="5.75499">
        <ele>240</ele>
        <time>2025-05-03T11:22:46.901Z</time>
      </trkpt>
      <trkpt lat="45.69825" lon="5.75495">
        <ele>240</ele>
        <time>2025-05-03T11:22:51.247Z</time>
      </trkpt>
      <trkpt lat="45.69822" lon="5.75488">
        <ele>240</ele>
        <time>2025-05-03T11:22:55.641Z</time>
      </trkpt>
      <trkpt lat="45.69819" lon="5.75481">
        <ele>241</ele>
        <time>2025-05-03T11:23:00.023Z</time>
      </trkpt>
      <trkpt lat="45.69814" lon="5.75475">
        <ele>241</ele>
        <time>2025-05-03T11:23:04.300Z</time>
      </trkpt>
      <trkpt lat="45.6981" lon="5.7547">
        <ele>241</ele>
        <time>2025-05-03T11:23:08.563Z</time>
      </trkpt>
      <trkpt lat="45.69805" lon="5.75465">
        <ele>241</ele>
        <time>2025-05-03T11:23:12.843Z</time>
      </trkpt>
      <trkpt lat="45.698" lon="5.7546">
        <ele>241</ele>
        <time>2025-05-03T11:23:17.122Z</time>
      </trkpt>
      <trkpt lat="45.69795" lon="5.75455">
        <ele>241</ele>
        <time>2025-05-03T11:23:21.260Z</time>
      </trkpt>
      <trkpt lat="45.69789" lon="5.75447">
        <ele>243</ele>
        <time>2025-05-03T11:23:34.828Z</time>
      </trkpt>
      <trkpt lat="45.69785" lon="5.7544">
        <ele>243</ele>
        <time>2025-05-03T11:23:38.888Z</time>
      </trkpt>
      <trkpt lat="45.69777" lon="5.75437">
        <ele>243</ele>
        <time>2025-05-03T11:23:43.269Z</time>
      </trkpt>
      <trkpt lat="45.6977" lon="5.75432">
        <ele>243</ele>
        <time>2025-05-03T11:23:47.571Z</time>
      </trkpt>
      <trkpt lat="45.69764" lon="5.75428">
        <ele>242</ele>
        <time>2025-05-03T11:23:52.147Z</time>
      </trkpt>
      <trkpt lat="45.69759" lon="5.75425">
        <ele>243</ele>
        <time>2025-05-03T11:23:56.257Z</time>
      </trkpt>
      <trkpt lat="45.69758" lon="5.7542">
        <ele>243</ele>
        <time>2025-05-03T11:24:00.290Z</time>
      </trkpt>
      <trkpt lat="45.69753" lon="5.75415">
        <ele>243</ele>
        <time>2025-05-03T11:24:04.305Z</time>
      </trkpt>
      <trkpt lat="45.69749" lon="5.75413">
        <ele>243</ele>
        <time>2025-05-03T11:24:08.488Z</time>
      </trkpt>
      <trkpt lat="45.69743" lon="5.75409">
        <ele>243</ele>
        <time>2025-05-03T11:24:12.848Z</time>
      </trkpt>
      <trkpt lat="45.69739" lon="5.75405">
        <ele>243</ele>
        <time>2025-05-03T11:24:16.907Z</time>
      </trkpt>
      <trkpt lat="45.69733" lon="5.75401">
        <ele>243</ele>
        <time>2025-05-03T11:24:21.486Z</time>
      </trkpt>
      <trkpt lat="45.69727" lon="5.75395">
        <ele>243</ele>
        <time>2025-05-03T11:24:26.250Z</time>
      </trkpt>
      <trkpt lat="45.69722" lon="5.7539">
        <ele>243</ele>
        <time>2025-05-03T11:24:30.545Z</time>
      </trkpt>
      <trkpt lat="45.69716" lon="5.75384">
        <ele>243</ele>
        <time>2025-05-03T11:24:34.906Z</time>
      </trkpt>
      <trkpt lat="45.69709" lon="5.75378">
        <ele>243</ele>
        <time>2025-05-03T11:24:39.485Z</time>
      </trkpt>
      <trkpt lat="45.69705" lon="5.75373">
        <ele>243</ele>
        <time>2025-05-03T11:24:43.524Z</time>
      </trkpt>
      <trkpt lat="45.697" lon="5.75368">
        <ele>243</ele>
        <time>2025-05-03T11:24:47.746Z</time>
      </trkpt>
      <trkpt lat="45.69695" lon="5.75363">
        <ele>243</ele>
        <time>2025-05-03T11:24:52.263Z</time>
      </trkpt>
      <trkpt lat="45.69689" lon="5.75357">
        <ele>243</ele>
        <time>2025-05-03T11:24:56.846Z</time>
      </trkpt>
      <trkpt lat="45.69684" lon="5.75353">
        <ele>243</ele>
        <time>2025-05-03T11:25:00.905Z</time>
      </trkpt>
      <trkpt lat="45.69679" lon="5.75349">
        <ele>242</ele>
        <time>2025-05-03T11:25:04.945Z</time>
      </trkpt>
      <trkpt lat="45.69673" lon="5.75343">
        <ele>243</ele>
        <time>2025-05-03T11:25:09.045Z</time>
      </trkpt>
      <trkpt lat="45.69667" lon="5.75337">
        <ele>243</ele>
        <time>2025-05-03T11:25:13.344Z</time>
      </trkpt>
      <trkpt lat="45.69662" lon="5.75333">
        <ele>243</ele>
        <time>2025-05-03T11:25:17.466Z</time>
      </trkpt>
      <trkpt lat="45.69656" lon="5.7533">
        <ele>243</ele>
        <time>2025-05-03T11:25:21.804Z</time>
      </trkpt>
      <trkpt lat="45.6965" lon="5.75326">
        <ele>242</ele>
        <time>2025-05-03T11:25:25.866Z</time>
      </trkpt>
      <trkpt lat="45.69644" lon="5.75321">
        <ele>242</ele>
        <time>2025-05-03T11:25:30.278Z</time>
      </trkpt>
      <trkpt lat="45.69639" lon="5.75317">
        <ele>242</ele>
        <time>2025-05-03T11:25:34.427Z</time>
      </trkpt>
      <trkpt lat="45.69632" lon="5.75312">
        <ele>242</ele>
        <time>2025-05-03T11:25:39.025Z</time>
      </trkpt>
      <trkpt lat="45.69625" lon="5.75309">
        <ele>242</ele>
        <time>2025-05-03T11:25:44.026Z</time>
      </trkpt>
      <trkpt lat="45.69623" lon="5.75307">
        <ele>243</ele>
        <time>2025-05-03T11:25:48.151Z</time>
      </trkpt>
      <trkpt lat="45.69618" lon="5.753">
        <ele>243</ele>
        <time>2025-05-03T11:25:52.266Z</time>
      </trkpt>
      <trkpt lat="45.69612" lon="5.75294">
        <ele>243</ele>
        <time>2025-05-03T11:25:56.723Z</time>
      </trkpt>
      <trkpt lat="45.69606" lon="5.75291">
        <ele>243</ele>
        <time>2025-05-03T11:26:01.261Z</time>
      </trkpt>
      <trkpt lat="45.696" lon="5.75286">
        <ele>243</ele>
        <time>2025-05-03T11:26:05.841Z</time>
      </trkpt>
      <trkpt lat="45.69595" lon="5.7528">
        <ele>244</ele>
        <time>2025-05-03T11:26:10.260Z</time>
      </trkpt>
      <trkpt lat="45.6959" lon="5.75274">
        <ele>244</ele>
        <time>2025-05-03T11:26:15.261Z</time>
      </trkpt>
      <trkpt lat="45.69588" lon="5.75273">
        <ele>244</ele>
        <time>2025-05-03T11:26:19.281Z</time>
      </trkpt>
      <trkpt lat="45.69583" lon="5.75271">
        <ele>244</ele>
        <time>2025-05-03T11:26:23.571Z</time>
      </trkpt>
      <trkpt lat="45.69578" lon="5.75267">
        <ele>244</ele>
        <time>2025-05-03T11:26:27.851Z</time>
      </trkpt>
      <trkpt lat="45.69572" lon="5.75263">
        <ele>243</ele>
        <time>2025-05-03T11:26:32.257Z</time>
      </trkpt>
      <trkpt lat="45.69568" lon="5.75259">
        <ele>244</ele>
        <time>2025-05-03T11:26:36.510Z</time>
      </trkpt>
      <trkpt lat="45.69561" lon="5.75254">
        <ele>244</ele>
        <time>2025-05-03T11:26:41.290Z</time>
      </trkpt>
      <trkpt lat="45.69556" lon="5.75249">
        <ele>244</ele>
        <time>2025-05-03T11:26:45.571Z</time>
      </trkpt>
      <trkpt lat="45.6955" lon="5.75244">
        <ele>244</ele>
        <time>2025-05-03T11:26:50.281Z</time>
      </trkpt>
      <trkpt lat="45.69545" lon="5.75243">
        <ele>244</ele>
        <time>2025-05-03T11:26:54.849Z</time>
      </trkpt>
      <trkpt lat="45.69539" lon="5.75243">
        <ele>246</ele>
        <time>2025-05-03T11:26:59.288Z</time>
      </trkpt>
      <trkpt lat="45.69539" lon="5.75245">
        <ele>246</ele>
        <time>2025-05-03T11:27:05.265Z</time>
      </trkpt>
      <trkpt lat="45.69535" lon="5.75247">
        <ele>246</ele>
        <time>2025-05-03T11:27:09.769Z</time>
      </trkpt>
      <trkpt lat="45.69529" lon="5.7525">
        <ele>246</ele>
        <time>2025-05-03T11:27:13.990Z</time>
      </trkpt>
      <trkpt lat="45.69525" lon="5.75248">
        <ele>246</ele>
        <time>2025-05-03T11:27:18.259Z</time>
      </trkpt>
      <trkpt lat="45.69521" lon="5.75251">
        <ele>246</ele>
        <time>2025-05-03T11:27:22.472Z</time>
      </trkpt>
      <trkpt lat="45.69514" lon="5.75252">
        <ele>246</ele>
        <time>2025-05-03T11:27:27.188Z</time>
      </trkpt>
      <trkpt lat="45.69508" lon="5.75254">
        <ele>247</ele>
        <time>2025-05-03T11:27:31.729Z</time>
      </trkpt>
      <trkpt lat="45.69501" lon="5.75256">
        <ele>247</ele>
        <time>2025-05-03T11:27:36.273Z</time>
      </trkpt>
      <trkpt lat="45.69494" lon="5.75256">
        <ele>247</ele>
        <time>2025-05-03T11:27:40.303Z</time>
      </trkpt>
      <trkpt lat="45.69487" lon="5.75259">
        <ele>247</ele>
        <time>2025-05-03T11:27:44.387Z</time>
      </trkpt>
      <trkpt lat="45.69478" lon="5.75261">
        <ele>248</ele>
        <time>2025-05-03T11:27:48.446Z</time>
      </trkpt>
      <trkpt lat="45.69471" lon="5.75263">
        <ele>248</ele>
        <time>2025-05-03T11:27:52.564Z</time>
      </trkpt>
      <trkpt lat="45.69464" lon="5.75264">
        <ele>247</ele>
        <time>2025-05-03T11:27:56.584Z</time>
      </trkpt>
      <trkpt lat="45.69458" lon="5.75264">
        <ele>247</ele>
        <time>2025-05-03T11:28:00.766Z</time>
      </trkpt>
      <trkpt lat="45.69452" lon="5.75264">
        <ele>247</ele>
        <time>2025-05-03T11:28:05.265Z</time>
      </trkpt>
      <trkpt lat="45.69446" lon="5.75264">
        <ele>248</ele>
        <time>2025-05-03T11:28:09.272Z</time>
      </trkpt>
      <trkpt lat="45.69439" lon="5.75263">
        <ele>248</ele>
        <time>2025-05-03T11:28:13.684Z</time>
      </trkpt>
      <trkpt lat="45.69433" lon="5.75263">
        <ele>248</ele>
        <time>2025-05-03T11:28:17.704Z</time>
      </trkpt>
      <trkpt lat="45.69425" lon="5.75261">
        <ele>248</ele>
        <time>2025-05-03T11:28:22.291Z</time>
      </trkpt>
      <trkpt lat="45.69418" lon="5.7526">
        <ele>248</ele>
        <time>2025-05-03T11:28:26.882Z</time>
      </trkpt>
      <trkpt lat="45.69412" lon="5.75259">
        <ele>248</ele>
        <time>2025-05-03T11:28:30.981Z</time>
      </trkpt>
      <trkpt lat="45.69407" lon="5.75261">
        <ele>248</ele>
        <time>2025-05-03T11:28:35.247Z</time>
      </trkpt>
      <trkpt lat="45.69402" lon="5.75259">
        <ele>248</ele>
        <time>2025-05-03T11:28:39.582Z</time>
      </trkpt>
      <trkpt lat="45.69397" lon="5.75254">
        <ele>248</ele>
        <time>2025-05-03T11:28:43.622Z</time>
      </trkpt>
      <trkpt lat="45.69392" lon="5.7525">
        <ele>248</ele>
        <time>2025-05-03T11:28:47.682Z</time>
      </trkpt>
      <trkpt lat="45.69387" lon="5.75247">
        <ele>248</ele>
        <time>2025-05-03T11:28:51.864Z</time>
      </trkpt>
      <trkpt lat="45.69381" lon="5.75246">
        <ele>248</ele>
        <time>2025-05-03T11:28:55.943Z</time>
      </trkpt>
      <trkpt lat="45.69376" lon="5.75245">
        <ele>248</ele>
        <time>2025-05-03T11:28:59.963Z</time>
      </trkpt>
      <trkpt lat="45.6937" lon="5.75245">
        <ele>247</ele>
        <time>2025-05-03T11:29:04Z</time>
      </trkpt>
      <trkpt lat="45.69365" lon="5.75244">
        <ele>247</ele>
        <time>2025-05-03T11:29:08.148Z</time>
      </trkpt>
      <trkpt lat="45.69359" lon="5.75243">
        <ele>247</ele>
        <time>2025-05-03T11:29:12.283Z</time>
      </trkpt>
      <trkpt lat="45.69353" lon="5.75243">
        <ele>247</ele>
        <time>2025-05-03T11:29:16.964Z</time>
      </trkpt>
      <trkpt lat="45.69347" lon="5.75243">
        <ele>247</ele>
        <time>2025-05-03T11:29:20.983Z</time>
      </trkpt>
      <trkpt lat="45.69341" lon="5.75242">
        <ele>246</ele>
        <time>2025-05-03T11:29:25.079Z</time>
      </trkpt>
      <trkpt lat="45.69335" lon="5.7524">
        <ele>246</ele>
        <time>2025-05-03T11:29:29.133Z</time>
      </trkpt>
      <trkpt lat="45.69329" lon="5.75239">
        <ele>246</ele>
        <time>2025-05-03T11:29:33.239Z</time>
      </trkpt>
      <trkpt lat="45.69323" lon="5.75239">
        <ele>246</ele>
        <time>2025-05-03T11:29:37.264Z</time>
      </trkpt>
      <trkpt lat="45.69318" lon="5.75239">
        <ele>247</ele>
        <time>2025-05-03T11:29:41.488Z</time>
      </trkpt>
      <trkpt lat="45.69313" lon="5.75241">
        <ele>247</ele>
        <time>2025-05-03T11:29:46.246Z</time>
      </trkpt>
      <trkpt lat="45.69307" lon="5.75243">
        <ele>247</ele>
        <time>2025-05-03T11:29:50.289Z</time>
      </trkpt>
      <trkpt lat="45.69301" lon="5.75246">
        <ele>247</ele>
        <time>2025-05-03T11:29:54.947Z</time>
      </trkpt>
      <trkpt lat="45.69295" lon="5.75249">
        <ele>247</ele>
        <time>2025-05-03T11:29:59.312Z</time>
      </trkpt>
      <trkpt lat="45.6929" lon="5.75254">
        <ele>249</ele>
        <time>2025-05-03T11:30:03.426Z</time>
      </trkpt>
      <trkpt lat="45.69286" lon="5.75258">
        <ele>249</ele>
        <time>2025-05-03T11:30:07.546Z</time>
      </trkpt>
      <trkpt lat="45.69278" lon="5.75265">
        <ele>248</ele>
        <time>2025-05-03T11:30:12.068Z</time>
      </trkpt>
      <trkpt lat="45.69271" lon="5.75275">
        <ele>248</ele>
        <time>2025-05-03T11:30:16.625Z</time>
      </trkpt>
      <trkpt lat="45.69265" lon="5.75284">
        <ele>248</ele>
        <time>2025-05-03T11:30:21.173Z</time>
      </trkpt>
      <trkpt lat="45.69259" lon="5.75293">
        <ele>248</ele>
        <time>2025-05-03T11:30:25.566Z</time>
      </trkpt>
      <trkpt lat="45.69254" lon="5.753">
        <ele>248</ele>
        <time>2025-05-03T11:30:30.067Z</time>
      </trkpt>
      <trkpt lat="45.69249" lon="5.75309">
        <ele>248</ele>
        <time>2025-05-03T11:30:35.270Z</time>
      </trkpt>
      <trkpt lat="45.69246" lon="5.75312">
        <ele>248</ele>
        <time>2025-05-03T11:30:40.064Z</time>
      </trkpt>
      <trkpt lat="45.69243" lon="5.75305">
        <ele>248</ele>
        <time>2025-05-03T11:30:44.804Z</time>
      </trkpt>
      <trkpt lat="45.69241" lon="5.75293">
        <ele>248</ele>
        <time>2025-05-03T11:30:49.283Z</time>
      </trkpt>
      <trkpt lat="45.69238" lon="5.75282">
        <ele>249</ele>
        <time>2025-05-03T11:30:54.249Z</time>
      </trkpt>
      <trkpt lat="45.69234" lon="5.75268">
        <ele>248</ele>
        <time>2025-05-03T11:30:59.258Z</time>
      </trkpt>
      <trkpt lat="45.69233" lon="5.75255">
        <ele>248</ele>
        <time>2025-05-03T11:31:03.845Z</time>
      </trkpt>
      <trkpt lat="45.69234" lon="5.75244">
        <ele>248</ele>
        <time>2025-05-03T11:31:08.023Z</time>
      </trkpt>
      <trkpt lat="45.69234" lon="5.75235">
        <ele>248</ele>
        <time>2025-05-03T11:31:12.143Z</time>
      </trkpt>
      <trkpt lat="45.69235" lon="5.75228">
        <ele>248</ele>
        <time>2025-05-03T11:31:16.264Z</time>
      </trkpt>
      <trkpt lat="45.69235" lon="5.75219">
        <ele>248</ele>
        <time>2025-05-03T11:31:20.266Z</time>
      </trkpt>
      <trkpt lat="45.69237" lon="5.75206">
        <ele>250</ele>
        <time>2025-05-03T11:31:25.140Z</time>
      </trkpt>
      <trkpt lat="45.69236" lon="5.75194">
        <ele>248</ele>
        <time>2025-05-03T11:31:30.081Z</time>
      </trkpt>
      <trkpt lat="45.69237" lon="5.75186">
        <ele>250</ele>
        <time>2025-05-03T11:31:34.265Z</time>
      </trkpt>
      <trkpt lat="45.69239" lon="5.75178">
        <ele>250</ele>
        <time>2025-05-03T11:31:38.504Z</time>
      </trkpt>
      <trkpt lat="45.6924" lon="5.75169">
        <ele>250</ele>
        <time>2025-05-03T11:31:43.242Z</time>
      </trkpt>
      <trkpt lat="45.69241" lon="5.75161">
        <ele>250</ele>
        <time>2025-05-03T11:31:47.261Z</time>
      </trkpt>
      <trkpt lat="45.69243" lon="5.75154">
        <ele>250</ele>
        <time>2025-05-03T11:31:51.283Z</time>
      </trkpt>
      <trkpt lat="45.69244" lon="5.75145">
        <ele>251</ele>
        <time>2025-05-03T11:31:55.802Z</time>
      </trkpt>
      <trkpt lat="45.69244" lon="5.75138">
        <ele>251</ele>
        <time>2025-05-03T11:31:59.803Z</time>
      </trkpt>
      <trkpt lat="45.69245" lon="5.75131">
        <ele>251</ele>
        <time>2025-05-03T11:32:04.221Z</time>
      </trkpt>
      <trkpt lat="45.69246" lon="5.75123">
        <ele>252</ele>
        <time>2025-05-03T11:32:08.562Z</time>
      </trkpt>
      <trkpt lat="45.69246" lon="5.75113">
        <ele>252</ele>
        <time>2025-05-03T11:32:13.040Z</time>
      </trkpt>
      <trkpt lat="45.69247" lon="5.75102">
        <ele>252</ele>
        <time>2025-05-03T11:32:17.264Z</time>
      </trkpt>
      <trkpt lat="45.69247" lon="5.75094">
        <ele>254</ele>
        <time>2025-05-03T11:32:21.730Z</time>
      </trkpt>
      <trkpt lat="45.69247" lon="5.75085">
        <ele>254</ele>
        <time>2025-05-03T11:32:26.149Z</time>
      </trkpt>
      <trkpt lat="45.69246" lon="5.75076">
        <ele>254</ele>
        <time>2025-05-03T11:32:30.270Z</time>
      </trkpt>
      <trkpt lat="45.69246" lon="5.75068">
        <ele>255</ele>
        <time>2025-05-03T11:32:34.591Z</time>
      </trkpt>
      <trkpt lat="45.69245" lon="5.75054">
        <ele>255</ele>
        <time>2025-05-03T11:32:39.135Z</time>
      </trkpt>
      <trkpt lat="45.69242" lon="5.7504">
        <ele>254</ele>
        <time>2025-05-03T11:32:43.245Z</time>
      </trkpt>
      <trkpt lat="45.69239" lon="5.75028">
        <ele>254</ele>
        <time>2025-05-03T11:32:47.769Z</time>
      </trkpt>
      <trkpt lat="45.69238" lon="5.75015">
        <ele>254</ele>
        <time>2025-05-03T11:32:52.247Z</time>
      </trkpt>
      <trkpt lat="45.69238" lon="5.75008">
        <ele>253</ele>
        <time>2025-05-03T11:32:57.284Z</time>
      </trkpt>
      <trkpt lat="45.69237" lon="5.75002">
        <ele>253</ele>
        <time>2025-05-03T11:33:01.946Z</time>
      </trkpt>
      <trkpt lat="45.69234" lon="5.74996">
        <ele>257</ele>
        <time>2025-05-03T11:33:06.289Z</time>
      </trkpt>
      <trkpt lat="45.69228" lon="5.74992">
        <ele>257</ele>
        <time>2025-05-03T11:33:10.609Z</time>
      </trkpt>
      <trkpt lat="45.69223" lon="5.74988">
        <ele>257</ele>
        <time>2025-05-03T11:33:14.749Z</time>
      </trkpt>
      <trkpt lat="45.69218" lon="5.74983">
        <ele>256</ele>
        <time>2025-05-03T11:33:18.866Z</time>
      </trkpt>
      <trkpt lat="45.69213" lon="5.74979">
        <ele>256</ele>
        <time>2025-05-03T11:33:23.028Z</time>
      </trkpt>
      <trkpt lat="45.69207" lon="5.74976">
        <ele>259</ele>
        <time>2025-05-03T11:33:27.146Z</time>
      </trkpt>
      <trkpt lat="45.69203" lon="5.7497">
        <ele>259</ele>
        <time>2025-05-03T11:33:31.367Z</time>
      </trkpt>
      <trkpt lat="45.69198" lon="5.74966">
        <ele>259</ele>
        <time>2025-05-03T11:33:36.045Z</time>
      </trkpt>
      <trkpt lat="45.69192" lon="5.7496">
        <ele>259</ele>
        <time>2025-05-03T11:33:40.205Z</time>
      </trkpt>
      <trkpt lat="45.69185" lon="5.74951">
        <ele>256</ele>
        <time>2025-05-03T11:33:44.765Z</time>
      </trkpt>
      <trkpt lat="45.69179" lon="5.74944">
        <ele>259</ele>
        <time>2025-05-03T11:33:49.273Z</time>
      </trkpt>
      <trkpt lat="45.69173" lon="5.74937">
        <ele>259</ele>
        <time>2025-05-03T11:33:53.764Z</time>
      </trkpt>
      <trkpt lat="45.6917" lon="5.7493">
        <ele>258</ele>
        <time>2025-05-03T11:33:57.845Z</time>
      </trkpt>
      <trkpt lat="45.69169" lon="5.74922">
        <ele>258</ele>
        <time>2025-05-03T11:34:01.886Z</time>
      </trkpt>
      <trkpt lat="45.69168" lon="5.74912">
        <ele>258</ele>
        <time>2025-05-03T11:34:06.266Z</time>
      </trkpt>
      <trkpt lat="45.69167" lon="5.74903">
        <ele>258</ele>
        <time>2025-05-03T11:34:10.422Z</time>
      </trkpt>
      <trkpt lat="45.69167" lon="5.74893">
        <ele>259</ele>
        <time>2025-05-03T11:34:14.705Z</time>
      </trkpt>
      <trkpt lat="45.69166" lon="5.74881">
        <ele>259</ele>
        <time>2025-05-03T11:34:18.765Z</time>
      </trkpt>
      <trkpt lat="45.69165" lon="5.74871">
        <ele>264</ele>
        <time>2025-05-03T11:34:22.944Z</time>
      </trkpt>
      <trkpt lat="45.69162" lon="5.74862">
        <ele>264</ele>
        <time>2025-05-03T11:34:27.943Z</time>
      </trkpt>
      <trkpt lat="45.69158" lon="5.74857">
        <ele>264</ele>
        <time>2025-05-03T11:34:32.269Z</time>
      </trkpt>
      <trkpt lat="45.69151" lon="5.74854">
        <ele>265</ele>
        <time>2025-05-03T11:34:36.726Z</time>
      </trkpt>
      <trkpt lat="45.69143" lon="5.74852">
        <ele>265</ele>
        <time>2025-05-03T11:34:41.242Z</time>
      </trkpt>
      <trkpt lat="45.6914" lon="5.74851">
        <ele>265</ele>
        <time>2025-05-03T11:34:45.251Z</time>
      </trkpt>
      <trkpt lat="45.69134" lon="5.74849">
        <ele>265</ele>
        <time>2025-05-03T11:34:49.722Z</time>
      </trkpt>
      <trkpt lat="45.69128" lon="5.74847">
        <ele>272</ele>
        <time>2025-05-03T11:34:54.125Z</time>
      </trkpt>
      <trkpt lat="45.69121" lon="5.74843">
        <ele>270</ele>
        <time>2025-05-03T11:34:58.502Z</time>
      </trkpt>
      <trkpt lat="45.69115" lon="5.7484">
        <ele>270</ele>
        <time>2025-05-03T11:35:02.963Z</time>
      </trkpt>
      <trkpt lat="45.69108" lon="5.74837">
        <ele>270</ele>
        <time>2025-05-03T11:35:07.501Z</time>
      </trkpt>
      <trkpt lat="45.69101" lon="5.74835">
        <ele>270</ele>
        <time>2025-05-03T11:35:11.923Z</time>
      </trkpt>
      <trkpt lat="45.69096" lon="5.74832">
        <ele>268</ele>
        <time>2025-05-03T11:35:15.943Z</time>
      </trkpt>
      <trkpt lat="45.69091" lon="5.74827">
        <ele>268</ele>
        <time>2025-05-03T11:35:20.263Z</time>
      </trkpt>
      <trkpt lat="45.69086" lon="5.74822">
        <ele>268</ele>
        <time>2025-05-03T11:35:24.326Z</time>
      </trkpt>
      <trkpt lat="45.69082" lon="5.74816">
        <ele>272</ele>
        <time>2025-05-03T11:35:28.822Z</time>
      </trkpt>
      <trkpt lat="45.69077" lon="5.74811">
        <ele>272</ele>
        <time>2025-05-03T11:35:32.982Z</time>
      </trkpt>
      <trkpt lat="45.69072" lon="5.74808">
        <ele>272</ele>
        <time>2025-05-03T11:35:37.587Z</time>
      </trkpt>
      <trkpt lat="45.69066" lon="5.74806">
        <ele>272</ele>
        <time>2025-05-03T11:35:42.008Z</time>
      </trkpt>
      <trkpt lat="45.6906" lon="5.74804">
        <ele>272</ele>
        <time>2025-05-03T11:35:46.047Z</time>
      </trkpt>
      <trkpt lat="45.69052" lon="5.74802">
        <ele>272</ele>
        <time>2025-05-03T11:35:50.545Z</time>
      </trkpt>
      <trkpt lat="45.69045" lon="5.748">
        <ele>272</ele>
        <time>2025-05-03T11:35:55.145Z</time>
      </trkpt>
      <trkpt lat="45.6904" lon="5.748">
        <ele>272</ele>
        <time>2025-05-03T11:35:59.705Z</time>
      </trkpt>
      <trkpt lat="45.69034" lon="5.74801">
        <ele>272</ele>
        <time>2025-05-03T11:36:04.067Z</time>
      </trkpt>
      <trkpt lat="45.69028" lon="5.74802">
        <ele>272</ele>
        <time>2025-05-03T11:36:08.586Z</time>
      </trkpt>
      <trkpt lat="45.69022" lon="5.748">
        <ele>272</ele>
        <time>2025-05-03T11:36:13.263Z</time>
      </trkpt>
      <trkpt lat="45.69015" lon="5.748">
        <ele>272</ele>
        <time>2025-05-03T11:36:17.804Z</time>
      </trkpt>
      <trkpt lat="45.69007" lon="5.748">
        <ele>272</ele>
        <time>2025-05-03T11:36:22.209Z</time>
      </trkpt>
      <trkpt lat="45.69001" lon="5.74797">
        <ele>272</ele>
        <time>2025-05-03T11:36:26.764Z</time>
      </trkpt>
      <trkpt lat="45.68996" lon="5.74793">
        <ele>272</ele>
        <time>2025-05-03T11:36:30.985Z</time>
      </trkpt>
      <trkpt lat="45.68991" lon="5.74787">
        <ele>278</ele>
        <time>2025-05-03T11:36:35.603Z</time>
      </trkpt>
      <trkpt lat="45.68987" lon="5.74782">
        <ele>278</ele>
        <time>2025-05-03T11:36:40.191Z</time>
      </trkpt>
      <trkpt lat="45.68984" lon="5.74779">
        <ele>277</ele>
        <time>2025-05-03T11:36:44.297Z</time>
      </trkpt>
      <trkpt lat="45.6898" lon="5.74774">
        <ele>277</ele>
        <time>2025-05-03T11:36:49.275Z</time>
      </trkpt>
      <trkpt lat="45.68975" lon="5.74769">
        <ele>277</ele>
        <time>2025-05-03T11:36:53.844Z</time>
      </trkpt>
      <trkpt lat="45.68973" lon="5.74765">
        <ele>277</ele>
        <time>2025-05-03T11:36:58.257Z</time>
      </trkpt>
      <trkpt lat="45.68972" lon="5.74765">
        <ele>277</ele>
        <time>2025-05-03T11:37:03.264Z</time>
      </trkpt>
      <trkpt lat="45.68971" lon="5.74764">
        <ele>277</ele>
        <time>2025-05-03T11:37:07.265Z</time>
      </trkpt>
      <trkpt lat="45.68968" lon="5.74755">
        <ele>283</ele>
        <time>2025-05-03T11:37:11.883Z</time>
      </trkpt>
      <trkpt lat="45.68965" lon="5.74747">
        <ele>283</ele>
        <time>2025-05-03T11:37:16.269Z</time>
      </trkpt>
      <trkpt lat="45.68964" lon="5.74737">
        <ele>283</ele>
        <time>2025-05-03T11:37:21.071Z</time>
      </trkpt>
      <trkpt lat="45.68964" lon="5.74735">
        <ele>287</ele>
        <time>2025-05-03T11:37:25.186Z</time>
      </trkpt>
      <trkpt lat="45.68964" lon="5.74733">
        <ele>287</ele>
        <time>2025-05-03T11:37:30.258Z</time>
      </trkpt>
      <trkpt lat="45.68964" lon="5.7473">
        <ele>287</ele>
        <time>2025-05-03T11:37:34.276Z</time>
      </trkpt>
      <trkpt lat="45.68963" lon="5.74724">
        <ele>287</ele>
        <time>2025-05-03T11:37:38.562Z</time>
      </trkpt>
      <trkpt lat="45.6896" lon="5.74713">
        <ele>287</ele>
        <time>2025-05-03T11:37:43.270Z</time>
      </trkpt>
      <trkpt lat="45.68955" lon="5.74705">
        <ele>291</ele>
        <time>2025-05-03T11:37:48.260Z</time>
      </trkpt>
      <trkpt lat="45.68951" lon="5.74696">
        <ele>291</ele>
        <time>2025-05-03T11:37:52.261Z</time>
      </trkpt>
      <trkpt lat="45.68945" lon="5.74685">
        <ele>291</ele>
        <time>2025-05-03T11:37:57.258Z</time>
      </trkpt>
      <trkpt lat="45.68943" lon="5.74679">
        <ele>294</ele>
        <time>2025-05-03T11:38:02.254Z</time>
      </trkpt>
      <trkpt lat="45.68943" lon="5.74678">
        <ele>294</ele>
        <time>2025-05-03T11:38:07.255Z</time>
      </trkpt>
      <trkpt lat="45.68942" lon="5.74675">
        <ele>294</ele>
        <time>2025-05-03T11:38:11.275Z</time>
      </trkpt>
      <trkpt lat="45.68937" lon="5.74668">
        <ele>294</ele>
        <time>2025-05-03T11:38:15.270Z</time>
      </trkpt>
      <trkpt lat="45.68929" lon="5.74664">
        <ele>294</ele>
        <time>2025-05-03T11:38:20.285Z</time>
      </trkpt>
      <trkpt lat="45.68922" lon="5.74659">
        <ele>294</ele>
        <time>2025-05-03T11:38:25.274Z</time>
      </trkpt>
      <trkpt lat="45.68919" lon="5.74652">
        <ele>298</ele>
        <time>2025-05-03T11:38:30.256Z</time>
      </trkpt>
      <trkpt lat="45.68918" lon="5.7464">
        <ele>298</ele>
        <time>2025-05-03T11:38:34.263Z</time>
      </trkpt>
      <trkpt lat="45.68913" lon="5.74627">
        <ele>298</ele>
        <time>2025-05-03T11:38:39.260Z</time>
      </trkpt>
      <trkpt lat="45.6891" lon="5.74626">
        <ele>298</ele>
        <time>2025-05-03T11:38:43.280Z</time>
      </trkpt>
      <trkpt lat="45.68904" lon="5.74621">
        <ele>301</ele>
        <time>2025-05-03T11:38:48.272Z</time>
      </trkpt>
      <trkpt lat="45.68899" lon="5.74619">
        <ele>300</ele>
        <time>2025-05-03T11:38:52.272Z</time>
      </trkpt>
      <trkpt lat="45.68893" lon="5.74618">
        <ele>300</ele>
        <time>2025-05-03T11:38:57.273Z</time>
      </trkpt>
      <trkpt lat="45.68887" lon="5.74616">
        <ele>300</ele>
        <time>2025-05-03T11:39:01.276Z</time>
      </trkpt>
      <trkpt lat="45.68882" lon="5.74612">
        <ele>300</ele>
        <time>2025-05-03T11:39:06.260Z</time>
      </trkpt>
      <trkpt lat="45.68877" lon="5.74606">
        <ele>300</ele>
        <time>2025-05-03T11:39:10.279Z</time>
      </trkpt>
      <trkpt lat="45.68869" lon="5.74592">
        <ele>301</ele>
        <time>2025-05-03T11:40:37.227Z</time>
      </trkpt>
      <trkpt lat="45.68868" lon="5.74592">
        <ele>301</ele>
        <time>2025-05-03T11:40:42.214Z</time>
      </trkpt>
      <trkpt lat="45.68867" lon="5.74593">
        <ele>301</ele>
        <time>2025-05-03T11:40:46.225Z</time>
      </trkpt>
      <trkpt lat="45.68866" lon="5.74594">
        <ele>301</ele>
        <time>2025-05-03T11:40:50.285Z</time>
      </trkpt>
      <trkpt lat="45.68863" lon="5.7459">
        <ele>301</ele>
        <time>2025-05-03T11:40:55.271Z</time>
      </trkpt>
      <trkpt lat="45.68863" lon="5.74591">
        <ele>301</ele>
        <time>2025-05-03T11:41:01.273Z</time>
      </trkpt>
      <trkpt lat="45.6886" lon="5.74588">
        <ele>301</ele>
        <time>2025-05-03T11:41:06.251Z</time>
      </trkpt>
      <trkpt lat="45.68855" lon="5.74585">
        <ele>301</ele>
        <time>2025-05-03T11:41:10.288Z</time>
      </trkpt>
      <trkpt lat="45.68851" lon="5.74582">
        <ele>301</ele>
        <time>2025-05-03T11:41:14.425Z</time>
      </trkpt>
      <trkpt lat="45.68846" lon="5.7458">
        <ele>302</ele>
        <time>2025-05-03T11:41:18.744Z</time>
      </trkpt>
      <trkpt lat="45.68842" lon="5.74578">
        <ele>302</ele>
        <time>2025-05-03T11:41:22.867Z</time>
      </trkpt>
      <trkpt lat="45.68838" lon="5.74572">
        <ele>302</ele>
        <time>2025-05-03T11:41:27.184Z</time>
      </trkpt>
      <trkpt lat="45.68834" lon="5.74563">
        <ele>304</ele>
        <time>2025-05-03T11:41:31.283Z</time>
      </trkpt>
      <trkpt lat="45.6883" lon="5.74554">
        <ele>304</ele>
        <time>2025-05-03T11:41:35.565Z</time>
      </trkpt>
      <trkpt lat="45.68826" lon="5.74549">
        <ele>304</ele>
        <time>2025-05-03T11:41:39.767Z</time>
      </trkpt>
      <trkpt lat="45.68822" lon="5.74545">
        <ele>304</ele>
        <time>2025-05-03T11:41:43.947Z</time>
      </trkpt>
      <trkpt lat="45.68818" lon="5.74541">
        <ele>304</ele>
        <time>2025-05-03T11:41:48.223Z</time>
      </trkpt>
      <trkpt lat="45.68814" lon="5.74535">
        <ele>304</ele>
        <time>2025-05-03T11:41:52.484Z</time>
      </trkpt>
      <trkpt lat="45.68811" lon="5.74528">
        <ele>304</ele>
        <time>2025-05-03T11:41:56.581Z</time>
      </trkpt>
      <trkpt lat="45.68808" lon="5.7452">
        <ele>304</ele>
        <time>2025-05-03T11:42:00.921Z</time>
      </trkpt>
      <trkpt lat="45.68806" lon="5.7451">
        <ele>308</ele>
        <time>2025-05-03T11:42:05.061Z</time>
      </trkpt>
      <trkpt lat="45.68804" lon="5.74501">
        <ele>308</ele>
        <time>2025-05-03T11:42:09.184Z</time>
      </trkpt>
      <trkpt lat="45.688" lon="5.74494">
        <ele>308</ele>
        <time>2025-05-03T11:42:13.661Z</time>
      </trkpt>
      <trkpt lat="45.68795" lon="5.74489">
        <ele>308</ele>
        <time>2025-05-03T11:42:18.092Z</time>
      </trkpt>
      <trkpt lat="45.6879" lon="5.74486">
        <ele>314</ele>
        <time>2025-05-03T11:42:22.650Z</time>
      </trkpt>
      <trkpt lat="45.68784" lon="5.74483">
        <ele>314</ele>
        <time>2025-05-03T11:42:27.008Z</time>
      </trkpt>
      <trkpt lat="45.68779" lon="5.74482">
        <ele>314</ele>
        <time>2025-05-03T11:42:31.260Z</time>
      </trkpt>
      <trkpt lat="45.68773" lon="5.7448">
        <ele>314</ele>
        <time>2025-05-03T11:42:35.850Z</time>
      </trkpt>
      <trkpt lat="45.68766" lon="5.74475">
        <ele>314</ele>
        <time>2025-05-03T11:42:40.326Z</time>
      </trkpt>
      <trkpt lat="45.68761" lon="5.74472">
        <ele>316</ele>
        <time>2025-05-03T11:42:44.427Z</time>
      </trkpt>
      <trkpt lat="45.68755" lon="5.7447">
        <ele>316</ele>
        <time>2025-05-03T11:42:48.924Z</time>
      </trkpt>
      <trkpt lat="45.68752" lon="5.74468">
        <ele>316</ele>
        <time>2025-05-03T11:42:53.105Z</time>
      </trkpt>
      <trkpt lat="45.68746" lon="5.74466">
        <ele>316</ele>
        <time>2025-05-03T11:42:57.241Z</time>
      </trkpt>
      <trkpt lat="45.6874" lon="5.74464">
        <ele>316</ele>
        <time>2025-05-03T11:43:01.361Z</time>
      </trkpt>
      <trkpt lat="45.68734" lon="5.74462">
        <ele>316</ele>
        <time>2025-05-03T11:43:05.605Z</time>
      </trkpt>
      <trkpt lat="45.68728" lon="5.7446">
        <ele>316</ele>
        <time>2025-05-03T11:43:10.262Z</time>
      </trkpt>
      <trkpt lat="45.68723" lon="5.74461">
        <ele>316</ele>
        <time>2025-05-03T11:43:14.280Z</time>
      </trkpt>
      <trkpt lat="45.68716" lon="5.74457">
        <ele>328</ele>
        <time>2025-05-03T11:43:18.904Z</time>
      </trkpt>
      <trkpt lat="45.68709" lon="5.74454">
        <ele>328</ele>
        <time>2025-05-03T11:43:23.423Z</time>
      </trkpt>
      <trkpt lat="45.68703" lon="5.74455">
        <ele>328</ele>
        <time>2025-05-03T11:43:27.502Z</time>
      </trkpt>
      <trkpt lat="45.68696" lon="5.74454">
        <ele>328</ele>
        <time>2025-05-03T11:43:31.524Z</time>
      </trkpt>
      <trkpt lat="45.6869" lon="5.74452">
        <ele>328</ele>
        <time>2025-05-03T11:43:35.545Z</time>
      </trkpt>
      <trkpt lat="45.68685" lon="5.7445">
        <ele>328</ele>
        <time>2025-05-03T11:43:39.743Z</time>
      </trkpt>
      <trkpt lat="45.68679" lon="5.74449">
        <ele>327</ele>
        <time>2025-05-03T11:43:43.802Z</time>
      </trkpt>
      <trkpt lat="45.68674" lon="5.74448">
        <ele>327</ele>
        <time>2025-05-03T11:43:47.943Z</time>
      </trkpt>
      <trkpt lat="45.68669" lon="5.74447">
        <ele>327</ele>
        <time>2025-05-03T11:43:52.201Z</time>
      </trkpt>
      <trkpt lat="45.68663" lon="5.74444">
        <ele>327</ele>
        <time>2025-05-03T11:43:56.239Z</time>
      </trkpt>
      <trkpt lat="45.68657" lon="5.74441">
        <ele>327</ele>
        <time>2025-05-03T11:44:00.270Z</time>
      </trkpt>
      <trkpt lat="45.68651" lon="5.74438">
        <ele>324</ele>
        <time>2025-05-03T11:44:04.981Z</time>
      </trkpt>
      <trkpt lat="45.68646" lon="5.74435">
        <ele>324</ele>
        <time>2025-05-03T11:44:09.082Z</time>
      </trkpt>
      <trkpt lat="45.6864" lon="5.74437">
        <ele>324</ele>
        <time>2025-05-03T11:44:13.640Z</time>
      </trkpt>
      <trkpt lat="45.68635" lon="5.74434">
        <ele>324</ele>
        <time>2025-05-03T11:44:18.191Z</time>
      </trkpt>
      <trkpt lat="45.6863" lon="5.74432">
        <ele>324</ele>
        <time>2025-05-03T11:44:22.220Z</time>
      </trkpt>
      <trkpt lat="45.68624" lon="5.74429">
        <ele>331</ele>
        <time>2025-05-03T11:44:26.271Z</time>
      </trkpt>
      <trkpt lat="45.68617" lon="5.74425">
        <ele>331</ele>
        <time>2025-05-03T11:44:31.266Z</time>
      </trkpt>
      <trkpt lat="45.68612" lon="5.74423">
        <ele>331</ele>
        <time>2025-05-03T11:44:35.729Z</time>
      </trkpt>
      <trkpt lat="45.68606" lon="5.74421">
        <ele>331</ele>
        <time>2025-05-03T11:44:39.869Z</time>
      </trkpt>
      <trkpt lat="45.68601" lon="5.74418">
        <ele>331</ele>
        <time>2025-05-03T11:44:44.129Z</time>
      </trkpt>
      <trkpt lat="45.68595" lon="5.74415">
        <ele>330</ele>
        <time>2025-05-03T11:44:48.266Z</time>
      </trkpt>
      <trkpt lat="45.68589" lon="5.74413">
        <ele>330</ele>
        <time>2025-05-03T11:44:52.528Z</time>
      </trkpt>
      <trkpt lat="45.68583" lon="5.74412">
        <ele>330</ele>
        <time>2025-05-03T11:44:56.587Z</time>
      </trkpt>
      <trkpt lat="45.68577" lon="5.74411">
        <ele>330</ele>
        <time>2025-05-03T11:45:00.729Z</time>
      </trkpt>
      <trkpt lat="45.68572" lon="5.74411">
        <ele>330</ele>
        <time>2025-05-03T11:45:04.966Z</time>
      </trkpt>
      <trkpt lat="45.68567" lon="5.74412">
        <ele>331</ele>
        <time>2025-05-03T11:45:09.147Z</time>
      </trkpt>
      <trkpt lat="45.68561" lon="5.74414">
        <ele>331</ele>
        <time>2025-05-03T11:45:13.387Z</time>
      </trkpt>
      <trkpt lat="45.68555" lon="5.74413">
        <ele>331</ele>
        <time>2025-05-03T11:45:17.646Z</time>
      </trkpt>
      <trkpt lat="45.68547" lon="5.74412">
        <ele>331</ele>
        <time>2025-05-03T11:45:22.107Z</time>
      </trkpt>
      <trkpt lat="45.68538" lon="5.74412">
        <ele>331</ele>
        <time>2025-05-03T11:45:26.528Z</time>
      </trkpt>
      <trkpt lat="45.68524" lon="5.74411">
        <ele>331</ele>
        <time>2025-05-03T11:45:30.948Z</time>
      </trkpt>
      <trkpt lat="45.6851" lon="5.74413">
        <ele>330</ele>
        <time>2025-05-03T11:45:35.265Z</time>
      </trkpt>
      <trkpt lat="45.68491" lon="5.74414">
        <ele>330</ele>
        <time>2025-05-03T11:45:39.628Z</time>
      </trkpt>
      <trkpt lat="45.68472" lon="5.74412">
        <ele>328</ele>
        <time>2025-05-03T11:45:43.967Z</time>
      </trkpt>
      <trkpt lat="45.68462" lon="5.74412">
        <ele>328</ele>
        <time>2025-05-03T11:45:48.146Z</time>
      </trkpt>
      <trkpt lat="45.68452" lon="5.74409">
        <ele>328</ele>
        <time>2025-05-03T11:45:52.262Z</time>
      </trkpt>
      <trkpt lat="45.6844" lon="5.74405">
        <ele>328</ele>
        <time>2025-05-03T11:45:56.464Z</time>
      </trkpt>
      <trkpt lat="45.68427" lon="5.74402">
        <ele>331</ele>
        <time>2025-05-03T11:46:00.483Z</time>
      </trkpt>
      <trkpt lat="45.68415" lon="5.744">
        <ele>331</ele>
        <time>2025-05-03T11:46:04.763Z</time>
      </trkpt>
      <trkpt lat="45.68384" lon="5.74393">
        <ele>330</ele>
        <time>2025-05-03T11:46:09.263Z</time>
      </trkpt>
      <trkpt lat="45.68376" lon="5.7439">
        <ele>330</ele>
        <time>2025-05-03T11:46:14.251Z</time>
      </trkpt>
      <trkpt lat="45.6837" lon="5.74387">
        <ele>331</ele>
        <time>2025-05-03T11:46:18.265Z</time>
      </trkpt>
      <trkpt lat="45.68363" lon="5.74382">
        <ele>331</ele>
        <time>2025-05-03T11:46:23.264Z</time>
      </trkpt>
      <trkpt lat="45.68356" lon="5.74376">
        <ele>331</ele>
        <time>2025-05-03T11:46:28.274Z</time>
      </trkpt>
      <trkpt lat="45.68348" lon="5.74372">
        <ele>337</ele>
        <time>2025-05-03T11:46:33.260Z</time>
      </trkpt>
      <trkpt lat="45.68338" lon="5.74365">
        <ele>338</ele>
        <time>2025-05-03T11:46:38.263Z</time>
      </trkpt>
      <trkpt lat="45.68329" lon="5.74361">
        <ele>338</ele>
        <time>2025-05-03T11:46:43.253Z</time>
      </trkpt>
      <trkpt lat="45.68325" lon="5.74355">
        <ele>338</ele>
        <time>2025-05-03T11:46:47.668Z</time>
      </trkpt>
      <trkpt lat="45.68318" lon="5.74351">
        <ele>335</ele>
        <time>2025-05-03T11:46:52.208Z</time>
      </trkpt>
      <trkpt lat="45.68307" lon="5.74347">
        <ele>338</ele>
        <time>2025-05-03T11:46:56.428Z</time>
      </trkpt>
      <trkpt lat="45.68298" lon="5.74339">
        <ele>338</ele>
        <time>2025-05-03T11:47:00.679Z</time>
      </trkpt>
      <trkpt lat="45.68289" lon="5.74324">
        <ele>333</ele>
        <time>2025-05-03T11:47:04.998Z</time>
      </trkpt>
      <trkpt lat="45.68278" lon="5.7431">
        <ele>338</ele>
        <time>2025-05-03T11:47:09.621Z</time>
      </trkpt>
      <trkpt lat="45.68271" lon="5.74299">
        <ele>338</ele>
        <time>2025-05-03T11:47:14.223Z</time>
      </trkpt>
      <trkpt lat="45.68266" lon="5.7429">
        <ele>345</ele>
        <time>2025-05-03T11:47:18.326Z</time>
      </trkpt>
      <trkpt lat="45.68259" lon="5.74283">
        <ele>341</ele>
        <time>2025-05-03T11:47:23.230Z</time>
      </trkpt>
      <trkpt lat="45.68252" lon="5.74279">
        <ele>341</ele>
        <time>2025-05-03T11:47:27.745Z</time>
      </trkpt>
      <trkpt lat="45.68247" lon="5.74273">
        <ele>341</ele>
        <time>2025-05-03T11:47:32.237Z</time>
      </trkpt>
      <trkpt lat="45.68242" lon="5.74268">
        <ele>341</ele>
        <time>2025-05-03T11:47:36.587Z</time>
      </trkpt>
      <trkpt lat="45.68238" lon="5.74263">
        <ele>354</ele>
        <time>2025-05-03T11:47:40.887Z</time>
      </trkpt>
      <trkpt lat="45.68234" lon="5.74257">
        <ele>344</ele>
        <time>2025-05-03T11:47:45.238Z</time>
      </trkpt>
      <trkpt lat="45.6823" lon="5.74249">
        <ele>344</ele>
        <time>2025-05-03T11:47:49.365Z</time>
      </trkpt>
      <trkpt lat="45.68226" lon="5.74244">
        <ele>344</ele>
        <time>2025-05-03T11:47:53.713Z</time>
      </trkpt>
      <trkpt lat="45.68222" lon="5.7424">
        <ele>344</ele>
        <time>2025-05-03T11:47:58.247Z</time>
      </trkpt>
      <trkpt lat="45.68217" lon="5.74235">
        <ele>357</ele>
        <time>2025-05-03T11:48:02.507Z</time>
      </trkpt>
      <trkpt lat="45.6821" lon="5.74225">
        <ele>357</ele>
        <time>2025-05-03T11:48:07.241Z</time>
      </trkpt>
      <trkpt lat="45.68206" lon="5.74217">
        <ele>346</ele>
        <time>2025-05-03T11:48:11.238Z</time>
      </trkpt>
      <trkpt lat="45.682" lon="5.74211">
        <ele>346</ele>
        <time>2025-05-03T11:48:15.944Z</time>
      </trkpt>
      <trkpt lat="45.68195" lon="5.74202">
        <ele>360</ele>
        <time>2025-05-03T11:48:20.683Z</time>
      </trkpt>
      <trkpt lat="45.6819" lon="5.74191">
        <ele>360</ele>
        <time>2025-05-03T11:48:25.236Z</time>
      </trkpt>
      <trkpt lat="45.68183" lon="5.74178">
        <ele>372</ele>
        <time>2025-05-03T11:48:30.101Z</time>
      </trkpt>
      <trkpt lat="45.68174" lon="5.74171">
        <ele>363</ele>
        <time>2025-05-03T11:48:34.624Z</time>
      </trkpt>
      <trkpt lat="45.68167" lon="5.74167">
        <ele>363</ele>
        <time>2025-05-03T11:48:39.240Z</time>
      </trkpt>
      <trkpt lat="45.68161" lon="5.74163">
        <ele>363</ele>
        <time>2025-05-03T11:48:43.702Z</time>
      </trkpt>
      <trkpt lat="45.68154" lon="5.74154">
        <ele>363</ele>
        <time>2025-05-03T11:48:48.237Z</time>
      </trkpt>
      <trkpt lat="45.68149" lon="5.74151">
        <ele>363</ele>
        <time>2025-05-03T11:48:52.247Z</time>
      </trkpt>
      <trkpt lat="45.68143" lon="5.74146">
        <ele>363</ele>
        <time>2025-05-03T11:48:56.252Z</time>
      </trkpt>
      <trkpt lat="45.68134" lon="5.74141">
        <ele>363</ele>
        <time>2025-05-03T11:49:01.224Z</time>
      </trkpt>
      <trkpt lat="45.68129" lon="5.74137">
        <ele>363</ele>
        <time>2025-05-03T11:49:06.237Z</time>
      </trkpt>
      <trkpt lat="45.68128" lon="5.74135">
        <ele>363</ele>
        <time>2025-05-03T11:49:11.235Z</time>
      </trkpt>
      <trkpt lat="45.68122" lon="5.74132">
        <ele>355</ele>
        <time>2025-05-03T11:49:16.241Z</time>
      </trkpt>
      <trkpt lat="45.68113" lon="5.74121">
        <ele>361</ele>
        <time>2025-05-03T11:49:21.262Z</time>
      </trkpt>
      <trkpt lat="45.68107" lon="5.74116">
        <ele>361</ele>
        <time>2025-05-03T11:49:26.228Z</time>
      </trkpt>
      <trkpt lat="45.68098" lon="5.7411">
        <ele>361</ele>
        <time>2025-05-03T11:49:31.243Z</time>
      </trkpt>
      <trkpt lat="45.68087" lon="5.74101">
        <ele>358</ele>
        <time>2025-05-03T11:49:36.242Z</time>
      </trkpt>
      <trkpt lat="45.68078" lon="5.74096">
        <ele>367</ele>
        <time>2025-05-03T11:49:41.222Z</time>
      </trkpt>
      <trkpt lat="45.68073" lon="5.74093">
        <ele>367</ele>
        <time>2025-05-03T11:49:45.235Z</time>
      </trkpt>
      <trkpt lat="45.68067" lon="5.74087">
        <ele>363</ele>
        <time>2025-05-03T11:49:49.239Z</time>
      </trkpt>
      <trkpt lat="45.68061" lon="5.74078">
        <ele>363</ele>
        <time>2025-05-03T11:49:53.847Z</time>
      </trkpt>
      <trkpt lat="45.68057" lon="5.74072">
        <ele>363</ele>
        <time>2025-05-03T11:49:58.106Z</time>
      </trkpt>
      <trkpt lat="45.68052" lon="5.74066">
        <ele>372</ele>
        <time>2025-05-03T11:50:02.187Z</time>
      </trkpt>
      <trkpt lat="45.68046" lon="5.7406">
        <ele>372</ele>
        <time>2025-05-03T11:50:06.237Z</time>
      </trkpt>
      <trkpt lat="45.68043" lon="5.7405">
        <ele>372</ele>
        <time>2025-05-03T11:50:10.250Z</time>
      </trkpt>
      <trkpt lat="45.68042" lon="5.74046">
        <ele>372</ele>
        <time>2025-05-03T11:50:15.229Z</time>
      </trkpt>
      <trkpt lat="45.68042" lon="5.74046">
        <ele>372</ele>
        <time>2025-05-03T11:50:19.230Z</time>
      </trkpt>
      <trkpt lat="45.68041" lon="5.74044">
        <ele>369</ele>
        <time>2025-05-03T11:50:48.195Z</time>
      </trkpt>
      <trkpt lat="45.68041" lon="5.74043">
        <ele>369</ele>
        <time>2025-05-03T11:50:52.212Z</time>
      </trkpt>
      <trkpt lat="45.6804" lon="5.74037">
        <ele>376</ele>
        <time>2025-05-03T11:50:57.211Z</time>
      </trkpt>
      <trkpt lat="45.6804" lon="5.74033">
        <ele>376</ele>
        <time>2025-05-03T11:51:02.211Z</time>
      </trkpt>
      <trkpt lat="45.68039" lon="5.74031">
        <ele>376</ele>
        <time>2025-05-03T11:51:07.209Z</time>
      </trkpt>
      <trkpt lat="45.68038" lon="5.74031">
        <ele>376</ele>
        <time>2025-05-03T11:51:13.197Z</time>
      </trkpt>
      <trkpt lat="45.68038" lon="5.74027">
        <ele>376</ele>
        <time>2025-05-03T11:51:17.206Z</time>
      </trkpt>
      <trkpt lat="45.68038" lon="5.74025">
        <ele>376</ele>
        <time>2025-05-03T11:51:22.209Z</time>
      </trkpt>
      <trkpt lat="45.68038" lon="5.7402">
        <ele>376</ele>
        <time>2025-05-03T11:51:27.262Z</time>
      </trkpt>
      <trkpt lat="45.68037" lon="5.74016">
        <ele>376</ele>
        <time>2025-05-03T11:51:32.265Z</time>
      </trkpt>
      <trkpt lat="45.68037" lon="5.74016">
        <ele>376</ele>
        <time>2025-05-03T11:51:37.268Z</time>
      </trkpt>
      <trkpt lat="45.68037" lon="5.74015">
        <ele>376</ele>
        <time>2025-05-03T11:51:42.258Z</time>
      </trkpt>
      <trkpt lat="45.68032" lon="5.74013">
        <ele>383</ele>
        <time>2025-05-03T11:51:47.232Z</time>
      </trkpt>
      <trkpt lat="45.68026" lon="5.7401">
        <ele>383</ele>
        <time>2025-05-03T11:51:51.248Z</time>
      </trkpt>
      <trkpt lat="45.68019" lon="5.74006">
        <ele>383</ele>
        <time>2025-05-03T11:51:56.243Z</time>
      </trkpt>
      <trkpt lat="45.68013" lon="5.74006">
        <ele>381</ele>
        <time>2025-05-03T11:52:00.246Z</time>
      </trkpt>
      <trkpt lat="45.68005" lon="5.74005">
        <ele>381</ele>
        <time>2025-05-03T11:52:05.235Z</time>
      </trkpt>
      <trkpt lat="45.68001" lon="5.74005">
        <ele>381</ele>
        <time>2025-05-03T11:52:09.264Z</time>
      </trkpt>
      <trkpt lat="45.67993" lon="5.74">
        <ele>381</ele>
        <time>2025-05-03T11:52:14.248Z</time>
      </trkpt>
      <trkpt lat="45.67978" lon="5.73991">
        <ele>380</ele>
        <time>2025-05-03T11:52:19.251Z</time>
      </trkpt>
      <trkpt lat="45.67959" lon="5.73981">
        <ele>385</ele>
        <time>2025-05-03T11:52:24.236Z</time>
      </trkpt>
      <trkpt lat="45.6794" lon="5.73973">
        <ele>387</ele>
        <time>2025-05-03T11:52:29.243Z</time>
      </trkpt>
      <trkpt lat="45.67933" lon="5.73971">
        <ele>387</ele>
        <time>2025-05-03T11:52:34.236Z</time>
      </trkpt>
      <trkpt lat="45.67926" lon="5.73971">
        <ele>386</ele>
        <time>2025-05-03T11:52:38.246Z</time>
      </trkpt>
      <trkpt lat="45.67921" lon="5.73963">
        <ele>386</ele>
        <time>2025-05-03T11:52:42.386Z</time>
      </trkpt>
      <trkpt lat="45.67913" lon="5.73965">
        <ele>386</ele>
        <time>2025-05-03T11:52:46.483Z</time>
      </trkpt>
      <trkpt lat="45.67908" lon="5.73962">
        <ele>386</ele>
        <time>2025-05-03T11:52:50.883Z</time>
      </trkpt>
      <trkpt lat="45.67903" lon="5.73958">
        <ele>395</ele>
        <time>2025-05-03T11:52:54.984Z</time>
      </trkpt>
      <trkpt lat="45.67898" lon="5.73953">
        <ele>391</ele>
        <time>2025-05-03T11:52:59.124Z</time>
      </trkpt>
      <trkpt lat="45.67893" lon="5.73947">
        <ele>391</ele>
        <time>2025-05-03T11:53:03.243Z</time>
      </trkpt>
      <trkpt lat="45.67889" lon="5.73942">
        <ele>391</ele>
        <time>2025-05-03T11:53:08.234Z</time>
      </trkpt>
      <trkpt lat="45.67883" lon="5.73935">
        <ele>391</ele>
        <time>2025-05-03T11:53:12.963Z</time>
      </trkpt>
      <trkpt lat="45.67879" lon="5.73928">
        <ele>398</ele>
        <time>2025-05-03T11:53:17.244Z</time>
      </trkpt>
      <trkpt lat="45.67875" lon="5.73921">
        <ele>398</ele>
        <time>2025-05-03T11:53:21.704Z</time>
      </trkpt>
      <trkpt lat="45.67872" lon="5.73914">
        <ele>394</ele>
        <time>2025-05-03T11:53:26.143Z</time>
      </trkpt>
      <trkpt lat="45.67868" lon="5.73906">
        <ele>394</ele>
        <time>2025-05-03T11:53:30.240Z</time>
      </trkpt>
      <trkpt lat="45.67866" lon="5.73899">
        <ele>401</ele>
        <time>2025-05-03T11:53:34.237Z</time>
      </trkpt>
      <trkpt lat="45.67866" lon="5.73893">
        <ele>401</ele>
        <time>2025-05-03T11:53:40.008Z</time>
      </trkpt>
      <trkpt lat="45.67864" lon="5.73883">
        <ele>401</ele>
        <time>2025-05-03T11:53:44.115Z</time>
      </trkpt>
      <trkpt lat="45.67861" lon="5.73873">
        <ele>407</ele>
        <time>2025-05-03T11:53:48.448Z</time>
      </trkpt>
      <trkpt lat="45.67859" lon="5.73864">
        <ele>407</ele>
        <time>2025-05-03T11:53:52.647Z</time>
      </trkpt>
      <trkpt lat="45.67857" lon="5.73857">
        <ele>407</ele>
        <time>2025-05-03T11:53:56.908Z</time>
      </trkpt>
      <trkpt lat="45.67855" lon="5.73851">
        <ele>407</ele>
        <time>2025-05-03T11:54:01.173Z</time>
      </trkpt>
      <trkpt lat="45.67853" lon="5.73845">
        <ele>410</ele>
        <time>2025-05-03T11:54:05.240Z</time>
      </trkpt>
      <trkpt lat="45.67848" lon="5.7384">
        <ele>410</ele>
        <time>2025-05-03T11:54:10.245Z</time>
      </trkpt>
      <trkpt lat="45.6784" lon="5.73835">
        <ele>412</ele>
        <time>2025-05-03T11:54:15.231Z</time>
      </trkpt>
      <trkpt lat="45.67835" lon="5.73835">
        <ele>412</ele>
        <time>2025-05-03T11:54:19.252Z</time>
      </trkpt>
      <trkpt lat="45.67829" lon="5.73833">
        <ele>412</ele>
        <time>2025-05-03T11:54:24.240Z</time>
      </trkpt>
      <trkpt lat="45.67824" lon="5.7383">
        <ele>412</ele>
        <time>2025-05-03T11:54:28.242Z</time>
      </trkpt>
      <trkpt lat="45.6782" lon="5.73821">
        <ele>412</ele>
        <time>2025-05-03T11:54:32.263Z</time>
      </trkpt>
      <trkpt lat="45.67819" lon="5.73809">
        <ele>418</ele>
        <time>2025-05-03T11:54:37.248Z</time>
      </trkpt>
      <trkpt lat="45.67816" lon="5.73799">
        <ele>418</ele>
        <time>2025-05-03T11:54:42.244Z</time>
      </trkpt>
      <trkpt lat="45.67813" lon="5.73786">
        <ele>420</ele>
        <time>2025-05-03T11:54:47.247Z</time>
      </trkpt>
      <trkpt lat="45.67809" lon="5.73779">
        <ele>420</ele>
        <time>2025-05-03T11:54:51.249Z</time>
      </trkpt>
      <trkpt lat="45.678" lon="5.73774">
        <ele>420</ele>
        <time>2025-05-03T11:55:19.233Z</time>
      </trkpt>
      <trkpt lat="45.678" lon="5.73776">
        <ele>420</ele>
        <time>2025-05-03T11:55:23.245Z</time>
      </trkpt>
      <trkpt lat="45.678" lon="5.73775">
        <ele>420</ele>
        <time>2025-05-03T11:55:27.251Z</time>
      </trkpt>
      <trkpt lat="45.67796" lon="5.73773">
        <ele>420</ele>
        <time>2025-05-03T11:55:32.240Z</time>
      </trkpt>
      <trkpt lat="45.67792" lon="5.73772">
        <ele>420</ele>
        <time>2025-05-03T11:55:37.234Z</time>
      </trkpt>
      <trkpt lat="45.6779" lon="5.7377">
        <ele>424</ele>
        <time>2025-05-03T11:55:46.302Z</time>
      </trkpt>
      <trkpt lat="45.6779" lon="5.73766">
        <ele>424</ele>
        <time>2025-05-03T11:55:51.223Z</time>
      </trkpt>
      <trkpt lat="45.67789" lon="5.73765">
        <ele>424</ele>
        <time>2025-05-03T11:55:55.230Z</time>
      </trkpt>
      <trkpt lat="45.67785" lon="5.73765">
        <ele>424</ele>
        <time>2025-05-03T11:55:59.265Z</time>
      </trkpt>
      <trkpt lat="45.67777" lon="5.73765">
        <ele>424</ele>
        <time>2025-05-03T11:56:04.261Z</time>
      </trkpt>
      <trkpt lat="45.67768" lon="5.73761">
        <ele>425</ele>
        <time>2025-05-03T11:56:13.283Z</time>
      </trkpt>
      <trkpt lat="45.67767" lon="5.7376">
        <ele>425</ele>
        <time>2025-05-03T11:56:18.260Z</time>
      </trkpt>
      <trkpt lat="45.67766" lon="5.73759">
        <ele>425</ele>
        <time>2025-05-03T11:56:23.275Z</time>
      </trkpt>
      <trkpt lat="45.67764" lon="5.73757">
        <ele>425</ele>
        <time>2025-05-03T11:56:28.275Z</time>
      </trkpt>
      <trkpt lat="45.67763" lon="5.73756">
        <ele>428</ele>
        <time>2025-05-03T11:56:33.262Z</time>
      </trkpt>
      <trkpt lat="45.67763" lon="5.73755">
        <ele>428</ele>
        <time>2025-05-03T11:56:38.225Z</time>
      </trkpt>
      <trkpt lat="45.67763" lon="5.73754">
        <ele>428</ele>
        <time>2025-05-03T11:56:42.238Z</time>
      </trkpt>
      <trkpt lat="45.67761" lon="5.73747">
        <ele>428</ele>
        <time>2025-05-03T11:56:46.245Z</time>
      </trkpt>
      <trkpt lat="45.67761" lon="5.73729">
        <ele>430</ele>
        <time>2025-05-03T11:56:51.262Z</time>
      </trkpt>
      <trkpt lat="45.67756" lon="5.73727">
        <ele>430</ele>
        <time>2025-05-03T11:56:55.260Z</time>
      </trkpt>
      <trkpt lat="45.67754" lon="5.73718">
        <ele>430</ele>
        <time>2025-05-03T11:57:00.252Z</time>
      </trkpt>
      <trkpt lat="45.67757" lon="5.73695">
        <ele>431</ele>
        <time>2025-05-03T11:57:05.263Z</time>
      </trkpt>
      <trkpt lat="45.67759" lon="5.73668">
        <ele>431</ele>
        <time>2025-05-03T11:57:10.263Z</time>
      </trkpt>
      <trkpt lat="45.67755" lon="5.73647">
        <ele>432</ele>
        <time>2025-05-03T11:57:15.258Z</time>
      </trkpt>
      <trkpt lat="45.67751" lon="5.7363">
        <ele>432</ele>
        <time>2025-05-03T11:57:19.269Z</time>
      </trkpt>
      <trkpt lat="45.67744" lon="5.73617">
        <ele>434</ele>
        <time>2025-05-03T11:57:24.282Z</time>
      </trkpt>
      <trkpt lat="45.67736" lon="5.73611">
        <ele>434</ele>
        <time>2025-05-03T11:57:29.261Z</time>
      </trkpt>
      <trkpt lat="45.67732" lon="5.73608">
        <ele>434</ele>
        <time>2025-05-03T11:57:34.271Z</time>
      </trkpt>
      <trkpt lat="45.67725" lon="5.73605">
        <ele>434</ele>
        <time>2025-05-03T11:57:39.283Z</time>
      </trkpt>
      <trkpt lat="45.67718" lon="5.73601">
        <ele>434</ele>
        <time>2025-05-03T11:57:44.259Z</time>
      </trkpt>
      <trkpt lat="45.67713" lon="5.73599">
        <ele>434</ele>
        <time>2025-05-03T11:57:48.257Z</time>
      </trkpt>
      <trkpt lat="45.67706" lon="5.73597">
        <ele>438</ele>
        <time>2025-05-03T11:57:52.269Z</time>
      </trkpt>
      <trkpt lat="45.67701" lon="5.73593">
        <ele>438</ele>
        <time>2025-05-03T11:57:56.827Z</time>
      </trkpt>
      <trkpt lat="45.67695" lon="5.7359">
        <ele>438</ele>
        <time>2025-05-03T11:58:00.847Z</time>
      </trkpt>
      <trkpt lat="45.67685" lon="5.73585">
        <ele>438</ele>
        <time>2025-05-03T11:58:04.846Z</time>
      </trkpt>
      <trkpt lat="45.67673" lon="5.7358">
        <ele>436</ele>
        <time>2025-05-03T11:58:09.107Z</time>
      </trkpt>
      <trkpt lat="45.67663" lon="5.73578">
        <ele>436</ele>
        <time>2025-05-03T11:58:13.267Z</time>
      </trkpt>
      <trkpt lat="45.67625" lon="5.73565">
        <ele>436</ele>
        <time>2025-05-03T11:58:18.224Z</time>
      </trkpt>
      <trkpt lat="45.67613" lon="5.73554">
        <ele>433</ele>
        <time>2025-05-03T11:58:22.785Z</time>
      </trkpt>
      <trkpt lat="45.67607" lon="5.73548">
        <ele>433</ele>
        <time>2025-05-03T11:58:27.246Z</time>
      </trkpt>
      <trkpt lat="45.67601" lon="5.73543">
        <ele>433</ele>
        <time>2025-05-03T11:58:32.260Z</time>
      </trkpt>
      <trkpt lat="45.67596" lon="5.73538">
        <ele>434</ele>
        <time>2025-05-03T11:58:36.260Z</time>
      </trkpt>
      <trkpt lat="45.67589" lon="5.73529">
        <ele>434</ele>
        <time>2025-05-03T11:58:41.258Z</time>
      </trkpt>
      <trkpt lat="45.67585" lon="5.7352">
        <ele>434</ele>
        <time>2025-05-03T11:58:46.261Z</time>
      </trkpt>
      <trkpt lat="45.67582" lon="5.73513">
        <ele>438</ele>
        <time>2025-05-03T11:58:50.279Z</time>
      </trkpt>
      <trkpt lat="45.67577" lon="5.73504">
        <ele>438</ele>
        <time>2025-05-03T11:58:55.249Z</time>
      </trkpt>
      <trkpt lat="45.67574" lon="5.73496">
        <ele>438</ele>
        <time>2025-05-03T11:58:59.272Z</time>
      </trkpt>
      <trkpt lat="45.67569" lon="5.73487">
        <ele>431</ele>
        <time>2025-05-03T11:59:04.272Z</time>
      </trkpt>
      <trkpt lat="45.67566" lon="5.7348">
        <ele>433</ele>
        <time>2025-05-03T11:59:09.265Z</time>
      </trkpt>
      <trkpt lat="45.67561" lon="5.73471">
        <ele>433</ele>
        <time>2025-05-03T11:59:14.271Z</time>
      </trkpt>
      <trkpt lat="45.67557" lon="5.73469">
        <ele>433</ele>
        <time>2025-05-03T11:59:18.276Z</time>
      </trkpt>
      <trkpt lat="45.67551" lon="5.73465">
        <ele>433</ele>
        <time>2025-05-03T11:59:23.269Z</time>
      </trkpt>
      <trkpt lat="45.67546" lon="5.73461">
        <ele>433</ele>
        <time>2025-05-03T11:59:27.285Z</time>
      </trkpt>
      <trkpt lat="45.67541" lon="5.73457">
        <ele>432</ele>
        <time>2025-05-03T11:59:32.291Z</time>
      </trkpt>
      <trkpt lat="45.67535" lon="5.73454">
        <ele>432</ele>
        <time>2025-05-03T11:59:37.275Z</time>
      </trkpt>
      <trkpt lat="45.67527" lon="5.73446">
        <ele>432</ele>
        <time>2025-05-03T11:59:42.266Z</time>
      </trkpt>
      <trkpt lat="45.67521" lon="5.73441">
        <ele>432</ele>
        <time>2025-05-03T11:59:47.271Z</time>
      </trkpt>
      <trkpt lat="45.67514" lon="5.73434">
        <ele>432</ele>
        <time>2025-05-03T11:59:52.266Z</time>
      </trkpt>
      <trkpt lat="45.67509" lon="5.73426">
        <ele>434</ele>
        <time>2025-05-03T11:59:57.262Z</time>
      </trkpt>
      <trkpt lat="45.67504" lon="5.7342">
        <ele>434</ele>
        <time>2025-05-03T12:00:02.262Z</time>
      </trkpt>
      <trkpt lat="45.67499" lon="5.73414">
        <ele>434</ele>
        <time>2025-05-03T12:00:07.269Z</time>
      </trkpt>
      <trkpt lat="45.67493" lon="5.73408">
        <ele>434</ele>
        <time>2025-05-03T12:00:12.260Z</time>
      </trkpt>
      <trkpt lat="45.67487" lon="5.73401">
        <ele>436</ele>
        <time>2025-05-03T12:00:17.278Z</time>
      </trkpt>
      <trkpt lat="45.6748" lon="5.73397">
        <ele>438</ele>
        <time>2025-05-03T12:00:22.267Z</time>
      </trkpt>
      <trkpt lat="45.67475" lon="5.73393">
        <ele>438</ele>
        <time>2025-05-03T12:00:26.277Z</time>
      </trkpt>
      <trkpt lat="45.67468" lon="5.73392">
        <ele>438</ele>
        <time>2025-05-03T12:00:31.252Z</time>
      </trkpt>
      <trkpt lat="45.67462" lon="5.73397">
        <ele>438</ele>
        <time>2025-05-03T12:00:36.268Z</time>
      </trkpt>
      <trkpt lat="45.67457" lon="5.73403">
        <ele>439</ele>
        <time>2025-05-03T12:00:41.264Z</time>
      </trkpt>
      <trkpt lat="45.67454" lon="5.7341">
        <ele>437</ele>
        <time>2025-05-03T12:00:46.269Z</time>
      </trkpt>
      <trkpt lat="45.6745" lon="5.73419">
        <ele>437</ele>
        <time>2025-05-03T12:00:51.290Z</time>
      </trkpt>
      <trkpt lat="45.67446" lon="5.73428">
        <ele>437</ele>
        <time>2025-05-03T12:00:56.264Z</time>
      </trkpt>
      <trkpt lat="45.67446" lon="5.73439">
        <ele>433</ele>
        <time>2025-05-03T12:01:00.257Z</time>
      </trkpt>
      <trkpt lat="45.67444" lon="5.7345">
        <ele>433</ele>
        <time>2025-05-03T12:01:05.255Z</time>
      </trkpt>
      <trkpt lat="45.67441" lon="5.73462">
        <ele>430</ele>
        <time>2025-05-03T12:01:10.260Z</time>
      </trkpt>
      <trkpt lat="45.6744" lon="5.73468">
        <ele>430</ele>
        <time>2025-05-03T12:01:14.692Z</time>
      </trkpt>
      <trkpt lat="45.67438" lon="5.73476">
        <ele>430</ele>
        <time>2025-05-03T12:01:19.269Z</time>
      </trkpt>
      <trkpt lat="45.67437" lon="5.73484">
        <ele>430</ele>
        <time>2025-05-03T12:01:23.271Z</time>
      </trkpt>
      <trkpt lat="45.67436" lon="5.73496">
        <ele>430</ele>
        <time>2025-05-03T12:01:27.811Z</time>
      </trkpt>
      <trkpt lat="45.67434" lon="5.73508">
        <ele>430</ele>
        <time>2025-05-03T12:01:32.263Z</time>
      </trkpt>
      <trkpt lat="45.67432" lon="5.73517">
        <ele>431</ele>
        <time>2025-05-03T12:01:36.370Z</time>
      </trkpt>
      <trkpt lat="45.67431" lon="5.73527">
        <ele>431</ele>
        <time>2025-05-03T12:01:40.969Z</time>
      </trkpt>
      <trkpt lat="45.6743" lon="5.73536">
        <ele>434</ele>
        <time>2025-05-03T12:01:45.048Z</time>
      </trkpt>
      <trkpt lat="45.67429" lon="5.73547">
        <ele>434</ele>
        <time>2025-05-03T12:01:49.553Z</time>
      </trkpt>
      <trkpt lat="45.67427" lon="5.73556">
        <ele>434</ele>
        <time>2025-05-03T12:01:54.013Z</time>
      </trkpt>
      <trkpt lat="45.67424" lon="5.73566">
        <ele>434</ele>
        <time>2025-05-03T12:01:58.255Z</time>
      </trkpt>
      <trkpt lat="45.67421" lon="5.73575">
        <ele>430</ele>
        <time>2025-05-03T12:02:02.609Z</time>
      </trkpt>
      <trkpt lat="45.67419" lon="5.73583">
        <ele>430</ele>
        <time>2025-05-03T12:02:06.629Z</time>
      </trkpt>
      <trkpt lat="45.67418" lon="5.73593">
        <ele>430</ele>
        <time>2025-05-03T12:02:11.067Z</time>
      </trkpt>
      <trkpt lat="45.67416" lon="5.73602">
        <ele>427</ele>
        <time>2025-05-03T12:02:15.089Z</time>
      </trkpt>
      <trkpt lat="45.67415" lon="5.73611">
        <ele>427</ele>
        <time>2025-05-03T12:02:19.728Z</time>
      </trkpt>
      <trkpt lat="45.67413" lon="5.73619">
        <ele>427</ele>
        <time>2025-05-03T12:02:24.266Z</time>
      </trkpt>
      <trkpt lat="45.6741" lon="5.73629">
        <ele>426</ele>
        <time>2025-05-03T12:02:28.790Z</time>
      </trkpt>
      <trkpt lat="45.67408" lon="5.7364">
        <ele>426</ele>
        <time>2025-05-03T12:02:33.261Z</time>
      </trkpt>
      <trkpt lat="45.67406" lon="5.73652">
        <ele>426</ele>
        <time>2025-05-03T12:02:37.768Z</time>
      </trkpt>
      <trkpt lat="45.67405" lon="5.73662">
        <ele>426</ele>
        <time>2025-05-03T12:02:42.269Z</time>
      </trkpt>
      <trkpt lat="45.67403" lon="5.73672">
        <ele>428</ele>
        <time>2025-05-03T12:02:46.808Z</time>
      </trkpt>
      <trkpt lat="45.674" lon="5.73682">
        <ele>428</ele>
        <time>2025-05-03T12:02:51.227Z</time>
      </trkpt>
      <trkpt lat="45.67398" lon="5.73692">
        <ele>428</ele>
        <time>2025-05-03T12:02:55.647Z</time>
      </trkpt>
      <trkpt lat="45.67395" lon="5.73701">
        <ele>428</ele>
        <time>2025-05-03T12:02:59.667Z</time>
      </trkpt>
      <trkpt lat="45.67393" lon="5.73712">
        <ele>429</ele>
        <time>2025-05-03T12:03:03.908Z</time>
      </trkpt>
      <trkpt lat="45.67391" lon="5.73722">
        <ele>429</ele>
        <time>2025-05-03T12:03:08.206Z</time>
      </trkpt>
      <trkpt lat="45.6739" lon="5.73732">
        <ele>429</ele>
        <time>2025-05-03T12:03:12.427Z</time>
      </trkpt>
      <trkpt lat="45.67387" lon="5.73741">
        <ele>430</ele>
        <time>2025-05-03T12:03:16.568Z</time>
      </trkpt>
      <trkpt lat="45.67384" lon="5.7375">
        <ele>430</ele>
        <time>2025-05-03T12:03:20.787Z</time>
      </trkpt>
      <trkpt lat="45.6738" lon="5.73758">
        <ele>430</ele>
        <time>2025-05-03T12:03:25.129Z</time>
      </trkpt>
      <trkpt lat="45.67375" lon="5.73768">
        <ele>431</ele>
        <time>2025-05-03T12:03:29.528Z</time>
      </trkpt>
      <trkpt lat="45.67371" lon="5.73777">
        <ele>434</ele>
        <time>2025-05-03T12:03:33.847Z</time>
      </trkpt>
      <trkpt lat="45.67368" lon="5.73786">
        <ele>434</ele>
        <time>2025-05-03T12:03:38.270Z</time>
      </trkpt>
      <trkpt lat="45.67367" lon="5.73794">
        <ele>436</ele>
        <time>2025-05-03T12:03:43.255Z</time>
      </trkpt>
      <trkpt lat="45.67364" lon="5.73808">
        <ele>436</ele>
        <time>2025-05-03T12:03:47.832Z</time>
      </trkpt>
      <trkpt lat="45.6736" lon="5.73826">
        <ele>438</ele>
        <time>2025-05-03T12:03:52.026Z</time>
      </trkpt>
      <trkpt lat="45.67356" lon="5.73847">
        <ele>438</ele>
        <time>2025-05-03T12:03:56.272Z</time>
      </trkpt>
      <trkpt lat="45.67357" lon="5.73864">
        <ele>442</ele>
        <time>2025-05-03T12:04:00.904Z</time>
      </trkpt>
      <trkpt lat="45.67358" lon="5.7388">
        <ele>448</ele>
        <time>2025-05-03T12:04:05.423Z</time>
      </trkpt>
      <trkpt lat="45.67362" lon="5.73893">
        <ele>448</ele>
        <time>2025-05-03T12:04:10.086Z</time>
      </trkpt>
      <trkpt lat="45.67364" lon="5.73922">
        <ele>452</ele>
        <time>2025-05-03T12:04:14.262Z</time>
      </trkpt>
      <trkpt lat="45.67362" lon="5.73937">
        <ele>456</ele>
        <time>2025-05-03T12:04:19.090Z</time>
      </trkpt>
      <trkpt lat="45.6737" lon="5.73947">
        <ele>456</ele>
        <time>2025-05-03T12:04:23.451Z</time>
      </trkpt>
      <trkpt lat="45.67376" lon="5.73955">
        <ele>449</ele>
        <time>2025-05-03T12:04:28.111Z</time>
      </trkpt>
      <trkpt lat="45.67383" lon="5.73961">
        <ele>455</ele>
        <time>2025-05-03T12:04:32.208Z</time>
      </trkpt>
      <trkpt lat="45.67388" lon="5.73971">
        <ele>455</ele>
        <time>2025-05-03T12:04:37.088Z</time>
      </trkpt>
      <trkpt lat="45.67392" lon="5.73977">
        <ele>455</ele>
        <time>2025-05-03T12:04:41.207Z</time>
      </trkpt>
      <trkpt lat="45.67396" lon="5.73989">
        <ele>456</ele>
        <time>2025-05-03T12:04:45.445Z</time>
      </trkpt>
      <trkpt lat="45.67402" lon="5.74004">
        <ele>456</ele>
        <time>2025-05-03T12:04:49.447Z</time>
      </trkpt>
      <trkpt lat="45.67404" lon="5.7402">
        <ele>450</ele>
        <time>2025-05-03T12:04:54.086Z</time>
      </trkpt>
      <trkpt lat="45.67407" lon="5.74034">
        <ele>450</ele>
        <time>2025-05-03T12:04:58.249Z</time>
      </trkpt>
      <trkpt lat="45.6741" lon="5.74046">
        <ele>448</ele>
        <time>2025-05-03T12:05:02.257Z</time>
      </trkpt>
      <trkpt lat="45.67408" lon="5.74058">
        <ele>448</ele>
        <time>2025-05-03T12:05:07.125Z</time>
      </trkpt>
      <trkpt lat="45.67404" lon="5.74069">
        <ele>448</ele>
        <time>2025-05-03T12:05:12.124Z</time>
      </trkpt>
      <trkpt lat="45.67399" lon="5.74076">
        <ele>450</ele>
        <time>2025-05-03T12:05:16.260Z</time>
      </trkpt>
      <trkpt lat="45.67395" lon="5.74085">
        <ele>450</ele>
        <time>2025-05-03T12:05:20.745Z</time>
      </trkpt>
      <trkpt lat="45.67392" lon="5.74093">
        <ele>450</ele>
        <time>2025-05-03T12:05:24.826Z</time>
      </trkpt>
      <trkpt lat="45.6739" lon="5.74098">
        <ele>450</ele>
        <time>2025-05-03T12:05:29.252Z</time>
      </trkpt>
      <trkpt lat="45.67388" lon="5.74109">
        <ele>450</ele>
        <time>2025-05-03T12:05:33.804Z</time>
      </trkpt>
      <trkpt lat="45.67385" lon="5.74116">
        <ele>450</ele>
        <time>2025-05-03T12:05:37.845Z</time>
      </trkpt>
      <trkpt lat="45.6738" lon="5.74124">
        <ele>450</ele>
        <time>2025-05-03T12:05:42.228Z</time>
      </trkpt>
      <trkpt lat="45.67373" lon="5.74129">
        <ele>451</ele>
        <time>2025-05-03T12:05:46.702Z</time>
      </trkpt>
      <trkpt lat="45.67364" lon="5.74134">
        <ele>451</ele>
        <time>2025-05-03T12:05:51.044Z</time>
      </trkpt>
      <trkpt lat="45.67355" lon="5.74133">
        <ele>451</ele>
        <time>2025-05-03T12:05:55.084Z</time>
      </trkpt>
      <trkpt lat="45.67348" lon="5.74125">
        <ele>451</ele>
        <time>2025-05-03T12:05:59.242Z</time>
      </trkpt>
      <trkpt lat="45.67342" lon="5.74115">
        <ele>451</ele>
        <time>2025-05-03T12:06:03.603Z</time>
      </trkpt>
      <trkpt lat="45.67335" lon="5.74107">
        <ele>451</ele>
        <time>2025-05-03T12:06:07.824Z</time>
      </trkpt>
      <trkpt lat="45.67329" lon="5.74102">
        <ele>451</ele>
        <time>2025-05-03T12:06:12.240Z</time>
      </trkpt>
      <trkpt lat="45.67323" lon="5.74096">
        <ele>452</ele>
        <time>2025-05-03T12:06:16.685Z</time>
      </trkpt>
      <trkpt lat="45.67318" lon="5.7409">
        <ele>454</ele>
        <time>2025-05-03T12:06:21.123Z</time>
      </trkpt>
      <trkpt lat="45.67312" lon="5.74084">
        <ele>454</ele>
        <time>2025-05-03T12:06:25.232Z</time>
      </trkpt>
      <trkpt lat="45.67307" lon="5.74077">
        <ele>454</ele>
        <time>2025-05-03T12:06:29.442Z</time>
      </trkpt>
      <trkpt lat="45.673" lon="5.74073">
        <ele>454</ele>
        <time>2025-05-03T12:06:34.142Z</time>
      </trkpt>
      <trkpt lat="45.67292" lon="5.74067">
        <ele>455</ele>
        <time>2025-05-03T12:06:39.024Z</time>
      </trkpt>
      <trkpt lat="45.67285" lon="5.7406">
        <ele>456</ele>
        <time>2025-05-03T12:06:43.235Z</time>
      </trkpt>
      <trkpt lat="45.67278" lon="5.74053">
        <ele>456</ele>
        <time>2025-05-03T12:06:47.741Z</time>
      </trkpt>
      <trkpt lat="45.67271" lon="5.74048">
        <ele>456</ele>
        <time>2025-05-03T12:06:52.239Z</time>
      </trkpt>
      <trkpt lat="45.67262" lon="5.7404">
        <ele>460</ele>
        <time>2025-05-03T12:06:56.860Z</time>
      </trkpt>
      <trkpt lat="45.67256" lon="5.74035">
        <ele>460</ele>
        <time>2025-05-03T12:07:01.120Z</time>
      </trkpt>
      <trkpt lat="45.6725" lon="5.7403">
        <ele>460</ele>
        <time>2025-05-03T12:07:05.200Z</time>
      </trkpt>
      <trkpt lat="45.67245" lon="5.74024">
        <ele>460</ele>
        <time>2025-05-03T12:07:09.951Z</time>
      </trkpt>
      <trkpt lat="45.67236" lon="5.74018">
        <ele>460</ele>
        <time>2025-05-03T12:07:14.247Z</time>
      </trkpt>
      <trkpt lat="45.67229" lon="5.74011">
        <ele>461</ele>
        <time>2025-05-03T12:07:18.649Z</time>
      </trkpt>
      <trkpt lat="45.67221" lon="5.74004">
        <ele>461</ele>
        <time>2025-05-03T12:07:22.789Z</time>
      </trkpt>
      <trkpt lat="45.67215" lon="5.73998">
        <ele>461</ele>
        <time>2025-05-03T12:07:27.233Z</time>
      </trkpt>
      <trkpt lat="45.67207" lon="5.73992">
        <ele>462</ele>
        <time>2025-05-03T12:07:31.769Z</time>
      </trkpt>
      <trkpt lat="45.67199" lon="5.73986">
        <ele>462</ele>
        <time>2025-05-03T12:07:35.909Z</time>
      </trkpt>
      <trkpt lat="45.67192" lon="5.7398">
        <ele>463</ele>
        <time>2025-05-03T12:07:40.230Z</time>
      </trkpt>
      <trkpt lat="45.67185" lon="5.73974">
        <ele>463</ele>
        <time>2025-05-03T12:07:45.233Z</time>
      </trkpt>
      <trkpt lat="45.67176" lon="5.73964">
        <ele>465</ele>
        <time>2025-05-03T12:07:49.788Z</time>
      </trkpt>
      <trkpt lat="45.67167" lon="5.73957">
        <ele>466</ele>
        <time>2025-05-03T12:07:54.248Z</time>
      </trkpt>
      <trkpt lat="45.67158" lon="5.73949">
        <ele>466</ele>
        <time>2025-05-03T12:07:59.107Z</time>
      </trkpt>
      <trkpt lat="45.67153" lon="5.73944">
        <ele>465</ele>
        <time>2025-05-03T12:08:03.545Z</time>
      </trkpt>
      <trkpt lat="45.67147" lon="5.73938">
        <ele>465</ele>
        <time>2025-05-03T12:08:07.868Z</time>
      </trkpt>
      <trkpt lat="45.67141" lon="5.73934">
        <ele>465</ele>
        <time>2025-05-03T12:08:12.109Z</time>
      </trkpt>
      <trkpt lat="45.67136" lon="5.7393">
        <ele>467</ele>
        <time>2025-05-03T12:08:16.507Z</time>
      </trkpt>
      <trkpt lat="45.6713" lon="5.73925">
        <ele>467</ele>
        <time>2025-05-03T12:08:20.865Z</time>
      </trkpt>
      <trkpt lat="45.67125" lon="5.73919">
        <ele>468</ele>
        <time>2025-05-03T12:08:25.386Z</time>
      </trkpt>
      <trkpt lat="45.6712" lon="5.73914">
        <ele>468</ele>
        <time>2025-05-03T12:08:29.846Z</time>
      </trkpt>
      <trkpt lat="45.67114" lon="5.73908">
        <ele>468</ele>
        <time>2025-05-03T12:08:34.233Z</time>
      </trkpt>
      <trkpt lat="45.67108" lon="5.73902">
        <ele>468</ele>
        <time>2025-05-03T12:08:38.847Z</time>
      </trkpt>
      <trkpt lat="45.67102" lon="5.73897">
        <ele>468</ele>
        <time>2025-05-03T12:08:43.245Z</time>
      </trkpt>
      <trkpt lat="45.67097" lon="5.73889">
        <ele>468</ele>
        <time>2025-05-03T12:08:47.868Z</time>
      </trkpt>
      <trkpt lat="45.67091" lon="5.73884">
        <ele>469</ele>
        <time>2025-05-03T12:08:52.239Z</time>
      </trkpt>
      <trkpt lat="45.67084" lon="5.73879">
        <ele>469</ele>
        <time>2025-05-03T12:08:56.826Z</time>
      </trkpt>
      <trkpt lat="45.67078" lon="5.73872">
        <ele>468</ele>
        <time>2025-05-03T12:09:01.325Z</time>
      </trkpt>
      <trkpt lat="45.67073" lon="5.73867">
        <ele>468</ele>
        <time>2025-05-03T12:09:05.406Z</time>
      </trkpt>
      <trkpt lat="45.67068" lon="5.73861">
        <ele>468</ele>
        <time>2025-05-03T12:09:09.966Z</time>
      </trkpt>
      <trkpt lat="45.67063" lon="5.73855">
        <ele>468</ele>
        <time>2025-05-03T12:09:14.126Z</time>
      </trkpt>
      <trkpt lat="45.67056" lon="5.73849">
        <ele>468</ele>
        <time>2025-05-03T12:09:18.709Z</time>
      </trkpt>
      <trkpt lat="45.67051" lon="5.73843">
        <ele>468</ele>
        <time>2025-05-03T12:09:22.744Z</time>
      </trkpt>
      <trkpt lat="45.67045" lon="5.73839">
        <ele>468</ele>
        <time>2025-05-03T12:09:26.884Z</time>
      </trkpt>
      <trkpt lat="45.67038" lon="5.73836">
        <ele>468</ele>
        <time>2025-05-03T12:09:31.622Z</time>
      </trkpt>
      <trkpt lat="45.67033" lon="5.73835">
        <ele>468</ele>
        <time>2025-05-03T12:09:35.662Z</time>
      </trkpt>
      <trkpt lat="45.67028" lon="5.73834">
        <ele>468</ele>
        <time>2025-05-03T12:09:39.822Z</time>
      </trkpt>
      <trkpt lat="45.67022" lon="5.73833">
        <ele>468</ele>
        <time>2025-05-03T12:09:43.983Z</time>
      </trkpt>
      <trkpt lat="45.67019" lon="5.73823">
        <ele>468</ele>
        <time>2025-05-03T12:09:48.381Z</time>
      </trkpt>
      <trkpt lat="45.67018" lon="5.73811">
        <ele>468</ele>
        <time>2025-05-03T12:09:52.883Z</time>
      </trkpt>
      <trkpt lat="45.67019" lon="5.73802">
        <ele>468</ele>
        <time>2025-05-03T12:09:57.140Z</time>
      </trkpt>
      <trkpt lat="45.67019" lon="5.73792">
        <ele>468</ele>
        <time>2025-05-03T12:10:01.200Z</time>
      </trkpt>
      <trkpt lat="45.67021" lon="5.73782">
        <ele>470</ele>
        <time>2025-05-03T12:10:06.131Z</time>
      </trkpt>
      <trkpt lat="45.67021" lon="5.73773">
        <ele>470</ele>
        <time>2025-05-03T12:10:10.470Z</time>
      </trkpt>
      <trkpt lat="45.67021" lon="5.73762">
        <ele>472</ele>
        <time>2025-05-03T12:10:14.788Z</time>
      </trkpt>
      <trkpt lat="45.67022" lon="5.73753">
        <ele>472</ele>
        <time>2025-05-03T12:10:19.129Z</time>
      </trkpt>
      <trkpt lat="45.67022" lon="5.73744">
        <ele>472</ele>
        <time>2025-05-03T12:10:23.609Z</time>
      </trkpt>
      <trkpt lat="45.67023" lon="5.73736">
        <ele>474</ele>
        <time>2025-05-03T12:10:27.788Z</time>
      </trkpt>
      <trkpt lat="45.67026" lon="5.73727">
        <ele>474</ele>
        <time>2025-05-03T12:10:31.870Z</time>
      </trkpt>
      <trkpt lat="45.67028" lon="5.73717">
        <ele>474</ele>
        <time>2025-05-03T12:10:36.237Z</time>
      </trkpt>
      <trkpt lat="45.67032" lon="5.73707">
        <ele>475</ele>
        <time>2025-05-03T12:10:41.227Z</time>
      </trkpt>
      <trkpt lat="45.67034" lon="5.73699">
        <ele>475</ele>
        <time>2025-05-03T12:10:45.569Z</time>
      </trkpt>
      <trkpt lat="45.67036" lon="5.7369">
        <ele>475</ele>
        <time>2025-05-03T12:10:49.568Z</time>
      </trkpt>
      <trkpt lat="45.67039" lon="5.7368">
        <ele>475</ele>
        <time>2025-05-03T12:10:54.068Z</time>
      </trkpt>
      <trkpt lat="45.67042" lon="5.73671">
        <ele>475</ele>
        <time>2025-05-03T12:10:58.090Z</time>
      </trkpt>
      <trkpt lat="45.67045" lon="5.7366">
        <ele>475</ele>
        <time>2025-05-03T12:11:03.206Z</time>
      </trkpt>
      <trkpt lat="45.67048" lon="5.73651">
        <ele>475</ele>
        <time>2025-05-03T12:11:07.727Z</time>
      </trkpt>
      <trkpt lat="45.67052" lon="5.73642">
        <ele>475</ele>
        <time>2025-05-03T12:11:12.207Z</time>
      </trkpt>
      <trkpt lat="45.67057" lon="5.73635">
        <ele>475</ele>
        <time>2025-05-03T12:11:16.748Z</time>
      </trkpt>
      <trkpt lat="45.67062" lon="5.73626">
        <ele>475</ele>
        <time>2025-05-03T12:11:21.247Z</time>
      </trkpt>
      <trkpt lat="45.67066" lon="5.73617">
        <ele>475</ele>
        <time>2025-05-03T12:11:25.607Z</time>
      </trkpt>
      <trkpt lat="45.6707" lon="5.73609">
        <ele>474</ele>
        <time>2025-05-03T12:11:29.907Z</time>
      </trkpt>
      <trkpt lat="45.67075" lon="5.73603">
        <ele>474</ele>
        <time>2025-05-03T12:11:34.234Z</time>
      </trkpt>
      <trkpt lat="45.67079" lon="5.73596">
        <ele>473</ele>
        <time>2025-05-03T12:11:38.767Z</time>
      </trkpt>
      <trkpt lat="45.67084" lon="5.73591">
        <ele>473</ele>
        <time>2025-05-03T12:11:43.249Z</time>
      </trkpt>
      <trkpt lat="45.67088" lon="5.73583">
        <ele>473</ele>
        <time>2025-05-03T12:11:48.256Z</time>
      </trkpt>
      <trkpt lat="45.6709" lon="5.73575">
        <ele>473</ele>
        <time>2025-05-03T12:11:52.502Z</time>
      </trkpt>
      <trkpt lat="45.6709" lon="5.73568">
        <ele>472</ele>
        <time>2025-05-03T12:11:56.803Z</time>
      </trkpt>
      <trkpt lat="45.67091" lon="5.73562">
        <ele>472</ele>
        <time>2025-05-03T12:12:01.240Z</time>
      </trkpt>
      <trkpt lat="45.6709" lon="5.73551">
        <ele>472</ele>
        <time>2025-05-03T12:12:06.230Z</time>
      </trkpt>
      <trkpt lat="45.67086" lon="5.73542">
        <ele>472</ele>
        <time>2025-05-03T12:12:10.881Z</time>
      </trkpt>
      <trkpt lat="45.67082" lon="5.73538">
        <ele>470</ele>
        <time>2025-05-03T12:12:15.226Z</time>
      </trkpt>
      <trkpt lat="45.67077" lon="5.73535">
        <ele>470</ele>
        <time>2025-05-03T12:12:19.264Z</time>
      </trkpt>
      <trkpt lat="45.6707" lon="5.73529">
        <ele>470</ele>
        <time>2025-05-03T12:12:24.170Z</time>
      </trkpt>
      <trkpt lat="45.67067" lon="5.73522">
        <ele>475</ele>
        <time>2025-05-03T12:12:28.229Z</time>
      </trkpt>
      <trkpt lat="45.67063" lon="5.73518">
        <ele>475</ele>
        <time>2025-05-03T12:12:32.241Z</time>
      </trkpt>
      <trkpt lat="45.6706" lon="5.73514">
        <ele>474</ele>
        <time>2025-05-03T12:12:36.549Z</time>
      </trkpt>
      <trkpt lat="45.67057" lon="5.73508">
        <ele>474</ele>
        <time>2025-05-03T12:12:41.251Z</time>
      </trkpt>
      <trkpt lat="45.67056" lon="5.73505">
        <ele>474</ele>
        <time>2025-05-03T12:12:45.390Z</time>
      </trkpt>
      <trkpt lat="45.67054" lon="5.73503">
        <ele>474</ele>
        <time>2025-05-03T12:12:49.661Z</time>
      </trkpt>
      <trkpt lat="45.67051" lon="5.73499">
        <ele>474</ele>
        <time>2025-05-03T12:12:53.802Z</time>
      </trkpt>
      <trkpt lat="45.67049" lon="5.73496">
        <ele>474</ele>
        <time>2025-05-03T12:12:58.243Z</time>
      </trkpt>
      <trkpt lat="45.67046" lon="5.73489">
        <ele>474</ele>
        <time>2025-05-03T12:13:02.252Z</time>
      </trkpt>
      <trkpt lat="45.6704" lon="5.73482">
        <ele>477</ele>
        <time>2025-05-03T12:13:06.939Z</time>
      </trkpt>
      <trkpt lat="45.67034" lon="5.73475">
        <ele>477</ele>
        <time>2025-05-03T12:13:11.244Z</time>
      </trkpt>
      <trkpt lat="45.67027" lon="5.73466">
        <ele>477</ele>
        <time>2025-05-03T12:13:15.731Z</time>
      </trkpt>
      <trkpt lat="45.6702" lon="5.73455">
        <ele>474</ele>
        <time>2025-05-03T12:13:19.949Z</time>
      </trkpt>
      <trkpt lat="45.67013" lon="5.73448">
        <ele>479</ele>
        <time>2025-05-03T12:13:24.168Z</time>
      </trkpt>
      <trkpt lat="45.67007" lon="5.73441">
        <ele>479</ele>
        <time>2025-05-03T12:13:28.191Z</time>
      </trkpt>
      <trkpt lat="45.67" lon="5.73433">
        <ele>479</ele>
        <time>2025-05-03T12:13:33.088Z</time>
      </trkpt>
      <trkpt lat="45.66994" lon="5.73425">
        <ele>476</ele>
        <time>2025-05-03T12:13:37.248Z</time>
      </trkpt>
      <trkpt lat="45.66989" lon="5.73418">
        <ele>476</ele>
        <time>2025-05-03T12:13:42.247Z</time>
      </trkpt>
      <trkpt lat="45.66985" lon="5.73414">
        <ele>482</ele>
        <time>2025-05-03T12:13:46.251Z</time>
      </trkpt>
      <trkpt lat="45.6698" lon="5.7341">
        <ele>482</ele>
        <time>2025-05-03T12:13:51.027Z</time>
      </trkpt>
      <trkpt lat="45.66974" lon="5.73404">
        <ele>482</ele>
        <time>2025-05-03T12:13:59.627Z</time>
      </trkpt>
      <trkpt lat="45.66972" lon="5.73402">
        <ele>479</ele>
        <time>2025-05-03T12:14:04.008Z</time>
      </trkpt>
      <trkpt lat="45.66971" lon="5.73401">
        <ele>479</ele>
        <time>2025-05-03T12:14:08.246Z</time>
      </trkpt>
      <trkpt lat="45.66969" lon="5.73399">
        <ele>479</ele>
        <time>2025-05-03T12:14:12.666Z</time>
      </trkpt>
      <trkpt lat="45.66967" lon="5.73396">
        <ele>479</ele>
        <time>2025-05-03T12:14:17.087Z</time>
      </trkpt>
      <trkpt lat="45.66962" lon="5.73391">
        <ele>479</ele>
        <time>2025-05-03T12:14:21.845Z</time>
      </trkpt>
      <trkpt lat="45.66956" lon="5.73386">
        <ele>485</ele>
        <time>2025-05-03T12:14:26.005Z</time>
      </trkpt>
      <trkpt lat="45.6695" lon="5.73381">
        <ele>485</ele>
        <time>2025-05-03T12:14:30.233Z</time>
      </trkpt>
      <trkpt lat="45.66944" lon="5.73377">
        <ele>485</ele>
        <time>2025-05-03T12:14:34.244Z</time>
      </trkpt>
      <trkpt lat="45.66937" lon="5.73371">
        <ele>482</ele>
        <time>2025-05-03T12:14:39.243Z</time>
      </trkpt>
      <trkpt lat="45.6693" lon="5.73367">
        <ele>486</ele>
        <time>2025-05-03T12:14:43.866Z</time>
      </trkpt>
      <trkpt lat="45.66922" lon="5.73358">
        <ele>486</ele>
        <time>2025-05-03T12:14:48.240Z</time>
      </trkpt>
      <trkpt lat="45.66913" lon="5.73354">
        <ele>486</ele>
        <time>2025-05-03T12:14:52.825Z</time>
      </trkpt>
      <trkpt lat="45.66903" lon="5.73344">
        <ele>483</ele>
        <time>2025-05-03T12:14:57.883Z</time>
      </trkpt>
      <trkpt lat="45.66896" lon="5.73335">
        <ele>487</ele>
        <time>2025-05-03T12:15:02.236Z</time>
      </trkpt>
      <trkpt lat="45.6689" lon="5.73329">
        <ele>487</ele>
        <time>2025-05-03T12:15:06.241Z</time>
      </trkpt>
      <trkpt lat="45.66885" lon="5.73321">
        <ele>487</ele>
        <time>2025-05-03T12:15:11.244Z</time>
      </trkpt>
      <trkpt lat="45.6688" lon="5.73316">
        <ele>483</ele>
        <time>2025-05-03T12:15:15.382Z</time>
      </trkpt>
      <trkpt lat="45.66875" lon="5.73312">
        <ele>487</ele>
        <time>2025-05-03T12:15:19.964Z</time>
      </trkpt>
      <trkpt lat="45.66867" lon="5.73309">
        <ele>487</ele>
        <time>2025-05-03T12:15:24.244Z</time>
      </trkpt>
      <trkpt lat="45.6686" lon="5.73308">
        <ele>487</ele>
        <time>2025-05-03T12:15:29.003Z</time>
      </trkpt>
      <trkpt lat="45.66854" lon="5.73308">
        <ele>487</ele>
        <time>2025-05-03T12:15:33.245Z</time>
      </trkpt>
      <trkpt lat="45.66848" lon="5.73304">
        <ele>487</ele>
        <time>2025-05-03T12:15:37.762Z</time>
      </trkpt>
      <trkpt lat="45.66843" lon="5.733">
        <ele>490</ele>
        <time>2025-05-03T12:15:41.784Z</time>
      </trkpt>
      <trkpt lat="45.66839" lon="5.73296">
        <ele>490</ele>
        <time>2025-05-03T12:15:45.965Z</time>
      </trkpt>
      <trkpt lat="45.66835" lon="5.7329">
        <ele>486</ele>
        <time>2025-05-03T12:15:50.143Z</time>
      </trkpt>
      <trkpt lat="45.66831" lon="5.73282">
        <ele>486</ele>
        <time>2025-05-03T12:15:54.243Z</time>
      </trkpt>
      <trkpt lat="45.66826" lon="5.73273">
        <ele>486</ele>
        <time>2025-05-03T12:15:59.239Z</time>
      </trkpt>
      <trkpt lat="45.66822" lon="5.73276">
        <ele>486</ele>
        <time>2025-05-03T12:16:03.241Z</time>
      </trkpt>
      <trkpt lat="45.66824" lon="5.73284">
        <ele>486</ele>
        <time>2025-05-03T12:16:07.843Z</time>
      </trkpt>
      <trkpt lat="45.66829" lon="5.73289">
        <ele>486</ele>
        <time>2025-05-03T12:16:12.243Z</time>
      </trkpt>
      <trkpt lat="45.66833" lon="5.73296">
        <ele>490</ele>
        <time>2025-05-03T12:16:16.241Z</time>
      </trkpt>
      <trkpt lat="45.66838" lon="5.73303">
        <ele>490</ele>
        <time>2025-05-03T12:16:21.245Z</time>
      </trkpt>
      <trkpt lat="45.6684" lon="5.7331">
        <ele>490</ele>
        <time>2025-05-03T12:16:25.702Z</time>
      </trkpt>
      <trkpt lat="45.66844" lon="5.73316">
        <ele>490</ele>
        <time>2025-05-03T12:16:29.770Z</time>
      </trkpt>
      <trkpt lat="45.66847" lon="5.73324">
        <ele>492</ele>
        <time>2025-05-03T12:16:33.952Z</time>
      </trkpt>
      <trkpt lat="45.6685" lon="5.73334">
        <ele>490</ele>
        <time>2025-05-03T12:16:38.749Z</time>
      </trkpt>
      <trkpt lat="45.66854" lon="5.73344">
        <ele>490</ele>
        <time>2025-05-03T12:16:42.951Z</time>
      </trkpt>
      <trkpt lat="45.66855" lon="5.73352">
        <ele>492</ele>
        <time>2025-05-03T12:16:47.169Z</time>
      </trkpt>
      <trkpt lat="45.66856" lon="5.73361">
        <ele>492</ele>
        <time>2025-05-03T12:16:51.409Z</time>
      </trkpt>
      <trkpt lat="45.66853" lon="5.73371">
        <ele>492</ele>
        <time>2025-05-03T12:16:55.787Z</time>
      </trkpt>
      <trkpt lat="45.66849" lon="5.73379">
        <ele>493</ele>
        <time>2025-05-03T12:17:00.240Z</time>
      </trkpt>
      <trkpt lat="45.66844" lon="5.73386">
        <ele>495</ele>
        <time>2025-05-03T12:17:04.788Z</time>
      </trkpt>
      <trkpt lat="45.6684" lon="5.73394">
        <ele>495</ele>
        <time>2025-05-03T12:17:09.205Z</time>
      </trkpt>
      <trkpt lat="45.66836" lon="5.73403">
        <ele>496</ele>
        <time>2025-05-03T12:17:13.685Z</time>
      </trkpt>
      <trkpt lat="45.66831" lon="5.73411">
        <ele>496</ele>
        <time>2025-05-03T12:17:18.184Z</time>
      </trkpt>
      <trkpt lat="45.66824" lon="5.73417">
        <ele>496</ele>
        <time>2025-05-03T12:17:22.786Z</time>
      </trkpt>
      <trkpt lat="45.66819" lon="5.73417">
        <ele>498</ele>
        <time>2025-05-03T12:17:27.248Z</time>
      </trkpt>
      <trkpt lat="45.66812" lon="5.73418">
        <ele>498</ele>
        <time>2025-05-03T12:17:31.704Z</time>
      </trkpt>
      <trkpt lat="45.66806" lon="5.73422">
        <ele>498</ele>
        <time>2025-05-03T12:17:36.243Z</time>
      </trkpt>
      <trkpt lat="45.668" lon="5.73424">
        <ele>498</ele>
        <time>2025-05-03T12:17:41.023Z</time>
      </trkpt>
      <trkpt lat="45.66794" lon="5.73422">
        <ele>498</ele>
        <time>2025-05-03T12:17:45.234Z</time>
      </trkpt>
      <trkpt lat="45.66789" lon="5.73417">
        <ele>502</ele>
        <time>2025-05-03T12:17:49.240Z</time>
      </trkpt>
      <trkpt lat="45.66784" lon="5.73411">
        <ele>502</ele>
        <time>2025-05-03T12:17:53.523Z</time>
      </trkpt>
      <trkpt lat="45.66777" lon="5.73407">
        <ele>502</ele>
        <time>2025-05-03T12:17:57.784Z</time>
      </trkpt>
      <trkpt lat="45.6677" lon="5.73405">
        <ele>502</ele>
        <time>2025-05-03T12:18:02.202Z</time>
      </trkpt>
      <trkpt lat="45.66762" lon="5.73405">
        <ele>504</ele>
        <time>2025-05-03T12:18:06.522Z</time>
      </trkpt>
      <trkpt lat="45.66755" lon="5.73404">
        <ele>504</ele>
        <time>2025-05-03T12:18:10.764Z</time>
      </trkpt>
      <trkpt lat="45.66749" lon="5.73404">
        <ele>504</ele>
        <time>2025-05-03T12:18:14.844Z</time>
      </trkpt>
      <trkpt lat="45.66742" lon="5.73402">
        <ele>507</ele>
        <time>2025-05-03T12:18:19.243Z</time>
      </trkpt>
      <trkpt lat="45.66736" lon="5.734">
        <ele>508</ele>
        <time>2025-05-03T12:18:23.244Z</time>
      </trkpt>
      <trkpt lat="45.6673" lon="5.73394">
        <ele>508</ele>
        <time>2025-05-03T12:18:27.582Z</time>
      </trkpt>
      <trkpt lat="45.66724" lon="5.73389">
        <ele>508</ele>
        <time>2025-05-03T12:18:32.062Z</time>
      </trkpt>
      <trkpt lat="45.66721" lon="5.73385">
        <ele>508</ele>
        <time>2025-05-03T12:18:36.238Z</time>
      </trkpt>
      <trkpt lat="45.66716" lon="5.7338">
        <ele>508</ele>
        <time>2025-05-03T12:18:40.942Z</time>
      </trkpt>
      <trkpt lat="45.66711" lon="5.73374">
        <ele>509</ele>
        <time>2025-05-03T12:18:44.963Z</time>
      </trkpt>
      <trkpt lat="45.66705" lon="5.73367">
        <ele>511</ele>
        <time>2025-05-03T12:18:50.121Z</time>
      </trkpt>
      <trkpt lat="45.66703" lon="5.73362">
        <ele>511</ele>
        <time>2025-05-03T12:18:54.900Z</time>
      </trkpt>
      <trkpt lat="45.66701" lon="5.73355">
        <ele>511</ele>
        <time>2025-05-03T12:18:59.060Z</time>
      </trkpt>
      <trkpt lat="45.667" lon="5.73355">
        <ele>511</ele>
        <time>2025-05-03T12:19:03.562Z</time>
      </trkpt>
      <trkpt lat="45.66699" lon="5.73352">
        <ele>511</ele>
        <time>2025-05-03T12:19:08.221Z</time>
      </trkpt>
      <trkpt lat="45.66695" lon="5.73344">
        <ele>513</ele>
        <time>2025-05-03T12:19:12.232Z</time>
      </trkpt>
      <trkpt lat="45.66689" lon="5.73335">
        <ele>513</ele>
        <time>2025-05-03T12:19:17.120Z</time>
      </trkpt>
      <trkpt lat="45.66684" lon="5.73329">
        <ele>513</ele>
        <time>2025-05-03T12:19:21.200Z</time>
      </trkpt>
      <trkpt lat="45.66679" lon="5.73324">
        <ele>514</ele>
        <time>2025-05-03T12:19:25.236Z</time>
      </trkpt>
      <trkpt lat="45.66673" lon="5.73318">
        <ele>513</ele>
        <time>2025-05-03T12:19:29.681Z</time>
      </trkpt>
      <trkpt lat="45.66664" lon="5.73307">
        <ele>513</ele>
        <time>2025-05-03T12:19:33.719Z</time>
      </trkpt>
      <trkpt lat="45.66646" lon="5.73291">
        <ele>514</ele>
        <time>2025-05-03T12:19:38.160Z</time>
      </trkpt>
      <trkpt lat="45.66618" lon="5.73276">
        <ele>517</ele>
        <time>2025-05-03T12:19:43.214Z</time>
      </trkpt>
      <trkpt lat="45.666" lon="5.73267">
        <ele>517</ele>
        <time>2025-05-03T12:19:47.244Z</time>
      </trkpt>
      <trkpt lat="45.66575" lon="5.73254">
        <ele>517</ele>
        <time>2025-05-03T12:19:52.235Z</time>
      </trkpt>
      <trkpt lat="45.66558" lon="5.73246">
        <ele>521</ele>
        <time>2025-05-03T12:19:56.243Z</time>
      </trkpt>
      <trkpt lat="45.66541" lon="5.73239">
        <ele>526</ele>
        <time>2025-05-03T12:20:00.329Z</time>
      </trkpt>
      <trkpt lat="45.66516" lon="5.73229">
        <ele>523</ele>
        <time>2025-05-03T12:20:05.230Z</time>
      </trkpt>
      <trkpt lat="45.66494" lon="5.73227">
        <ele>528</ele>
        <time>2025-05-03T12:20:09.236Z</time>
      </trkpt>
      <trkpt lat="45.66472" lon="5.73231">
        <ele>535</ele>
        <time>2025-05-03T12:20:13.234Z</time>
      </trkpt>
      <trkpt lat="45.66448" lon="5.73233">
        <ele>535</ele>
        <time>2025-05-03T12:20:18.237Z</time>
      </trkpt>
      <trkpt lat="45.66427" lon="5.73238">
        <ele>544</ele>
        <time>2025-05-03T12:20:23.240Z</time>
      </trkpt>
      <trkpt lat="45.66412" lon="5.73243">
        <ele>544</ele>
        <time>2025-05-03T12:20:27.650Z</time>
      </trkpt>
      <trkpt lat="45.66408" lon="5.73245">
        <ele>544</ele>
        <time>2025-05-03T12:20:31.715Z</time>
      </trkpt>
      <trkpt lat="45.66405" lon="5.7325">
        <ele>544</ele>
        <time>2025-05-03T12:20:36.174Z</time>
      </trkpt>
      <trkpt lat="45.66403" lon="5.73253">
        <ele>544</ele>
        <time>2025-05-03T12:20:40.160Z</time>
      </trkpt>
      <trkpt lat="45.66401" lon="5.73256">
        <ele>550</ele>
        <time>2025-05-03T12:20:45.014Z</time>
      </trkpt>
      <trkpt lat="45.66395" lon="5.73264">
        <ele>550</ele>
        <time>2025-05-03T12:20:49.228Z</time>
      </trkpt>
      <trkpt lat="45.66394" lon="5.73266">
        <ele>554</ele>
        <time>2025-05-03T12:20:54.054Z</time>
      </trkpt>
      <trkpt lat="45.66393" lon="5.73269">
        <ele>554</ele>
        <time>2025-05-03T12:20:58.078Z</time>
      </trkpt>
      <trkpt lat="45.66385" lon="5.7328">
        <ele>554</ele>
        <time>2025-05-03T12:21:02.773Z</time>
      </trkpt>
      <trkpt lat="45.66379" lon="5.73287">
        <ele>554</ele>
        <time>2025-05-03T12:21:07.232Z</time>
      </trkpt>
      <trkpt lat="45.66375" lon="5.73295">
        <ele>558</ele>
        <time>2025-05-03T12:21:11.248Z</time>
      </trkpt>
      <trkpt lat="45.6637" lon="5.73306">
        <ele>561</ele>
        <time>2025-05-03T12:21:16.238Z</time>
      </trkpt>
      <trkpt lat="45.66367" lon="5.73315">
        <ele>561</ele>
        <time>2025-05-03T12:21:20.831Z</time>
      </trkpt>
      <trkpt lat="45.66363" lon="5.7332">
        <ele>563</ele>
        <time>2025-05-03T12:21:24.933Z</time>
      </trkpt>
      <trkpt lat="45.66358" lon="5.73326">
        <ele>563</ele>
        <time>2025-05-03T12:21:29.241Z</time>
      </trkpt>
      <trkpt lat="45.66353" lon="5.7333">
        <ele>563</ele>
        <time>2025-05-03T12:21:33.652Z</time>
      </trkpt>
      <trkpt lat="45.66348" lon="5.73333">
        <ele>563</ele>
        <time>2025-05-03T12:21:37.813Z</time>
      </trkpt>
      <trkpt lat="45.66341" lon="5.73331">
        <ele>564</ele>
        <time>2025-05-03T12:21:42.069Z</time>
      </trkpt>
      <trkpt lat="45.66336" lon="5.73333">
        <ele>564</ele>
        <time>2025-05-03T12:21:46.710Z</time>
      </trkpt>
      <trkpt lat="45.66329" lon="5.73333">
        <ele>564</ele>
        <time>2025-05-03T12:21:50.831Z</time>
      </trkpt>
      <trkpt lat="45.66323" lon="5.73332">
        <ele>564</ele>
        <time>2025-05-03T12:21:55.229Z</time>
      </trkpt>
      <trkpt lat="45.66316" lon="5.7333">
        <ele>565</ele>
        <time>2025-05-03T12:22:00.069Z</time>
      </trkpt>
      <trkpt lat="45.66313" lon="5.7333">
        <ele>565</ele>
        <time>2025-05-03T12:22:04.240Z</time>
      </trkpt>
      <trkpt lat="45.66313" lon="5.73329">
        <ele>565</ele>
        <time>2025-05-03T12:22:08.708Z</time>
      </trkpt>
      <trkpt lat="45.66306" lon="5.73329">
        <ele>565</ele>
        <time>2025-05-03T12:22:12.871Z</time>
      </trkpt>
      <trkpt lat="45.663" lon="5.73329">
        <ele>565</ele>
        <time>2025-05-03T12:22:17.070Z</time>
      </trkpt>
      <trkpt lat="45.66296" lon="5.73328">
        <ele>565</ele>
        <time>2025-05-03T12:22:21.236Z</time>
      </trkpt>
      <trkpt lat="45.66295" lon="5.73328">
        <ele>565</ele>
        <time>2025-05-03T12:22:26.244Z</time>
      </trkpt>
      <trkpt lat="45.66293" lon="5.73328">
        <ele>565</ele>
        <time>2025-05-03T12:22:30.308Z</time>
      </trkpt>
      <trkpt lat="45.66287" lon="5.73326">
        <ele>567</ele>
        <time>2025-05-03T12:22:34.910Z</time>
      </trkpt>
      <trkpt lat="45.66281" lon="5.73325">
        <ele>567</ele>
        <time>2025-05-03T12:22:39.253Z</time>
      </trkpt>
      <trkpt lat="45.66276" lon="5.73325">
        <ele>567</ele>
        <time>2025-05-03T12:22:43.749Z</time>
      </trkpt>
      <trkpt lat="45.66269" lon="5.73324">
        <ele>567</ele>
        <time>2025-05-03T12:22:48.236Z</time>
      </trkpt>
      <trkpt lat="45.66266" lon="5.73323">
        <ele>567</ele>
        <time>2025-05-03T12:22:54.235Z</time>
      </trkpt>
      <trkpt lat="45.66259" lon="5.73321">
        <ele>569</ele>
        <time>2025-05-03T12:22:58.808Z</time>
      </trkpt>
      <trkpt lat="45.66253" lon="5.73323">
        <ele>569</ele>
        <time>2025-05-03T12:23:03.227Z</time>
      </trkpt>
      <trkpt lat="45.6625" lon="5.73327">
        <ele>569</ele>
        <time>2025-05-03T12:23:07.666Z</time>
      </trkpt>
      <trkpt lat="45.66248" lon="5.73336">
        <ele>569</ele>
        <time>2025-05-03T12:23:11.988Z</time>
      </trkpt>
      <trkpt lat="45.66246" lon="5.73347">
        <ele>569</ele>
        <time>2025-05-03T12:23:16.506Z</time>
      </trkpt>
      <trkpt lat="45.66244" lon="5.73354">
        <ele>569</ele>
        <time>2025-05-03T12:23:21.230Z</time>
      </trkpt>
      <trkpt lat="45.66245" lon="5.73355">
        <ele>569</ele>
        <time>2025-05-03T12:23:25.608Z</time>
      </trkpt>
      <trkpt lat="45.66243" lon="5.73365">
        <ele>569</ele>
        <time>2025-05-03T12:23:29.647Z</time>
      </trkpt>
      <trkpt lat="45.6624" lon="5.73374">
        <ele>569</ele>
        <time>2025-05-03T12:23:34.018Z</time>
      </trkpt>
      <trkpt lat="45.66235" lon="5.73379">
        <ele>568</ele>
        <time>2025-05-03T12:23:38.095Z</time>
      </trkpt>
      <trkpt lat="45.66226" lon="5.7338">
        <ele>568</ele>
        <time>2025-05-03T12:23:42.955Z</time>
      </trkpt>
      <trkpt lat="45.66218" lon="5.73378">
        <ele>568</ele>
        <time>2025-05-03T12:23:47.555Z</time>
      </trkpt>
      <trkpt lat="45.66213" lon="5.73376">
        <ele>568</ele>
        <time>2025-05-03T12:23:51.695Z</time>
      </trkpt>
      <trkpt lat="45.66208" lon="5.73375">
        <ele>573</ele>
        <time>2025-05-03T12:23:55.774Z</time>
      </trkpt>
      <trkpt lat="45.66202" lon="5.73374">
        <ele>573</ele>
        <time>2025-05-03T12:23:59.993Z</time>
      </trkpt>
      <trkpt lat="45.66195" lon="5.73374">
        <ele>573</ele>
        <time>2025-05-03T12:24:04.630Z</time>
      </trkpt>
      <trkpt lat="45.66191" lon="5.73373">
        <ele>573</ele>
        <time>2025-05-03T12:24:08.830Z</time>
      </trkpt>
      <trkpt lat="45.66189" lon="5.73374">
        <ele>573</ele>
        <time>2025-05-03T12:24:13.237Z</time>
      </trkpt>
      <trkpt lat="45.66184" lon="5.73377">
        <ele>571</ele>
        <time>2025-05-03T12:24:17.248Z</time>
      </trkpt>
      <trkpt lat="45.66177" lon="5.73379">
        <ele>575</ele>
        <time>2025-05-03T12:24:21.469Z</time>
      </trkpt>
      <trkpt lat="45.66171" lon="5.7338">
        <ele>575</ele>
        <time>2025-05-03T12:24:25.911Z</time>
      </trkpt>
      <trkpt lat="45.66165" lon="5.73383">
        <ele>575</ele>
        <time>2025-05-03T12:24:30.130Z</time>
      </trkpt>
      <trkpt lat="45.66158" lon="5.7338">
        <ele>575</ele>
        <time>2025-05-03T12:24:34.550Z</time>
      </trkpt>
      <trkpt lat="45.66158" lon="5.73373">
        <ele>577</ele>
        <time>2025-05-03T12:24:38.589Z</time>
      </trkpt>
      <trkpt lat="45.66159" lon="5.73364">
        <ele>577</ele>
        <time>2025-05-03T12:24:42.789Z</time>
      </trkpt>
      <trkpt lat="45.6616" lon="5.73357">
        <ele>577</ele>
        <time>2025-05-03T12:24:47.238Z</time>
      </trkpt>
      <trkpt lat="45.66158" lon="5.73347">
        <ele>578</ele>
        <time>2025-05-03T12:24:51.409Z</time>
      </trkpt>
      <trkpt lat="45.66158" lon="5.73336">
        <ele>578</ele>
        <time>2025-05-03T12:24:56.243Z</time>
      </trkpt>
      <trkpt lat="45.66157" lon="5.73328">
        <ele>578</ele>
        <time>2025-05-03T12:25:01.237Z</time>
      </trkpt>
      <trkpt lat="45.66155" lon="5.73322">
        <ele>578</ele>
        <time>2025-05-03T12:25:05.708Z</time>
      </trkpt>
      <trkpt lat="45.6615" lon="5.73314">
        <ele>584</ele>
        <time>2025-05-03T12:25:09.986Z</time>
      </trkpt>
      <trkpt lat="45.66148" lon="5.73311">
        <ele>584</ele>
        <time>2025-05-03T12:25:14.258Z</time>
      </trkpt>
      <trkpt lat="45.66146" lon="5.7331">
        <ele>584</ele>
        <time>2025-05-03T12:25:18.588Z</time>
      </trkpt>
      <trkpt lat="45.6614" lon="5.73307">
        <ele>584</ele>
        <time>2025-05-03T12:25:23.047Z</time>
      </trkpt>
      <trkpt lat="45.6613" lon="5.73298">
        <ele>584</ele>
        <time>2025-05-03T12:25:27.236Z</time>
      </trkpt>
      <trkpt lat="45.66125" lon="5.73293">
        <ele>588</ele>
        <time>2025-05-03T12:25:31.239Z</time>
      </trkpt>
      <trkpt lat="45.66118" lon="5.73286">
        <ele>589</ele>
        <time>2025-05-03T12:25:36.244Z</time>
      </trkpt>
      <trkpt lat="45.66114" lon="5.7329">
        <ele>589</ele>
        <time>2025-05-03T12:25:41.240Z</time>
      </trkpt>
      <trkpt lat="45.66109" lon="5.73295">
        <ele>588</ele>
        <time>2025-05-03T12:25:45.929Z</time>
      </trkpt>
      <trkpt lat="45.66106" lon="5.73302">
        <ele>588</ele>
        <time>2025-05-03T12:25:50.238Z</time>
      </trkpt>
      <trkpt lat="45.66102" lon="5.73309">
        <ele>588</ele>
        <time>2025-05-03T12:25:54.837Z</time>
      </trkpt>
      <trkpt lat="45.66097" lon="5.73315">
        <ele>590</ele>
        <time>2025-05-03T12:25:59.038Z</time>
      </trkpt>
      <trkpt lat="45.66092" lon="5.7332">
        <ele>590</ele>
        <time>2025-05-03T12:26:03.245Z</time>
      </trkpt>
      <trkpt lat="45.66088" lon="5.73325">
        <ele>590</ele>
        <time>2025-05-03T12:26:07.576Z</time>
      </trkpt>
      <trkpt lat="45.66082" lon="5.73331">
        <ele>590</ele>
        <time>2025-05-03T12:26:11.615Z</time>
      </trkpt>
      <trkpt lat="45.66078" lon="5.73335">
        <ele>590</ele>
        <time>2025-05-03T12:26:16.248Z</time>
      </trkpt>
      <trkpt lat="45.66073" lon="5.73338">
        <ele>590</ele>
        <time>2025-05-03T12:26:20.931Z</time>
      </trkpt>
      <trkpt lat="45.6607" lon="5.73341">
        <ele>590</ele>
        <time>2025-05-03T12:26:24.932Z</time>
      </trkpt>
      <trkpt lat="45.66066" lon="5.73344">
        <ele>591</ele>
        <time>2025-05-03T12:26:28.953Z</time>
      </trkpt>
      <trkpt lat="45.66061" lon="5.73348">
        <ele>589</ele>
        <time>2025-05-03T12:26:33.052Z</time>
      </trkpt>
      <trkpt lat="45.66057" lon="5.73355">
        <ele>589</ele>
        <time>2025-05-03T12:26:37.243Z</time>
      </trkpt>
      <trkpt lat="45.66052" lon="5.73359">
        <ele>589</ele>
        <time>2025-05-03T12:26:41.733Z</time>
      </trkpt>
      <trkpt lat="45.66048" lon="5.7336">
        <ele>589</ele>
        <time>2025-05-03T12:26:45.813Z</time>
      </trkpt>
      <trkpt lat="45.66041" lon="5.73365">
        <ele>590</ele>
        <time>2025-05-03T12:26:50.015Z</time>
      </trkpt>
      <trkpt lat="45.66037" lon="5.7337">
        <ele>590</ele>
        <time>2025-05-03T12:26:54.413Z</time>
      </trkpt>
      <trkpt lat="45.66034" lon="5.73373">
        <ele>590</ele>
        <time>2025-05-03T12:26:59.075Z</time>
      </trkpt>
      <trkpt lat="45.66029" lon="5.73374">
        <ele>590</ele>
        <time>2025-05-03T12:27:03.232Z</time>
      </trkpt>
      <trkpt lat="45.66023" lon="5.73372">
        <ele>590</ele>
        <time>2025-05-03T12:27:07.372Z</time>
      </trkpt>
      <trkpt lat="45.66016" lon="5.73366">
        <ele>590</ele>
        <time>2025-05-03T12:27:11.772Z</time>
      </trkpt>
      <trkpt lat="45.6601" lon="5.73361">
        <ele>592</ele>
        <time>2025-05-03T12:27:16.233Z</time>
      </trkpt>
      <trkpt lat="45.66004" lon="5.73355">
        <ele>592</ele>
        <time>2025-05-03T12:27:20.751Z</time>
      </trkpt>
      <trkpt lat="45.66001" lon="5.7335">
        <ele>592</ele>
        <time>2025-05-03T12:27:25.240Z</time>
      </trkpt>
      <trkpt lat="45.65996" lon="5.73344">
        <ele>594</ele>
        <time>2025-05-03T12:27:29.911Z</time>
      </trkpt>
      <trkpt lat="45.65992" lon="5.73338">
        <ele>594</ele>
        <time>2025-05-03T12:27:34.609Z</time>
      </trkpt>
      <trkpt lat="45.65988" lon="5.73329">
        <ele>594</ele>
        <time>2025-05-03T12:27:39.231Z</time>
      </trkpt>
      <trkpt lat="45.65986" lon="5.73323">
        <ele>594</ele>
        <time>2025-05-03T12:27:43.246Z</time>
      </trkpt>
      <trkpt lat="45.65983" lon="5.73315">
        <ele>595</ele>
        <time>2025-05-03T12:27:48.242Z</time>
      </trkpt>
      <trkpt lat="45.65979" lon="5.7331">
        <ele>595</ele>
        <time>2025-05-03T12:27:53.234Z</time>
      </trkpt>
      <trkpt lat="45.65977" lon="5.73307">
        <ele>595</ele>
        <time>2025-05-03T12:27:57.249Z</time>
      </trkpt>
      <trkpt lat="45.65974" lon="5.73302">
        <ele>595</ele>
        <time>2025-05-03T12:28:01.239Z</time>
      </trkpt>
      <trkpt lat="45.6597" lon="5.73295">
        <ele>595</ele>
        <time>2025-05-03T12:28:06.237Z</time>
      </trkpt>
      <trkpt lat="45.65965" lon="5.73287">
        <ele>597</ele>
        <time>2025-05-03T12:28:11.232Z</time>
      </trkpt>
      <trkpt lat="45.6596" lon="5.73281">
        <ele>597</ele>
        <time>2025-05-03T12:28:16.244Z</time>
      </trkpt>
      <trkpt lat="45.65955" lon="5.73273">
        <ele>598</ele>
        <time>2025-05-03T12:28:21.240Z</time>
      </trkpt>
      <trkpt lat="45.65952" lon="5.7327">
        <ele>598</ele>
        <time>2025-05-03T12:28:25.248Z</time>
      </trkpt>
      <trkpt lat="45.65947" lon="5.73263">
        <ele>600</ele>
        <time>2025-05-03T12:28:30.239Z</time>
      </trkpt>
      <trkpt lat="45.65944" lon="5.73257">
        <ele>600</ele>
        <time>2025-05-03T12:28:34.495Z</time>
      </trkpt>
      <trkpt lat="45.65941" lon="5.7325">
        <ele>600</ele>
        <time>2025-05-03T12:28:38.796Z</time>
      </trkpt>
      <trkpt lat="45.65939" lon="5.73243">
        <ele>600</ele>
        <time>2025-05-03T12:28:43.240Z</time>
      </trkpt>
      <trkpt lat="45.65937" lon="5.73235">
        <ele>601</ele>
        <time>2025-05-03T12:28:48.254Z</time>
      </trkpt>
      <trkpt lat="45.65934" lon="5.73218">
        <ele>601</ele>
        <time>2025-05-03T12:29:22.239Z</time>
      </trkpt>
      <trkpt lat="45.65934" lon="5.73217">
        <ele>601</ele>
        <time>2025-05-03T12:29:26.732Z</time>
      </trkpt>
      <trkpt lat="45.65931" lon="5.73209">
        <ele>601</ele>
        <time>2025-05-03T12:29:30.971Z</time>
      </trkpt>
      <trkpt lat="45.65927" lon="5.73202">
        <ele>607</ele>
        <time>2025-05-03T12:29:35.209Z</time>
      </trkpt>
      <trkpt lat="45.65923" lon="5.73197">
        <ele>607</ele>
        <time>2025-05-03T12:29:39.530Z</time>
      </trkpt>
      <trkpt lat="45.6592" lon="5.73193">
        <ele>607</ele>
        <time>2025-05-03T12:29:43.789Z</time>
      </trkpt>
      <trkpt lat="45.65917" lon="5.73188">
        <ele>607</ele>
        <time>2025-05-03T12:29:48.048Z</time>
      </trkpt>
      <trkpt lat="45.65912" lon="5.73182">
        <ele>607</ele>
        <time>2025-05-03T12:29:52.209Z</time>
      </trkpt>
      <trkpt lat="45.65909" lon="5.73177">
        <ele>611</ele>
        <time>2025-05-03T12:29:56.234Z</time>
      </trkpt>
      <trkpt lat="45.65905" lon="5.7317">
        <ele>611</ele>
        <time>2025-05-03T12:30:00.497Z</time>
      </trkpt>
      <trkpt lat="45.659" lon="5.73163">
        <ele>613</ele>
        <time>2025-05-03T12:30:05.220Z</time>
      </trkpt>
      <trkpt lat="45.65894" lon="5.73158">
        <ele>613</ele>
        <time>2025-05-03T12:30:09.655Z</time>
      </trkpt>
      <trkpt lat="45.65891" lon="5.73154">
        <ele>613</ele>
        <time>2025-05-03T12:30:14.225Z</time>
      </trkpt>
      <trkpt lat="45.65889" lon="5.73151">
        <ele>614</ele>
        <time>2025-05-03T12:30:18.738Z</time>
      </trkpt>
      <trkpt lat="45.65885" lon="5.73147">
        <ele>614</ele>
        <time>2025-05-03T12:30:23.036Z</time>
      </trkpt>
      <trkpt lat="45.6588" lon="5.73142">
        <ele>614</ele>
        <time>2025-05-03T12:30:27.232Z</time>
      </trkpt>
      <trkpt lat="45.65878" lon="5.7314">
        <ele>614</ele>
        <time>2025-05-03T12:30:31.250Z</time>
      </trkpt>
      <trkpt lat="45.65868" lon="5.73139">
        <ele>613</ele>
        <time>2025-05-03T12:31:17.234Z</time>
      </trkpt>
      <trkpt lat="45.65868" lon="5.73139">
        <ele>613</ele>
        <time>2025-05-03T12:31:22.192Z</time>
      </trkpt>
      <trkpt lat="45.65864" lon="5.73139">
        <ele>613</ele>
        <time>2025-05-03T12:31:26.249Z</time>
      </trkpt>
      <trkpt lat="45.65853" lon="5.73135">
        <ele>613</ele>
        <time>2025-05-03T12:31:31.244Z</time>
      </trkpt>
      <trkpt lat="45.65849" lon="5.73132">
        <ele>613</ele>
        <time>2025-05-03T12:31:35.368Z</time>
      </trkpt>
      <trkpt lat="45.65843" lon="5.7313">
        <ele>612</ele>
        <time>2025-05-03T12:31:39.608Z</time>
      </trkpt>
      <trkpt lat="45.65838" lon="5.73126">
        <ele>612</ele>
        <time>2025-05-03T12:31:44.091Z</time>
      </trkpt>
      <trkpt lat="45.65833" lon="5.73123">
        <ele>614</ele>
        <time>2025-05-03T12:31:48.550Z</time>
      </trkpt>
      <trkpt lat="45.65827" lon="5.7312">
        <ele>614</ele>
        <time>2025-05-03T12:31:52.949Z</time>
      </trkpt>
      <trkpt lat="45.65821" lon="5.73117">
        <ele>614</ele>
        <time>2025-05-03T12:31:57.449Z</time>
      </trkpt>
      <trkpt lat="45.65816" lon="5.73115">
        <ele>615</ele>
        <time>2025-05-03T12:32:01.527Z</time>
      </trkpt>
      <trkpt lat="45.65811" lon="5.73112">
        <ele>615</ele>
        <time>2025-05-03T12:32:05.889Z</time>
      </trkpt>
      <trkpt lat="45.65807" lon="5.73108">
        <ele>615</ele>
        <time>2025-05-03T12:32:10.127Z</time>
      </trkpt>
      <trkpt lat="45.65803" lon="5.73105">
        <ele>615</ele>
        <time>2025-05-03T12:32:14.244Z</time>
      </trkpt>
      <trkpt lat="45.65797" lon="5.73102">
        <ele>615</ele>
        <time>2025-05-03T12:32:18.709Z</time>
      </trkpt>
      <trkpt lat="45.65792" lon="5.731">
        <ele>615</ele>
        <time>2025-05-03T12:32:22.989Z</time>
      </trkpt>
      <trkpt lat="45.65786" lon="5.73098">
        <ele>616</ele>
        <time>2025-05-03T12:32:27.241Z</time>
      </trkpt>
      <trkpt lat="45.6578" lon="5.73095">
        <ele>618</ele>
        <time>2025-05-03T12:32:31.428Z</time>
      </trkpt>
      <trkpt lat="45.65775" lon="5.7309">
        <ele>618</ele>
        <time>2025-05-03T12:32:35.787Z</time>
      </trkpt>
      <trkpt lat="45.6577" lon="5.73085">
        <ele>618</ele>
        <time>2025-05-03T12:32:40.225Z</time>
      </trkpt>
      <trkpt lat="45.65768" lon="5.73083">
        <ele>618</ele>
        <time>2025-05-03T12:32:44.856Z</time>
      </trkpt>
      <trkpt lat="45.65764" lon="5.73078">
        <ele>617</ele>
        <time>2025-05-03T12:32:49.077Z</time>
      </trkpt>
      <trkpt lat="45.6576" lon="5.73072">
        <ele>617</ele>
        <time>2025-05-03T12:32:53.234Z</time>
      </trkpt>
      <trkpt lat="45.65756" lon="5.73067">
        <ele>619</ele>
        <time>2025-05-03T12:32:57.474Z</time>
      </trkpt>
      <trkpt lat="45.65752" lon="5.73062">
        <ele>619</ele>
        <time>2025-05-03T12:33:01.815Z</time>
      </trkpt>
      <trkpt lat="45.65749" lon="5.73056">
        <ele>619</ele>
        <time>2025-05-03T12:33:06.054Z</time>
      </trkpt>
      <trkpt lat="45.65744" lon="5.73051">
        <ele>619</ele>
        <time>2025-05-03T12:33:10.056Z</time>
      </trkpt>
      <trkpt lat="45.65739" lon="5.73046">
        <ele>619</ele>
        <time>2025-05-03T12:33:15.055Z</time>
      </trkpt>
      <trkpt lat="45.65734" lon="5.7304">
        <ele>619</ele>
        <time>2025-05-03T12:33:19.231Z</time>
      </trkpt>
      <trkpt lat="45.65729" lon="5.73035">
        <ele>619</ele>
        <time>2025-05-03T12:33:23.470Z</time>
      </trkpt>
      <trkpt lat="45.65723" lon="5.7303">
        <ele>619</ele>
        <time>2025-05-03T12:33:28.051Z</time>
      </trkpt>
      <trkpt lat="45.65719" lon="5.73025">
        <ele>619</ele>
        <time>2025-05-03T12:33:32.243Z</time>
      </trkpt>
      <trkpt lat="45.65715" lon="5.7302">
        <ele>619</ele>
        <time>2025-05-03T12:33:36.245Z</time>
      </trkpt>
      <trkpt lat="45.65709" lon="5.73013">
        <ele>618</ele>
        <time>2025-05-03T12:33:40.907Z</time>
      </trkpt>
      <trkpt lat="45.65704" lon="5.73004">
        <ele>620</ele>
        <time>2025-05-03T12:33:45.416Z</time>
      </trkpt>
      <trkpt lat="45.65699" lon="5.72998">
        <ele>620</ele>
        <time>2025-05-03T12:33:50.195Z</time>
      </trkpt>
      <trkpt lat="45.65698" lon="5.72997">
        <ele>620</ele>
        <time>2025-05-03T12:33:54.436Z</time>
      </trkpt>
      <trkpt lat="45.65699" lon="5.72998">
        <ele>620</ele>
        <time>2025-05-03T12:34:17.243Z</time>
      </trkpt>
      <trkpt lat="45.65698" lon="5.72997">
        <ele>620</ele>
        <time>2025-05-03T12:34:24.245Z</time>
      </trkpt>
      <trkpt lat="45.65698" lon="5.72997">
        <ele>620</ele>
        <time>2025-05-03T12:34:28.872Z</time>
      </trkpt>
      <trkpt lat="45.65695" lon="5.7299">
        <ele>620</ele>
        <time>2025-05-03T12:34:33.244Z</time>
      </trkpt>
      <trkpt lat="45.65689" lon="5.72984">
        <ele>620</ele>
        <time>2025-05-03T12:34:37.851Z</time>
      </trkpt>
      <trkpt lat="45.65684" lon="5.72977">
        <ele>620</ele>
        <time>2025-05-03T12:34:41.993Z</time>
      </trkpt>
      <trkpt lat="45.65679" lon="5.7297">
        <ele>622</ele>
        <time>2025-05-03T12:34:46.670Z</time>
      </trkpt>
      <trkpt lat="45.65674" lon="5.72961">
        <ele>622</ele>
        <time>2025-05-03T12:34:51.246Z</time>
      </trkpt>
      <trkpt lat="45.6567" lon="5.72953">
        <ele>623</ele>
        <time>2025-05-03T12:34:56.228Z</time>
      </trkpt>
      <trkpt lat="45.65666" lon="5.72947">
        <ele>623</ele>
        <time>2025-05-03T12:35:00.498Z</time>
      </trkpt>
      <trkpt lat="45.65662" lon="5.72939">
        <ele>623</ele>
        <time>2025-05-03T12:35:04.950Z</time>
      </trkpt>
      <trkpt lat="45.65659" lon="5.72931">
        <ele>623</ele>
        <time>2025-05-03T12:35:09.232Z</time>
      </trkpt>
      <trkpt lat="45.65658" lon="5.7293">
        <ele>623</ele>
        <time>2025-05-03T12:35:13.690Z</time>
      </trkpt>
      <trkpt lat="45.65655" lon="5.72923">
        <ele>623</ele>
        <time>2025-05-03T12:35:17.768Z</time>
      </trkpt>
      <trkpt lat="45.65651" lon="5.72914">
        <ele>624</ele>
        <time>2025-05-03T12:35:22.231Z</time>
      </trkpt>
      <trkpt lat="45.65648" lon="5.72904">
        <ele>624</ele>
        <time>2025-05-03T12:35:26.668Z</time>
      </trkpt>
      <trkpt lat="45.65645" lon="5.72896">
        <ele>624</ele>
        <time>2025-05-03T12:35:31.187Z</time>
      </trkpt>
      <trkpt lat="45.65641" lon="5.72884">
        <ele>624</ele>
        <time>2025-05-03T12:35:44.236Z</time>
      </trkpt>
      <trkpt lat="45.6564" lon="5.72883">
        <ele>624</ele>
        <time>2025-05-03T12:35:49.234Z</time>
      </trkpt>
      <trkpt lat="45.65639" lon="5.7288">
        <ele>624</ele>
        <time>2025-05-03T12:35:53.237Z</time>
      </trkpt>
      <trkpt lat="45.65638" lon="5.72877">
        <ele>624</ele>
        <time>2025-05-03T12:35:57.249Z</time>
      </trkpt>
      <trkpt lat="45.65635" lon="5.72875">
        <ele>624</ele>
        <time>2025-05-03T12:36:01.243Z</time>
      </trkpt>
      <trkpt lat="45.65628" lon="5.72859">
        <ele>625</ele>
        <time>2025-05-03T12:36:42.240Z</time>
      </trkpt>
      <trkpt lat="45.65624" lon="5.72853">
        <ele>627</ele>
        <time>2025-05-03T12:36:47.246Z</time>
      </trkpt>
      <trkpt lat="45.65624" lon="5.7285">
        <ele>627</ele>
        <time>2025-05-03T12:36:51.246Z</time>
      </trkpt>
      <trkpt lat="45.65623" lon="5.7285">
        <ele>627</ele>
        <time>2025-05-03T12:36:56.240Z</time>
      </trkpt>
      <trkpt lat="45.65622" lon="5.72847">
        <ele>627</ele>
        <time>2025-05-03T12:37:00.246Z</time>
      </trkpt>
      <trkpt lat="45.65621" lon="5.72841">
        <ele>627</ele>
        <time>2025-05-03T12:37:04.251Z</time>
      </trkpt>
      <trkpt lat="45.65618" lon="5.72832">
        <ele>627</ele>
        <time>2025-05-03T12:37:09.243Z</time>
      </trkpt>
      <trkpt lat="45.65613" lon="5.72824">
        <ele>627</ele>
        <time>2025-05-03T12:37:14.253Z</time>
      </trkpt>
      <trkpt lat="45.65608" lon="5.72817">
        <ele>626</ele>
        <time>2025-05-03T12:37:19.241Z</time>
      </trkpt>
      <trkpt lat="45.65599" lon="5.72812">
        <ele>626</ele>
        <time>2025-05-03T12:37:32.246Z</time>
      </trkpt>
      <trkpt lat="45.65598" lon="5.72811">
        <ele>626</ele>
        <time>2025-05-03T12:37:37.253Z</time>
      </trkpt>
      <trkpt lat="45.65593" lon="5.72804">
        <ele>628</ele>
        <time>2025-05-03T12:37:42.256Z</time>
      </trkpt>
      <trkpt lat="45.65588" lon="5.72798">
        <ele>628</ele>
        <time>2025-05-03T12:37:47.230Z</time>
      </trkpt>
      <trkpt lat="45.65584" lon="5.7279">
        <ele>629</ele>
        <time>2025-05-03T12:37:52.236Z</time>
      </trkpt>
      <trkpt lat="45.65579" lon="5.72785">
        <ele>629</ele>
        <time>2025-05-03T12:37:56.249Z</time>
      </trkpt>
      <trkpt lat="45.65575" lon="5.72777">
        <ele>629</ele>
        <time>2025-05-03T12:38:01.245Z</time>
      </trkpt>
      <trkpt lat="45.65572" lon="5.72771">
        <ele>629</ele>
        <time>2025-05-03T12:38:05.674Z</time>
      </trkpt>
      <trkpt lat="45.65569" lon="5.72763">
        <ele>631</ele>
        <time>2025-05-03T12:38:10.232Z</time>
      </trkpt>
      <trkpt lat="45.65566" lon="5.72757">
        <ele>631</ele>
        <time>2025-05-03T12:38:14.247Z</time>
      </trkpt>
      <trkpt lat="45.65563" lon="5.72751">
        <ele>631</ele>
        <time>2025-05-03T12:38:18.754Z</time>
      </trkpt>
      <trkpt lat="45.65561" lon="5.72746">
        <ele>631</ele>
        <time>2025-05-03T12:38:23.135Z</time>
      </trkpt>
      <trkpt lat="45.65559" lon="5.7274">
        <ele>631</ele>
        <time>2025-05-03T12:38:27.247Z</time>
      </trkpt>
      <trkpt lat="45.65556" lon="5.72734">
        <ele>631</ele>
        <time>2025-05-03T12:38:31.596Z</time>
      </trkpt>
      <trkpt lat="45.65551" lon="5.72728">
        <ele>631</ele>
        <time>2025-05-03T12:38:35.795Z</time>
      </trkpt>
      <trkpt lat="45.65545" lon="5.72724">
        <ele>631</ele>
        <time>2025-05-03T12:38:39.853Z</time>
      </trkpt>
      <trkpt lat="45.65541" lon="5.72718">
        <ele>632</ele>
        <time>2025-05-03T12:38:43.860Z</time>
      </trkpt>
      <trkpt lat="45.65535" lon="5.72713">
        <ele>632</ele>
        <time>2025-05-03T12:38:48.012Z</time>
      </trkpt>
      <trkpt lat="45.6553" lon="5.72708">
        <ele>631</ele>
        <time>2025-05-03T12:38:52.094Z</time>
      </trkpt>
      <trkpt lat="45.65524" lon="5.72702">
        <ele>631</ele>
        <time>2025-05-03T12:38:56.243Z</time>
      </trkpt>
      <trkpt lat="45.6552" lon="5.72699">
        <ele>631</ele>
        <time>2025-05-03T12:39:00.834Z</time>
      </trkpt>
      <trkpt lat="45.65511" lon="5.72689">
        <ele>635</ele>
        <time>2025-05-03T12:39:20.713Z</time>
      </trkpt>
      <trkpt lat="45.65508" lon="5.72687">
        <ele>635</ele>
        <time>2025-05-03T12:39:24.953Z</time>
      </trkpt>
      <trkpt lat="45.65502" lon="5.72682">
        <ele>635</ele>
        <time>2025-05-03T12:39:29.094Z</time>
      </trkpt>
      <trkpt lat="45.65497" lon="5.72676">
        <ele>632</ele>
        <time>2025-05-03T12:39:33.246Z</time>
      </trkpt>
      <trkpt lat="45.65492" lon="5.72672">
        <ele>632</ele>
        <time>2025-05-03T12:39:37.513Z</time>
      </trkpt>
      <trkpt lat="45.65487" lon="5.72667">
        <ele>632</ele>
        <time>2025-05-03T12:39:42.259Z</time>
      </trkpt>
      <trkpt lat="45.65486" lon="5.72665">
        <ele>636</ele>
        <time>2025-05-03T12:39:46.773Z</time>
      </trkpt>
      <trkpt lat="45.65479" lon="5.72657">
        <ele>636</ele>
        <time>2025-05-03T12:39:51.015Z</time>
      </trkpt>
      <trkpt lat="45.65473" lon="5.72652">
        <ele>632</ele>
        <time>2025-05-03T12:39:55.152Z</time>
      </trkpt>
      <trkpt lat="45.65468" lon="5.72649">
        <ele>632</ele>
        <time>2025-05-03T12:39:59.244Z</time>
      </trkpt>
      <trkpt lat="45.65464" lon="5.72646">
        <ele>632</ele>
        <time>2025-05-03T12:40:03.371Z</time>
      </trkpt>
      <trkpt lat="45.6546" lon="5.72642">
        <ele>632</ele>
        <time>2025-05-03T12:40:07.972Z</time>
      </trkpt>
      <trkpt lat="45.65456" lon="5.72638">
        <ele>635</ele>
        <time>2025-05-03T12:40:12.132Z</time>
      </trkpt>
      <trkpt lat="45.6545" lon="5.72633">
        <ele>635</ele>
        <time>2025-05-03T12:40:25.031Z</time>
      </trkpt>
      <trkpt lat="45.65449" lon="5.72631">
        <ele>635</ele>
        <time>2025-05-03T12:40:29.233Z</time>
      </trkpt>
      <trkpt lat="45.65446" lon="5.72629">
        <ele>635</ele>
        <time>2025-05-03T12:40:34.171Z</time>
      </trkpt>
      <trkpt lat="45.65444" lon="5.72629">
        <ele>635</ele>
        <time>2025-05-03T12:40:38.238Z</time>
      </trkpt>
      <trkpt lat="45.65441" lon="5.72626">
        <ele>635</ele>
        <time>2025-05-03T12:40:42.710Z</time>
      </trkpt>
      <trkpt lat="45.65437" lon="5.72618">
        <ele>633</ele>
        <time>2025-05-03T12:41:41.178Z</time>
      </trkpt>
      <trkpt lat="45.65434" lon="5.72616">
        <ele>633</ele>
        <time>2025-05-03T12:41:45.228Z</time>
      </trkpt>
      <trkpt lat="45.65432" lon="5.72613">
        <ele>633</ele>
        <time>2025-05-03T12:41:50.243Z</time>
      </trkpt>
      <trkpt lat="45.65432" lon="5.72611">
        <ele>633</ele>
        <time>2025-05-03T12:41:56.235Z</time>
      </trkpt>
      <trkpt lat="45.65432" lon="5.72611">
        <ele>633</ele>
        <time>2025-05-03T12:42:05.233Z</time>
      </trkpt>
      <trkpt lat="45.65426" lon="5.72609">
        <ele>636</ele>
        <time>2025-05-03T12:42:25.236Z</time>
      </trkpt>
      <trkpt lat="45.65426" lon="5.72609">
        <ele>636</ele>
        <time>2025-05-03T12:42:30.230Z</time>
      </trkpt>
      <trkpt lat="45.65425" lon="5.72609">
        <ele>636</ele>
        <time>2025-05-03T12:42:35.229Z</time>
      </trkpt>
      <trkpt lat="45.65423" lon="5.72607">
        <ele>636</ele>
        <time>2025-05-03T12:42:40.236Z</time>
      </trkpt>
      <trkpt lat="45.65414" lon="5.72604">
        <ele>636</ele>
        <time>2025-05-03T12:42:44.234Z</time>
      </trkpt>
      <trkpt lat="45.65405" lon="5.726">
        <ele>636</ele>
        <time>2025-05-03T12:42:49.230Z</time>
      </trkpt>
      <trkpt lat="45.654" lon="5.72598">
        <ele>636</ele>
        <time>2025-05-03T12:42:53.394Z</time>
      </trkpt>
      <trkpt lat="45.65393" lon="5.72597">
        <ele>635</ele>
        <time>2025-05-03T12:42:58.134Z</time>
      </trkpt>
      <trkpt lat="45.65393" lon="5.72595">
        <ele>635</ele>
        <time>2025-05-03T12:43:03.238Z</time>
      </trkpt>
      <trkpt lat="45.65391" lon="5.72596">
        <ele>635</ele>
        <time>2025-05-03T12:43:07.238Z</time>
      </trkpt>
      <trkpt lat="45.65391" lon="5.72595">
        <ele>635</ele>
        <time>2025-05-03T12:43:12.225Z</time>
      </trkpt>
      <trkpt lat="45.65384" lon="5.72591">
        <ele>635</ele>
        <time>2025-05-03T12:43:16.553Z</time>
      </trkpt>
      <trkpt lat="45.65377" lon="5.72587">
        <ele>635</ele>
        <time>2025-05-03T12:43:20.812Z</time>
      </trkpt>
      <trkpt lat="45.65371" lon="5.72581">
        <ele>634</ele>
        <time>2025-05-03T12:43:25.111Z</time>
      </trkpt>
      <trkpt lat="45.65367" lon="5.72574">
        <ele>634</ele>
        <time>2025-05-03T12:43:29.505Z</time>
      </trkpt>
      <trkpt lat="45.65363" lon="5.72568">
        <ele>633</ele>
        <time>2025-05-03T12:43:33.850Z</time>
      </trkpt>
      <trkpt lat="45.65359" lon="5.72563">
        <ele>633</ele>
        <time>2025-05-03T12:43:38.011Z</time>
      </trkpt>
      <trkpt lat="45.65355" lon="5.72556">
        <ele>633</ele>
        <time>2025-05-03T12:43:42.492Z</time>
      </trkpt>
      <trkpt lat="45.65352" lon="5.72551">
        <ele>633</ele>
        <time>2025-05-03T12:43:46.931Z</time>
      </trkpt>
      <trkpt lat="45.65349" lon="5.72545">
        <ele>633</ele>
        <time>2025-05-03T12:43:51.237Z</time>
      </trkpt>
      <trkpt lat="45.65347" lon="5.72541">
        <ele>634</ele>
        <time>2025-05-03T12:43:56.234Z</time>
      </trkpt>
      <trkpt lat="45.65337" lon="5.7253">
        <ele>634</ele>
        <time>2025-05-03T12:44:14.244Z</time>
      </trkpt>
      <trkpt lat="45.65337" lon="5.7253">
        <ele>634</ele>
        <time>2025-05-03T12:44:18.828Z</time>
      </trkpt>
      <trkpt lat="45.65333" lon="5.72527">
        <ele>634</ele>
        <time>2025-05-03T12:44:23.244Z</time>
      </trkpt>
      <trkpt lat="45.6533" lon="5.7252">
        <ele>634</ele>
        <time>2025-05-03T12:44:27.789Z</time>
      </trkpt>
      <trkpt lat="45.65327" lon="5.72513">
        <ele>634</ele>
        <time>2025-05-03T12:44:32.231Z</time>
      </trkpt>
      <trkpt lat="45.65324" lon="5.72506">
        <ele>634</ele>
        <time>2025-05-03T12:44:36.667Z</time>
      </trkpt>
      <trkpt lat="45.65321" lon="5.725">
        <ele>634</ele>
        <time>2025-05-03T12:44:41.207Z</time>
      </trkpt>
      <trkpt lat="45.65317" lon="5.72494">
        <ele>636</ele>
        <time>2025-05-03T12:44:45.220Z</time>
      </trkpt>
      <trkpt lat="45.65313" lon="5.7249">
        <ele>636</ele>
        <time>2025-05-03T12:44:49.596Z</time>
      </trkpt>
      <trkpt lat="45.65306" lon="5.72487">
        <ele>636</ele>
        <time>2025-05-03T12:44:53.617Z</time>
      </trkpt>
      <trkpt lat="45.65301" lon="5.72487">
        <ele>636</ele>
        <time>2025-05-03T12:44:58.115Z</time>
      </trkpt>
      <trkpt lat="45.65296" lon="5.72489">
        <ele>636</ele>
        <time>2025-05-03T12:45:02.535Z</time>
      </trkpt>
      <trkpt lat="45.65291" lon="5.72492">
        <ele>639</ele>
        <time>2025-05-03T12:45:06.795Z</time>
      </trkpt>
      <trkpt lat="45.65285" lon="5.72493">
        <ele>639</ele>
        <time>2025-05-03T12:45:10.854Z</time>
      </trkpt>
      <trkpt lat="45.65279" lon="5.72494">
        <ele>639</ele>
        <time>2025-05-03T12:45:15.153Z</time>
      </trkpt>
      <trkpt lat="45.65273" lon="5.72495">
        <ele>639</ele>
        <time>2025-05-03T12:45:19.575Z</time>
      </trkpt>
      <trkpt lat="45.65267" lon="5.72497">
        <ele>639</ele>
        <time>2025-05-03T12:45:24.114Z</time>
      </trkpt>
      <trkpt lat="45.6526" lon="5.72499">
        <ele>641</ele>
        <time>2025-05-03T12:45:29.228Z</time>
      </trkpt>
      <trkpt lat="45.65256" lon="5.72497">
        <ele>641</ele>
        <time>2025-05-03T12:45:33.244Z</time>
      </trkpt>
      <trkpt lat="45.65254" lon="5.72495">
        <ele>641</ele>
        <time>2025-05-03T12:45:38.213Z</time>
      </trkpt>
      <trkpt lat="45.65249" lon="5.72496">
        <ele>641</ele>
        <time>2025-05-03T12:45:42.532Z</time>
      </trkpt>
      <trkpt lat="45.65242" lon="5.72497">
        <ele>641</ele>
        <time>2025-05-03T12:45:47.244Z</time>
      </trkpt>
      <trkpt lat="45.65237" lon="5.72497">
        <ele>641</ele>
        <time>2025-05-03T12:45:52.231Z</time>
      </trkpt>
      <trkpt lat="45.65233" lon="5.72497">
        <ele>641</ele>
        <time>2025-05-03T12:45:56.752Z</time>
      </trkpt>
      <trkpt lat="45.65228" lon="5.72499">
        <ele>641</ele>
        <time>2025-05-03T12:46:01.131Z</time>
      </trkpt>
      <trkpt lat="45.65223" lon="5.725">
        <ele>641</ele>
        <time>2025-05-03T12:46:05.553Z</time>
      </trkpt>
      <trkpt lat="45.65218" lon="5.725">
        <ele>641</ele>
        <time>2025-05-03T12:46:09.553Z</time>
      </trkpt>
      <trkpt lat="45.65213" lon="5.725">
        <ele>641</ele>
        <time>2025-05-03T12:46:13.593Z</time>
      </trkpt>
      <trkpt lat="45.65207" lon="5.72501">
        <ele>640</ele>
        <time>2025-05-03T12:46:18.032Z</time>
      </trkpt>
      <trkpt lat="45.65203" lon="5.72501">
        <ele>640</ele>
        <time>2025-05-03T12:46:22.552Z</time>
      </trkpt>
      <trkpt lat="45.65197" lon="5.72501">
        <ele>640</ele>
        <time>2025-05-03T12:46:26.891Z</time>
      </trkpt>
      <trkpt lat="45.65191" lon="5.72503">
        <ele>640</ele>
        <time>2025-05-03T12:46:31.513Z</time>
      </trkpt>
      <trkpt lat="45.65186" lon="5.72506">
        <ele>640</ele>
        <time>2025-05-03T12:46:36.032Z</time>
      </trkpt>
      <trkpt lat="45.6518" lon="5.72508">
        <ele>643</ele>
        <time>2025-05-03T12:46:40.453Z</time>
      </trkpt>
      <trkpt lat="45.65174" lon="5.72509">
        <ele>643</ele>
        <time>2025-05-03T12:46:44.753Z</time>
      </trkpt>
      <trkpt lat="45.65168" lon="5.72509">
        <ele>643</ele>
        <time>2025-05-03T12:46:49.236Z</time>
      </trkpt>
      <trkpt lat="45.65162" lon="5.72509">
        <ele>643</ele>
        <time>2025-05-03T12:46:53.713Z</time>
      </trkpt>
      <trkpt lat="45.65157" lon="5.72509">
        <ele>643</ele>
        <time>2025-05-03T12:46:58.092Z</time>
      </trkpt>
      <trkpt lat="45.65153" lon="5.72509">
        <ele>643</ele>
        <time>2025-05-03T12:47:02.241Z</time>
      </trkpt>
      <trkpt lat="45.65151" lon="5.72509">
        <ele>644</ele>
        <time>2025-05-03T12:47:06.934Z</time>
      </trkpt>
      <trkpt lat="45.65149" lon="5.72511">
        <ele>644</ele>
        <time>2025-05-03T12:47:11.228Z</time>
      </trkpt>
      <trkpt lat="45.65146" lon="5.72514">
        <ele>644</ele>
        <time>2025-05-03T12:47:15.485Z</time>
      </trkpt>
      <trkpt lat="45.65141" lon="5.72514">
        <ele>644</ele>
        <time>2025-05-03T12:47:20.237Z</time>
      </trkpt>
      <trkpt lat="45.65136" lon="5.72514">
        <ele>644</ele>
        <time>2025-05-03T12:47:24.242Z</time>
      </trkpt>
      <trkpt lat="45.65128" lon="5.72514">
        <ele>644</ele>
        <time>2025-05-03T12:47:29.242Z</time>
      </trkpt>
      <trkpt lat="45.65122" lon="5.72515">
        <ele>645</ele>
        <time>2025-05-03T12:47:34.240Z</time>
      </trkpt>
      <trkpt lat="45.65115" lon="5.72516">
        <ele>645</ele>
        <time>2025-05-03T12:47:39.239Z</time>
      </trkpt>
      <trkpt lat="45.65109" lon="5.72516">
        <ele>645</ele>
        <time>2025-05-03T12:47:44.237Z</time>
      </trkpt>
      <trkpt lat="45.65103" lon="5.72517">
        <ele>645</ele>
        <time>2025-05-03T12:47:49.235Z</time>
      </trkpt>
      <trkpt lat="45.65098" lon="5.72518">
        <ele>645</ele>
        <time>2025-05-03T12:47:54.249Z</time>
      </trkpt>
      <trkpt lat="45.65096" lon="5.7252">
        <ele>647</ele>
        <time>2025-05-03T12:47:58.617Z</time>
      </trkpt>
      <trkpt lat="45.6509" lon="5.72521">
        <ele>647</ele>
        <time>2025-05-03T12:48:02.759Z</time>
      </trkpt>
      <trkpt lat="45.65084" lon="5.72521">
        <ele>647</ele>
        <time>2025-05-03T12:48:07.039Z</time>
      </trkpt>
      <trkpt lat="45.65077" lon="5.72522">
        <ele>647</ele>
        <time>2025-05-03T12:48:12.242Z</time>
      </trkpt>
      <trkpt lat="45.6507" lon="5.72524">
        <ele>647</ele>
        <time>2025-05-03T12:48:16.576Z</time>
      </trkpt>
      <trkpt lat="45.65063" lon="5.72526">
        <ele>651</ele>
        <time>2025-05-03T12:48:20.677Z</time>
      </trkpt>
      <trkpt lat="45.65056" lon="5.7253">
        <ele>651</ele>
        <time>2025-05-03T12:48:24.836Z</time>
      </trkpt>
      <trkpt lat="45.6505" lon="5.72527">
        <ele>651</ele>
        <time>2025-05-03T12:48:29.238Z</time>
      </trkpt>
      <trkpt lat="45.65048" lon="5.72517">
        <ele>651</ele>
        <time>2025-05-03T12:48:33.956Z</time>
      </trkpt>
      <trkpt lat="45.65047" lon="5.72508">
        <ele>650</ele>
        <time>2025-05-03T12:48:38.536Z</time>
      </trkpt>
      <trkpt lat="45.65048" lon="5.725">
        <ele>650</ele>
        <time>2025-05-03T12:48:43.246Z</time>
      </trkpt>
      <trkpt lat="45.65047" lon="5.72493">
        <ele>650</ele>
        <time>2025-05-03T12:48:47.754Z</time>
      </trkpt>
      <trkpt lat="45.65044" lon="5.72486">
        <ele>650</ele>
        <time>2025-05-03T12:48:51.774Z</time>
      </trkpt>
      <trkpt lat="45.65039" lon="5.72481">
        <ele>653</ele>
        <time>2025-05-03T12:48:55.933Z</time>
      </trkpt>
      <trkpt lat="45.65033" lon="5.72482">
        <ele>653</ele>
        <time>2025-05-03T12:49:00.071Z</time>
      </trkpt>
      <trkpt lat="45.65027" lon="5.72485">
        <ele>653</ele>
        <time>2025-05-03T12:49:04.245Z</time>
      </trkpt>
      <trkpt lat="45.6502" lon="5.72488">
        <ele>652</ele>
        <time>2025-05-03T12:49:08.593Z</time>
      </trkpt>
      <trkpt lat="45.65013" lon="5.72491">
        <ele>648</ele>
        <time>2025-05-03T12:49:13.252Z</time>
      </trkpt>
      <trkpt lat="45.65006" lon="5.72492">
        <ele>648</ele>
        <time>2025-05-03T12:49:17.413Z</time>
      </trkpt>
      <trkpt lat="45.65" lon="5.72491">
        <ele>648</ele>
        <time>2025-05-03T12:49:21.614Z</time>
      </trkpt>
      <trkpt lat="45.64994" lon="5.72493">
        <ele>648</ele>
        <time>2025-05-03T12:49:26.233Z</time>
      </trkpt>
      <trkpt lat="45.64989" lon="5.72495">
        <ele>648</ele>
        <time>2025-05-03T12:49:30.231Z</time>
      </trkpt>
      <trkpt lat="45.64983" lon="5.72497">
        <ele>645</ele>
        <time>2025-05-03T12:49:34.733Z</time>
      </trkpt>
      <trkpt lat="45.64977" lon="5.725">
        <ele>645</ele>
        <time>2025-05-03T12:49:39.150Z</time>
      </trkpt>
      <trkpt lat="45.64971" lon="5.72502">
        <ele>645</ele>
        <time>2025-05-03T12:49:43.693Z</time>
      </trkpt>
      <trkpt lat="45.64965" lon="5.72504">
        <ele>645</ele>
        <time>2025-05-03T12:49:48.111Z</time>
      </trkpt>
      <trkpt lat="45.6496" lon="5.72507">
        <ele>645</ele>
        <time>2025-05-03T12:49:52.511Z</time>
      </trkpt>
      <trkpt lat="45.64954" lon="5.7251">
        <ele>643</ele>
        <time>2025-05-03T12:49:56.871Z</time>
      </trkpt>
      <trkpt lat="45.64948" lon="5.72511">
        <ele>643</ele>
        <time>2025-05-03T12:50:01.552Z</time>
      </trkpt>
      <trkpt lat="45.64943" lon="5.72512">
        <ele>643</ele>
        <time>2025-05-03T12:50:05.793Z</time>
      </trkpt>
      <trkpt lat="45.64938" lon="5.72514">
        <ele>641</ele>
        <time>2025-05-03T12:50:10.236Z</time>
      </trkpt>
      <trkpt lat="45.64933" lon="5.72517">
        <ele>641</ele>
        <time>2025-05-03T12:50:14.241Z</time>
      </trkpt>
      <trkpt lat="45.64928" lon="5.7252">
        <ele>636</ele>
        <time>2025-05-03T12:50:18.240Z</time>
      </trkpt>
      <trkpt lat="45.64921" lon="5.72521">
        <ele>636</ele>
        <time>2025-05-03T12:50:22.748Z</time>
      </trkpt>
      <trkpt lat="45.64916" lon="5.72522">
        <ele>636</ele>
        <time>2025-05-03T12:50:27.235Z</time>
      </trkpt>
      <trkpt lat="45.64913" lon="5.72523">
        <ele>636</ele>
        <time>2025-05-03T12:50:31.243Z</time>
      </trkpt>
      <trkpt lat="45.64908" lon="5.7253">
        <ele>636</ele>
        <time>2025-05-03T12:50:36.233Z</time>
      </trkpt>
      <trkpt lat="45.64907" lon="5.72536">
        <ele>636</ele>
        <time>2025-05-03T12:50:40.240Z</time>
      </trkpt>
      <trkpt lat="45.64908" lon="5.72546">
        <ele>636</ele>
        <time>2025-05-03T12:50:45.220Z</time>
      </trkpt>
      <trkpt lat="45.64909" lon="5.72553">
        <ele>636</ele>
        <time>2025-05-03T12:50:49.230Z</time>
      </trkpt>
      <trkpt lat="45.64908" lon="5.72561">
        <ele>636</ele>
        <time>2025-05-03T12:50:53.235Z</time>
      </trkpt>
      <trkpt lat="45.64904" lon="5.7257">
        <ele>638</ele>
        <time>2025-05-03T12:50:58.233Z</time>
      </trkpt>
      <trkpt lat="45.64898" lon="5.72575">
        <ele>628</ele>
        <time>2025-05-03T12:51:03.234Z</time>
      </trkpt>
      <trkpt lat="45.64895" lon="5.72575">
        <ele>628</ele>
        <time>2025-05-03T12:51:08.221Z</time>
      </trkpt>
      <trkpt lat="45.64892" lon="5.72569">
        <ele>629</ele>
        <time>2025-05-03T12:51:12.239Z</time>
      </trkpt>
      <trkpt lat="45.64889" lon="5.72559">
        <ele>629</ele>
        <time>2025-05-03T12:51:17.234Z</time>
      </trkpt>
      <trkpt lat="45.64888" lon="5.72549">
        <ele>629</ele>
        <time>2025-05-03T12:51:22.223Z</time>
      </trkpt>
      <trkpt lat="45.64888" lon="5.72544">
        <ele>629</ele>
        <time>2025-05-03T12:51:26.241Z</time>
      </trkpt>
      <trkpt lat="45.64885" lon="5.72539">
        <ele>630</ele>
        <time>2025-05-03T12:51:31.239Z</time>
      </trkpt>
      <trkpt lat="45.6488" lon="5.72531">
        <ele>630</ele>
        <time>2025-05-03T12:51:36.240Z</time>
      </trkpt>
      <trkpt lat="45.64875" lon="5.72526">
        <ele>630</ele>
        <time>2025-05-03T12:51:40.612Z</time>
      </trkpt>
      <trkpt lat="45.64871" lon="5.72521">
        <ele>626</ele>
        <time>2025-05-03T12:51:44.893Z</time>
      </trkpt>
      <trkpt lat="45.64864" lon="5.7252">
        <ele>626</ele>
        <time>2025-05-03T12:51:49.237Z</time>
      </trkpt>
      <trkpt lat="45.64859" lon="5.72516">
        <ele>626</ele>
        <time>2025-05-03T12:51:53.871Z</time>
      </trkpt>
      <trkpt lat="45.64855" lon="5.72511">
        <ele>632</ele>
        <time>2025-05-03T12:51:58.229Z</time>
      </trkpt>
      <trkpt lat="45.64851" lon="5.72508">
        <ele>632</ele>
        <time>2025-05-03T12:52:02.235Z</time>
      </trkpt>
      <trkpt lat="45.64845" lon="5.72504">
        <ele>629</ele>
        <time>2025-05-03T12:52:06.793Z</time>
      </trkpt>
      <trkpt lat="45.6484" lon="5.72501">
        <ele>629</ele>
        <time>2025-05-03T12:52:10.833Z</time>
      </trkpt>
      <trkpt lat="45.64835" lon="5.72496">
        <ele>629</ele>
        <time>2025-05-03T12:52:15.228Z</time>
      </trkpt>
      <trkpt lat="45.6483" lon="5.72494">
        <ele>629</ele>
        <time>2025-05-03T12:52:19.411Z</time>
      </trkpt>
      <trkpt lat="45.64824" lon="5.72493">
        <ele>629</ele>
        <time>2025-05-03T12:52:23.489Z</time>
      </trkpt>
      <trkpt lat="45.64819" lon="5.72495">
        <ele>629</ele>
        <time>2025-05-03T12:52:28.109Z</time>
      </trkpt>
      <trkpt lat="45.64817" lon="5.72499">
        <ele>630</ele>
        <time>2025-05-03T12:52:32.631Z</time>
      </trkpt>
      <trkpt lat="45.64811" lon="5.725">
        <ele>630</ele>
        <time>2025-05-03T12:52:36.731Z</time>
      </trkpt>
      <trkpt lat="45.64805" lon="5.72503">
        <ele>630</ele>
        <time>2025-05-03T12:52:40.832Z</time>
      </trkpt>
      <trkpt lat="45.64797" lon="5.72507">
        <ele>630</ele>
        <time>2025-05-03T12:52:45.254Z</time>
      </trkpt>
      <trkpt lat="45.64789" lon="5.72509">
        <ele>634</ele>
        <time>2025-05-03T12:52:49.811Z</time>
      </trkpt>
      <trkpt lat="45.64782" lon="5.72507">
        <ele>634</ele>
        <time>2025-05-03T12:52:54.330Z</time>
      </trkpt>
      <trkpt lat="45.64777" lon="5.72508">
        <ele>634</ele>
        <time>2025-05-03T12:52:58.991Z</time>
      </trkpt>
      <trkpt lat="45.64769" lon="5.7251">
        <ele>634</ele>
        <time>2025-05-03T12:53:03.582Z</time>
      </trkpt>
      <trkpt lat="45.64762" lon="5.7251">
        <ele>638</ele>
        <time>2025-05-03T12:53:08.090Z</time>
      </trkpt>
      <trkpt lat="45.64756" lon="5.72508">
        <ele>638</ele>
        <time>2025-05-03T12:53:12.111Z</time>
      </trkpt>
      <trkpt lat="45.6475" lon="5.72507">
        <ele>638</ele>
        <time>2025-05-03T12:53:16.152Z</time>
      </trkpt>
      <trkpt lat="45.64744" lon="5.72506">
        <ele>638</ele>
        <time>2025-05-03T12:53:20.239Z</time>
      </trkpt>
      <trkpt lat="45.64739" lon="5.72505">
        <ele>638</ele>
        <time>2025-05-03T12:53:24.411Z</time>
      </trkpt>
      <trkpt lat="45.64733" lon="5.72506">
        <ele>640</ele>
        <time>2025-05-03T12:53:28.491Z</time>
      </trkpt>
      <trkpt lat="45.64728" lon="5.72505">
        <ele>640</ele>
        <time>2025-05-03T12:53:32.634Z</time>
      </trkpt>
      <trkpt lat="45.64721" lon="5.72503">
        <ele>640</ele>
        <time>2025-05-03T12:53:37.150Z</time>
      </trkpt>
      <trkpt lat="45.64714" lon="5.72503">
        <ele>640</ele>
        <time>2025-05-03T12:53:41.710Z</time>
      </trkpt>
      <trkpt lat="45.64708" lon="5.72505">
        <ele>642</ele>
        <time>2025-05-03T12:53:46.208Z</time>
      </trkpt>
      <trkpt lat="45.64702" lon="5.72507">
        <ele>642</ele>
        <time>2025-05-03T12:53:50.233Z</time>
      </trkpt>
      <trkpt lat="45.64696" lon="5.72507">
        <ele>642</ele>
        <time>2025-05-03T12:53:54.288Z</time>
      </trkpt>
      <trkpt lat="45.64691" lon="5.72508">
        <ele>642</ele>
        <time>2025-05-03T12:53:58.330Z</time>
      </trkpt>
      <trkpt lat="45.64687" lon="5.72508">
        <ele>642</ele>
        <time>2025-05-03T12:54:02.508Z</time>
      </trkpt>
      <trkpt lat="45.64682" lon="5.72509">
        <ele>642</ele>
        <time>2025-05-03T12:54:06.529Z</time>
      </trkpt>
      <trkpt lat="45.64677" lon="5.72509">
        <ele>643</ele>
        <time>2025-05-03T12:54:10.648Z</time>
      </trkpt>
      <trkpt lat="45.64673" lon="5.72509">
        <ele>643</ele>
        <time>2025-05-03T12:54:14.711Z</time>
      </trkpt>
      <trkpt lat="45.64669" lon="5.72507">
        <ele>643</ele>
        <time>2025-05-03T12:54:18.789Z</time>
      </trkpt>
      <trkpt lat="45.64662" lon="5.72506">
        <ele>643</ele>
        <time>2025-05-03T12:54:23.227Z</time>
      </trkpt>
      <trkpt lat="45.64652" lon="5.72504">
        <ele>642</ele>
        <time>2025-05-03T12:54:27.869Z</time>
      </trkpt>
      <trkpt lat="45.64645" lon="5.72501">
        <ele>642</ele>
        <time>2025-05-03T12:54:32.146Z</time>
      </trkpt>
      <trkpt lat="45.64637" lon="5.72497">
        <ele>642</ele>
        <time>2025-05-03T12:54:36.235Z</time>
      </trkpt>
      <trkpt lat="45.64631" lon="5.72492">
        <ele>642</ele>
        <time>2025-05-03T12:54:40.231Z</time>
      </trkpt>
      <trkpt lat="45.64627" lon="5.7249">
        <ele>642</ele>
        <time>2025-05-03T12:54:44.229Z</time>
      </trkpt>
      <trkpt lat="45.64622" lon="5.72491">
        <ele>641</ele>
        <time>2025-05-03T12:54:48.955Z</time>
      </trkpt>
      <trkpt lat="45.64614" lon="5.72493">
        <ele>641</ele>
        <time>2025-05-03T12:54:53.396Z</time>
      </trkpt>
      <trkpt lat="45.64607" lon="5.72495">
        <ele>641</ele>
        <time>2025-05-03T12:54:57.895Z</time>
      </trkpt>
      <trkpt lat="45.646" lon="5.72497">
        <ele>641</ele>
        <time>2025-05-03T12:55:02.035Z</time>
      </trkpt>
      <trkpt lat="45.64595" lon="5.72499">
        <ele>644</ele>
        <time>2025-05-03T12:55:06.221Z</time>
      </trkpt>
      <trkpt lat="45.6459" lon="5.72501">
        <ele>644</ele>
        <time>2025-05-03T12:55:10.575Z</time>
      </trkpt>
      <trkpt lat="45.64584" lon="5.725">
        <ele>644</ele>
        <time>2025-05-03T12:55:14.794Z</time>
      </trkpt>
      <trkpt lat="45.64579" lon="5.72497">
        <ele>644</ele>
        <time>2025-05-03T12:55:19.193Z</time>
      </trkpt>
      <trkpt lat="45.64572" lon="5.72494">
        <ele>644</ele>
        <time>2025-05-03T12:55:23.588Z</time>
      </trkpt>
      <trkpt lat="45.64566" lon="5.72492">
        <ele>647</ele>
        <time>2025-05-03T12:55:28.014Z</time>
      </trkpt>
      <trkpt lat="45.64559" lon="5.72491">
        <ele>647</ele>
        <time>2025-05-03T12:55:32.515Z</time>
      </trkpt>
      <trkpt lat="45.64554" lon="5.72493">
        <ele>647</ele>
        <time>2025-05-03T12:55:36.533Z</time>
      </trkpt>
      <trkpt lat="45.64548" lon="5.72496">
        <ele>647</ele>
        <time>2025-05-03T12:55:40.892Z</time>
      </trkpt>
      <trkpt lat="45.64541" lon="5.72497">
        <ele>647</ele>
        <time>2025-05-03T12:55:45.333Z</time>
      </trkpt>
      <trkpt lat="45.64535" lon="5.72497">
        <ele>647</ele>
        <time>2025-05-03T12:55:49.775Z</time>
      </trkpt>
      <trkpt lat="45.64529" lon="5.72497">
        <ele>647</ele>
        <time>2025-05-03T12:55:53.873Z</time>
      </trkpt>
      <trkpt lat="45.64522" lon="5.72495">
        <ele>647</ele>
        <time>2025-05-03T12:55:57.911Z</time>
      </trkpt>
      <trkpt lat="45.64516" lon="5.72494">
        <ele>647</ele>
        <time>2025-05-03T12:56:01.949Z</time>
      </trkpt>
      <trkpt lat="45.6451" lon="5.72493">
        <ele>649</ele>
        <time>2025-05-03T12:56:06.011Z</time>
      </trkpt>
      <trkpt lat="45.64504" lon="5.72494">
        <ele>649</ele>
        <time>2025-05-03T12:56:10.222Z</time>
      </trkpt>
      <trkpt lat="45.64497" lon="5.72494">
        <ele>649</ele>
        <time>2025-05-03T12:56:15.169Z</time>
      </trkpt>
      <trkpt lat="45.64491" lon="5.72493">
        <ele>649</ele>
        <time>2025-05-03T12:56:19.222Z</time>
      </trkpt>
      <trkpt lat="45.64486" lon="5.72492">
        <ele>648</ele>
        <time>2025-05-03T12:56:23.608Z</time>
      </trkpt>
      <trkpt lat="45.64479" lon="5.72491">
        <ele>648</ele>
        <time>2025-05-03T12:56:27.828Z</time>
      </trkpt>
      <trkpt lat="45.64474" lon="5.7249">
        <ele>648</ele>
        <time>2025-05-03T12:56:32.067Z</time>
      </trkpt>
      <trkpt lat="45.64469" lon="5.72487">
        <ele>648</ele>
        <time>2025-05-03T12:56:36.118Z</time>
      </trkpt>
      <trkpt lat="45.64464" lon="5.72485">
        <ele>656</ele>
        <time>2025-05-03T12:56:40.195Z</time>
      </trkpt>
      <trkpt lat="45.64458" lon="5.72483">
        <ele>658</ele>
        <time>2025-05-03T12:56:44.232Z</time>
      </trkpt>
      <trkpt lat="45.64452" lon="5.7248">
        <ele>658</ele>
        <time>2025-05-03T12:56:48.639Z</time>
      </trkpt>
      <trkpt lat="45.64447" lon="5.72475">
        <ele>658</ele>
        <time>2025-05-03T12:56:52.955Z</time>
      </trkpt>
      <trkpt lat="45.64442" lon="5.72474">
        <ele>658</ele>
        <time>2025-05-03T12:56:57.232Z</time>
      </trkpt>
      <trkpt lat="45.64439" lon="5.72473">
        <ele>658</ele>
        <time>2025-05-03T12:57:01.456Z</time>
      </trkpt>
      <trkpt lat="45.64433" lon="5.7247">
        <ele>658</ele>
        <time>2025-05-03T12:57:05.998Z</time>
      </trkpt>
      <trkpt lat="45.64429" lon="5.72467">
        <ele>659</ele>
        <time>2025-05-03T12:57:10.243Z</time>
      </trkpt>
      <trkpt lat="45.64423" lon="5.72466">
        <ele>659</ele>
        <time>2025-05-03T12:57:14.478Z</time>
      </trkpt>
      <trkpt lat="45.64417" lon="5.72463">
        <ele>659</ele>
        <time>2025-05-03T12:57:18.897Z</time>
      </trkpt>
      <trkpt lat="45.64411" lon="5.72461">
        <ele>659</ele>
        <time>2025-05-03T12:57:23.225Z</time>
      </trkpt>
      <trkpt lat="45.64404" lon="5.72459">
        <ele>659</ele>
        <time>2025-05-03T12:57:27.877Z</time>
      </trkpt>
      <trkpt lat="45.64398" lon="5.72457">
        <ele>666</ele>
        <time>2025-05-03T12:57:32.337Z</time>
      </trkpt>
      <trkpt lat="45.64391" lon="5.72454">
        <ele>666</ele>
        <time>2025-05-03T12:57:37.236Z</time>
      </trkpt>
      <trkpt lat="45.64385" lon="5.7245">
        <ele>666</ele>
        <time>2025-05-03T12:57:41.416Z</time>
      </trkpt>
      <trkpt lat="45.64378" lon="5.72448">
        <ele>666</ele>
        <time>2025-05-03T12:57:45.435Z</time>
      </trkpt>
      <trkpt lat="45.64372" lon="5.72446">
        <ele>665</ele>
        <time>2025-05-03T12:57:49.834Z</time>
      </trkpt>
      <trkpt lat="45.64366" lon="5.72444">
        <ele>665</ele>
        <time>2025-05-03T12:57:54.226Z</time>
      </trkpt>
      <trkpt lat="45.6436" lon="5.72441">
        <ele>665</ele>
        <time>2025-05-03T12:57:58.236Z</time>
      </trkpt>
      <trkpt lat="45.64355" lon="5.72438">
        <ele>665</ele>
        <time>2025-05-03T12:58:02.415Z</time>
      </trkpt>
      <trkpt lat="45.6435" lon="5.72436">
        <ele>665</ele>
        <time>2025-05-03T12:58:06.580Z</time>
      </trkpt>
      <trkpt lat="45.64345" lon="5.72431">
        <ele>663</ele>
        <time>2025-05-03T12:58:10.815Z</time>
      </trkpt>
      <trkpt lat="45.6434" lon="5.72428">
        <ele>666</ele>
        <time>2025-05-03T12:58:14.857Z</time>
      </trkpt>
      <trkpt lat="45.64334" lon="5.72426">
        <ele>666</ele>
        <time>2025-05-03T12:58:18.994Z</time>
      </trkpt>
      <trkpt lat="45.64329" lon="5.72424">
        <ele>666</ele>
        <time>2025-05-03T12:58:23.092Z</time>
      </trkpt>
      <trkpt lat="45.64323" lon="5.72423">
        <ele>666</ele>
        <time>2025-05-03T12:58:27.672Z</time>
      </trkpt>
      <trkpt lat="45.64318" lon="5.72425">
        <ele>664</ele>
        <time>2025-05-03T12:58:32.171Z</time>
      </trkpt>
      <trkpt lat="45.64312" lon="5.72425">
        <ele>664</ele>
        <time>2025-05-03T12:58:36.512Z</time>
      </trkpt>
      <trkpt lat="45.64307" lon="5.72424">
        <ele>664</ele>
        <time>2025-05-03T12:58:40.969Z</time>
      </trkpt>
      <trkpt lat="45.64303" lon="5.72421">
        <ele>664</ele>
        <time>2025-05-03T12:58:45.328Z</time>
      </trkpt>
      <trkpt lat="45.64297" lon="5.7242">
        <ele>664</ele>
        <time>2025-05-03T12:58:50.220Z</time>
      </trkpt>
      <trkpt lat="45.64293" lon="5.72419">
        <ele>664</ele>
        <time>2025-05-03T12:58:54.236Z</time>
      </trkpt>
      <trkpt lat="45.64293" lon="5.72418">
        <ele>664</ele>
        <time>2025-05-03T12:58:59.222Z</time>
      </trkpt>
      <trkpt lat="45.64293" lon="5.72418">
        <ele>664</ele>
        <time>2025-05-03T12:59:03.224Z</time>
      </trkpt>
      <trkpt lat="45.64286" lon="5.72415">
        <ele>660</ele>
        <time>2025-05-03T12:59:08.224Z</time>
      </trkpt>
      <trkpt lat="45.64278" lon="5.72413">
        <ele>660</ele>
        <time>2025-05-03T12:59:13.229Z</time>
      </trkpt>
      <trkpt lat="45.64271" lon="5.72411">
        <ele>660</ele>
        <time>2025-05-03T12:59:18.227Z</time>
      </trkpt>
      <trkpt lat="45.64265" lon="5.72409">
        <ele>660</ele>
        <time>2025-05-03T12:59:22.229Z</time>
      </trkpt>
      <trkpt lat="45.64259" lon="5.72408">
        <ele>657</ele>
        <time>2025-05-03T12:59:26.893Z</time>
      </trkpt>
      <trkpt lat="45.64253" lon="5.72407">
        <ele>657</ele>
        <time>2025-05-03T12:59:30.972Z</time>
      </trkpt>
      <trkpt lat="45.64245" lon="5.72405">
        <ele>657</ele>
        <time>2025-05-03T12:59:35.753Z</time>
      </trkpt>
      <trkpt lat="45.64239" lon="5.72402">
        <ele>660</ele>
        <time>2025-05-03T12:59:40.226Z</time>
      </trkpt>
      <trkpt lat="45.64233" lon="5.72402">
        <ele>661</ele>
        <time>2025-05-03T12:59:44.913Z</time>
      </trkpt>
      <trkpt lat="45.64226" lon="5.72402">
        <ele>661</ele>
        <time>2025-05-03T12:59:49.011Z</time>
      </trkpt>
      <trkpt lat="45.6422" lon="5.72403">
        <ele>658</ele>
        <time>2025-05-03T12:59:53.171Z</time>
      </trkpt>
      <trkpt lat="45.64213" lon="5.72404">
        <ele>658</ele>
        <time>2025-05-03T12:59:57.235Z</time>
      </trkpt>
      <trkpt lat="45.64207" lon="5.72405">
        <ele>658</ele>
        <time>2025-05-03T13:00:01.237Z</time>
      </trkpt>
      <trkpt lat="45.64201" lon="5.72406">
        <ele>658</ele>
        <time>2025-05-03T13:00:05.954Z</time>
      </trkpt>
      <trkpt lat="45.64196" lon="5.72408">
        <ele>658</ele>
        <time>2025-05-03T13:00:10.032Z</time>
      </trkpt>
      <trkpt lat="45.6419" lon="5.72408">
        <ele>658</ele>
        <time>2025-05-03T13:00:14.131Z</time>
      </trkpt>
      <trkpt lat="45.64184" lon="5.72408">
        <ele>658</ele>
        <time>2025-05-03T13:00:18.234Z</time>
      </trkpt>
      <trkpt lat="45.64178" lon="5.72408">
        <ele>657</ele>
        <time>2025-05-03T13:00:22.873Z</time>
      </trkpt>
      <trkpt lat="45.64171" lon="5.72407">
        <ele>657</ele>
        <time>2025-05-03T13:00:27.431Z</time>
      </trkpt>
      <trkpt lat="45.64166" lon="5.72406">
        <ele>657</ele>
        <time>2025-05-03T13:00:31.449Z</time>
      </trkpt>
      <trkpt lat="45.64161" lon="5.72404">
        <ele>657</ele>
        <time>2025-05-03T13:00:35.609Z</time>
      </trkpt>
      <trkpt lat="45.64157" lon="5.72402">
        <ele>663</ele>
        <time>2025-05-03T13:00:39.910Z</time>
      </trkpt>
      <trkpt lat="45.64153" lon="5.724">
        <ele>660</ele>
        <time>2025-05-03T13:00:44.049Z</time>
      </trkpt>
      <trkpt lat="45.64149" lon="5.72402">
        <ele>660</ele>
        <time>2025-05-03T13:00:48.247Z</time>
      </trkpt>
      <trkpt lat="45.64141" lon="5.72397">
        <ele>660</ele>
        <time>2025-05-03T13:00:52.672Z</time>
      </trkpt>
      <trkpt lat="45.64134" lon="5.72395">
        <ele>660</ele>
        <time>2025-05-03T13:00:57.237Z</time>
      </trkpt>
      <trkpt lat="45.64128" lon="5.72392">
        <ele>660</ele>
        <time>2025-05-03T13:01:02.030Z</time>
      </trkpt>
      <trkpt lat="45.64122" lon="5.72387">
        <ele>657</ele>
        <time>2025-05-03T13:01:06.230Z</time>
      </trkpt>
      <trkpt lat="45.64116" lon="5.72386">
        <ele>657</ele>
        <time>2025-05-03T13:01:10.529Z</time>
      </trkpt>
      <trkpt lat="45.64109" lon="5.72383">
        <ele>657</ele>
        <time>2025-05-03T13:01:15.030Z</time>
      </trkpt>
      <trkpt lat="45.641" lon="5.72379">
        <ele>657</ele>
        <time>2025-05-03T13:01:19.237Z</time>
      </trkpt>
      <trkpt lat="45.64094" lon="5.7238">
        <ele>654</ele>
        <time>2025-05-03T13:01:23.791Z</time>
      </trkpt>
      <trkpt lat="45.6409" lon="5.72379">
        <ele>654</ele>
        <time>2025-05-03T13:01:28.188Z</time>
      </trkpt>
      <trkpt lat="45.64085" lon="5.72374">
        <ele>657</ele>
        <time>2025-05-03T13:01:32.234Z</time>
      </trkpt>
      <trkpt lat="45.64076" lon="5.72369">
        <ele>657</ele>
        <time>2025-05-03T13:01:37.228Z</time>
      </trkpt>
      <trkpt lat="45.64067" lon="5.72363">
        <ele>655</ele>
        <time>2025-05-03T13:01:42.235Z</time>
      </trkpt>
      <trkpt lat="45.64063" lon="5.72357">
        <ele>655</ele>
        <time>2025-05-03T13:01:46.236Z</time>
      </trkpt>
      <trkpt lat="45.6406" lon="5.72351">
        <ele>655</ele>
        <time>2025-05-03T13:01:51.239Z</time>
      </trkpt>
      <trkpt lat="45.64053" lon="5.72344">
        <ele>657</ele>
        <time>2025-05-03T13:02:34.186Z</time>
      </trkpt>
      <trkpt lat="45.64052" lon="5.72343">
        <ele>657</ele>
        <time>2025-05-03T13:02:39.186Z</time>
      </trkpt>
      <trkpt lat="45.64052" lon="5.72343">
        <ele>657</ele>
        <time>2025-05-03T13:02:45.207Z</time>
      </trkpt>
      <trkpt lat="45.64052" lon="5.72343">
        <ele>657</ele>
        <time>2025-05-03T13:02:50.182Z</time>
      </trkpt>
      <trkpt lat="45.64049" lon="5.7234">
        <ele>657</ele>
        <time>2025-05-03T13:02:55.215Z</time>
      </trkpt>
      <trkpt lat="45.64047" lon="5.72338">
        <ele>657</ele>
        <time>2025-05-03T13:03:01.187Z</time>
      </trkpt>
      <trkpt lat="45.64046" lon="5.72337">
        <ele>657</ele>
        <time>2025-05-03T13:03:07.186Z</time>
      </trkpt>
      <trkpt lat="45.64045" lon="5.72337">
        <ele>657</ele>
        <time>2025-05-03T13:03:12.211Z</time>
      </trkpt>
      <trkpt lat="45.64041" lon="5.72336">
        <ele>657</ele>
        <time>2025-05-03T13:03:17.235Z</time>
      </trkpt>
      <trkpt lat="45.64029" lon="5.72329">
        <ele>657</ele>
        <time>2025-05-03T13:03:21.235Z</time>
      </trkpt>
      <trkpt lat="45.64018" lon="5.72325">
        <ele>657</ele>
        <time>2025-05-03T13:03:26.222Z</time>
      </trkpt>
      <trkpt lat="45.64012" lon="5.72324">
        <ele>658</ele>
        <time>2025-05-03T13:03:30.233Z</time>
      </trkpt>
      <trkpt lat="45.64006" lon="5.72323">
        <ele>658</ele>
        <time>2025-05-03T13:03:35.224Z</time>
      </trkpt>
      <trkpt lat="45.64001" lon="5.72321">
        <ele>658</ele>
        <time>2025-05-03T13:03:40.231Z</time>
      </trkpt>
      <trkpt lat="45.64" lon="5.7232">
        <ele>658</ele>
        <time>2025-05-03T13:03:55.224Z</time>
      </trkpt>
      <trkpt lat="45.63996" lon="5.7232">
        <ele>658</ele>
        <time>2025-05-03T13:04:00.233Z</time>
      </trkpt>
      <trkpt lat="45.63995" lon="5.7232">
        <ele>658</ele>
        <time>2025-05-03T13:04:04.237Z</time>
      </trkpt>
      <trkpt lat="45.63992" lon="5.72321">
        <ele>658</ele>
        <time>2025-05-03T13:04:09.231Z</time>
      </trkpt>
      <trkpt lat="45.63988" lon="5.72323">
        <ele>658</ele>
        <time>2025-05-03T13:04:14.232Z</time>
      </trkpt>
      <trkpt lat="45.63979" lon="5.72323">
        <ele>659</ele>
        <time>2025-05-03T13:04:19.222Z</time>
      </trkpt>
      <trkpt lat="45.6397" lon="5.72324">
        <ele>659</ele>
        <time>2025-05-03T13:04:24.223Z</time>
      </trkpt>
      <trkpt lat="45.63962" lon="5.72325">
        <ele>659</ele>
        <time>2025-05-03T13:04:28.232Z</time>
      </trkpt>
      <trkpt lat="45.63956" lon="5.72325">
        <ele>658</ele>
        <time>2025-05-03T13:04:33.230Z</time>
      </trkpt>
      <trkpt lat="45.63949" lon="5.72327">
        <ele>658</ele>
        <time>2025-05-03T13:04:38.232Z</time>
      </trkpt>
      <trkpt lat="45.63941" lon="5.72328">
        <ele>658</ele>
        <time>2025-05-03T13:04:43.231Z</time>
      </trkpt>
      <trkpt lat="45.63933" lon="5.72327">
        <ele>658</ele>
        <time>2025-05-03T13:04:48.225Z</time>
      </trkpt>
      <trkpt lat="45.63927" lon="5.72326">
        <ele>658</ele>
        <time>2025-05-03T13:04:53.226Z</time>
      </trkpt>
      <trkpt lat="45.63918" lon="5.72323">
        <ele>658</ele>
        <time>2025-05-03T13:04:58.230Z</time>
      </trkpt>
      <trkpt lat="45.63911" lon="5.72323">
        <ele>658</ele>
        <time>2025-05-03T13:05:02.234Z</time>
      </trkpt>
      <trkpt lat="45.63905" lon="5.72324">
        <ele>658</ele>
        <time>2025-05-03T13:05:07.230Z</time>
      </trkpt>
      <trkpt lat="45.63895" lon="5.72327">
        <ele>660</ele>
        <time>2025-05-03T13:05:12.221Z</time>
      </trkpt>
      <trkpt lat="45.63891" lon="5.72327">
        <ele>660</ele>
        <time>2025-05-03T13:05:16.230Z</time>
      </trkpt>
      <trkpt lat="45.63885" lon="5.72328">
        <ele>660</ele>
        <time>2025-05-03T13:05:20.237Z</time>
      </trkpt>
      <trkpt lat="45.63881" lon="5.7233">
        <ele>660</ele>
        <time>2025-05-03T13:05:24.240Z</time>
      </trkpt>
      <trkpt lat="45.63873" lon="5.72333">
        <ele>662</ele>
        <time>2025-05-03T13:05:29.224Z</time>
      </trkpt>
      <trkpt lat="45.63867" lon="5.72336">
        <ele>662</ele>
        <time>2025-05-03T13:05:33.215Z</time>
      </trkpt>
      <trkpt lat="45.63862" lon="5.72336">
        <ele>662</ele>
        <time>2025-05-03T13:05:38.237Z</time>
      </trkpt>
      <trkpt lat="45.63855" lon="5.72333">
        <ele>662</ele>
        <time>2025-05-03T13:05:42.228Z</time>
      </trkpt>
      <trkpt lat="45.63849" lon="5.7233">
        <ele>662</ele>
        <time>2025-05-03T13:05:46.248Z</time>
      </trkpt>
      <trkpt lat="45.63845" lon="5.7233">
        <ele>662</ele>
        <time>2025-05-03T13:05:51.225Z</time>
      </trkpt>
      <trkpt lat="45.63841" lon="5.7233">
        <ele>662</ele>
        <time>2025-05-03T13:05:56.227Z</time>
      </trkpt>
      <trkpt lat="45.63838" lon="5.72331">
        <ele>662</ele>
        <time>2025-05-03T13:06:00.247Z</time>
      </trkpt>
      <trkpt lat="45.63833" lon="5.72333">
        <ele>662</ele>
        <time>2025-05-03T13:06:05.243Z</time>
      </trkpt>
      <trkpt lat="45.63829" lon="5.72334">
        <ele>662</ele>
        <time>2025-05-03T13:06:10.256Z</time>
      </trkpt>
      <trkpt lat="45.63817" lon="5.72334">
        <ele>659</ele>
        <time>2025-05-03T13:06:15.240Z</time>
      </trkpt>
      <trkpt lat="45.6381" lon="5.72334">
        <ele>659</ele>
        <time>2025-05-03T13:06:19.255Z</time>
      </trkpt>
      <trkpt lat="45.63805" lon="5.72333">
        <ele>659</ele>
        <time>2025-05-03T13:06:24.231Z</time>
      </trkpt>
      <trkpt lat="45.63801" lon="5.72333">
        <ele>659</ele>
        <time>2025-05-03T13:06:34.217Z</time>
      </trkpt>
      <trkpt lat="45.638" lon="5.72333">
        <ele>659</ele>
        <time>2025-05-03T13:06:38.248Z</time>
      </trkpt>
      <trkpt lat="45.63797" lon="5.72333">
        <ele>659</ele>
        <time>2025-05-03T13:06:43.234Z</time>
      </trkpt>
      <trkpt lat="45.63795" lon="5.72333">
        <ele>659</ele>
        <time>2025-05-03T13:06:47.236Z</time>
      </trkpt>
      <trkpt lat="45.63792" lon="5.72333">
        <ele>659</ele>
        <time>2025-05-03T13:06:52.225Z</time>
      </trkpt>
      <trkpt lat="45.63788" lon="5.72333">
        <ele>659</ele>
        <time>2025-05-03T13:06:56.225Z</time>
      </trkpt>
      <trkpt lat="45.63783" lon="5.72332">
        <ele>659</ele>
        <time>2025-05-03T13:07:00.792Z</time>
      </trkpt>
      <trkpt lat="45.63777" lon="5.72329">
        <ele>659</ele>
        <time>2025-05-03T13:07:04.871Z</time>
      </trkpt>
      <trkpt lat="45.63769" lon="5.72329">
        <ele>659</ele>
        <time>2025-05-03T13:07:09.237Z</time>
      </trkpt>
      <trkpt lat="45.6376" lon="5.72331">
        <ele>659</ele>
        <time>2025-05-03T13:07:13.600Z</time>
      </trkpt>
      <trkpt lat="45.63752" lon="5.72334">
        <ele>659</ele>
        <time>2025-05-03T13:07:17.750Z</time>
      </trkpt>
      <trkpt lat="45.63744" lon="5.72336">
        <ele>659</ele>
        <time>2025-05-03T13:07:22.242Z</time>
      </trkpt>
      <trkpt lat="45.63735" lon="5.72337">
        <ele>657</ele>
        <time>2025-05-03T13:07:26.952Z</time>
      </trkpt>
      <trkpt lat="45.63725" lon="5.72337">
        <ele>657</ele>
        <time>2025-05-03T13:07:31.226Z</time>
      </trkpt>
      <trkpt lat="45.63715" lon="5.7234">
        <ele>657</ele>
        <time>2025-05-03T13:07:35.710Z</time>
      </trkpt>
      <trkpt lat="45.63707" lon="5.72337">
        <ele>657</ele>
        <time>2025-05-03T13:07:40.088Z</time>
      </trkpt>
      <trkpt lat="45.63701" lon="5.72337">
        <ele>657</ele>
        <time>2025-05-03T13:07:44.589Z</time>
      </trkpt>
      <trkpt lat="45.63695" lon="5.7234">
        <ele>657</ele>
        <time>2025-05-03T13:07:48.853Z</time>
      </trkpt>
      <trkpt lat="45.6369" lon="5.72343">
        <ele>657</ele>
        <time>2025-05-03T13:07:52.970Z</time>
      </trkpt>
      <trkpt lat="45.63684" lon="5.72345">
        <ele>657</ele>
        <time>2025-05-03T13:07:57.233Z</time>
      </trkpt>
      <trkpt lat="45.6368" lon="5.72345">
        <ele>659</ele>
        <time>2025-05-03T13:08:01.233Z</time>
      </trkpt>
      <trkpt lat="45.63674" lon="5.72345">
        <ele>659</ele>
        <time>2025-05-03T13:08:06.051Z</time>
      </trkpt>
      <trkpt lat="45.63668" lon="5.72346">
        <ele>659</ele>
        <time>2025-05-03T13:08:10.232Z</time>
      </trkpt>
      <trkpt lat="45.63662" lon="5.72346">
        <ele>659</ele>
        <time>2025-05-03T13:08:14.237Z</time>
      </trkpt>
      <trkpt lat="45.63661" lon="5.72346">
        <ele>659</ele>
        <time>2025-05-03T13:08:18.670Z</time>
      </trkpt>
      <trkpt lat="45.63655" lon="5.72347">
        <ele>659</ele>
        <time>2025-05-03T13:08:22.792Z</time>
      </trkpt>
      <trkpt lat="45.63649" lon="5.72347">
        <ele>659</ele>
        <time>2025-05-03T13:08:27.011Z</time>
      </trkpt>
      <trkpt lat="45.63643" lon="5.72347">
        <ele>659</ele>
        <time>2025-05-03T13:08:31.032Z</time>
      </trkpt>
      <trkpt lat="45.63636" lon="5.72348">
        <ele>651</ele>
        <time>2025-05-03T13:08:35.223Z</time>
      </trkpt>
      <trkpt lat="45.63629" lon="5.7235">
        <ele>651</ele>
        <time>2025-05-03T13:08:39.929Z</time>
      </trkpt>
      <trkpt lat="45.63624" lon="5.72349">
        <ele>648</ele>
        <time>2025-05-03T13:08:44.239Z</time>
      </trkpt>
      <trkpt lat="45.63619" lon="5.7235">
        <ele>648</ele>
        <time>2025-05-03T13:08:48.648Z</time>
      </trkpt>
      <trkpt lat="45.63614" lon="5.7235">
        <ele>648</ele>
        <time>2025-05-03T13:08:53.107Z</time>
      </trkpt>
      <trkpt lat="45.63608" lon="5.72352">
        <ele>648</ele>
        <time>2025-05-03T13:08:57.229Z</time>
      </trkpt>
      <trkpt lat="45.636" lon="5.7235">
        <ele>648</ele>
        <time>2025-05-03T13:09:01.728Z</time>
      </trkpt>
      <trkpt lat="45.63592" lon="5.72353">
        <ele>647</ele>
        <time>2025-05-03T13:09:05.870Z</time>
      </trkpt>
      <trkpt lat="45.63586" lon="5.72357">
        <ele>647</ele>
        <time>2025-05-03T13:09:10.207Z</time>
      </trkpt>
      <trkpt lat="45.63579" lon="5.7236">
        <ele>647</ele>
        <time>2025-05-03T13:09:14.469Z</time>
      </trkpt>
      <trkpt lat="45.63571" lon="5.72361">
        <ele>647</ele>
        <time>2025-05-03T13:09:18.809Z</time>
      </trkpt>
      <trkpt lat="45.63563" lon="5.7236">
        <ele>643</ele>
        <time>2025-05-03T13:09:23.368Z</time>
      </trkpt>
      <trkpt lat="45.63557" lon="5.7236">
        <ele>643</ele>
        <time>2025-05-03T13:09:27.747Z</time>
      </trkpt>
      <trkpt lat="45.63552" lon="5.72361">
        <ele>643</ele>
        <time>2025-05-03T13:09:32.107Z</time>
      </trkpt>
      <trkpt lat="45.63547" lon="5.72359">
        <ele>643</ele>
        <time>2025-05-03T13:09:36.230Z</time>
      </trkpt>
      <trkpt lat="45.63543" lon="5.72356">
        <ele>643</ele>
        <time>2025-05-03T13:09:40.687Z</time>
      </trkpt>
      <trkpt lat="45.63538" lon="5.7235">
        <ele>644</ele>
        <time>2025-05-03T13:09:44.868Z</time>
      </trkpt>
      <trkpt lat="45.63534" lon="5.72344">
        <ele>650</ele>
        <time>2025-05-03T13:09:48.987Z</time>
      </trkpt>
      <trkpt lat="45.6353" lon="5.72338">
        <ele>650</ele>
        <time>2025-05-03T13:09:54.036Z</time>
      </trkpt>
      <trkpt lat="45.63524" lon="5.72333">
        <ele>650</ele>
        <time>2025-05-03T13:09:58.456Z</time>
      </trkpt>
      <trkpt lat="45.6352" lon="5.72327">
        <ele>650</ele>
        <time>2025-05-03T13:10:02.475Z</time>
      </trkpt>
      <trkpt lat="45.63518" lon="5.72322">
        <ele>650</ele>
        <time>2025-05-03T13:10:06.677Z</time>
      </trkpt>
      <trkpt lat="45.63515" lon="5.72318">
        <ele>658</ele>
        <time>2025-05-03T13:10:10.874Z</time>
      </trkpt>
      <trkpt lat="45.63511" lon="5.72314">
        <ele>656</ele>
        <time>2025-05-03T13:10:15.236Z</time>
      </trkpt>
      <trkpt lat="45.63508" lon="5.72301">
        <ele>656</ele>
        <time>2025-05-03T13:10:20.235Z</time>
      </trkpt>
      <trkpt lat="45.63508" lon="5.72298">
        <ele>656</ele>
        <time>2025-05-03T13:10:25.229Z</time>
      </trkpt>
      <trkpt lat="45.63507" lon="5.72293">
        <ele>656</ele>
        <time>2025-05-03T13:10:30.226Z</time>
      </trkpt>
      <trkpt lat="45.63502" lon="5.72285">
        <ele>664</ele>
        <time>2025-05-03T13:10:35.226Z</time>
      </trkpt>
      <trkpt lat="45.63496" lon="5.7228">
        <ele>664</ele>
        <time>2025-05-03T13:10:40.221Z</time>
      </trkpt>
      <trkpt lat="45.63492" lon="5.72275">
        <ele>664</ele>
        <time>2025-05-03T13:10:44.223Z</time>
      </trkpt>
      <trkpt lat="45.63492" lon="5.72274">
        <ele>664</ele>
        <time>2025-05-03T13:10:48.227Z</time>
      </trkpt>
      <trkpt lat="45.63485" lon="5.72272">
        <ele>662</ele>
        <time>2025-05-03T13:10:53.225Z</time>
      </trkpt>
      <trkpt lat="45.63477" lon="5.72271">
        <ele>662</ele>
        <time>2025-05-03T13:10:57.228Z</time>
      </trkpt>
      <trkpt lat="45.63468" lon="5.72273">
        <ele>662</ele>
        <time>2025-05-03T13:11:02.225Z</time>
      </trkpt>
      <trkpt lat="45.63462" lon="5.72272">
        <ele>662</ele>
        <time>2025-05-03T13:11:07.233Z</time>
      </trkpt>
      <trkpt lat="45.63457" lon="5.72271">
        <ele>661</ele>
        <time>2025-05-03T13:11:12.223Z</time>
      </trkpt>
      <trkpt lat="45.63451" lon="5.72272">
        <ele>661</ele>
        <time>2025-05-03T13:11:16.226Z</time>
      </trkpt>
      <trkpt lat="45.63443" lon="5.72272">
        <ele>661</ele>
        <time>2025-05-03T13:11:25.228Z</time>
      </trkpt>
      <trkpt lat="45.63442" lon="5.72272">
        <ele>661</ele>
        <time>2025-05-03T13:11:30.222Z</time>
      </trkpt>
      <trkpt lat="45.63442" lon="5.72272">
        <ele>661</ele>
        <time>2025-05-03T13:11:34.229Z</time>
      </trkpt>
      <trkpt lat="45.63439" lon="5.72269">
        <ele>661</ele>
        <time>2025-05-03T13:11:39.231Z</time>
      </trkpt>
      <trkpt lat="45.63433" lon="5.72256">
        <ele>668</ele>
        <time>2025-05-03T13:11:44.225Z</time>
      </trkpt>
      <trkpt lat="45.63432" lon="5.72252">
        <ele>668</ele>
        <time>2025-05-03T13:11:48.224Z</time>
      </trkpt>
      <trkpt lat="45.6343" lon="5.72245">
        <ele>668</ele>
        <time>2025-05-03T13:11:53.226Z</time>
      </trkpt>
      <trkpt lat="45.63426" lon="5.72237">
        <ele>668</ele>
        <time>2025-05-03T13:11:58.221Z</time>
      </trkpt>
      <trkpt lat="45.63425" lon="5.72234">
        <ele>671</ele>
        <time>2025-05-03T13:12:03.235Z</time>
      </trkpt>
      <trkpt lat="45.63424" lon="5.72233">
        <ele>671</ele>
        <time>2025-05-03T13:12:08.218Z</time>
      </trkpt>
      <trkpt lat="45.63423" lon="5.72233">
        <ele>671</ele>
        <time>2025-05-03T13:12:13.210Z</time>
      </trkpt>
      <trkpt lat="45.63422" lon="5.72227">
        <ele>671</ele>
        <time>2025-05-03T13:12:17.231Z</time>
      </trkpt>
      <trkpt lat="45.63417" lon="5.72219">
        <ele>671</ele>
        <time>2025-05-03T13:12:21.232Z</time>
      </trkpt>
      <trkpt lat="45.63411" lon="5.72217">
        <ele>671</ele>
        <time>2025-05-03T13:12:26.216Z</time>
      </trkpt>
      <trkpt lat="45.63406" lon="5.72218">
        <ele>671</ele>
        <time>2025-05-03T13:12:31.220Z</time>
      </trkpt>
      <trkpt lat="45.63403" lon="5.72222">
        <ele>671</ele>
        <time>2025-05-03T13:12:35.218Z</time>
      </trkpt>
      <trkpt lat="45.634" lon="5.7223">
        <ele>672</ele>
        <time>2025-05-03T13:12:40.222Z</time>
      </trkpt>
      <trkpt lat="45.63397" lon="5.72236">
        <ele>672</ele>
        <time>2025-05-03T13:12:45.209Z</time>
      </trkpt>
      <trkpt lat="45.63393" lon="5.72241">
        <ele>670</ele>
        <time>2025-05-03T13:12:49.220Z</time>
      </trkpt>
      <trkpt lat="45.63389" lon="5.72245">
        <ele>670</ele>
        <time>2025-05-03T13:12:54.208Z</time>
      </trkpt>
      <trkpt lat="45.63385" lon="5.72247">
        <ele>670</ele>
        <time>2025-05-03T13:12:58.210Z</time>
      </trkpt>
      <trkpt lat="45.63377" lon="5.72252">
        <ele>670</ele>
        <time>2025-05-03T13:13:02.221Z</time>
      </trkpt>
      <trkpt lat="45.63374" lon="5.72253">
        <ele>672</ele>
        <time>2025-05-03T13:13:06.223Z</time>
      </trkpt>
      <trkpt lat="45.6337" lon="5.72254">
        <ele>672</ele>
        <time>2025-05-03T13:13:10.223Z</time>
      </trkpt>
      <trkpt lat="45.63368" lon="5.72255">
        <ele>672</ele>
        <time>2025-05-03T13:13:15.218Z</time>
      </trkpt>
      <trkpt lat="45.63364" lon="5.7226">
        <ele>672</ele>
        <time>2025-05-03T13:13:20.219Z</time>
      </trkpt>
      <trkpt lat="45.63358" lon="5.72263">
        <ele>672</ele>
        <time>2025-05-03T13:13:24.227Z</time>
      </trkpt>
      <trkpt lat="45.63353" lon="5.72266">
        <ele>667</ele>
        <time>2025-05-03T13:13:28.225Z</time>
      </trkpt>
      <trkpt lat="45.63351" lon="5.72269">
        <ele>667</ele>
        <time>2025-05-03T13:13:32.225Z</time>
      </trkpt>
      <trkpt lat="45.63343" lon="5.72279">
        <ele>671</ele>
        <time>2025-05-03T13:13:37.222Z</time>
      </trkpt>
      <trkpt lat="45.63336" lon="5.72288">
        <ele>671</ele>
        <time>2025-05-03T13:13:42.229Z</time>
      </trkpt>
      <trkpt lat="45.63327" lon="5.7229">
        <ele>671</ele>
        <time>2025-05-03T13:13:47.228Z</time>
      </trkpt>
      <trkpt lat="45.63319" lon="5.72291">
        <ele>675</ele>
        <time>2025-05-03T13:13:52.217Z</time>
      </trkpt>
      <trkpt lat="45.63312" lon="5.7229">
        <ele>675</ele>
        <time>2025-05-03T13:13:56.207Z</time>
      </trkpt>
      <trkpt lat="45.63303" lon="5.72289">
        <ele>675</ele>
        <time>2025-05-03T13:14:01.215Z</time>
      </trkpt>
      <trkpt lat="45.63297" lon="5.7229">
        <ele>675</ele>
        <time>2025-05-03T13:14:06.211Z</time>
      </trkpt>
      <trkpt lat="45.63293" lon="5.7229">
        <ele>675</ele>
        <time>2025-05-03T13:14:10.223Z</time>
      </trkpt>
      <trkpt lat="45.63287" lon="5.72293">
        <ele>671</ele>
        <time>2025-05-03T13:14:14.890Z</time>
      </trkpt>
      <trkpt lat="45.63282" lon="5.72296">
        <ele>671</ele>
        <time>2025-05-03T13:14:19.209Z</time>
      </trkpt>
      <trkpt lat="45.63277" lon="5.72298">
        <ele>671</ele>
        <time>2025-05-03T13:14:23.227Z</time>
      </trkpt>
      <trkpt lat="45.6327" lon="5.72298">
        <ele>671</ele>
        <time>2025-05-03T13:14:28.071Z</time>
      </trkpt>
      <trkpt lat="45.63266" lon="5.72299">
        <ele>671</ele>
        <time>2025-05-03T13:14:32.224Z</time>
      </trkpt>
      <trkpt lat="45.6326" lon="5.72301">
        <ele>672</ele>
        <time>2025-05-03T13:14:36.427Z</time>
      </trkpt>
      <trkpt lat="45.63253" lon="5.72303">
        <ele>672</ele>
        <time>2025-05-03T13:14:40.508Z</time>
      </trkpt>
      <trkpt lat="45.63246" lon="5.72303">
        <ele>672</ele>
        <time>2025-05-03T13:14:44.749Z</time>
      </trkpt>
      <trkpt lat="45.6324" lon="5.72303">
        <ele>672</ele>
        <time>2025-05-03T13:14:48.909Z</time>
      </trkpt>
      <trkpt lat="45.63234" lon="5.72303">
        <ele>672</ele>
        <time>2025-05-03T13:14:52.970Z</time>
      </trkpt>
      <trkpt lat="45.63229" lon="5.72302">
        <ele>672</ele>
        <time>2025-05-03T13:14:56.989Z</time>
      </trkpt>
      <trkpt lat="45.63224" lon="5.72303">
        <ele>672</ele>
        <time>2025-05-03T13:15:01.151Z</time>
      </trkpt>
      <trkpt lat="45.63218" lon="5.72304">
        <ele>672</ele>
        <time>2025-05-03T13:15:05.231Z</time>
      </trkpt>
      <trkpt lat="45.63213" lon="5.72305">
        <ele>672</ele>
        <time>2025-05-03T13:15:09.869Z</time>
      </trkpt>
      <trkpt lat="45.63209" lon="5.72304">
        <ele>672</ele>
        <time>2025-05-03T13:15:13.989Z</time>
      </trkpt>
      <trkpt lat="45.63208" lon="5.72305">
        <ele>673</ele>
        <time>2025-05-03T13:15:18.229Z</time>
      </trkpt>
      <trkpt lat="45.63207" lon="5.72304">
        <ele>673</ele>
        <time>2025-05-03T13:15:31.169Z</time>
      </trkpt>
      <trkpt lat="45.632" lon="5.72306">
        <ele>673</ele>
        <time>2025-05-03T13:15:35.526Z</time>
      </trkpt>
      <trkpt lat="45.63194" lon="5.72307">
        <ele>673</ele>
        <time>2025-05-03T13:15:39.908Z</time>
      </trkpt>
      <trkpt lat="45.63188" lon="5.72306">
        <ele>673</ele>
        <time>2025-05-03T13:15:44.222Z</time>
      </trkpt>
      <trkpt lat="45.63181" lon="5.72305">
        <ele>673</ele>
        <time>2025-05-03T13:15:48.507Z</time>
      </trkpt>
      <trkpt lat="45.6317" lon="5.72301">
        <ele>672</ele>
        <time>2025-05-03T13:15:53.223Z</time>
      </trkpt>
      <trkpt lat="45.63159" lon="5.72296">
        <ele>672</ele>
        <time>2025-05-03T13:15:58.230Z</time>
      </trkpt>
      <trkpt lat="45.63152" lon="5.72295">
        <ele>673</ele>
        <time>2025-05-03T13:16:03.196Z</time>
      </trkpt>
      <trkpt lat="45.63145" lon="5.72294">
        <ele>673</ele>
        <time>2025-05-03T13:16:07.219Z</time>
      </trkpt>
      <trkpt lat="45.63138" lon="5.72291">
        <ele>677</ele>
        <time>2025-05-03T13:16:11.617Z</time>
      </trkpt>
      <trkpt lat="45.63132" lon="5.72293">
        <ele>673</ele>
        <time>2025-05-03T13:16:15.698Z</time>
      </trkpt>
      <trkpt lat="45.63127" lon="5.72296">
        <ele>673</ele>
        <time>2025-05-03T13:16:20.117Z</time>
      </trkpt>
      <trkpt lat="45.63122" lon="5.723">
        <ele>675</ele>
        <time>2025-05-03T13:16:24.176Z</time>
      </trkpt>
      <trkpt lat="45.63116" lon="5.72303">
        <ele>675</ele>
        <time>2025-05-03T13:16:29.117Z</time>
      </trkpt>
      <trkpt lat="45.6311" lon="5.72306">
        <ele>675</ele>
        <time>2025-05-03T13:16:33.227Z</time>
      </trkpt>
      <trkpt lat="45.63104" lon="5.72309">
        <ele>675</ele>
        <time>2025-05-03T13:16:37.233Z</time>
      </trkpt>
      <trkpt lat="45.63099" lon="5.72312">
        <ele>675</ele>
        <time>2025-05-03T13:16:41.657Z</time>
      </trkpt>
      <trkpt lat="45.63092" lon="5.72314">
        <ele>675</ele>
        <time>2025-05-03T13:16:45.836Z</time>
      </trkpt>
      <trkpt lat="45.63086" lon="5.72315">
        <ele>675</ele>
        <time>2025-05-03T13:16:50.077Z</time>
      </trkpt>
      <trkpt lat="45.6308" lon="5.72313">
        <ele>675</ele>
        <time>2025-05-03T13:16:54.615Z</time>
      </trkpt>
      <trkpt lat="45.63076" lon="5.72314">
        <ele>675</ele>
        <time>2025-05-03T13:16:58.754Z</time>
      </trkpt>
      <trkpt lat="45.6307" lon="5.72311">
        <ele>675</ele>
        <time>2025-05-03T13:17:02.957Z</time>
      </trkpt>
      <trkpt lat="45.63064" lon="5.72311">
        <ele>678</ele>
        <time>2025-05-03T13:17:07.135Z</time>
      </trkpt>
      <trkpt lat="45.63059" lon="5.7231">
        <ele>678</ele>
        <time>2025-05-03T13:17:11.233Z</time>
      </trkpt>
      <trkpt lat="45.63053" lon="5.72314">
        <ele>678</ele>
        <time>2025-05-03T13:17:15.354Z</time>
      </trkpt>
      <trkpt lat="45.63046" lon="5.72317">
        <ele>678</ele>
        <time>2025-05-03T13:17:19.595Z</time>
      </trkpt>
      <trkpt lat="45.63039" lon="5.72318">
        <ele>681</ele>
        <time>2025-05-03T13:17:24.016Z</time>
      </trkpt>
      <trkpt lat="45.63033" lon="5.72319">
        <ele>681</ele>
        <time>2025-05-03T13:17:28.237Z</time>
      </trkpt>
      <trkpt lat="45.63028" lon="5.72321">
        <ele>679</ele>
        <time>2025-05-03T13:17:32.713Z</time>
      </trkpt>
      <trkpt lat="45.63024" lon="5.72322">
        <ele>679</ele>
        <time>2025-05-03T13:17:36.853Z</time>
      </trkpt>
      <trkpt lat="45.63023" lon="5.72324">
        <ele>679</ele>
        <time>2025-05-03T13:17:41.227Z</time>
      </trkpt>
      <trkpt lat="45.63023" lon="5.72325">
        <ele>679</ele>
        <time>2025-05-03T13:17:46.234Z</time>
      </trkpt>
      <trkpt lat="45.63021" lon="5.72327">
        <ele>679</ele>
        <time>2025-05-03T13:17:50.239Z</time>
      </trkpt>
      <trkpt lat="45.63015" lon="5.72332">
        <ele>679</ele>
        <time>2025-05-03T13:17:55.228Z</time>
      </trkpt>
      <trkpt lat="45.63007" lon="5.72341">
        <ele>682</ele>
        <time>2025-05-03T13:18:00.226Z</time>
      </trkpt>
      <trkpt lat="45.62995" lon="5.72346">
        <ele>682</ele>
        <time>2025-05-03T13:18:05.242Z</time>
      </trkpt>
      <trkpt lat="45.62985" lon="5.72348">
        <ele>683</ele>
        <time>2025-05-03T13:18:10.232Z</time>
      </trkpt>
      <trkpt lat="45.62976" lon="5.72349">
        <ele>683</ele>
        <time>2025-05-03T13:18:15.228Z</time>
      </trkpt>
      <trkpt lat="45.6297" lon="5.72348">
        <ele>683</ele>
        <time>2025-05-03T13:18:19.239Z</time>
      </trkpt>
      <trkpt lat="45.62962" lon="5.72346">
        <ele>687</ele>
        <time>2025-05-03T13:18:24.234Z</time>
      </trkpt>
      <trkpt lat="45.62956" lon="5.72347">
        <ele>686</ele>
        <time>2025-05-03T13:18:28.631Z</time>
      </trkpt>
      <trkpt lat="45.6295" lon="5.72345">
        <ele>690</ele>
        <time>2025-05-03T13:18:32.849Z</time>
      </trkpt>
      <trkpt lat="45.62944" lon="5.72343">
        <ele>690</ele>
        <time>2025-05-03T13:18:36.970Z</time>
      </trkpt>
      <trkpt lat="45.62937" lon="5.7234">
        <ele>690</ele>
        <time>2025-05-03T13:18:41.428Z</time>
      </trkpt>
      <trkpt lat="45.6293" lon="5.72338">
        <ele>694</ele>
        <time>2025-05-03T13:18:45.851Z</time>
      </trkpt>
      <trkpt lat="45.62924" lon="5.72338">
        <ele>694</ele>
        <time>2025-05-03T13:18:50.411Z</time>
      </trkpt>
      <trkpt lat="45.62917" lon="5.72338">
        <ele>694</ele>
        <time>2025-05-03T13:18:54.707Z</time>
      </trkpt>
      <trkpt lat="45.62911" lon="5.72338">
        <ele>694</ele>
        <time>2025-05-03T13:18:59.239Z</time>
      </trkpt>
      <trkpt lat="45.62904" lon="5.72339">
        <ele>694</ele>
        <time>2025-05-03T13:19:03.233Z</time>
      </trkpt>
      <trkpt lat="45.62898" lon="5.72342">
        <ele>697</ele>
        <time>2025-05-03T13:19:07.537Z</time>
      </trkpt>
      <trkpt lat="45.62894" lon="5.72347">
        <ele>697</ele>
        <time>2025-05-03T13:19:12.096Z</time>
      </trkpt>
      <trkpt lat="45.6289" lon="5.72352">
        <ele>695</ele>
        <time>2025-05-03T13:19:16.215Z</time>
      </trkpt>
      <trkpt lat="45.62886" lon="5.72357">
        <ele>695</ele>
        <time>2025-05-03T13:19:20.536Z</time>
      </trkpt>
      <trkpt lat="45.62881" lon="5.72362">
        <ele>695</ele>
        <time>2025-05-03T13:19:24.734Z</time>
      </trkpt>
      <trkpt lat="45.62877" lon="5.72364">
        <ele>695</ele>
        <time>2025-05-03T13:19:29.238Z</time>
      </trkpt>
      <trkpt lat="45.62872" lon="5.72366">
        <ele>696</ele>
        <time>2025-05-03T13:19:33.475Z</time>
      </trkpt>
      <trkpt lat="45.62869" lon="5.7237">
        <ele>696</ele>
        <time>2025-05-03T13:19:38.241Z</time>
      </trkpt>
      <trkpt lat="45.62865" lon="5.72377">
        <ele>693</ele>
        <time>2025-05-03T13:19:42.454Z</time>
      </trkpt>
      <trkpt lat="45.62861" lon="5.72384">
        <ele>693</ele>
        <time>2025-05-03T13:19:46.774Z</time>
      </trkpt>
      <trkpt lat="45.62857" lon="5.72392">
        <ele>693</ele>
        <time>2025-05-03T13:19:50.893Z</time>
      </trkpt>
      <trkpt lat="45.62851" lon="5.72402">
        <ele>693</ele>
        <time>2025-05-03T13:19:55.471Z</time>
      </trkpt>
      <trkpt lat="45.62846" lon="5.72411">
        <ele>692</ele>
        <time>2025-05-03T13:20:00.229Z</time>
      </trkpt>
      <trkpt lat="45.62841" lon="5.72418">
        <ele>692</ele>
        <time>2025-05-03T13:20:04.551Z</time>
      </trkpt>
      <trkpt lat="45.62835" lon="5.72425">
        <ele>692</ele>
        <time>2025-05-03T13:20:08.990Z</time>
      </trkpt>
      <trkpt lat="45.62831" lon="5.72429">
        <ele>692</ele>
        <time>2025-05-03T13:20:13.350Z</time>
      </trkpt>
      <trkpt lat="45.62827" lon="5.72433">
        <ele>688</ele>
        <time>2025-05-03T13:20:18.131Z</time>
      </trkpt>
      <trkpt lat="45.62825" lon="5.72434">
        <ele>688</ele>
        <time>2025-05-03T13:20:22.233Z</time>
      </trkpt>
      <trkpt lat="45.62825" lon="5.72435">
        <ele>688</ele>
        <time>2025-05-03T13:20:26.653Z</time>
      </trkpt>
      <trkpt lat="45.62824" lon="5.72435">
        <ele>688</ele>
        <time>2025-05-03T13:20:31.233Z</time>
      </trkpt>
      <trkpt lat="45.62823" lon="5.72436">
        <ele>688</ele>
        <time>2025-05-03T13:20:35.238Z</time>
      </trkpt>
      <trkpt lat="45.62819" lon="5.72445">
        <ele>689</ele>
        <time>2025-05-03T13:20:39.529Z</time>
      </trkpt>
      <trkpt lat="45.62811" lon="5.7245">
        <ele>689</ele>
        <time>2025-05-03T13:20:43.751Z</time>
      </trkpt>
      <trkpt lat="45.62802" lon="5.72453">
        <ele>689</ele>
        <time>2025-05-03T13:20:48.190Z</time>
      </trkpt>
      <trkpt lat="45.62793" lon="5.72456">
        <ele>689</ele>
        <time>2025-05-03T13:20:52.430Z</time>
      </trkpt>
      <trkpt lat="45.62785" lon="5.7246">
        <ele>684</ele>
        <time>2025-05-03T13:20:56.736Z</time>
      </trkpt>
      <trkpt lat="45.62777" lon="5.72465">
        <ele>684</ele>
        <time>2025-05-03T13:21:00.850Z</time>
      </trkpt>
      <trkpt lat="45.6277" lon="5.7247">
        <ele>684</ele>
        <time>2025-05-03T13:21:05.091Z</time>
      </trkpt>
      <trkpt lat="45.62764" lon="5.72472">
        <ele>685</ele>
        <time>2025-05-03T13:21:09.231Z</time>
      </trkpt>
      <trkpt lat="45.62758" lon="5.72474">
        <ele>685</ele>
        <time>2025-05-03T13:21:13.489Z</time>
      </trkpt>
      <trkpt lat="45.62752" lon="5.72476">
        <ele>685</ele>
        <time>2025-05-03T13:21:17.547Z</time>
      </trkpt>
      <trkpt lat="45.62745" lon="5.72478">
        <ele>685</ele>
        <time>2025-05-03T13:21:21.768Z</time>
      </trkpt>
      <trkpt lat="45.62739" lon="5.7248">
        <ele>685</ele>
        <time>2025-05-03T13:21:25.810Z</time>
      </trkpt>
      <trkpt lat="45.62733" lon="5.72484">
        <ele>689</ele>
        <time>2025-05-03T13:21:30.228Z</time>
      </trkpt>
      <trkpt lat="45.62728" lon="5.72488">
        <ele>684</ele>
        <time>2025-05-03T13:21:34.748Z</time>
      </trkpt>
      <trkpt lat="45.62723" lon="5.72491">
        <ele>684</ele>
        <time>2025-05-03T13:21:39.048Z</time>
      </trkpt>
      <trkpt lat="45.62718" lon="5.72493">
        <ele>684</ele>
        <time>2025-05-03T13:21:43.227Z</time>
      </trkpt>
      <trkpt lat="45.62712" lon="5.72498">
        <ele>684</ele>
        <time>2025-05-03T13:21:48.216Z</time>
      </trkpt>
      <trkpt lat="45.62704" lon="5.72504">
        <ele>688</ele>
        <time>2025-05-03T13:22:45.189Z</time>
      </trkpt>
      <trkpt lat="45.62704" lon="5.72504">
        <ele>688</ele>
        <time>2025-05-03T13:22:50.178Z</time>
      </trkpt>
      <trkpt lat="45.62703" lon="5.72504">
        <ele>688</ele>
        <time>2025-05-03T13:22:54.655Z</time>
      </trkpt>
      <trkpt lat="45.62699" lon="5.72507">
        <ele>688</ele>
        <time>2025-05-03T13:22:59.173Z</time>
      </trkpt>
      <trkpt lat="45.62696" lon="5.72513">
        <ele>688</ele>
        <time>2025-05-03T13:23:03.231Z</time>
      </trkpt>
      <trkpt lat="45.62692" lon="5.72518">
        <ele>682</ele>
        <time>2025-05-03T13:23:07.610Z</time>
      </trkpt>
      <trkpt lat="45.62691" lon="5.72521">
        <ele>682</ele>
        <time>2025-05-03T13:23:12.093Z</time>
      </trkpt>
      <trkpt lat="45.62688" lon="5.72524">
        <ele>682</ele>
        <time>2025-05-03T13:23:17.224Z</time>
      </trkpt>
      <trkpt lat="45.6268" lon="5.72529">
        <ele>685</ele>
        <time>2025-05-03T13:23:21.888Z</time>
      </trkpt>
      <trkpt lat="45.62674" lon="5.72533">
        <ele>685</ele>
        <time>2025-05-03T13:23:26.227Z</time>
      </trkpt>
      <trkpt lat="45.6267" lon="5.72536">
        <ele>685</ele>
        <time>2025-05-03T13:23:30.607Z</time>
      </trkpt>
      <trkpt lat="45.62665" lon="5.72539">
        <ele>685</ele>
        <time>2025-05-03T13:23:34.908Z</time>
      </trkpt>
      <trkpt lat="45.62661" lon="5.72543">
        <ele>677</ele>
        <time>2025-05-03T13:23:39.010Z</time>
      </trkpt>
      <trkpt lat="45.62655" lon="5.72546">
        <ele>677</ele>
        <time>2025-05-03T13:23:43.207Z</time>
      </trkpt>
      <trkpt lat="45.6265" lon="5.72552">
        <ele>680</ele>
        <time>2025-05-03T13:23:47.990Z</time>
      </trkpt>
      <trkpt lat="45.62649" lon="5.7256">
        <ele>680</ele>
        <time>2025-05-03T13:23:52.926Z</time>
      </trkpt>
      <trkpt lat="45.62646" lon="5.72567">
        <ele>680</ele>
        <time>2025-05-03T13:23:57.889Z</time>
      </trkpt>
      <trkpt lat="45.6264" lon="5.72571">
        <ele>673</ele>
        <time>2025-05-03T13:24:02.201Z</time>
      </trkpt>
      <trkpt lat="45.62634" lon="5.72574">
        <ele>673</ele>
        <time>2025-05-03T13:24:06.956Z</time>
      </trkpt>
      <trkpt lat="45.62628" lon="5.72577">
        <ele>673</ele>
        <time>2025-05-03T13:24:11.055Z</time>
      </trkpt>
      <trkpt lat="45.62623" lon="5.7258">
        <ele>677</ele>
        <time>2025-05-03T13:24:15.876Z</time>
      </trkpt>
      <trkpt lat="45.62619" lon="5.72585">
        <ele>677</ele>
        <time>2025-05-03T13:24:20.096Z</time>
      </trkpt>
      <trkpt lat="45.62615" lon="5.72591">
        <ele>677</ele>
        <time>2025-05-03T13:24:24.293Z</time>
      </trkpt>
      <trkpt lat="45.6261" lon="5.72596">
        <ele>677</ele>
        <time>2025-05-03T13:24:28.553Z</time>
      </trkpt>
      <trkpt lat="45.62604" lon="5.726">
        <ele>670</ele>
        <time>2025-05-03T13:24:32.774Z</time>
      </trkpt>
      <trkpt lat="45.62599" lon="5.72603">
        <ele>670</ele>
        <time>2025-05-03T13:24:36.974Z</time>
      </trkpt>
      <trkpt lat="45.62592" lon="5.72603">
        <ele>672</ele>
        <time>2025-05-03T13:24:41.055Z</time>
      </trkpt>
      <trkpt lat="45.62586" lon="5.72606">
        <ele>672</ele>
        <time>2025-05-03T13:24:45.116Z</time>
      </trkpt>
      <trkpt lat="45.62582" lon="5.72608">
        <ele>672</ele>
        <time>2025-05-03T13:24:49.212Z</time>
      </trkpt>
      <trkpt lat="45.62578" lon="5.72613">
        <ele>672</ele>
        <time>2025-05-03T13:24:53.934Z</time>
      </trkpt>
      <trkpt lat="45.62573" lon="5.72617">
        <ele>672</ele>
        <time>2025-05-03T13:24:58.351Z</time>
      </trkpt>
      <trkpt lat="45.62567" lon="5.72621">
        <ele>675</ele>
        <time>2025-05-03T13:25:03.214Z</time>
      </trkpt>
      <trkpt lat="45.62564" lon="5.72623">
        <ele>675</ele>
        <time>2025-05-03T13:25:07.238Z</time>
      </trkpt>
      <trkpt lat="45.62558" lon="5.72626">
        <ele>667</ele>
        <time>2025-05-03T13:25:11.911Z</time>
      </trkpt>
      <trkpt lat="45.62552" lon="5.72629">
        <ele>667</ele>
        <time>2025-05-03T13:25:16.037Z</time>
      </trkpt>
      <trkpt lat="45.62549" lon="5.7263">
        <ele>667</ele>
        <time>2025-05-03T13:25:20.219Z</time>
      </trkpt>
      <trkpt lat="45.62544" lon="5.72634">
        <ele>667</ele>
        <time>2025-05-03T13:25:24.610Z</time>
      </trkpt>
      <trkpt lat="45.62545" lon="5.72638">
        <ele>667</ele>
        <time>2025-05-03T13:25:29.230Z</time>
      </trkpt>
      <trkpt lat="45.6255" lon="5.72636">
        <ele>667</ele>
        <time>2025-05-03T13:25:33.551Z</time>
      </trkpt>
      <trkpt lat="45.62555" lon="5.72633">
        <ele>667</ele>
        <time>2025-05-03T13:25:37.771Z</time>
      </trkpt>
      <trkpt lat="45.62561" lon="5.7263">
        <ele>667</ele>
        <time>2025-05-03T13:25:42.071Z</time>
      </trkpt>
      <trkpt lat="45.62566" lon="5.72629">
        <ele>667</ele>
        <time>2025-05-03T13:25:46.210Z</time>
      </trkpt>
      <trkpt lat="45.62572" lon="5.7263">
        <ele>665</ele>
        <time>2025-05-03T13:25:51.228Z</time>
      </trkpt>
      <trkpt lat="45.62575" lon="5.72629">
        <ele>665</ele>
        <time>2025-05-03T13:25:55.610Z</time>
      </trkpt>
      <trkpt lat="45.6258" lon="5.72626">
        <ele>665</ele>
        <time>2025-05-03T13:25:59.752Z</time>
      </trkpt>
      <trkpt lat="45.62585" lon="5.72625">
        <ele>665</ele>
        <time>2025-05-03T13:26:03.809Z</time>
      </trkpt>
      <trkpt lat="45.62591" lon="5.72625">
        <ele>672</ele>
        <time>2025-05-03T13:26:08.231Z</time>
      </trkpt>
      <trkpt lat="45.62597" lon="5.72622">
        <ele>672</ele>
        <time>2025-05-03T13:26:12.609Z</time>
      </trkpt>
      <trkpt lat="45.62603" lon="5.72619">
        <ele>670</ele>
        <time>2025-05-03T13:26:17.050Z</time>
      </trkpt>
      <trkpt lat="45.62608" lon="5.72617">
        <ele>670</ele>
        <time>2025-05-03T13:26:21.072Z</time>
      </trkpt>
      <trkpt lat="45.62615" lon="5.72615">
        <ele>670</ele>
        <time>2025-05-03T13:26:25.528Z</time>
      </trkpt>
      <trkpt lat="45.6262" lon="5.72615">
        <ele>670</ele>
        <time>2025-05-03T13:26:29.711Z</time>
      </trkpt>
      <trkpt lat="45.62626" lon="5.72618">
        <ele>668</ele>
        <time>2025-05-03T13:26:33.770Z</time>
      </trkpt>
      <trkpt lat="45.62633" lon="5.72615">
        <ele>668</ele>
        <time>2025-05-03T13:26:37.790Z</time>
      </trkpt>
      <trkpt lat="45.62638" lon="5.72611">
        <ele>668</ele>
        <time>2025-05-03T13:26:42.208Z</time>
      </trkpt>
      <trkpt lat="45.62644" lon="5.72612">
        <ele>668</ele>
        <time>2025-05-03T13:26:46.224Z</time>
      </trkpt>
      <trkpt lat="45.6265" lon="5.7261">
        <ele>668</ele>
        <time>2025-05-03T13:26:50.223Z</time>
      </trkpt>
      <trkpt lat="45.6266" lon="5.72616">
        <ele>664</ele>
        <time>2025-05-03T13:27:05.220Z</time>
      </trkpt>
      <trkpt lat="45.62661" lon="5.72616">
        <ele>664</ele>
        <time>2025-05-03T13:27:09.348Z</time>
      </trkpt>
      <trkpt lat="45.62659" lon="5.72621">
        <ele>664</ele>
        <time>2025-05-03T13:27:13.969Z</time>
      </trkpt>
      <trkpt lat="45.62659" lon="5.72624">
        <ele>664</ele>
        <time>2025-05-03T13:27:18.222Z</time>
      </trkpt>
      <trkpt lat="45.62658" lon="5.72626">
        <ele>659</ele>
        <time>2025-05-03T13:27:22.506Z</time>
      </trkpt>
      <trkpt lat="45.62653" lon="5.7263">
        <ele>659</ele>
        <time>2025-05-03T13:27:26.646Z</time>
      </trkpt>
      <trkpt lat="45.62649" lon="5.72638">
        <ele>662</ele>
        <time>2025-05-03T13:27:30.847Z</time>
      </trkpt>
      <trkpt lat="45.62644" lon="5.72644">
        <ele>662</ele>
        <time>2025-05-03T13:27:34.917Z</time>
      </trkpt>
      <trkpt lat="45.6264" lon="5.72648">
        <ele>662</ele>
        <time>2025-05-03T13:27:39.038Z</time>
      </trkpt>
      <trkpt lat="45.62637" lon="5.72645">
        <ele>662</ele>
        <time>2025-05-03T13:30:56.179Z</time>
      </trkpt>
      <trkpt lat="45.62637" lon="5.72645">
        <ele>662</ele>
        <time>2025-05-03T13:31:02.179Z</time>
      </trkpt>
      <trkpt lat="45.62637" lon="5.72645">
        <ele>662</ele>
        <time>2025-05-03T13:31:10.187Z</time>
      </trkpt>
      <trkpt lat="45.62637" lon="5.72643">
        <ele>662</ele>
        <time>2025-05-03T13:31:15.171Z</time>
      </trkpt>
      <trkpt lat="45.62638" lon="5.72639">
        <ele>662</ele>
        <time>2025-05-03T13:31:19.182Z</time>
      </trkpt>
    </trkseg>
  </trk>
</gpx>